<?xml version="1.0" encoding="UTF-8" standalone="no" ?>
<gpx xmlns="http://www.topografix.com/GPX/1/1" xmlns:xsi="http://www.w3.org/2001/XMLSchema-instance" xsi:schemaLocation="http://www.topografix.com/GPX/1/1 http://www.topografix.com/GPX/1/1/gpx.xsd" version="1.1" creator="VisuGPX - https://www.visugpx.com">
  <metadata>
    <name>rando avec mag</name>
    <desc><![CDATA[parcours agréable]]></desc>
  </metadata>
  <trk>
    <name><![CDATA[2011-06-23 16:45]]></name>
    <desc><![CDATA[]]></desc>
    <trkseg>
      <trkpt lat="45.2728" lon="1.41015">
        <ele>100</ele>
        <time>2011-06-23T14:45:38Z</time>
      </trkpt>
      <trkpt lat="45.2728" lon="1.41015">
        <ele>100</ele>
        <time>2011-06-23T14:45:38Z</time>
      </trkpt>
      <trkpt lat="45.2728" lon="1.41015">
        <ele>100</ele>
        <time>2011-06-23T14:45:39Z</time>
      </trkpt>
      <trkpt lat="45.27277" lon="1.41002">
        <ele>110</ele>
        <time>2011-06-23T14:45:40Z</time>
      </trkpt>
      <trkpt lat="45.27277" lon="1.41002">
        <ele>110</ele>
        <time>2011-06-23T14:45:40Z</time>
      </trkpt>
      <trkpt lat="45.27277" lon="1.41002">
        <ele>110</ele>
        <time>2011-06-23T14:45:48Z</time>
      </trkpt>
      <trkpt lat="45.2728" lon="1.4101">
        <ele>164</ele>
        <time>2011-06-23T14:45:54Z</time>
      </trkpt>
      <trkpt lat="45.27283" lon="1.41017">
        <ele>171</ele>
        <time>2011-06-23T14:45:56Z</time>
      </trkpt>
      <trkpt lat="45.27278" lon="1.41023">
        <ele>183</ele>
        <time>2011-06-23T14:46:03Z</time>
      </trkpt>
      <trkpt lat="45.27284" lon="1.41028">
        <ele>185</ele>
        <time>2011-06-23T14:46:08Z</time>
      </trkpt>
      <trkpt lat="45.27288" lon="1.41025">
        <ele>185</ele>
        <time>2011-06-23T14:46:10Z</time>
      </trkpt>
      <trkpt lat="45.27292" lon="1.41019">
        <ele>179</ele>
        <time>2011-06-23T14:46:12Z</time>
      </trkpt>
      <trkpt lat="45.27295" lon="1.41012">
        <ele>176</ele>
        <time>2011-06-23T14:46:14Z</time>
      </trkpt>
      <trkpt lat="45.27299" lon="1.41004">
        <ele>178</ele>
        <time>2011-06-23T14:46:16Z</time>
      </trkpt>
      <trkpt lat="45.27301" lon="1.40995">
        <ele>179</ele>
        <time>2011-06-23T14:46:18Z</time>
      </trkpt>
      <trkpt lat="45.27303" lon="1.40986">
        <ele>179</ele>
        <time>2011-06-23T14:46:20Z</time>
      </trkpt>
      <trkpt lat="45.27305" lon="1.40977">
        <ele>178</ele>
        <time>2011-06-23T14:46:22Z</time>
      </trkpt>
      <trkpt lat="45.27308" lon="1.40969">
        <ele>179</ele>
        <time>2011-06-23T14:46:24Z</time>
      </trkpt>
      <trkpt lat="45.27311" lon="1.4096">
        <ele>179</ele>
        <time>2011-06-23T14:46:26Z</time>
      </trkpt>
      <trkpt lat="45.27313" lon="1.40951">
        <ele>179</ele>
        <time>2011-06-23T14:46:28Z</time>
      </trkpt>
      <trkpt lat="45.27316" lon="1.40942">
        <ele>179</ele>
        <time>2011-06-23T14:46:30Z</time>
      </trkpt>
      <trkpt lat="45.27317" lon="1.40932">
        <ele>180</ele>
        <time>2011-06-23T14:46:32Z</time>
      </trkpt>
      <trkpt lat="45.27319" lon="1.40924">
        <ele>180</ele>
        <time>2011-06-23T14:46:34Z</time>
      </trkpt>
      <trkpt lat="45.27321" lon="1.40914">
        <ele>181</ele>
        <time>2011-06-23T14:46:36Z</time>
      </trkpt>
      <trkpt lat="45.27323" lon="1.40904">
        <ele>181</ele>
        <time>2011-06-23T14:46:38Z</time>
      </trkpt>
      <trkpt lat="45.27325" lon="1.40895">
        <ele>182</ele>
        <time>2011-06-23T14:46:40Z</time>
      </trkpt>
      <trkpt lat="45.27327" lon="1.40886">
        <ele>182</ele>
        <time>2011-06-23T14:46:42Z</time>
      </trkpt>
      <trkpt lat="45.2733" lon="1.40876">
        <ele>182</ele>
        <time>2011-06-23T14:46:44Z</time>
      </trkpt>
      <trkpt lat="45.27332" lon="1.40867">
        <ele>183</ele>
        <time>2011-06-23T14:46:46Z</time>
      </trkpt>
      <trkpt lat="45.27336" lon="1.40858">
        <ele>183</ele>
        <time>2011-06-23T14:46:48Z</time>
      </trkpt>
      <trkpt lat="45.27338" lon="1.40849">
        <ele>182</ele>
        <time>2011-06-23T14:46:50Z</time>
      </trkpt>
      <trkpt lat="45.27342" lon="1.40841">
        <ele>182</ele>
        <time>2011-06-23T14:46:52Z</time>
      </trkpt>
      <trkpt lat="45.27345" lon="1.40833">
        <ele>183</ele>
        <time>2011-06-23T14:46:54Z</time>
      </trkpt>
      <trkpt lat="45.27348" lon="1.40825">
        <ele>185</ele>
        <time>2011-06-23T14:46:56Z</time>
      </trkpt>
      <trkpt lat="45.2735" lon="1.40817">
        <ele>185</ele>
        <time>2011-06-23T14:46:58Z</time>
      </trkpt>
      <trkpt lat="45.27353" lon="1.4081">
        <ele>188</ele>
        <time>2011-06-23T14:47:00Z</time>
      </trkpt>
      <trkpt lat="45.27355" lon="1.40802">
        <ele>189</ele>
        <time>2011-06-23T14:47:02Z</time>
      </trkpt>
      <trkpt lat="45.27358" lon="1.40796">
        <ele>190</ele>
        <time>2011-06-23T14:47:05Z</time>
      </trkpt>
      <trkpt lat="45.27362" lon="1.40789">
        <ele>191</ele>
        <time>2011-06-23T14:47:08Z</time>
      </trkpt>
      <trkpt lat="45.27365" lon="1.40784">
        <ele>190</ele>
        <time>2011-06-23T14:47:10Z</time>
      </trkpt>
      <trkpt lat="45.27368" lon="1.40775">
        <ele>190</ele>
        <time>2011-06-23T14:47:13Z</time>
      </trkpt>
      <trkpt lat="45.2737" lon="1.40769">
        <ele>189</ele>
        <time>2011-06-23T14:47:16Z</time>
      </trkpt>
      <trkpt lat="45.27373" lon="1.40762">
        <ele>188</ele>
        <time>2011-06-23T14:47:20Z</time>
      </trkpt>
      <trkpt lat="45.27377" lon="1.40758">
        <ele>190</ele>
        <time>2011-06-23T14:47:24Z</time>
      </trkpt>
      <trkpt lat="45.27383" lon="1.40757">
        <ele>190</ele>
        <time>2011-06-23T14:47:27Z</time>
      </trkpt>
      <trkpt lat="45.27388" lon="1.40758">
        <ele>190</ele>
        <time>2011-06-23T14:47:29Z</time>
      </trkpt>
      <trkpt lat="45.27393" lon="1.40761">
        <ele>189</ele>
        <time>2011-06-23T14:47:31Z</time>
      </trkpt>
      <trkpt lat="45.27398" lon="1.40764">
        <ele>191</ele>
        <time>2011-06-23T14:47:33Z</time>
      </trkpt>
      <trkpt lat="45.27403" lon="1.40766">
        <ele>191</ele>
        <time>2011-06-23T14:47:35Z</time>
      </trkpt>
      <trkpt lat="45.27407" lon="1.40768">
        <ele>191</ele>
        <time>2011-06-23T14:47:37Z</time>
      </trkpt>
      <trkpt lat="45.27414" lon="1.4077">
        <ele>192</ele>
        <time>2011-06-23T14:47:40Z</time>
      </trkpt>
      <trkpt lat="45.27418" lon="1.40773">
        <ele>193</ele>
        <time>2011-06-23T14:47:42Z</time>
      </trkpt>
      <trkpt lat="45.27424" lon="1.40775">
        <ele>194</ele>
        <time>2011-06-23T14:47:44Z</time>
      </trkpt>
      <trkpt lat="45.2743" lon="1.40777">
        <ele>193</ele>
        <time>2011-06-23T14:47:46Z</time>
      </trkpt>
      <trkpt lat="45.27435" lon="1.40779">
        <ele>195</ele>
        <time>2011-06-23T14:47:48Z</time>
      </trkpt>
      <trkpt lat="45.27442" lon="1.40783">
        <ele>193</ele>
        <time>2011-06-23T14:47:50Z</time>
      </trkpt>
      <trkpt lat="45.27448" lon="1.40786">
        <ele>192</ele>
        <time>2011-06-23T14:47:52Z</time>
      </trkpt>
      <trkpt lat="45.27454" lon="1.4079">
        <ele>190</ele>
        <time>2011-06-23T14:47:54Z</time>
      </trkpt>
      <trkpt lat="45.2746" lon="1.40792">
        <ele>191</ele>
        <time>2011-06-23T14:47:56Z</time>
      </trkpt>
      <trkpt lat="45.27466" lon="1.40795">
        <ele>191</ele>
        <time>2011-06-23T14:47:58Z</time>
      </trkpt>
      <trkpt lat="45.27472" lon="1.40799">
        <ele>189</ele>
        <time>2011-06-23T14:48:00Z</time>
      </trkpt>
      <trkpt lat="45.27479" lon="1.40803">
        <ele>189</ele>
        <time>2011-06-23T14:48:02Z</time>
      </trkpt>
      <trkpt lat="45.27486" lon="1.40804">
        <ele>186</ele>
        <time>2011-06-23T14:48:04Z</time>
      </trkpt>
      <trkpt lat="45.27491" lon="1.40804">
        <ele>187</ele>
        <time>2011-06-23T14:48:06Z</time>
      </trkpt>
      <trkpt lat="45.27496" lon="1.40797">
        <ele>190</ele>
        <time>2011-06-23T14:48:09Z</time>
      </trkpt>
      <trkpt lat="45.275" lon="1.4079">
        <ele>192</ele>
        <time>2011-06-23T14:48:12Z</time>
      </trkpt>
      <trkpt lat="45.27502" lon="1.40784">
        <ele>193</ele>
        <time>2011-06-23T14:48:15Z</time>
      </trkpt>
      <trkpt lat="45.27503" lon="1.40778">
        <ele>195</ele>
        <time>2011-06-23T14:48:18Z</time>
      </trkpt>
      <trkpt lat="45.27505" lon="1.4077">
        <ele>193</ele>
        <time>2011-06-23T14:48:22Z</time>
      </trkpt>
      <trkpt lat="45.27507" lon="1.40764">
        <ele>193</ele>
        <time>2011-06-23T14:48:26Z</time>
      </trkpt>
      <trkpt lat="45.2751" lon="1.40758">
        <ele>193</ele>
        <time>2011-06-23T14:48:29Z</time>
      </trkpt>
      <trkpt lat="45.27515" lon="1.40756">
        <ele>192</ele>
        <time>2011-06-23T14:48:33Z</time>
      </trkpt>
      <trkpt lat="45.2752" lon="1.40757">
        <ele>193</ele>
        <time>2011-06-23T14:48:36Z</time>
      </trkpt>
      <trkpt lat="45.27526" lon="1.40759">
        <ele>197</ele>
        <time>2011-06-23T14:48:39Z</time>
      </trkpt>
      <trkpt lat="45.27531" lon="1.40761">
        <ele>195</ele>
        <time>2011-06-23T14:48:42Z</time>
      </trkpt>
      <trkpt lat="45.27536" lon="1.40762">
        <ele>195</ele>
        <time>2011-06-23T14:48:45Z</time>
      </trkpt>
      <trkpt lat="45.27541" lon="1.40765">
        <ele>195</ele>
        <time>2011-06-23T14:48:49Z</time>
      </trkpt>
      <trkpt lat="45.27546" lon="1.40766">
        <ele>195</ele>
        <time>2011-06-23T14:48:53Z</time>
      </trkpt>
      <trkpt lat="45.27552" lon="1.40766">
        <ele>197</ele>
        <time>2011-06-23T14:48:57Z</time>
      </trkpt>
      <trkpt lat="45.27557" lon="1.40766">
        <ele>196</ele>
        <time>2011-06-23T14:49:00Z</time>
      </trkpt>
      <trkpt lat="45.27562" lon="1.40768">
        <ele>196</ele>
        <time>2011-06-23T14:49:03Z</time>
      </trkpt>
      <trkpt lat="45.27567" lon="1.40769">
        <ele>196</ele>
        <time>2011-06-23T14:49:07Z</time>
      </trkpt>
      <trkpt lat="45.27572" lon="1.40771">
        <ele>198</ele>
        <time>2011-06-23T14:49:10Z</time>
      </trkpt>
      <trkpt lat="45.27577" lon="1.40772">
        <ele>194</ele>
        <time>2011-06-23T14:49:14Z</time>
      </trkpt>
      <trkpt lat="45.27582" lon="1.40773">
        <ele>197</ele>
        <time>2011-06-23T14:49:18Z</time>
      </trkpt>
      <trkpt lat="45.27586" lon="1.40774">
        <ele>200</ele>
        <time>2011-06-23T14:49:21Z</time>
      </trkpt>
      <trkpt lat="45.27592" lon="1.40774">
        <ele>201</ele>
        <time>2011-06-23T14:49:24Z</time>
      </trkpt>
      <trkpt lat="45.27598" lon="1.40774">
        <ele>206</ele>
        <time>2011-06-23T14:49:27Z</time>
      </trkpt>
      <trkpt lat="45.27604" lon="1.40776">
        <ele>207</ele>
        <time>2011-06-23T14:49:30Z</time>
      </trkpt>
      <trkpt lat="45.27608" lon="1.40776">
        <ele>209</ele>
        <time>2011-06-23T14:49:33Z</time>
      </trkpt>
      <trkpt lat="45.27613" lon="1.40778">
        <ele>209</ele>
        <time>2011-06-23T14:49:36Z</time>
      </trkpt>
      <trkpt lat="45.27618" lon="1.40779">
        <ele>209</ele>
        <time>2011-06-23T14:49:40Z</time>
      </trkpt>
      <trkpt lat="45.27622" lon="1.40775">
        <ele>208</ele>
        <time>2011-06-23T14:49:56Z</time>
      </trkpt>
      <trkpt lat="45.27626" lon="1.40779">
        <ele>208</ele>
        <time>2011-06-23T14:50:02Z</time>
      </trkpt>
      <trkpt lat="45.27632" lon="1.4078">
        <ele>204</ele>
        <time>2011-06-23T14:50:11Z</time>
      </trkpt>
      <trkpt lat="45.27637" lon="1.40779">
        <ele>204</ele>
        <time>2011-06-23T14:50:14Z</time>
      </trkpt>
      <trkpt lat="45.27643" lon="1.40777">
        <ele>204</ele>
        <time>2011-06-23T14:50:17Z</time>
      </trkpt>
      <trkpt lat="45.27648" lon="1.40776">
        <ele>205</ele>
        <time>2011-06-23T14:50:20Z</time>
      </trkpt>
      <trkpt lat="45.27654" lon="1.40774">
        <ele>207</ele>
        <time>2011-06-23T14:50:23Z</time>
      </trkpt>
      <trkpt lat="45.2766" lon="1.40772">
        <ele>207</ele>
        <time>2011-06-23T14:50:26Z</time>
      </trkpt>
      <trkpt lat="45.27667" lon="1.40772">
        <ele>208</ele>
        <time>2011-06-23T14:50:29Z</time>
      </trkpt>
      <trkpt lat="45.27672" lon="1.4077">
        <ele>210</ele>
        <time>2011-06-23T14:50:32Z</time>
      </trkpt>
      <trkpt lat="45.27677" lon="1.40769">
        <ele>210</ele>
        <time>2011-06-23T14:50:36Z</time>
      </trkpt>
      <trkpt lat="45.27682" lon="1.40768">
        <ele>210</ele>
        <time>2011-06-23T14:50:41Z</time>
      </trkpt>
      <trkpt lat="45.27687" lon="1.40766">
        <ele>212</ele>
        <time>2011-06-23T14:50:44Z</time>
      </trkpt>
      <trkpt lat="45.27693" lon="1.40765">
        <ele>212</ele>
        <time>2011-06-23T14:50:47Z</time>
      </trkpt>
      <trkpt lat="45.27698" lon="1.40764">
        <ele>213</ele>
        <time>2011-06-23T14:50:49Z</time>
      </trkpt>
      <trkpt lat="45.27702" lon="1.40762">
        <ele>213</ele>
        <time>2011-06-23T14:50:51Z</time>
      </trkpt>
      <trkpt lat="45.27708" lon="1.4076">
        <ele>212</ele>
        <time>2011-06-23T14:50:54Z</time>
      </trkpt>
      <trkpt lat="45.27715" lon="1.40758">
        <ele>212</ele>
        <time>2011-06-23T14:50:57Z</time>
      </trkpt>
      <trkpt lat="45.27723" lon="1.40757">
        <ele>212</ele>
        <time>2011-06-23T14:50:59Z</time>
      </trkpt>
      <trkpt lat="45.27727" lon="1.40756">
        <ele>212</ele>
        <time>2011-06-23T14:51:00Z</time>
      </trkpt>
      <trkpt lat="45.27736" lon="1.40755">
        <ele>211</ele>
        <time>2011-06-23T14:51:02Z</time>
      </trkpt>
      <trkpt lat="45.2774" lon="1.40754">
        <ele>210</ele>
        <time>2011-06-23T14:51:03Z</time>
      </trkpt>
      <trkpt lat="45.27746" lon="1.40752">
        <ele>206</ele>
        <time>2011-06-23T14:51:04Z</time>
      </trkpt>
      <trkpt lat="45.27754" lon="1.40747">
        <ele>207</ele>
        <time>2011-06-23T14:51:05Z</time>
      </trkpt>
      <trkpt lat="45.27762" lon="1.40741">
        <ele>207</ele>
        <time>2011-06-23T14:51:06Z</time>
      </trkpt>
      <trkpt lat="45.2777" lon="1.40735">
        <ele>207</ele>
        <time>2011-06-23T14:51:07Z</time>
      </trkpt>
      <trkpt lat="45.27778" lon="1.40729">
        <ele>207</ele>
        <time>2011-06-23T14:51:08Z</time>
      </trkpt>
      <trkpt lat="45.27785" lon="1.40724">
        <ele>206</ele>
        <time>2011-06-23T14:51:09Z</time>
      </trkpt>
      <trkpt lat="45.27792" lon="1.40718">
        <ele>205</ele>
        <time>2011-06-23T14:51:10Z</time>
      </trkpt>
      <trkpt lat="45.27798" lon="1.40713">
        <ele>205</ele>
        <time>2011-06-23T14:51:11Z</time>
      </trkpt>
      <trkpt lat="45.27803" lon="1.40709">
        <ele>206</ele>
        <time>2011-06-23T14:51:12Z</time>
      </trkpt>
      <trkpt lat="45.27807" lon="1.40705">
        <ele>209</ele>
        <time>2011-06-23T14:51:13Z</time>
      </trkpt>
      <trkpt lat="45.2781" lon="1.40702">
        <ele>208</ele>
        <time>2011-06-23T14:51:15Z</time>
      </trkpt>
      <trkpt lat="45.27813" lon="1.40696">
        <ele>210</ele>
        <time>2011-06-23T14:51:28Z</time>
      </trkpt>
      <trkpt lat="45.27813" lon="1.40696">
        <ele>210</ele>
        <time>2011-06-23T14:51:28Z</time>
      </trkpt>
      <trkpt lat="45.27813" lon="1.40696">
        <ele>210</ele>
        <time>2011-06-23T14:51:29Z</time>
      </trkpt>
      <trkpt lat="45.27812" lon="1.40701">
        <ele>206</ele>
        <time>2011-06-23T14:51:34Z</time>
      </trkpt>
      <trkpt lat="45.27816" lon="1.40696">
        <ele>206</ele>
        <time>2011-06-23T14:51:37Z</time>
      </trkpt>
      <trkpt lat="45.27816" lon="1.40696">
        <ele>206</ele>
        <time>2011-06-23T14:51:37Z</time>
      </trkpt>
      <trkpt lat="45.27816" lon="1.40696">
        <ele>206</ele>
        <time>2011-06-23T14:51:40Z</time>
      </trkpt>
      <trkpt lat="45.27822" lon="1.40687">
        <ele>205</ele>
        <time>2011-06-23T14:51:41Z</time>
      </trkpt>
      <trkpt lat="45.27827" lon="1.40681">
        <ele>206</ele>
        <time>2011-06-23T14:51:43Z</time>
      </trkpt>
      <trkpt lat="45.27831" lon="1.40676">
        <ele>204</ele>
        <time>2011-06-23T14:51:45Z</time>
      </trkpt>
      <trkpt lat="45.27835" lon="1.40671">
        <ele>201</ele>
        <time>2011-06-23T14:51:48Z</time>
      </trkpt>
      <trkpt lat="45.27839" lon="1.40666">
        <ele>200</ele>
        <time>2011-06-23T14:51:51Z</time>
      </trkpt>
      <trkpt lat="45.27844" lon="1.4066">
        <ele>197</ele>
        <time>2011-06-23T14:51:54Z</time>
      </trkpt>
      <trkpt lat="45.27844" lon="1.4066">
        <ele>197</ele>
        <time>2011-06-23T14:51:54Z</time>
      </trkpt>
      <trkpt lat="45.27844" lon="1.4066">
        <ele>197</ele>
        <time>2011-06-23T14:51:55Z</time>
      </trkpt>
      <trkpt lat="45.27847" lon="1.40655">
        <ele>194</ele>
        <time>2011-06-23T14:51:56Z</time>
      </trkpt>
      <trkpt lat="45.27851" lon="1.40649">
        <ele>193</ele>
        <time>2011-06-23T14:51:59Z</time>
      </trkpt>
      <trkpt lat="45.27854" lon="1.40644">
        <ele>198</ele>
        <time>2011-06-23T14:52:02Z</time>
      </trkpt>
      <trkpt lat="45.27857" lon="1.40637">
        <ele>199</ele>
        <time>2011-06-23T14:52:05Z</time>
      </trkpt>
      <trkpt lat="45.2786" lon="1.40632">
        <ele>205</ele>
        <time>2011-06-23T14:52:08Z</time>
      </trkpt>
      <trkpt lat="45.27863" lon="1.40627">
        <ele>207</ele>
        <time>2011-06-23T14:52:11Z</time>
      </trkpt>
      <trkpt lat="45.27866" lon="1.40619">
        <ele>211</ele>
        <time>2011-06-23T14:52:14Z</time>
      </trkpt>
      <trkpt lat="45.27868" lon="1.40607">
        <ele>211</ele>
        <time>2011-06-23T14:52:18Z</time>
      </trkpt>
      <trkpt lat="45.27869" lon="1.406">
        <ele>209</ele>
        <time>2011-06-23T14:52:21Z</time>
      </trkpt>
      <trkpt lat="45.2787" lon="1.4059">
        <ele>213</ele>
        <time>2011-06-23T14:52:24Z</time>
      </trkpt>
      <trkpt lat="45.27871" lon="1.40582">
        <ele>215</ele>
        <time>2011-06-23T14:52:27Z</time>
      </trkpt>
      <trkpt lat="45.27874" lon="1.40573">
        <ele>218</ele>
        <time>2011-06-23T14:52:32Z</time>
      </trkpt>
      <trkpt lat="45.27874" lon="1.40573">
        <ele>218</ele>
        <time>2011-06-23T14:52:32Z</time>
      </trkpt>
      <trkpt lat="45.27874" lon="1.40573">
        <ele>218</ele>
        <time>2011-06-23T14:52:33Z</time>
      </trkpt>
      <trkpt lat="45.27874" lon="1.40566">
        <ele>216</ele>
        <time>2011-06-23T14:52:35Z</time>
      </trkpt>
      <trkpt lat="45.27874" lon="1.40557">
        <ele>214</ele>
        <time>2011-06-23T14:52:38Z</time>
      </trkpt>
      <trkpt lat="45.27875" lon="1.4055">
        <ele>214</ele>
        <time>2011-06-23T14:52:41Z</time>
      </trkpt>
      <trkpt lat="45.27875" lon="1.40543">
        <ele>212</ele>
        <time>2011-06-23T14:52:44Z</time>
      </trkpt>
      <trkpt lat="45.27875" lon="1.40534">
        <ele>207</ele>
        <time>2011-06-23T14:52:47Z</time>
      </trkpt>
      <trkpt lat="45.27875" lon="1.40534">
        <ele>207</ele>
        <time>2011-06-23T14:52:47Z</time>
      </trkpt>
      <trkpt lat="45.27875" lon="1.40534">
        <ele>207</ele>
        <time>2011-06-23T14:52:48Z</time>
      </trkpt>
      <trkpt lat="45.27876" lon="1.40528">
        <ele>208</ele>
        <time>2011-06-23T14:52:50Z</time>
      </trkpt>
      <trkpt lat="45.27876" lon="1.40528">
        <ele>208</ele>
        <time>2011-06-23T14:52:50Z</time>
      </trkpt>
      <trkpt lat="45.27876" lon="1.40528">
        <ele>208</ele>
        <time>2011-06-23T14:52:51Z</time>
      </trkpt>
      <trkpt lat="45.27876" lon="1.40518">
        <ele>213</ele>
        <time>2011-06-23T14:52:53Z</time>
      </trkpt>
      <trkpt lat="45.27876" lon="1.40509">
        <ele>213</ele>
        <time>2011-06-23T14:52:56Z</time>
      </trkpt>
      <trkpt lat="45.27876" lon="1.40509">
        <ele>213</ele>
        <time>2011-06-23T14:52:56Z</time>
      </trkpt>
      <trkpt lat="45.27876" lon="1.40509">
        <ele>213</ele>
        <time>2011-06-23T14:52:57Z</time>
      </trkpt>
      <trkpt lat="45.27875" lon="1.40502">
        <ele>211</ele>
        <time>2011-06-23T14:52:59Z</time>
      </trkpt>
      <trkpt lat="45.27876" lon="1.40495">
        <ele>215</ele>
        <time>2011-06-23T14:53:02Z</time>
      </trkpt>
      <trkpt lat="45.27877" lon="1.40486">
        <ele>220</ele>
        <time>2011-06-23T14:53:06Z</time>
      </trkpt>
      <trkpt lat="45.27878" lon="1.40478">
        <ele>220</ele>
        <time>2011-06-23T14:53:09Z</time>
      </trkpt>
      <trkpt lat="45.27878" lon="1.40471">
        <ele>218</ele>
        <time>2011-06-23T14:53:12Z</time>
      </trkpt>
      <trkpt lat="45.27879" lon="1.40461">
        <ele>219</ele>
        <time>2011-06-23T14:53:16Z</time>
      </trkpt>
      <trkpt lat="45.27883" lon="1.40448">
        <ele>216</ele>
        <time>2011-06-23T14:53:23Z</time>
      </trkpt>
      <trkpt lat="45.27883" lon="1.40448">
        <ele>216</ele>
        <time>2011-06-23T14:53:23Z</time>
      </trkpt>
      <trkpt lat="45.27883" lon="1.40448">
        <ele>216</ele>
        <time>2011-06-23T14:53:25Z</time>
      </trkpt>
      <trkpt lat="45.27888" lon="1.40437">
        <ele>219</ele>
        <time>2011-06-23T14:53:31Z</time>
      </trkpt>
      <trkpt lat="45.27888" lon="1.40437">
        <ele>219</ele>
        <time>2011-06-23T14:53:31Z</time>
      </trkpt>
      <trkpt lat="45.27888" lon="1.40437">
        <ele>219</ele>
        <time>2011-06-23T14:53:33Z</time>
      </trkpt>
      <trkpt lat="45.27886" lon="1.40424">
        <ele>220</ele>
        <time>2011-06-23T14:53:34Z</time>
      </trkpt>
      <trkpt lat="45.27883" lon="1.40419">
        <ele>224</ele>
        <time>2011-06-23T14:53:36Z</time>
      </trkpt>
      <trkpt lat="45.27883" lon="1.40419">
        <ele>224</ele>
        <time>2011-06-23T14:53:36Z</time>
      </trkpt>
      <trkpt lat="45.27883" lon="1.40419">
        <ele>224</ele>
        <time>2011-06-23T14:53:39Z</time>
      </trkpt>
      <trkpt lat="45.27884" lon="1.40408">
        <ele>226</ele>
        <time>2011-06-23T14:53:51Z</time>
      </trkpt>
      <trkpt lat="45.27879" lon="1.40404">
        <ele>226</ele>
        <time>2011-06-23T14:53:54Z</time>
      </trkpt>
      <trkpt lat="45.27879" lon="1.40404">
        <ele>226</ele>
        <time>2011-06-23T14:53:54Z</time>
      </trkpt>
      <trkpt lat="45.27879" lon="1.40404">
        <ele>226</ele>
        <time>2011-06-23T14:53:57Z</time>
      </trkpt>
      <trkpt lat="45.27875" lon="1.404">
        <ele>227</ele>
        <time>2011-06-23T14:53:58Z</time>
      </trkpt>
      <trkpt lat="45.27875" lon="1.404">
        <ele>227</ele>
        <time>2011-06-23T14:53:58Z</time>
      </trkpt>
      <trkpt lat="45.27875" lon="1.404">
        <ele>227</ele>
        <time>2011-06-23T14:54:00Z</time>
      </trkpt>
      <trkpt lat="45.2787" lon="1.40394">
        <ele>227</ele>
        <time>2011-06-23T14:54:03Z</time>
      </trkpt>
      <trkpt lat="45.2787" lon="1.40394">
        <ele>227</ele>
        <time>2011-06-23T14:54:03Z</time>
      </trkpt>
      <trkpt lat="45.2787" lon="1.40394">
        <ele>227</ele>
        <time>2011-06-23T14:54:04Z</time>
      </trkpt>
      <trkpt lat="45.27866" lon="1.40388">
        <ele>226</ele>
        <time>2011-06-23T14:54:07Z</time>
      </trkpt>
      <trkpt lat="45.2786" lon="1.40386">
        <ele>228</ele>
        <time>2011-06-23T14:54:10Z</time>
      </trkpt>
      <trkpt lat="45.2786" lon="1.40386">
        <ele>228</ele>
        <time>2011-06-23T14:54:10Z</time>
      </trkpt>
      <trkpt lat="45.2786" lon="1.40386">
        <ele>228</ele>
        <time>2011-06-23T14:54:11Z</time>
      </trkpt>
      <trkpt lat="45.27855" lon="1.40381">
        <ele>228</ele>
        <time>2011-06-23T14:54:14Z</time>
      </trkpt>
      <trkpt lat="45.27849" lon="1.40376">
        <ele>229</ele>
        <time>2011-06-23T14:54:16Z</time>
      </trkpt>
      <trkpt lat="45.27844" lon="1.40372">
        <ele>230</ele>
        <time>2011-06-23T14:54:18Z</time>
      </trkpt>
      <trkpt lat="45.27844" lon="1.40372">
        <ele>230</ele>
        <time>2011-06-23T14:54:18Z</time>
      </trkpt>
      <trkpt lat="45.27844" lon="1.40372">
        <ele>230</ele>
        <time>2011-06-23T14:54:21Z</time>
      </trkpt>
      <trkpt lat="45.27839" lon="1.40366">
        <ele>231</ele>
        <time>2011-06-23T14:54:24Z</time>
      </trkpt>
      <trkpt lat="45.27836" lon="1.4036">
        <ele>232</ele>
        <time>2011-06-23T14:54:28Z</time>
      </trkpt>
      <trkpt lat="45.27831" lon="1.40354">
        <ele>231</ele>
        <time>2011-06-23T14:54:31Z</time>
      </trkpt>
      <trkpt lat="45.27819" lon="1.40348">
        <ele>231</ele>
        <time>2011-06-23T14:54:40Z</time>
      </trkpt>
      <trkpt lat="45.27819" lon="1.40348">
        <ele>231</ele>
        <time>2011-06-23T14:54:40Z</time>
      </trkpt>
      <trkpt lat="45.27819" lon="1.40348">
        <ele>231</ele>
        <time>2011-06-23T14:54:42Z</time>
      </trkpt>
      <trkpt lat="45.27814" lon="1.40345">
        <ele>231</ele>
        <time>2011-06-23T14:54:43Z</time>
      </trkpt>
      <trkpt lat="45.2781" lon="1.40342">
        <ele>231</ele>
        <time>2011-06-23T14:54:46Z</time>
      </trkpt>
      <trkpt lat="45.27806" lon="1.40338">
        <ele>227</ele>
        <time>2011-06-23T14:54:50Z</time>
      </trkpt>
      <trkpt lat="45.27806" lon="1.40338">
        <ele>227</ele>
        <time>2011-06-23T14:54:50Z</time>
      </trkpt>
      <trkpt lat="45.27806" lon="1.40338">
        <ele>227</ele>
        <time>2011-06-23T14:54:52Z</time>
      </trkpt>
      <trkpt lat="45.27801" lon="1.40336">
        <ele>229</ele>
        <time>2011-06-23T14:54:53Z</time>
      </trkpt>
      <trkpt lat="45.27797" lon="1.40333">
        <ele>234</ele>
        <time>2011-06-23T14:54:55Z</time>
      </trkpt>
      <trkpt lat="45.27786" lon="1.40329">
        <ele>235</ele>
        <time>2011-06-23T14:55:00Z</time>
      </trkpt>
      <trkpt lat="45.27778" lon="1.40328">
        <ele>234</ele>
        <time>2011-06-23T14:55:02Z</time>
      </trkpt>
      <trkpt lat="45.27774" lon="1.40323">
        <ele>233</ele>
        <time>2011-06-23T14:55:04Z</time>
      </trkpt>
      <trkpt lat="45.27772" lon="1.40315">
        <ele>236</ele>
        <time>2011-06-23T14:55:06Z</time>
      </trkpt>
      <trkpt lat="45.27774" lon="1.40308">
        <ele>238</ele>
        <time>2011-06-23T14:55:09Z</time>
      </trkpt>
      <trkpt lat="45.27779" lon="1.40304">
        <ele>237</ele>
        <time>2011-06-23T14:55:13Z</time>
      </trkpt>
      <trkpt lat="45.27786" lon="1.40302">
        <ele>236</ele>
        <time>2011-06-23T14:55:17Z</time>
      </trkpt>
      <trkpt lat="45.2779" lon="1.40303">
        <ele>236</ele>
        <time>2011-06-23T14:55:19Z</time>
      </trkpt>
      <trkpt lat="45.27796" lon="1.40303">
        <ele>234</ele>
        <time>2011-06-23T14:55:22Z</time>
      </trkpt>
      <trkpt lat="45.27802" lon="1.40302">
        <ele>235</ele>
        <time>2011-06-23T14:55:25Z</time>
      </trkpt>
      <trkpt lat="45.27807" lon="1.40302">
        <ele>234</ele>
        <time>2011-06-23T14:55:27Z</time>
      </trkpt>
      <trkpt lat="45.27812" lon="1.40302">
        <ele>230</ele>
        <time>2011-06-23T14:55:29Z</time>
      </trkpt>
      <trkpt lat="45.27818" lon="1.40303">
        <ele>232</ele>
        <time>2011-06-23T14:55:31Z</time>
      </trkpt>
      <trkpt lat="45.27822" lon="1.40305">
        <ele>233</ele>
        <time>2011-06-23T14:55:33Z</time>
      </trkpt>
      <trkpt lat="45.27826" lon="1.40306">
        <ele>233</ele>
        <time>2011-06-23T14:55:35Z</time>
      </trkpt>
      <trkpt lat="45.27831" lon="1.40306">
        <ele>232</ele>
        <time>2011-06-23T14:55:37Z</time>
      </trkpt>
      <trkpt lat="45.27836" lon="1.40307">
        <ele>232</ele>
        <time>2011-06-23T14:55:39Z</time>
      </trkpt>
      <trkpt lat="45.27842" lon="1.40308">
        <ele>230</ele>
        <time>2011-06-23T14:55:42Z</time>
      </trkpt>
      <trkpt lat="45.27848" lon="1.40308">
        <ele>230</ele>
        <time>2011-06-23T14:55:45Z</time>
      </trkpt>
      <trkpt lat="45.27854" lon="1.40308">
        <ele>230</ele>
        <time>2011-06-23T14:55:48Z</time>
      </trkpt>
      <trkpt lat="45.27858" lon="1.40308">
        <ele>229</ele>
        <time>2011-06-23T14:55:50Z</time>
      </trkpt>
      <trkpt lat="45.27865" lon="1.40308">
        <ele>229</ele>
        <time>2011-06-23T14:55:53Z</time>
      </trkpt>
      <trkpt lat="45.27871" lon="1.40309">
        <ele>230</ele>
        <time>2011-06-23T14:55:56Z</time>
      </trkpt>
      <trkpt lat="45.27876" lon="1.40309">
        <ele>232</ele>
        <time>2011-06-23T14:55:59Z</time>
      </trkpt>
      <trkpt lat="45.27882" lon="1.40309">
        <ele>231</ele>
        <time>2011-06-23T14:56:02Z</time>
      </trkpt>
      <trkpt lat="45.27889" lon="1.40309">
        <ele>229</ele>
        <time>2011-06-23T14:56:05Z</time>
      </trkpt>
      <trkpt lat="45.27894" lon="1.40309">
        <ele>225</ele>
        <time>2011-06-23T14:56:07Z</time>
      </trkpt>
      <trkpt lat="45.27899" lon="1.40309">
        <ele>224</ele>
        <time>2011-06-23T14:56:10Z</time>
      </trkpt>
      <trkpt lat="45.27905" lon="1.40308">
        <ele>224</ele>
        <time>2011-06-23T14:56:13Z</time>
      </trkpt>
      <trkpt lat="45.27911" lon="1.40307">
        <ele>227</ele>
        <time>2011-06-23T14:56:16Z</time>
      </trkpt>
      <trkpt lat="45.27917" lon="1.40305">
        <ele>227</ele>
        <time>2011-06-23T14:56:19Z</time>
      </trkpt>
      <trkpt lat="45.27922" lon="1.40304">
        <ele>226</ele>
        <time>2011-06-23T14:56:21Z</time>
      </trkpt>
      <trkpt lat="45.27928" lon="1.40303">
        <ele>226</ele>
        <time>2011-06-23T14:56:24Z</time>
      </trkpt>
      <trkpt lat="45.27934" lon="1.40302">
        <ele>228</ele>
        <time>2011-06-23T14:56:27Z</time>
      </trkpt>
      <trkpt lat="45.27939" lon="1.40299">
        <ele>230</ele>
        <time>2011-06-23T14:56:30Z</time>
      </trkpt>
      <trkpt lat="45.27944" lon="1.40296">
        <ele>232</ele>
        <time>2011-06-23T14:56:33Z</time>
      </trkpt>
      <trkpt lat="45.27949" lon="1.40295">
        <ele>233</ele>
        <time>2011-06-23T14:56:36Z</time>
      </trkpt>
      <trkpt lat="45.27954" lon="1.40293">
        <ele>235</ele>
        <time>2011-06-23T14:56:39Z</time>
      </trkpt>
      <trkpt lat="45.2796" lon="1.40291">
        <ele>235</ele>
        <time>2011-06-23T14:56:42Z</time>
      </trkpt>
      <trkpt lat="45.27966" lon="1.4029">
        <ele>231</ele>
        <time>2011-06-23T14:56:45Z</time>
      </trkpt>
      <trkpt lat="45.27971" lon="1.40289">
        <ele>233</ele>
        <time>2011-06-23T14:56:48Z</time>
      </trkpt>
      <trkpt lat="45.27975" lon="1.40287">
        <ele>237</ele>
        <time>2011-06-23T14:56:51Z</time>
      </trkpt>
      <trkpt lat="45.2798" lon="1.40284">
        <ele>238</ele>
        <time>2011-06-23T14:56:54Z</time>
      </trkpt>
      <trkpt lat="45.27985" lon="1.40284">
        <ele>244</ele>
        <time>2011-06-23T14:56:58Z</time>
      </trkpt>
      <trkpt lat="45.27992" lon="1.40284">
        <ele>246</ele>
        <time>2011-06-23T14:57:02Z</time>
      </trkpt>
      <trkpt lat="45.27997" lon="1.40286">
        <ele>242</ele>
        <time>2011-06-23T14:57:05Z</time>
      </trkpt>
      <trkpt lat="45.28002" lon="1.40288">
        <ele>244</ele>
        <time>2011-06-23T14:57:08Z</time>
      </trkpt>
      <trkpt lat="45.28006" lon="1.40291">
        <ele>245</ele>
        <time>2011-06-23T14:57:11Z</time>
      </trkpt>
      <trkpt lat="45.28012" lon="1.40294">
        <ele>243</ele>
        <time>2011-06-23T14:57:14Z</time>
      </trkpt>
      <trkpt lat="45.28016" lon="1.40296">
        <ele>241</ele>
        <time>2011-06-23T14:57:17Z</time>
      </trkpt>
      <trkpt lat="45.28021" lon="1.40297">
        <ele>242</ele>
        <time>2011-06-23T14:57:20Z</time>
      </trkpt>
      <trkpt lat="45.28026" lon="1.40299">
        <ele>244</ele>
        <time>2011-06-23T14:57:24Z</time>
      </trkpt>
      <trkpt lat="45.28032" lon="1.403">
        <ele>243</ele>
        <time>2011-06-23T14:57:29Z</time>
      </trkpt>
      <trkpt lat="45.28037" lon="1.40302">
        <ele>243</ele>
        <time>2011-06-23T14:57:33Z</time>
      </trkpt>
      <trkpt lat="45.28042" lon="1.40303">
        <ele>243</ele>
        <time>2011-06-23T14:57:37Z</time>
      </trkpt>
      <trkpt lat="45.28048" lon="1.40304">
        <ele>244</ele>
        <time>2011-06-23T14:57:41Z</time>
      </trkpt>
      <trkpt lat="45.28053" lon="1.40305">
        <ele>246</ele>
        <time>2011-06-23T14:57:45Z</time>
      </trkpt>
      <trkpt lat="45.28058" lon="1.40306">
        <ele>247</ele>
        <time>2011-06-23T14:57:50Z</time>
      </trkpt>
      <trkpt lat="45.28062" lon="1.40308">
        <ele>244</ele>
        <time>2011-06-23T14:57:54Z</time>
      </trkpt>
      <trkpt lat="45.28067" lon="1.40307">
        <ele>245</ele>
        <time>2011-06-23T14:57:58Z</time>
      </trkpt>
      <trkpt lat="45.28072" lon="1.40307">
        <ele>247</ele>
        <time>2011-06-23T14:58:02Z</time>
      </trkpt>
      <trkpt lat="45.28077" lon="1.40307">
        <ele>245</ele>
        <time>2011-06-23T14:58:06Z</time>
      </trkpt>
      <trkpt lat="45.28082" lon="1.40309">
        <ele>248</ele>
        <time>2011-06-23T14:58:12Z</time>
      </trkpt>
      <trkpt lat="45.28086" lon="1.40308">
        <ele>252</ele>
        <time>2011-06-23T14:58:17Z</time>
      </trkpt>
      <trkpt lat="45.28091" lon="1.40308">
        <ele>251</ele>
        <time>2011-06-23T14:58:20Z</time>
      </trkpt>
      <trkpt lat="45.28095" lon="1.40307">
        <ele>252</ele>
        <time>2011-06-23T14:58:23Z</time>
      </trkpt>
      <trkpt lat="45.281" lon="1.40304">
        <ele>254</ele>
        <time>2011-06-23T14:58:27Z</time>
      </trkpt>
      <trkpt lat="45.28105" lon="1.40304">
        <ele>255</ele>
        <time>2011-06-23T14:58:30Z</time>
      </trkpt>
      <trkpt lat="45.2811" lon="1.40303">
        <ele>254</ele>
        <time>2011-06-23T14:58:33Z</time>
      </trkpt>
      <trkpt lat="45.28114" lon="1.40302">
        <ele>256</ele>
        <time>2011-06-23T14:58:36Z</time>
      </trkpt>
      <trkpt lat="45.28119" lon="1.40301">
        <ele>256</ele>
        <time>2011-06-23T14:58:39Z</time>
      </trkpt>
      <trkpt lat="45.28124" lon="1.40301">
        <ele>256</ele>
        <time>2011-06-23T14:58:42Z</time>
      </trkpt>
      <trkpt lat="45.28129" lon="1.40301">
        <ele>257</ele>
        <time>2011-06-23T14:58:45Z</time>
      </trkpt>
      <trkpt lat="45.28135" lon="1.40301">
        <ele>258</ele>
        <time>2011-06-23T14:58:49Z</time>
      </trkpt>
      <trkpt lat="45.2814" lon="1.40302">
        <ele>258</ele>
        <time>2011-06-23T14:58:53Z</time>
      </trkpt>
      <trkpt lat="45.28146" lon="1.40303">
        <ele>259</ele>
        <time>2011-06-23T14:58:57Z</time>
      </trkpt>
      <trkpt lat="45.28151" lon="1.40303">
        <ele>259</ele>
        <time>2011-06-23T14:59:00Z</time>
      </trkpt>
      <trkpt lat="45.28156" lon="1.40303">
        <ele>257</ele>
        <time>2011-06-23T14:59:03Z</time>
      </trkpt>
      <trkpt lat="45.28162" lon="1.40304">
        <ele>262</ele>
        <time>2011-06-23T14:59:06Z</time>
      </trkpt>
      <trkpt lat="45.28168" lon="1.40305">
        <ele>261</ele>
        <time>2011-06-23T14:59:09Z</time>
      </trkpt>
      <trkpt lat="45.28174" lon="1.40307">
        <ele>262</ele>
        <time>2011-06-23T14:59:12Z</time>
      </trkpt>
      <trkpt lat="45.2818" lon="1.40309">
        <ele>265</ele>
        <time>2011-06-23T14:59:15Z</time>
      </trkpt>
      <trkpt lat="45.28186" lon="1.4031">
        <ele>268</ele>
        <time>2011-06-23T14:59:18Z</time>
      </trkpt>
      <trkpt lat="45.28193" lon="1.40311">
        <ele>273</ele>
        <time>2011-06-23T14:59:21Z</time>
      </trkpt>
      <trkpt lat="45.28198" lon="1.40312">
        <ele>276</ele>
        <time>2011-06-23T14:59:23Z</time>
      </trkpt>
      <trkpt lat="45.28204" lon="1.40313">
        <ele>278</ele>
        <time>2011-06-23T14:59:26Z</time>
      </trkpt>
      <trkpt lat="45.28209" lon="1.40313">
        <ele>277</ele>
        <time>2011-06-23T14:59:29Z</time>
      </trkpt>
      <trkpt lat="45.28214" lon="1.40314">
        <ele>278</ele>
        <time>2011-06-23T14:59:32Z</time>
      </trkpt>
      <trkpt lat="45.2822" lon="1.40316">
        <ele>278</ele>
        <time>2011-06-23T14:59:36Z</time>
      </trkpt>
      <trkpt lat="45.28225" lon="1.40318">
        <ele>279</ele>
        <time>2011-06-23T14:59:39Z</time>
      </trkpt>
      <trkpt lat="45.28231" lon="1.40319">
        <ele>282</ele>
        <time>2011-06-23T14:59:42Z</time>
      </trkpt>
      <trkpt lat="45.28237" lon="1.40321">
        <ele>282</ele>
        <time>2011-06-23T14:59:45Z</time>
      </trkpt>
      <trkpt lat="45.28242" lon="1.40322">
        <ele>280</ele>
        <time>2011-06-23T14:59:48Z</time>
      </trkpt>
      <trkpt lat="45.28249" lon="1.40321">
        <ele>279</ele>
        <time>2011-06-23T14:59:51Z</time>
      </trkpt>
      <trkpt lat="45.28254" lon="1.40322">
        <ele>273</ele>
        <time>2011-06-23T14:59:54Z</time>
      </trkpt>
      <trkpt lat="45.2826" lon="1.40323">
        <ele>275</ele>
        <time>2011-06-23T14:59:57Z</time>
      </trkpt>
      <trkpt lat="45.28266" lon="1.40324">
        <ele>275</ele>
        <time>2011-06-23T15:00:00Z</time>
      </trkpt>
      <trkpt lat="45.2827" lon="1.40325">
        <ele>271</ele>
        <time>2011-06-23T15:00:02Z</time>
      </trkpt>
      <trkpt lat="45.28276" lon="1.40326">
        <ele>270</ele>
        <time>2011-06-23T15:00:05Z</time>
      </trkpt>
      <trkpt lat="45.28282" lon="1.40326">
        <ele>268</ele>
        <time>2011-06-23T15:00:08Z</time>
      </trkpt>
      <trkpt lat="45.28288" lon="1.40326">
        <ele>267</ele>
        <time>2011-06-23T15:00:11Z</time>
      </trkpt>
      <trkpt lat="45.28294" lon="1.40326">
        <ele>267</ele>
        <time>2011-06-23T15:00:14Z</time>
      </trkpt>
      <trkpt lat="45.28301" lon="1.40328">
        <ele>266</ele>
        <time>2011-06-23T15:00:17Z</time>
      </trkpt>
      <trkpt lat="45.28306" lon="1.40328">
        <ele>267</ele>
        <time>2011-06-23T15:00:20Z</time>
      </trkpt>
      <trkpt lat="45.28312" lon="1.40329">
        <ele>265</ele>
        <time>2011-06-23T15:00:23Z</time>
      </trkpt>
      <trkpt lat="45.28317" lon="1.40329">
        <ele>266</ele>
        <time>2011-06-23T15:00:26Z</time>
      </trkpt>
      <trkpt lat="45.28322" lon="1.40329">
        <ele>266</ele>
        <time>2011-06-23T15:00:29Z</time>
      </trkpt>
      <trkpt lat="45.28328" lon="1.4033">
        <ele>267</ele>
        <time>2011-06-23T15:00:32Z</time>
      </trkpt>
      <trkpt lat="45.28334" lon="1.40332">
        <ele>269</ele>
        <time>2011-06-23T15:00:35Z</time>
      </trkpt>
      <trkpt lat="45.28338" lon="1.40332">
        <ele>272</ele>
        <time>2011-06-23T15:00:37Z</time>
      </trkpt>
      <trkpt lat="45.28343" lon="1.40332">
        <ele>272</ele>
        <time>2011-06-23T15:00:39Z</time>
      </trkpt>
      <trkpt lat="45.2835" lon="1.40332">
        <ele>275</ele>
        <time>2011-06-23T15:00:42Z</time>
      </trkpt>
      <trkpt lat="45.28356" lon="1.40333">
        <ele>277</ele>
        <time>2011-06-23T15:00:44Z</time>
      </trkpt>
      <trkpt lat="45.28363" lon="1.40335">
        <ele>274</ele>
        <time>2011-06-23T15:00:46Z</time>
      </trkpt>
      <trkpt lat="45.28369" lon="1.40336">
        <ele>274</ele>
        <time>2011-06-23T15:00:48Z</time>
      </trkpt>
      <trkpt lat="45.28375" lon="1.40336">
        <ele>272</ele>
        <time>2011-06-23T15:00:50Z</time>
      </trkpt>
      <trkpt lat="45.2838" lon="1.40337">
        <ele>277</ele>
        <time>2011-06-23T15:00:52Z</time>
      </trkpt>
      <trkpt lat="45.28386" lon="1.40337">
        <ele>279</ele>
        <time>2011-06-23T15:00:54Z</time>
      </trkpt>
      <trkpt lat="45.28392" lon="1.40338">
        <ele>279</ele>
        <time>2011-06-23T15:00:56Z</time>
      </trkpt>
      <trkpt lat="45.28399" lon="1.40338">
        <ele>279</ele>
        <time>2011-06-23T15:00:58Z</time>
      </trkpt>
      <trkpt lat="45.28405" lon="1.40338">
        <ele>279</ele>
        <time>2011-06-23T15:01:00Z</time>
      </trkpt>
      <trkpt lat="45.28412" lon="1.40338">
        <ele>277</ele>
        <time>2011-06-23T15:01:02Z</time>
      </trkpt>
      <trkpt lat="45.28418" lon="1.40337">
        <ele>278</ele>
        <time>2011-06-23T15:01:04Z</time>
      </trkpt>
      <trkpt lat="45.28425" lon="1.40336">
        <ele>279</ele>
        <time>2011-06-23T15:01:06Z</time>
      </trkpt>
      <trkpt lat="45.28431" lon="1.40334">
        <ele>279</ele>
        <time>2011-06-23T15:01:08Z</time>
      </trkpt>
      <trkpt lat="45.28437" lon="1.40333">
        <ele>280</ele>
        <time>2011-06-23T15:01:10Z</time>
      </trkpt>
      <trkpt lat="45.28443" lon="1.40332">
        <ele>280</ele>
        <time>2011-06-23T15:01:12Z</time>
      </trkpt>
      <trkpt lat="45.28449" lon="1.4033">
        <ele>280</ele>
        <time>2011-06-23T15:01:14Z</time>
      </trkpt>
      <trkpt lat="45.28455" lon="1.40329">
        <ele>280</ele>
        <time>2011-06-23T15:01:16Z</time>
      </trkpt>
      <trkpt lat="45.28462" lon="1.40326">
        <ele>281</ele>
        <time>2011-06-23T15:01:18Z</time>
      </trkpt>
      <trkpt lat="45.28469" lon="1.40323">
        <ele>281</ele>
        <time>2011-06-23T15:01:20Z</time>
      </trkpt>
      <trkpt lat="45.28476" lon="1.40321">
        <ele>283</ele>
        <time>2011-06-23T15:01:22Z</time>
      </trkpt>
      <trkpt lat="45.28484" lon="1.4032">
        <ele>281</ele>
        <time>2011-06-23T15:01:24Z</time>
      </trkpt>
      <trkpt lat="45.28493" lon="1.40318">
        <ele>278</ele>
        <time>2011-06-23T15:01:26Z</time>
      </trkpt>
      <trkpt lat="45.28502" lon="1.40316">
        <ele>277</ele>
        <time>2011-06-23T15:01:28Z</time>
      </trkpt>
      <trkpt lat="45.28506" lon="1.40316">
        <ele>275</ele>
        <time>2011-06-23T15:01:29Z</time>
      </trkpt>
      <trkpt lat="45.28514" lon="1.40314">
        <ele>273</ele>
        <time>2011-06-23T15:01:31Z</time>
      </trkpt>
      <trkpt lat="45.28522" lon="1.40312">
        <ele>273</ele>
        <time>2011-06-23T15:01:33Z</time>
      </trkpt>
      <trkpt lat="45.28526" lon="1.40311">
        <ele>272</ele>
        <time>2011-06-23T15:01:34Z</time>
      </trkpt>
      <trkpt lat="45.28535" lon="1.40309">
        <ele>271</ele>
        <time>2011-06-23T15:01:36Z</time>
      </trkpt>
      <trkpt lat="45.28542" lon="1.40306">
        <ele>272</ele>
        <time>2011-06-23T15:01:38Z</time>
      </trkpt>
      <trkpt lat="45.28548" lon="1.40305">
        <ele>272</ele>
        <time>2011-06-23T15:01:40Z</time>
      </trkpt>
      <trkpt lat="45.28555" lon="1.40304">
        <ele>268</ele>
        <time>2011-06-23T15:01:42Z</time>
      </trkpt>
      <trkpt lat="45.28563" lon="1.40304">
        <ele>269</ele>
        <time>2011-06-23T15:01:44Z</time>
      </trkpt>
      <trkpt lat="45.2857" lon="1.40306">
        <ele>270</ele>
        <time>2011-06-23T15:01:46Z</time>
      </trkpt>
      <trkpt lat="45.28576" lon="1.40307">
        <ele>270</ele>
        <time>2011-06-23T15:01:48Z</time>
      </trkpt>
      <trkpt lat="45.28583" lon="1.40309">
        <ele>270</ele>
        <time>2011-06-23T15:01:51Z</time>
      </trkpt>
      <trkpt lat="45.28587" lon="1.40309">
        <ele>271</ele>
        <time>2011-06-23T15:01:53Z</time>
      </trkpt>
      <trkpt lat="45.28592" lon="1.4031">
        <ele>272</ele>
        <time>2011-06-23T15:01:55Z</time>
      </trkpt>
      <trkpt lat="45.28599" lon="1.4031">
        <ele>273</ele>
        <time>2011-06-23T15:01:58Z</time>
      </trkpt>
      <trkpt lat="45.28604" lon="1.4031">
        <ele>271</ele>
        <time>2011-06-23T15:02:01Z</time>
      </trkpt>
      <trkpt lat="45.2861" lon="1.4031">
        <ele>269</ele>
        <time>2011-06-23T15:02:04Z</time>
      </trkpt>
      <trkpt lat="45.28615" lon="1.4031">
        <ele>272</ele>
        <time>2011-06-23T15:02:07Z</time>
      </trkpt>
      <trkpt lat="45.28622" lon="1.4031">
        <ele>263</ele>
        <time>2011-06-23T15:02:10Z</time>
      </trkpt>
      <trkpt lat="45.28627" lon="1.4031">
        <ele>265</ele>
        <time>2011-06-23T15:02:12Z</time>
      </trkpt>
      <trkpt lat="45.28633" lon="1.40309">
        <ele>267</ele>
        <time>2011-06-23T15:02:15Z</time>
      </trkpt>
      <trkpt lat="45.28638" lon="1.40308">
        <ele>266</ele>
        <time>2011-06-23T15:02:18Z</time>
      </trkpt>
      <trkpt lat="45.28643" lon="1.40307">
        <ele>267</ele>
        <time>2011-06-23T15:02:21Z</time>
      </trkpt>
      <trkpt lat="45.28648" lon="1.40306">
        <ele>267</ele>
        <time>2011-06-23T15:02:25Z</time>
      </trkpt>
      <trkpt lat="45.28653" lon="1.4031">
        <ele>251</ele>
        <time>2011-06-23T15:03:09Z</time>
      </trkpt>
      <trkpt lat="45.28658" lon="1.40306">
        <ele>259</ele>
        <time>2011-06-23T15:03:21Z</time>
      </trkpt>
      <trkpt lat="45.28663" lon="1.40304">
        <ele>257</ele>
        <time>2011-06-23T15:03:24Z</time>
      </trkpt>
      <trkpt lat="45.28669" lon="1.40306">
        <ele>257</ele>
        <time>2011-06-23T15:03:28Z</time>
      </trkpt>
      <trkpt lat="45.28674" lon="1.40306">
        <ele>257</ele>
        <time>2011-06-23T15:03:31Z</time>
      </trkpt>
      <trkpt lat="45.28679" lon="1.40302">
        <ele>261</ele>
        <time>2011-06-23T15:03:34Z</time>
      </trkpt>
      <trkpt lat="45.28684" lon="1.403">
        <ele>264</ele>
        <time>2011-06-23T15:03:37Z</time>
      </trkpt>
      <trkpt lat="45.28689" lon="1.40301">
        <ele>268</ele>
        <time>2011-06-23T15:03:40Z</time>
      </trkpt>
      <trkpt lat="45.28694" lon="1.40301">
        <ele>268</ele>
        <time>2011-06-23T15:03:43Z</time>
      </trkpt>
      <trkpt lat="45.287" lon="1.403">
        <ele>266</ele>
        <time>2011-06-23T15:03:47Z</time>
      </trkpt>
      <trkpt lat="45.28705" lon="1.40299">
        <ele>262</ele>
        <time>2011-06-23T15:03:52Z</time>
      </trkpt>
      <trkpt lat="45.2871" lon="1.40298">
        <ele>263</ele>
        <time>2011-06-23T15:03:56Z</time>
      </trkpt>
      <trkpt lat="45.28715" lon="1.40297">
        <ele>262</ele>
        <time>2011-06-23T15:03:59Z</time>
      </trkpt>
      <trkpt lat="45.2872" lon="1.40297">
        <ele>266</ele>
        <time>2011-06-23T15:04:02Z</time>
      </trkpt>
      <trkpt lat="45.28725" lon="1.40298">
        <ele>266</ele>
        <time>2011-06-23T15:04:04Z</time>
      </trkpt>
      <trkpt lat="45.2873" lon="1.40298">
        <ele>267</ele>
        <time>2011-06-23T15:04:06Z</time>
      </trkpt>
      <trkpt lat="45.28733" lon="1.40288">
        <ele>268</ele>
        <time>2011-06-23T15:04:09Z</time>
      </trkpt>
      <trkpt lat="45.28734" lon="1.40281">
        <ele>269</ele>
        <time>2011-06-23T15:04:12Z</time>
      </trkpt>
      <trkpt lat="45.28738" lon="1.40274">
        <ele>271</ele>
        <time>2011-06-23T15:04:15Z</time>
      </trkpt>
      <trkpt lat="45.28742" lon="1.40269">
        <ele>272</ele>
        <time>2011-06-23T15:04:19Z</time>
      </trkpt>
      <trkpt lat="45.28747" lon="1.40264">
        <ele>270</ele>
        <time>2011-06-23T15:04:22Z</time>
      </trkpt>
      <trkpt lat="45.28752" lon="1.40258">
        <ele>274</ele>
        <time>2011-06-23T15:04:25Z</time>
      </trkpt>
      <trkpt lat="45.28756" lon="1.40252">
        <ele>273</ele>
        <time>2011-06-23T15:04:28Z</time>
      </trkpt>
      <trkpt lat="45.2876" lon="1.40245">
        <ele>275</ele>
        <time>2011-06-23T15:04:31Z</time>
      </trkpt>
      <trkpt lat="45.28764" lon="1.4024">
        <ele>276</ele>
        <time>2011-06-23T15:04:34Z</time>
      </trkpt>
      <trkpt lat="45.28768" lon="1.40235">
        <ele>273</ele>
        <time>2011-06-23T15:04:38Z</time>
      </trkpt>
      <trkpt lat="45.28772" lon="1.40231">
        <ele>274</ele>
        <time>2011-06-23T15:04:42Z</time>
      </trkpt>
      <trkpt lat="45.28778" lon="1.40228">
        <ele>277</ele>
        <time>2011-06-23T15:04:45Z</time>
      </trkpt>
      <trkpt lat="45.28783" lon="1.40224">
        <ele>280</ele>
        <time>2011-06-23T15:04:48Z</time>
      </trkpt>
      <trkpt lat="45.28788" lon="1.4022">
        <ele>282</ele>
        <time>2011-06-23T15:04:51Z</time>
      </trkpt>
      <trkpt lat="45.28793" lon="1.40217">
        <ele>279</ele>
        <time>2011-06-23T15:04:53Z</time>
      </trkpt>
      <trkpt lat="45.28798" lon="1.40215">
        <ele>264</ele>
        <time>2011-06-23T15:04:56Z</time>
      </trkpt>
      <trkpt lat="45.28804" lon="1.40214">
        <ele>274</ele>
        <time>2011-06-23T15:04:59Z</time>
      </trkpt>
      <trkpt lat="45.28809" lon="1.40211">
        <ele>272</ele>
        <time>2011-06-23T15:05:02Z</time>
      </trkpt>
      <trkpt lat="45.28814" lon="1.40207">
        <ele>275</ele>
        <time>2011-06-23T15:05:06Z</time>
      </trkpt>
      <trkpt lat="45.28819" lon="1.40202">
        <ele>278</ele>
        <time>2011-06-23T15:05:10Z</time>
      </trkpt>
      <trkpt lat="45.28823" lon="1.402">
        <ele>281</ele>
        <time>2011-06-23T15:05:13Z</time>
      </trkpt>
      <trkpt lat="45.28828" lon="1.40197">
        <ele>284</ele>
        <time>2011-06-23T15:05:15Z</time>
      </trkpt>
      <trkpt lat="45.28832" lon="1.40193">
        <ele>286</ele>
        <time>2011-06-23T15:05:17Z</time>
      </trkpt>
      <trkpt lat="45.28838" lon="1.40189">
        <ele>281</ele>
        <time>2011-06-23T15:05:19Z</time>
      </trkpt>
      <trkpt lat="45.28844" lon="1.40188">
        <ele>281</ele>
        <time>2011-06-23T15:05:21Z</time>
      </trkpt>
      <trkpt lat="45.28849" lon="1.40188">
        <ele>283</ele>
        <time>2011-06-23T15:05:23Z</time>
      </trkpt>
      <trkpt lat="45.28856" lon="1.4019">
        <ele>287</ele>
        <time>2011-06-23T15:05:25Z</time>
      </trkpt>
      <trkpt lat="45.28862" lon="1.4019">
        <ele>288</ele>
        <time>2011-06-23T15:05:27Z</time>
      </trkpt>
      <trkpt lat="45.28869" lon="1.40189">
        <ele>291</ele>
        <time>2011-06-23T15:05:29Z</time>
      </trkpt>
      <trkpt lat="45.28874" lon="1.40189">
        <ele>289</ele>
        <time>2011-06-23T15:05:31Z</time>
      </trkpt>
      <trkpt lat="45.28879" lon="1.40189">
        <ele>291</ele>
        <time>2011-06-23T15:05:33Z</time>
      </trkpt>
      <trkpt lat="45.28886" lon="1.40188">
        <ele>288</ele>
        <time>2011-06-23T15:05:36Z</time>
      </trkpt>
      <trkpt lat="45.28894" lon="1.40186">
        <ele>293</ele>
        <time>2011-06-23T15:05:38Z</time>
      </trkpt>
      <trkpt lat="45.289" lon="1.40184">
        <ele>295</ele>
        <time>2011-06-23T15:05:40Z</time>
      </trkpt>
      <trkpt lat="45.28906" lon="1.40187">
        <ele>288</ele>
        <time>2011-06-23T15:05:42Z</time>
      </trkpt>
      <trkpt lat="45.28911" lon="1.40191">
        <ele>274</ele>
        <time>2011-06-23T15:05:44Z</time>
      </trkpt>
      <trkpt lat="45.28918" lon="1.40196">
        <ele>273</ele>
        <time>2011-06-23T15:05:46Z</time>
      </trkpt>
      <trkpt lat="45.28926" lon="1.40199">
        <ele>272</ele>
        <time>2011-06-23T15:05:48Z</time>
      </trkpt>
      <trkpt lat="45.28935" lon="1.40202">
        <ele>268</ele>
        <time>2011-06-23T15:05:50Z</time>
      </trkpt>
      <trkpt lat="45.28942" lon="1.40204">
        <ele>269</ele>
        <time>2011-06-23T15:05:52Z</time>
      </trkpt>
      <trkpt lat="45.2895" lon="1.40206">
        <ele>270</ele>
        <time>2011-06-23T15:05:54Z</time>
      </trkpt>
      <trkpt lat="45.28957" lon="1.40205">
        <ele>268</ele>
        <time>2011-06-23T15:05:56Z</time>
      </trkpt>
      <trkpt lat="45.28964" lon="1.40206">
        <ele>267</ele>
        <time>2011-06-23T15:05:58Z</time>
      </trkpt>
      <trkpt lat="45.28972" lon="1.40208">
        <ele>264</ele>
        <time>2011-06-23T15:06:00Z</time>
      </trkpt>
      <trkpt lat="45.28979" lon="1.4021">
        <ele>260</ele>
        <time>2011-06-23T15:06:02Z</time>
      </trkpt>
      <trkpt lat="45.28985" lon="1.40214">
        <ele>257</ele>
        <time>2011-06-23T15:06:04Z</time>
      </trkpt>
      <trkpt lat="45.28989" lon="1.40217">
        <ele>256</ele>
        <time>2011-06-23T15:06:05Z</time>
      </trkpt>
      <trkpt lat="45.28993" lon="1.40221">
        <ele>254</ele>
        <time>2011-06-23T15:06:06Z</time>
      </trkpt>
      <trkpt lat="45.28998" lon="1.40224">
        <ele>253</ele>
        <time>2011-06-23T15:06:07Z</time>
      </trkpt>
      <trkpt lat="45.29004" lon="1.40226">
        <ele>250</ele>
        <time>2011-06-23T15:06:09Z</time>
      </trkpt>
      <trkpt lat="45.29009" lon="1.40226">
        <ele>251</ele>
        <time>2011-06-23T15:06:11Z</time>
      </trkpt>
      <trkpt lat="45.29016" lon="1.40228">
        <ele>244</ele>
        <time>2011-06-23T15:06:14Z</time>
      </trkpt>
      <trkpt lat="45.29022" lon="1.40227">
        <ele>239</ele>
        <time>2011-06-23T15:06:17Z</time>
      </trkpt>
      <trkpt lat="45.29026" lon="1.40227">
        <ele>241</ele>
        <time>2011-06-23T15:06:19Z</time>
      </trkpt>
      <trkpt lat="45.29032" lon="1.40227">
        <ele>237</ele>
        <time>2011-06-23T15:06:21Z</time>
      </trkpt>
      <trkpt lat="45.29038" lon="1.40227">
        <ele>235</ele>
        <time>2011-06-23T15:06:23Z</time>
      </trkpt>
      <trkpt lat="45.29045" lon="1.40229">
        <ele>235</ele>
        <time>2011-06-23T15:06:25Z</time>
      </trkpt>
      <trkpt lat="45.29051" lon="1.40229">
        <ele>232</ele>
        <time>2011-06-23T15:06:27Z</time>
      </trkpt>
      <trkpt lat="45.29056" lon="1.40228">
        <ele>233</ele>
        <time>2011-06-23T15:06:29Z</time>
      </trkpt>
      <trkpt lat="45.29061" lon="1.40227">
        <ele>232</ele>
        <time>2011-06-23T15:06:31Z</time>
      </trkpt>
      <trkpt lat="45.29065" lon="1.40226">
        <ele>231</ele>
        <time>2011-06-23T15:06:33Z</time>
      </trkpt>
      <trkpt lat="45.2907" lon="1.40226">
        <ele>228</ele>
        <time>2011-06-23T15:06:35Z</time>
      </trkpt>
      <trkpt lat="45.29075" lon="1.40225">
        <ele>228</ele>
        <time>2011-06-23T15:06:37Z</time>
      </trkpt>
      <trkpt lat="45.29081" lon="1.40225">
        <ele>227</ele>
        <time>2011-06-23T15:06:39Z</time>
      </trkpt>
      <trkpt lat="45.29086" lon="1.40223">
        <ele>228</ele>
        <time>2011-06-23T15:06:41Z</time>
      </trkpt>
      <trkpt lat="45.29093" lon="1.4022">
        <ele>228</ele>
        <time>2011-06-23T15:06:43Z</time>
      </trkpt>
      <trkpt lat="45.291" lon="1.4022">
        <ele>227</ele>
        <time>2011-06-23T15:06:45Z</time>
      </trkpt>
      <trkpt lat="45.29106" lon="1.40217">
        <ele>230</ele>
        <time>2011-06-23T15:06:47Z</time>
      </trkpt>
      <trkpt lat="45.29112" lon="1.40217">
        <ele>232</ele>
        <time>2011-06-23T15:06:49Z</time>
      </trkpt>
      <trkpt lat="45.29117" lon="1.40217">
        <ele>236</ele>
        <time>2011-06-23T15:06:51Z</time>
      </trkpt>
      <trkpt lat="45.29123" lon="1.40215">
        <ele>236</ele>
        <time>2011-06-23T15:06:54Z</time>
      </trkpt>
      <trkpt lat="45.29128" lon="1.40214">
        <ele>235</ele>
        <time>2011-06-23T15:06:57Z</time>
      </trkpt>
      <trkpt lat="45.29133" lon="1.40214">
        <ele>237</ele>
        <time>2011-06-23T15:06:59Z</time>
      </trkpt>
      <trkpt lat="45.29139" lon="1.40213">
        <ele>238</ele>
        <time>2011-06-23T15:07:01Z</time>
      </trkpt>
      <trkpt lat="45.29145" lon="1.40212">
        <ele>240</ele>
        <time>2011-06-23T15:07:03Z</time>
      </trkpt>
      <trkpt lat="45.29151" lon="1.4021">
        <ele>241</ele>
        <time>2011-06-23T15:07:05Z</time>
      </trkpt>
      <trkpt lat="45.29158" lon="1.4021">
        <ele>240</ele>
        <time>2011-06-23T15:07:07Z</time>
      </trkpt>
      <trkpt lat="45.29163" lon="1.40207">
        <ele>240</ele>
        <time>2011-06-23T15:07:09Z</time>
      </trkpt>
      <trkpt lat="45.2917" lon="1.40206">
        <ele>238</ele>
        <time>2011-06-23T15:07:11Z</time>
      </trkpt>
      <trkpt lat="45.29175" lon="1.40205">
        <ele>236</ele>
        <time>2011-06-23T15:07:13Z</time>
      </trkpt>
      <trkpt lat="45.29181" lon="1.40206">
        <ele>237</ele>
        <time>2011-06-23T15:07:16Z</time>
      </trkpt>
      <trkpt lat="45.29187" lon="1.40205">
        <ele>237</ele>
        <time>2011-06-23T15:07:18Z</time>
      </trkpt>
      <trkpt lat="45.29191" lon="1.40205">
        <ele>237</ele>
        <time>2011-06-23T15:07:20Z</time>
      </trkpt>
      <trkpt lat="45.29196" lon="1.40203">
        <ele>237</ele>
        <time>2011-06-23T15:07:22Z</time>
      </trkpt>
      <trkpt lat="45.29201" lon="1.40204">
        <ele>238</ele>
        <time>2011-06-23T15:07:24Z</time>
      </trkpt>
      <trkpt lat="45.29206" lon="1.40204">
        <ele>237</ele>
        <time>2011-06-23T15:07:26Z</time>
      </trkpt>
      <trkpt lat="45.29211" lon="1.40204">
        <ele>235</ele>
        <time>2011-06-23T15:07:28Z</time>
      </trkpt>
      <trkpt lat="45.29215" lon="1.40202">
        <ele>234</ele>
        <time>2011-06-23T15:07:30Z</time>
      </trkpt>
      <trkpt lat="45.29222" lon="1.40199">
        <ele>234</ele>
        <time>2011-06-23T15:07:33Z</time>
      </trkpt>
      <trkpt lat="45.29226" lon="1.40197">
        <ele>233</ele>
        <time>2011-06-23T15:07:35Z</time>
      </trkpt>
      <trkpt lat="45.29231" lon="1.40196">
        <ele>233</ele>
        <time>2011-06-23T15:07:38Z</time>
      </trkpt>
      <trkpt lat="45.29237" lon="1.40194">
        <ele>235</ele>
        <time>2011-06-23T15:07:41Z</time>
      </trkpt>
      <trkpt lat="45.29243" lon="1.40193">
        <ele>235</ele>
        <time>2011-06-23T15:07:44Z</time>
      </trkpt>
      <trkpt lat="45.29249" lon="1.40193">
        <ele>236</ele>
        <time>2011-06-23T15:07:47Z</time>
      </trkpt>
      <trkpt lat="45.29255" lon="1.40192">
        <ele>233</ele>
        <time>2011-06-23T15:07:50Z</time>
      </trkpt>
      <trkpt lat="45.29262" lon="1.40193">
        <ele>233</ele>
        <time>2011-06-23T15:07:53Z</time>
      </trkpt>
      <trkpt lat="45.29266" lon="1.40195">
        <ele>234</ele>
        <time>2011-06-23T15:07:55Z</time>
      </trkpt>
      <trkpt lat="45.29273" lon="1.40195">
        <ele>231</ele>
        <time>2011-06-23T15:07:58Z</time>
      </trkpt>
      <trkpt lat="45.29278" lon="1.40197">
        <ele>233</ele>
        <time>2011-06-23T15:08:00Z</time>
      </trkpt>
      <trkpt lat="45.29283" lon="1.40197">
        <ele>229</ele>
        <time>2011-06-23T15:08:02Z</time>
      </trkpt>
      <trkpt lat="45.29288" lon="1.40197">
        <ele>229</ele>
        <time>2011-06-23T15:08:05Z</time>
      </trkpt>
      <trkpt lat="45.29292" lon="1.40198">
        <ele>231</ele>
        <time>2011-06-23T15:08:08Z</time>
      </trkpt>
      <trkpt lat="45.29297" lon="1.40196">
        <ele>232</ele>
        <time>2011-06-23T15:08:12Z</time>
      </trkpt>
      <trkpt lat="45.29302" lon="1.40198">
        <ele>234</ele>
        <time>2011-06-23T15:08:15Z</time>
      </trkpt>
      <trkpt lat="45.29307" lon="1.40199">
        <ele>233</ele>
        <time>2011-06-23T15:08:18Z</time>
      </trkpt>
      <trkpt lat="45.29313" lon="1.40198">
        <ele>232</ele>
        <time>2011-06-23T15:08:21Z</time>
      </trkpt>
      <trkpt lat="45.29319" lon="1.40197">
        <ele>233</ele>
        <time>2011-06-23T15:08:24Z</time>
      </trkpt>
      <trkpt lat="45.29325" lon="1.40195">
        <ele>235</ele>
        <time>2011-06-23T15:08:27Z</time>
      </trkpt>
      <trkpt lat="45.29331" lon="1.40196">
        <ele>235</ele>
        <time>2011-06-23T15:08:30Z</time>
      </trkpt>
      <trkpt lat="45.29336" lon="1.40195">
        <ele>236</ele>
        <time>2011-06-23T15:08:33Z</time>
      </trkpt>
      <trkpt lat="45.29342" lon="1.40193">
        <ele>234</ele>
        <time>2011-06-23T15:08:36Z</time>
      </trkpt>
      <trkpt lat="45.29347" lon="1.40196">
        <ele>236</ele>
        <time>2011-06-23T15:08:41Z</time>
      </trkpt>
      <trkpt lat="45.29346" lon="1.40203">
        <ele>239</ele>
        <time>2011-06-23T15:08:46Z</time>
      </trkpt>
      <trkpt lat="45.2935" lon="1.40204">
        <ele>232</ele>
        <time>2011-06-23T15:09:01Z</time>
      </trkpt>
      <trkpt lat="45.2935" lon="1.40211">
        <ele>232</ele>
        <time>2011-06-23T15:09:07Z</time>
      </trkpt>
      <trkpt lat="45.29348" lon="1.40217">
        <ele>232</ele>
        <time>2011-06-23T15:09:11Z</time>
      </trkpt>
      <trkpt lat="45.29345" lon="1.40222">
        <ele>231</ele>
        <time>2011-06-23T15:09:13Z</time>
      </trkpt>
      <trkpt lat="45.29342" lon="1.40229">
        <ele>230</ele>
        <time>2011-06-23T15:09:15Z</time>
      </trkpt>
      <trkpt lat="45.29342" lon="1.40238">
        <ele>231</ele>
        <time>2011-06-23T15:09:18Z</time>
      </trkpt>
      <trkpt lat="45.29346" lon="1.40243">
        <ele>232</ele>
        <time>2011-06-23T15:09:21Z</time>
      </trkpt>
      <trkpt lat="45.2935" lon="1.40246">
        <ele>232</ele>
        <time>2011-06-23T15:09:24Z</time>
      </trkpt>
      <trkpt lat="45.29356" lon="1.40247">
        <ele>234</ele>
        <time>2011-06-23T15:09:27Z</time>
      </trkpt>
      <trkpt lat="45.29362" lon="1.40248">
        <ele>234</ele>
        <time>2011-06-23T15:09:29Z</time>
      </trkpt>
      <trkpt lat="45.29367" lon="1.40248">
        <ele>233</ele>
        <time>2011-06-23T15:09:31Z</time>
      </trkpt>
      <trkpt lat="45.29371" lon="1.40248">
        <ele>231</ele>
        <time>2011-06-23T15:09:33Z</time>
      </trkpt>
      <trkpt lat="45.29376" lon="1.40248">
        <ele>230</ele>
        <time>2011-06-23T15:09:35Z</time>
      </trkpt>
      <trkpt lat="45.29381" lon="1.40247">
        <ele>227</ele>
        <time>2011-06-23T15:09:38Z</time>
      </trkpt>
      <trkpt lat="45.29386" lon="1.40247">
        <ele>230</ele>
        <time>2011-06-23T15:09:41Z</time>
      </trkpt>
      <trkpt lat="45.29392" lon="1.40249">
        <ele>230</ele>
        <time>2011-06-23T15:09:44Z</time>
      </trkpt>
      <trkpt lat="45.29396" lon="1.40249">
        <ele>232</ele>
        <time>2011-06-23T15:09:47Z</time>
      </trkpt>
      <trkpt lat="45.29402" lon="1.4025">
        <ele>230</ele>
        <time>2011-06-23T15:09:50Z</time>
      </trkpt>
      <trkpt lat="45.29407" lon="1.4025">
        <ele>231</ele>
        <time>2011-06-23T15:09:53Z</time>
      </trkpt>
      <trkpt lat="45.29412" lon="1.4025">
        <ele>229</ele>
        <time>2011-06-23T15:09:56Z</time>
      </trkpt>
      <trkpt lat="45.29418" lon="1.40249">
        <ele>225</ele>
        <time>2011-06-23T15:10:00Z</time>
      </trkpt>
      <trkpt lat="45.29423" lon="1.40248">
        <ele>226</ele>
        <time>2011-06-23T15:10:04Z</time>
      </trkpt>
      <trkpt lat="45.29428" lon="1.40247">
        <ele>229</ele>
        <time>2011-06-23T15:10:09Z</time>
      </trkpt>
      <trkpt lat="45.29434" lon="1.40248">
        <ele>229</ele>
        <time>2011-06-23T15:10:13Z</time>
      </trkpt>
      <trkpt lat="45.29439" lon="1.40248">
        <ele>229</ele>
        <time>2011-06-23T15:10:17Z</time>
      </trkpt>
      <trkpt lat="45.29444" lon="1.40249">
        <ele>229</ele>
        <time>2011-06-23T15:10:21Z</time>
      </trkpt>
      <trkpt lat="45.29449" lon="1.40249">
        <ele>225</ele>
        <time>2011-06-23T15:10:24Z</time>
      </trkpt>
      <trkpt lat="45.29454" lon="1.4025">
        <ele>229</ele>
        <time>2011-06-23T15:10:27Z</time>
      </trkpt>
      <trkpt lat="45.2946" lon="1.4025">
        <ele>229</ele>
        <time>2011-06-23T15:10:31Z</time>
      </trkpt>
      <trkpt lat="45.29465" lon="1.40252">
        <ele>231</ele>
        <time>2011-06-23T15:10:36Z</time>
      </trkpt>
      <trkpt lat="45.2947" lon="1.40251">
        <ele>234</ele>
        <time>2011-06-23T15:10:43Z</time>
      </trkpt>
      <trkpt lat="45.29474" lon="1.40252">
        <ele>237</ele>
        <time>2011-06-23T15:10:48Z</time>
      </trkpt>
      <trkpt lat="45.2948" lon="1.40254">
        <ele>240</ele>
        <time>2011-06-23T15:10:53Z</time>
      </trkpt>
      <trkpt lat="45.29485" lon="1.40256">
        <ele>242</ele>
        <time>2011-06-23T15:10:58Z</time>
      </trkpt>
      <trkpt lat="45.2949" lon="1.40258">
        <ele>245</ele>
        <time>2011-06-23T15:11:05Z</time>
      </trkpt>
      <trkpt lat="45.29495" lon="1.40261">
        <ele>248</ele>
        <time>2011-06-23T15:11:09Z</time>
      </trkpt>
      <trkpt lat="45.29501" lon="1.40263">
        <ele>243</ele>
        <time>2011-06-23T15:11:12Z</time>
      </trkpt>
      <trkpt lat="45.29506" lon="1.40264">
        <ele>241</ele>
        <time>2011-06-23T15:11:15Z</time>
      </trkpt>
      <trkpt lat="45.29511" lon="1.40264">
        <ele>243</ele>
        <time>2011-06-23T15:11:19Z</time>
      </trkpt>
      <trkpt lat="45.29515" lon="1.40266">
        <ele>243</ele>
        <time>2011-06-23T15:11:23Z</time>
      </trkpt>
      <trkpt lat="45.2952" lon="1.4027">
        <ele>248</ele>
        <time>2011-06-23T15:11:29Z</time>
      </trkpt>
      <trkpt lat="45.29524" lon="1.40274">
        <ele>246</ele>
        <time>2011-06-23T15:11:35Z</time>
      </trkpt>
      <trkpt lat="45.29519" lon="1.40274">
        <ele>247</ele>
        <time>2011-06-23T15:11:41Z</time>
      </trkpt>
      <trkpt lat="45.29516" lon="1.40269">
        <ele>245</ele>
        <time>2011-06-23T15:12:02Z</time>
      </trkpt>
      <trkpt lat="45.2952" lon="1.40269">
        <ele>251</ele>
        <time>2011-06-23T15:12:22Z</time>
      </trkpt>
      <trkpt lat="45.29525" lon="1.40272">
        <ele>246</ele>
        <time>2011-06-23T15:12:30Z</time>
      </trkpt>
      <trkpt lat="45.2953" lon="1.40277">
        <ele>246</ele>
        <time>2011-06-23T15:12:36Z</time>
      </trkpt>
      <trkpt lat="45.29535" lon="1.40281">
        <ele>246</ele>
        <time>2011-06-23T15:12:40Z</time>
      </trkpt>
      <trkpt lat="45.2954" lon="1.40284">
        <ele>247</ele>
        <time>2011-06-23T15:12:45Z</time>
      </trkpt>
      <trkpt lat="45.29545" lon="1.40286">
        <ele>246</ele>
        <time>2011-06-23T15:12:50Z</time>
      </trkpt>
      <trkpt lat="45.2955" lon="1.40288">
        <ele>248</ele>
        <time>2011-06-23T15:12:54Z</time>
      </trkpt>
      <trkpt lat="45.29554" lon="1.4029">
        <ele>249</ele>
        <time>2011-06-23T15:12:57Z</time>
      </trkpt>
      <trkpt lat="45.29558" lon="1.40294">
        <ele>251</ele>
        <time>2011-06-23T15:13:01Z</time>
      </trkpt>
      <trkpt lat="45.29563" lon="1.40299">
        <ele>254</ele>
        <time>2011-06-23T15:13:05Z</time>
      </trkpt>
      <trkpt lat="45.29567" lon="1.40304">
        <ele>258</ele>
        <time>2011-06-23T15:13:09Z</time>
      </trkpt>
      <trkpt lat="45.29572" lon="1.40308">
        <ele>258</ele>
        <time>2011-06-23T15:13:13Z</time>
      </trkpt>
      <trkpt lat="45.29577" lon="1.40312">
        <ele>261</ele>
        <time>2011-06-23T15:13:17Z</time>
      </trkpt>
      <trkpt lat="45.2958" lon="1.40317">
        <ele>261</ele>
        <time>2011-06-23T15:13:20Z</time>
      </trkpt>
      <trkpt lat="45.29583" lon="1.40323">
        <ele>259</ele>
        <time>2011-06-23T15:13:24Z</time>
      </trkpt>
      <trkpt lat="45.29585" lon="1.40333">
        <ele>258</ele>
        <time>2011-06-23T15:13:27Z</time>
      </trkpt>
      <trkpt lat="45.29584" lon="1.40342">
        <ele>260</ele>
        <time>2011-06-23T15:13:29Z</time>
      </trkpt>
      <trkpt lat="45.29582" lon="1.40351">
        <ele>255</ele>
        <time>2011-06-23T15:13:31Z</time>
      </trkpt>
      <trkpt lat="45.29578" lon="1.40362">
        <ele>256</ele>
        <time>2011-06-23T15:13:33Z</time>
      </trkpt>
      <trkpt lat="45.29575" lon="1.40374">
        <ele>256</ele>
        <time>2011-06-23T15:13:35Z</time>
      </trkpt>
      <trkpt lat="45.29574" lon="1.40381">
        <ele>254</ele>
        <time>2011-06-23T15:13:36Z</time>
      </trkpt>
      <trkpt lat="45.29574" lon="1.40389">
        <ele>249</ele>
        <time>2011-06-23T15:13:37Z</time>
      </trkpt>
      <trkpt lat="45.29573" lon="1.40397">
        <ele>250</ele>
        <time>2011-06-23T15:13:38Z</time>
      </trkpt>
      <trkpt lat="45.29573" lon="1.40405">
        <ele>250</ele>
        <time>2011-06-23T15:13:39Z</time>
      </trkpt>
      <trkpt lat="45.29574" lon="1.40412">
        <ele>253</ele>
        <time>2011-06-23T15:13:40Z</time>
      </trkpt>
      <trkpt lat="45.29575" lon="1.4042">
        <ele>248</ele>
        <time>2011-06-23T15:13:41Z</time>
      </trkpt>
      <trkpt lat="45.29575" lon="1.40427">
        <ele>247</ele>
        <time>2011-06-23T15:13:42Z</time>
      </trkpt>
      <trkpt lat="45.29575" lon="1.40436">
        <ele>242</ele>
        <time>2011-06-23T15:13:44Z</time>
      </trkpt>
      <trkpt lat="45.29573" lon="1.40442">
        <ele>243</ele>
        <time>2011-06-23T15:13:46Z</time>
      </trkpt>
      <trkpt lat="45.29573" lon="1.4045">
        <ele>242</ele>
        <time>2011-06-23T15:13:57Z</time>
      </trkpt>
      <trkpt lat="45.29573" lon="1.4046">
        <ele>242</ele>
        <time>2011-06-23T15:14:00Z</time>
      </trkpt>
      <trkpt lat="45.29572" lon="1.40466">
        <ele>246</ele>
        <time>2011-06-23T15:14:02Z</time>
      </trkpt>
      <trkpt lat="45.29571" lon="1.40475">
        <ele>245</ele>
        <time>2011-06-23T15:14:04Z</time>
      </trkpt>
      <trkpt lat="45.29571" lon="1.40482">
        <ele>243</ele>
        <time>2011-06-23T15:14:06Z</time>
      </trkpt>
      <trkpt lat="45.29572" lon="1.40489">
        <ele>241</ele>
        <time>2011-06-23T15:14:08Z</time>
      </trkpt>
      <trkpt lat="45.29572" lon="1.40496">
        <ele>241</ele>
        <time>2011-06-23T15:14:10Z</time>
      </trkpt>
      <trkpt lat="45.29572" lon="1.40505">
        <ele>240</ele>
        <time>2011-06-23T15:14:12Z</time>
      </trkpt>
      <trkpt lat="45.29574" lon="1.40515">
        <ele>239</ele>
        <time>2011-06-23T15:14:14Z</time>
      </trkpt>
      <trkpt lat="45.29575" lon="1.40521">
        <ele>240</ele>
        <time>2011-06-23T15:14:16Z</time>
      </trkpt>
      <trkpt lat="45.29578" lon="1.40529">
        <ele>243</ele>
        <time>2011-06-23T15:14:20Z</time>
      </trkpt>
      <trkpt lat="45.29583" lon="1.40529">
        <ele>243</ele>
        <time>2011-06-23T15:14:23Z</time>
      </trkpt>
      <trkpt lat="45.29589" lon="1.40527">
        <ele>241</ele>
        <time>2011-06-23T15:14:26Z</time>
      </trkpt>
      <trkpt lat="45.29593" lon="1.40524">
        <ele>246</ele>
        <time>2011-06-23T15:14:28Z</time>
      </trkpt>
      <trkpt lat="45.29597" lon="1.40522">
        <ele>246</ele>
        <time>2011-06-23T15:14:30Z</time>
      </trkpt>
      <trkpt lat="45.29602" lon="1.4052">
        <ele>245</ele>
        <time>2011-06-23T15:14:32Z</time>
      </trkpt>
      <trkpt lat="45.29607" lon="1.40517">
        <ele>243</ele>
        <time>2011-06-23T15:14:34Z</time>
      </trkpt>
      <trkpt lat="45.29613" lon="1.40513">
        <ele>243</ele>
        <time>2011-06-23T15:14:37Z</time>
      </trkpt>
      <trkpt lat="45.29617" lon="1.4051">
        <ele>246</ele>
        <time>2011-06-23T15:14:39Z</time>
      </trkpt>
      <trkpt lat="45.29622" lon="1.40508">
        <ele>248</ele>
        <time>2011-06-23T15:14:42Z</time>
      </trkpt>
      <trkpt lat="45.29627" lon="1.40505">
        <ele>249</ele>
        <time>2011-06-23T15:14:45Z</time>
      </trkpt>
      <trkpt lat="45.29633" lon="1.40502">
        <ele>251</ele>
        <time>2011-06-23T15:14:48Z</time>
      </trkpt>
      <trkpt lat="45.29639" lon="1.40499">
        <ele>250</ele>
        <time>2011-06-23T15:14:51Z</time>
      </trkpt>
      <trkpt lat="45.29644" lon="1.40497">
        <ele>249</ele>
        <time>2011-06-23T15:14:53Z</time>
      </trkpt>
      <trkpt lat="45.2965" lon="1.40494">
        <ele>250</ele>
        <time>2011-06-23T15:14:56Z</time>
      </trkpt>
      <trkpt lat="45.29656" lon="1.40491">
        <ele>249</ele>
        <time>2011-06-23T15:14:59Z</time>
      </trkpt>
      <trkpt lat="45.2966" lon="1.40489">
        <ele>249</ele>
        <time>2011-06-23T15:15:01Z</time>
      </trkpt>
      <trkpt lat="45.29666" lon="1.40486">
        <ele>249</ele>
        <time>2011-06-23T15:15:04Z</time>
      </trkpt>
      <trkpt lat="45.2967" lon="1.40483">
        <ele>246</ele>
        <time>2011-06-23T15:15:06Z</time>
      </trkpt>
      <trkpt lat="45.29675" lon="1.40481">
        <ele>245</ele>
        <time>2011-06-23T15:15:08Z</time>
      </trkpt>
      <trkpt lat="45.29679" lon="1.40478">
        <ele>244</ele>
        <time>2011-06-23T15:15:10Z</time>
      </trkpt>
      <trkpt lat="45.29684" lon="1.40476">
        <ele>245</ele>
        <time>2011-06-23T15:15:12Z</time>
      </trkpt>
      <trkpt lat="45.2969" lon="1.40473">
        <ele>247</ele>
        <time>2011-06-23T15:15:15Z</time>
      </trkpt>
      <trkpt lat="45.29694" lon="1.4047">
        <ele>247</ele>
        <time>2011-06-23T15:15:17Z</time>
      </trkpt>
      <trkpt lat="45.297" lon="1.40467">
        <ele>249</ele>
        <time>2011-06-23T15:15:20Z</time>
      </trkpt>
      <trkpt lat="45.29706" lon="1.40464">
        <ele>250</ele>
        <time>2011-06-23T15:15:23Z</time>
      </trkpt>
      <trkpt lat="45.2971" lon="1.40462">
        <ele>251</ele>
        <time>2011-06-23T15:15:25Z</time>
      </trkpt>
      <trkpt lat="45.29716" lon="1.40458">
        <ele>252</ele>
        <time>2011-06-23T15:15:28Z</time>
      </trkpt>
      <trkpt lat="45.2972" lon="1.40456">
        <ele>252</ele>
        <time>2011-06-23T15:15:30Z</time>
      </trkpt>
      <trkpt lat="45.29725" lon="1.40453">
        <ele>251</ele>
        <time>2011-06-23T15:15:32Z</time>
      </trkpt>
      <trkpt lat="45.29729" lon="1.40452">
        <ele>252</ele>
        <time>2011-06-23T15:15:34Z</time>
      </trkpt>
      <trkpt lat="45.29735" lon="1.4045">
        <ele>249</ele>
        <time>2011-06-23T15:15:37Z</time>
      </trkpt>
      <trkpt lat="45.29741" lon="1.40449">
        <ele>247</ele>
        <time>2011-06-23T15:15:40Z</time>
      </trkpt>
      <trkpt lat="45.29747" lon="1.40447">
        <ele>248</ele>
        <time>2011-06-23T15:15:43Z</time>
      </trkpt>
      <trkpt lat="45.29752" lon="1.40446">
        <ele>250</ele>
        <time>2011-06-23T15:15:45Z</time>
      </trkpt>
      <trkpt lat="45.29757" lon="1.40444">
        <ele>248</ele>
        <time>2011-06-23T15:15:47Z</time>
      </trkpt>
      <trkpt lat="45.29761" lon="1.40443">
        <ele>250</ele>
        <time>2011-06-23T15:15:49Z</time>
      </trkpt>
      <trkpt lat="45.29767" lon="1.40442">
        <ele>249</ele>
        <time>2011-06-23T15:15:52Z</time>
      </trkpt>
      <trkpt lat="45.29773" lon="1.4044">
        <ele>250</ele>
        <time>2011-06-23T15:15:55Z</time>
      </trkpt>
      <trkpt lat="45.29779" lon="1.40435">
        <ele>250</ele>
        <time>2011-06-23T15:15:58Z</time>
      </trkpt>
      <trkpt lat="45.29781" lon="1.40426">
        <ele>251</ele>
        <time>2011-06-23T15:16:01Z</time>
      </trkpt>
      <trkpt lat="45.29779" lon="1.40419">
        <ele>252</ele>
        <time>2011-06-23T15:16:03Z</time>
      </trkpt>
      <trkpt lat="45.29777" lon="1.4041">
        <ele>253</ele>
        <time>2011-06-23T15:16:05Z</time>
      </trkpt>
      <trkpt lat="45.29776" lon="1.40402">
        <ele>253</ele>
        <time>2011-06-23T15:16:07Z</time>
      </trkpt>
      <trkpt lat="45.29774" lon="1.40395">
        <ele>251</ele>
        <time>2011-06-23T15:16:09Z</time>
      </trkpt>
      <trkpt lat="45.29772" lon="1.40388">
        <ele>249</ele>
        <time>2011-06-23T15:16:11Z</time>
      </trkpt>
      <trkpt lat="45.29771" lon="1.4038">
        <ele>248</ele>
        <time>2011-06-23T15:16:14Z</time>
      </trkpt>
      <trkpt lat="45.29775" lon="1.40374">
        <ele>248</ele>
        <time>2011-06-23T15:16:17Z</time>
      </trkpt>
      <trkpt lat="45.2978" lon="1.40371">
        <ele>249</ele>
        <time>2011-06-23T15:16:20Z</time>
      </trkpt>
      <trkpt lat="45.29785" lon="1.40371">
        <ele>251</ele>
        <time>2011-06-23T15:16:22Z</time>
      </trkpt>
      <trkpt lat="45.29789" lon="1.40372">
        <ele>250</ele>
        <time>2011-06-23T15:16:24Z</time>
      </trkpt>
      <trkpt lat="45.29794" lon="1.40374">
        <ele>252</ele>
        <time>2011-06-23T15:16:26Z</time>
      </trkpt>
      <trkpt lat="45.29798" lon="1.40377">
        <ele>254</ele>
        <time>2011-06-23T15:16:28Z</time>
      </trkpt>
      <trkpt lat="45.29803" lon="1.40379">
        <ele>253</ele>
        <time>2011-06-23T15:16:30Z</time>
      </trkpt>
      <trkpt lat="45.29809" lon="1.40381">
        <ele>252</ele>
        <time>2011-06-23T15:16:33Z</time>
      </trkpt>
      <trkpt lat="45.29814" lon="1.40385">
        <ele>250</ele>
        <time>2011-06-23T15:16:36Z</time>
      </trkpt>
      <trkpt lat="45.2982" lon="1.40387">
        <ele>242</ele>
        <time>2011-06-23T15:16:39Z</time>
      </trkpt>
      <trkpt lat="45.29827" lon="1.40388">
        <ele>242</ele>
        <time>2011-06-23T15:16:42Z</time>
      </trkpt>
      <trkpt lat="45.29832" lon="1.40389">
        <ele>245</ele>
        <time>2011-06-23T15:16:44Z</time>
      </trkpt>
      <trkpt lat="45.29837" lon="1.40389">
        <ele>243</ele>
        <time>2011-06-23T15:16:46Z</time>
      </trkpt>
      <trkpt lat="45.29842" lon="1.40389">
        <ele>241</ele>
        <time>2011-06-23T15:16:48Z</time>
      </trkpt>
      <trkpt lat="45.29849" lon="1.40388">
        <ele>242</ele>
        <time>2011-06-23T15:16:50Z</time>
      </trkpt>
      <trkpt lat="45.29855" lon="1.40387">
        <ele>243</ele>
        <time>2011-06-23T15:16:52Z</time>
      </trkpt>
      <trkpt lat="45.29862" lon="1.40387">
        <ele>244</ele>
        <time>2011-06-23T15:16:54Z</time>
      </trkpt>
      <trkpt lat="45.2987" lon="1.40387">
        <ele>244</ele>
        <time>2011-06-23T15:16:56Z</time>
      </trkpt>
      <trkpt lat="45.29878" lon="1.40388">
        <ele>243</ele>
        <time>2011-06-23T15:16:58Z</time>
      </trkpt>
      <trkpt lat="45.29885" lon="1.40389">
        <ele>243</ele>
        <time>2011-06-23T15:17:00Z</time>
      </trkpt>
      <trkpt lat="45.29889" lon="1.4039">
        <ele>244</ele>
        <time>2011-06-23T15:17:01Z</time>
      </trkpt>
      <trkpt lat="45.29898" lon="1.4039">
        <ele>244</ele>
        <time>2011-06-23T15:17:03Z</time>
      </trkpt>
      <trkpt lat="45.29905" lon="1.4039">
        <ele>244</ele>
        <time>2011-06-23T15:17:05Z</time>
      </trkpt>
      <trkpt lat="45.29912" lon="1.4039">
        <ele>244</ele>
        <time>2011-06-23T15:17:07Z</time>
      </trkpt>
      <trkpt lat="45.29918" lon="1.40391">
        <ele>244</ele>
        <time>2011-06-23T15:17:09Z</time>
      </trkpt>
      <trkpt lat="45.29923" lon="1.40391">
        <ele>244</ele>
        <time>2011-06-23T15:17:11Z</time>
      </trkpt>
      <trkpt lat="45.29928" lon="1.4039">
        <ele>245</ele>
        <time>2011-06-23T15:17:13Z</time>
      </trkpt>
      <trkpt lat="45.29934" lon="1.40388">
        <ele>246</ele>
        <time>2011-06-23T15:17:16Z</time>
      </trkpt>
      <trkpt lat="45.29938" lon="1.40385">
        <ele>246</ele>
        <time>2011-06-23T15:17:19Z</time>
      </trkpt>
      <trkpt lat="45.29944" lon="1.40384">
        <ele>248</ele>
        <time>2011-06-23T15:17:22Z</time>
      </trkpt>
      <trkpt lat="45.29948" lon="1.40383">
        <ele>249</ele>
        <time>2011-06-23T15:17:25Z</time>
      </trkpt>
      <trkpt lat="45.29953" lon="1.40382">
        <ele>246</ele>
        <time>2011-06-23T15:17:27Z</time>
      </trkpt>
      <trkpt lat="45.29958" lon="1.40382">
        <ele>245</ele>
        <time>2011-06-23T15:17:29Z</time>
      </trkpt>
      <trkpt lat="45.29962" lon="1.40382">
        <ele>245</ele>
        <time>2011-06-23T15:17:32Z</time>
      </trkpt>
      <trkpt lat="45.29968" lon="1.4038">
        <ele>242</ele>
        <time>2011-06-23T15:17:35Z</time>
      </trkpt>
      <trkpt lat="45.29972" lon="1.40378">
        <ele>245</ele>
        <time>2011-06-23T15:17:38Z</time>
      </trkpt>
      <trkpt lat="45.29977" lon="1.40377">
        <ele>246</ele>
        <time>2011-06-23T15:17:41Z</time>
      </trkpt>
      <trkpt lat="45.29982" lon="1.40377">
        <ele>236</ele>
        <time>2011-06-23T15:17:44Z</time>
      </trkpt>
      <trkpt lat="45.29987" lon="1.40376">
        <ele>236</ele>
        <time>2011-06-23T15:17:47Z</time>
      </trkpt>
      <trkpt lat="45.29992" lon="1.40375">
        <ele>241</ele>
        <time>2011-06-23T15:17:51Z</time>
      </trkpt>
      <trkpt lat="45.29997" lon="1.40375">
        <ele>245</ele>
        <time>2011-06-23T15:17:54Z</time>
      </trkpt>
      <trkpt lat="45.30002" lon="1.40374">
        <ele>247</ele>
        <time>2011-06-23T15:17:58Z</time>
      </trkpt>
      <trkpt lat="45.30008" lon="1.40374">
        <ele>248</ele>
        <time>2011-06-23T15:18:02Z</time>
      </trkpt>
      <trkpt lat="45.30014" lon="1.40372">
        <ele>248</ele>
        <time>2011-06-23T15:18:06Z</time>
      </trkpt>
      <trkpt lat="45.30019" lon="1.40371">
        <ele>245</ele>
        <time>2011-06-23T15:18:09Z</time>
      </trkpt>
      <trkpt lat="45.30023" lon="1.4037">
        <ele>249</ele>
        <time>2011-06-23T15:18:12Z</time>
      </trkpt>
      <trkpt lat="45.30028" lon="1.40369">
        <ele>249</ele>
        <time>2011-06-23T15:18:15Z</time>
      </trkpt>
      <trkpt lat="45.30033" lon="1.40369">
        <ele>249</ele>
        <time>2011-06-23T15:18:18Z</time>
      </trkpt>
      <trkpt lat="45.30038" lon="1.40369">
        <ele>248</ele>
        <time>2011-06-23T15:18:21Z</time>
      </trkpt>
      <trkpt lat="45.30042" lon="1.40366">
        <ele>251</ele>
        <time>2011-06-23T15:18:24Z</time>
      </trkpt>
      <trkpt lat="45.30047" lon="1.40364">
        <ele>251</ele>
        <time>2011-06-23T15:18:27Z</time>
      </trkpt>
      <trkpt lat="45.30051" lon="1.40362">
        <ele>248</ele>
        <time>2011-06-23T15:18:30Z</time>
      </trkpt>
      <trkpt lat="45.30056" lon="1.40361">
        <ele>247</ele>
        <time>2011-06-23T15:18:33Z</time>
      </trkpt>
      <trkpt lat="45.30061" lon="1.40358">
        <ele>247</ele>
        <time>2011-06-23T15:18:36Z</time>
      </trkpt>
      <trkpt lat="45.30066" lon="1.40357">
        <ele>253</ele>
        <time>2011-06-23T15:18:40Z</time>
      </trkpt>
      <trkpt lat="45.30072" lon="1.40356">
        <ele>250</ele>
        <time>2011-06-23T15:18:43Z</time>
      </trkpt>
      <trkpt lat="45.30077" lon="1.40357">
        <ele>249</ele>
        <time>2011-06-23T15:18:47Z</time>
      </trkpt>
      <trkpt lat="45.30083" lon="1.40356">
        <ele>252</ele>
        <time>2011-06-23T15:18:50Z</time>
      </trkpt>
      <trkpt lat="45.30088" lon="1.40355">
        <ele>253</ele>
        <time>2011-06-23T15:18:53Z</time>
      </trkpt>
      <trkpt lat="45.30092" lon="1.40353">
        <ele>252</ele>
        <time>2011-06-23T15:18:56Z</time>
      </trkpt>
      <trkpt lat="45.30097" lon="1.40351">
        <ele>254</ele>
        <time>2011-06-23T15:18:59Z</time>
      </trkpt>
      <trkpt lat="45.30103" lon="1.40349">
        <ele>253</ele>
        <time>2011-06-23T15:19:02Z</time>
      </trkpt>
      <trkpt lat="45.30109" lon="1.40347">
        <ele>254</ele>
        <time>2011-06-23T15:19:05Z</time>
      </trkpt>
      <trkpt lat="45.30115" lon="1.40345">
        <ele>255</ele>
        <time>2011-06-23T15:19:08Z</time>
      </trkpt>
      <trkpt lat="45.3012" lon="1.40343">
        <ele>256</ele>
        <time>2011-06-23T15:19:11Z</time>
      </trkpt>
      <trkpt lat="45.30126" lon="1.40341">
        <ele>256</ele>
        <time>2011-06-23T15:19:14Z</time>
      </trkpt>
      <trkpt lat="45.3013" lon="1.4034">
        <ele>253</ele>
        <time>2011-06-23T15:19:16Z</time>
      </trkpt>
      <trkpt lat="45.30135" lon="1.40339">
        <ele>256</ele>
        <time>2011-06-23T15:19:18Z</time>
      </trkpt>
      <trkpt lat="45.3014" lon="1.40337">
        <ele>258</ele>
        <time>2011-06-23T15:19:20Z</time>
      </trkpt>
      <trkpt lat="45.30145" lon="1.40336">
        <ele>259</ele>
        <time>2011-06-23T15:19:22Z</time>
      </trkpt>
      <trkpt lat="45.3015" lon="1.40335">
        <ele>258</ele>
        <time>2011-06-23T15:19:24Z</time>
      </trkpt>
      <trkpt lat="45.30154" lon="1.40333">
        <ele>257</ele>
        <time>2011-06-23T15:19:26Z</time>
      </trkpt>
      <trkpt lat="45.30159" lon="1.40331">
        <ele>259</ele>
        <time>2011-06-23T15:19:28Z</time>
      </trkpt>
      <trkpt lat="45.30164" lon="1.40328">
        <ele>258</ele>
        <time>2011-06-23T15:19:30Z</time>
      </trkpt>
      <trkpt lat="45.30169" lon="1.40326">
        <ele>258</ele>
        <time>2011-06-23T15:19:33Z</time>
      </trkpt>
      <trkpt lat="45.30174" lon="1.40324">
        <ele>257</ele>
        <time>2011-06-23T15:19:37Z</time>
      </trkpt>
      <trkpt lat="45.30179" lon="1.40322">
        <ele>254</ele>
        <time>2011-06-23T15:19:40Z</time>
      </trkpt>
      <trkpt lat="45.30183" lon="1.4032">
        <ele>255</ele>
        <time>2011-06-23T15:19:43Z</time>
      </trkpt>
      <trkpt lat="45.30188" lon="1.40319">
        <ele>252</ele>
        <time>2011-06-23T15:19:47Z</time>
      </trkpt>
      <trkpt lat="45.30194" lon="1.40318">
        <ele>252</ele>
        <time>2011-06-23T15:19:50Z</time>
      </trkpt>
      <trkpt lat="45.30199" lon="1.40316">
        <ele>253</ele>
        <time>2011-06-23T15:19:53Z</time>
      </trkpt>
      <trkpt lat="45.30204" lon="1.40314">
        <ele>254</ele>
        <time>2011-06-23T15:19:56Z</time>
      </trkpt>
      <trkpt lat="45.30208" lon="1.40312">
        <ele>254</ele>
        <time>2011-06-23T15:19:59Z</time>
      </trkpt>
      <trkpt lat="45.30214" lon="1.4031">
        <ele>253</ele>
        <time>2011-06-23T15:20:02Z</time>
      </trkpt>
      <trkpt lat="45.30219" lon="1.40309">
        <ele>252</ele>
        <time>2011-06-23T15:20:05Z</time>
      </trkpt>
      <trkpt lat="45.30225" lon="1.40307">
        <ele>251</ele>
        <time>2011-06-23T15:20:08Z</time>
      </trkpt>
      <trkpt lat="45.3023" lon="1.40306">
        <ele>250</ele>
        <time>2011-06-23T15:20:11Z</time>
      </trkpt>
      <trkpt lat="45.30235" lon="1.40304">
        <ele>248</ele>
        <time>2011-06-23T15:20:14Z</time>
      </trkpt>
      <trkpt lat="45.30239" lon="1.40301">
        <ele>248</ele>
        <time>2011-06-23T15:20:18Z</time>
      </trkpt>
      <trkpt lat="45.30244" lon="1.403">
        <ele>246</ele>
        <time>2011-06-23T15:20:21Z</time>
      </trkpt>
      <trkpt lat="45.3025" lon="1.403">
        <ele>246</ele>
        <time>2011-06-23T15:20:25Z</time>
      </trkpt>
      <trkpt lat="45.30254" lon="1.40299">
        <ele>247</ele>
        <time>2011-06-23T15:20:28Z</time>
      </trkpt>
      <trkpt lat="45.30259" lon="1.40298">
        <ele>247</ele>
        <time>2011-06-23T15:20:31Z</time>
      </trkpt>
      <trkpt lat="45.30264" lon="1.40297">
        <ele>246</ele>
        <time>2011-06-23T15:20:34Z</time>
      </trkpt>
      <trkpt lat="45.30268" lon="1.40297">
        <ele>247</ele>
        <time>2011-06-23T15:20:37Z</time>
      </trkpt>
      <trkpt lat="45.30274" lon="1.40295">
        <ele>248</ele>
        <time>2011-06-23T15:20:41Z</time>
      </trkpt>
      <trkpt lat="45.30279" lon="1.40294">
        <ele>250</ele>
        <time>2011-06-23T15:20:45Z</time>
      </trkpt>
      <trkpt lat="45.30284" lon="1.40291">
        <ele>253</ele>
        <time>2011-06-23T15:20:49Z</time>
      </trkpt>
      <trkpt lat="45.30289" lon="1.4029">
        <ele>254</ele>
        <time>2011-06-23T15:20:53Z</time>
      </trkpt>
      <trkpt lat="45.30294" lon="1.40289">
        <ele>254</ele>
        <time>2011-06-23T15:20:56Z</time>
      </trkpt>
      <trkpt lat="45.30299" lon="1.40289">
        <ele>255</ele>
        <time>2011-06-23T15:21:00Z</time>
      </trkpt>
      <trkpt lat="45.30305" lon="1.40287">
        <ele>257</ele>
        <time>2011-06-23T15:21:04Z</time>
      </trkpt>
      <trkpt lat="45.3031" lon="1.40286">
        <ele>256</ele>
        <time>2011-06-23T15:21:07Z</time>
      </trkpt>
      <trkpt lat="45.30315" lon="1.40286">
        <ele>257</ele>
        <time>2011-06-23T15:21:10Z</time>
      </trkpt>
      <trkpt lat="45.3032" lon="1.40285">
        <ele>257</ele>
        <time>2011-06-23T15:21:14Z</time>
      </trkpt>
      <trkpt lat="45.30326" lon="1.40284">
        <ele>256</ele>
        <time>2011-06-23T15:21:18Z</time>
      </trkpt>
      <trkpt lat="45.30331" lon="1.40284">
        <ele>254</ele>
        <time>2011-06-23T15:21:21Z</time>
      </trkpt>
      <trkpt lat="45.30336" lon="1.40283">
        <ele>253</ele>
        <time>2011-06-23T15:21:25Z</time>
      </trkpt>
      <trkpt lat="45.30341" lon="1.40283">
        <ele>257</ele>
        <time>2011-06-23T15:21:29Z</time>
      </trkpt>
      <trkpt lat="45.30346" lon="1.40283">
        <ele>259</ele>
        <time>2011-06-23T15:21:33Z</time>
      </trkpt>
      <trkpt lat="45.3035" lon="1.40283">
        <ele>260</ele>
        <time>2011-06-23T15:21:37Z</time>
      </trkpt>
      <trkpt lat="45.30355" lon="1.40282">
        <ele>257</ele>
        <time>2011-06-23T15:21:41Z</time>
      </trkpt>
      <trkpt lat="45.3036" lon="1.40281">
        <ele>259</ele>
        <time>2011-06-23T15:21:46Z</time>
      </trkpt>
      <trkpt lat="45.30365" lon="1.40279">
        <ele>262</ele>
        <time>2011-06-23T15:21:51Z</time>
      </trkpt>
      <trkpt lat="45.3037" lon="1.40276">
        <ele>265</ele>
        <time>2011-06-23T15:21:54Z</time>
      </trkpt>
      <trkpt lat="45.30374" lon="1.40272">
        <ele>265</ele>
        <time>2011-06-23T15:21:57Z</time>
      </trkpt>
      <trkpt lat="45.30379" lon="1.40269">
        <ele>265</ele>
        <time>2011-06-23T15:22:00Z</time>
      </trkpt>
      <trkpt lat="45.30384" lon="1.40267">
        <ele>260</ele>
        <time>2011-06-23T15:22:04Z</time>
      </trkpt>
      <trkpt lat="45.30389" lon="1.40266">
        <ele>263</ele>
        <time>2011-06-23T15:22:07Z</time>
      </trkpt>
      <trkpt lat="45.30394" lon="1.40266">
        <ele>262</ele>
        <time>2011-06-23T15:22:10Z</time>
      </trkpt>
      <trkpt lat="45.304" lon="1.40264">
        <ele>261</ele>
        <time>2011-06-23T15:22:13Z</time>
      </trkpt>
      <trkpt lat="45.30405" lon="1.40264">
        <ele>264</ele>
        <time>2011-06-23T15:22:17Z</time>
      </trkpt>
      <trkpt lat="45.30411" lon="1.40263">
        <ele>265</ele>
        <time>2011-06-23T15:22:20Z</time>
      </trkpt>
      <trkpt lat="45.30415" lon="1.40261">
        <ele>266</ele>
        <time>2011-06-23T15:22:23Z</time>
      </trkpt>
      <trkpt lat="45.30421" lon="1.40259">
        <ele>262</ele>
        <time>2011-06-23T15:22:27Z</time>
      </trkpt>
      <trkpt lat="45.30426" lon="1.40258">
        <ele>264</ele>
        <time>2011-06-23T15:22:30Z</time>
      </trkpt>
      <trkpt lat="45.3043" lon="1.40257">
        <ele>264</ele>
        <time>2011-06-23T15:22:32Z</time>
      </trkpt>
      <trkpt lat="45.30436" lon="1.40255">
        <ele>266</ele>
        <time>2011-06-23T15:22:35Z</time>
      </trkpt>
      <trkpt lat="45.30441" lon="1.40253">
        <ele>269</ele>
        <time>2011-06-23T15:22:39Z</time>
      </trkpt>
      <trkpt lat="45.30446" lon="1.40252">
        <ele>271</ele>
        <time>2011-06-23T15:22:43Z</time>
      </trkpt>
      <trkpt lat="45.30451" lon="1.40249">
        <ele>269</ele>
        <time>2011-06-23T15:22:46Z</time>
      </trkpt>
      <trkpt lat="45.30458" lon="1.40247">
        <ele>270</ele>
        <time>2011-06-23T15:22:49Z</time>
      </trkpt>
      <trkpt lat="45.30464" lon="1.40245">
        <ele>269</ele>
        <time>2011-06-23T15:22:52Z</time>
      </trkpt>
      <trkpt lat="45.30469" lon="1.40243">
        <ele>273</ele>
        <time>2011-06-23T15:22:55Z</time>
      </trkpt>
      <trkpt lat="45.30474" lon="1.40242">
        <ele>270</ele>
        <time>2011-06-23T15:22:58Z</time>
      </trkpt>
      <trkpt lat="45.30479" lon="1.4024">
        <ele>267</ele>
        <time>2011-06-23T15:23:02Z</time>
      </trkpt>
      <trkpt lat="45.30484" lon="1.4024">
        <ele>267</ele>
        <time>2011-06-23T15:23:06Z</time>
      </trkpt>
      <trkpt lat="45.30489" lon="1.40238">
        <ele>269</ele>
        <time>2011-06-23T15:23:10Z</time>
      </trkpt>
      <trkpt lat="45.30494" lon="1.40237">
        <ele>269</ele>
        <time>2011-06-23T15:23:15Z</time>
      </trkpt>
      <trkpt lat="45.30499" lon="1.40236">
        <ele>271</ele>
        <time>2011-06-23T15:23:20Z</time>
      </trkpt>
      <trkpt lat="45.30505" lon="1.40234">
        <ele>273</ele>
        <time>2011-06-23T15:23:24Z</time>
      </trkpt>
      <trkpt lat="45.3051" lon="1.40231">
        <ele>272</ele>
        <time>2011-06-23T15:23:28Z</time>
      </trkpt>
      <trkpt lat="45.30515" lon="1.40228">
        <ele>272</ele>
        <time>2011-06-23T15:23:31Z</time>
      </trkpt>
      <trkpt lat="45.3052" lon="1.40225">
        <ele>272</ele>
        <time>2011-06-23T15:23:34Z</time>
      </trkpt>
      <trkpt lat="45.30525" lon="1.40221">
        <ele>271</ele>
        <time>2011-06-23T15:23:37Z</time>
      </trkpt>
      <trkpt lat="45.30531" lon="1.40218">
        <ele>271</ele>
        <time>2011-06-23T15:23:40Z</time>
      </trkpt>
      <trkpt lat="45.30537" lon="1.40214">
        <ele>271</ele>
        <time>2011-06-23T15:23:43Z</time>
      </trkpt>
      <trkpt lat="45.30542" lon="1.40211">
        <ele>271</ele>
        <time>2011-06-23T15:23:46Z</time>
      </trkpt>
      <trkpt lat="45.30547" lon="1.40208">
        <ele>271</ele>
        <time>2011-06-23T15:23:49Z</time>
      </trkpt>
      <trkpt lat="45.30551" lon="1.40204">
        <ele>270</ele>
        <time>2011-06-23T15:23:52Z</time>
      </trkpt>
      <trkpt lat="45.30556" lon="1.40201">
        <ele>269</ele>
        <time>2011-06-23T15:23:55Z</time>
      </trkpt>
      <trkpt lat="45.3056" lon="1.40198">
        <ele>268</ele>
        <time>2011-06-23T15:23:58Z</time>
      </trkpt>
      <trkpt lat="45.30565" lon="1.40196">
        <ele>267</ele>
        <time>2011-06-23T15:24:01Z</time>
      </trkpt>
      <trkpt lat="45.30569" lon="1.40193">
        <ele>270</ele>
        <time>2011-06-23T15:24:04Z</time>
      </trkpt>
      <trkpt lat="45.30574" lon="1.40189">
        <ele>272</ele>
        <time>2011-06-23T15:24:08Z</time>
      </trkpt>
      <trkpt lat="45.30579" lon="1.40186">
        <ele>274</ele>
        <time>2011-06-23T15:24:12Z</time>
      </trkpt>
      <trkpt lat="45.30584" lon="1.40184">
        <ele>275</ele>
        <time>2011-06-23T15:24:16Z</time>
      </trkpt>
      <trkpt lat="45.3059" lon="1.40181">
        <ele>272</ele>
        <time>2011-06-23T15:24:20Z</time>
      </trkpt>
      <trkpt lat="45.30595" lon="1.40178">
        <ele>274</ele>
        <time>2011-06-23T15:24:24Z</time>
      </trkpt>
      <trkpt lat="45.30599" lon="1.40175">
        <ele>275</ele>
        <time>2011-06-23T15:24:27Z</time>
      </trkpt>
      <trkpt lat="45.30603" lon="1.40173">
        <ele>275</ele>
        <time>2011-06-23T15:24:30Z</time>
      </trkpt>
      <trkpt lat="45.30608" lon="1.4017">
        <ele>275</ele>
        <time>2011-06-23T15:24:33Z</time>
      </trkpt>
      <trkpt lat="45.30612" lon="1.40167">
        <ele>272</ele>
        <time>2011-06-23T15:24:36Z</time>
      </trkpt>
      <trkpt lat="45.30617" lon="1.40164">
        <ele>269</ele>
        <time>2011-06-23T15:24:39Z</time>
      </trkpt>
      <trkpt lat="45.30621" lon="1.40161">
        <ele>270</ele>
        <time>2011-06-23T15:24:42Z</time>
      </trkpt>
      <trkpt lat="45.30626" lon="1.40157">
        <ele>274</ele>
        <time>2011-06-23T15:24:45Z</time>
      </trkpt>
      <trkpt lat="45.30631" lon="1.40155">
        <ele>276</ele>
        <time>2011-06-23T15:24:48Z</time>
      </trkpt>
      <trkpt lat="45.30636" lon="1.40152">
        <ele>278</ele>
        <time>2011-06-23T15:24:51Z</time>
      </trkpt>
      <trkpt lat="45.30641" lon="1.40149">
        <ele>276</ele>
        <time>2011-06-23T15:24:54Z</time>
      </trkpt>
      <trkpt lat="45.30646" lon="1.40147">
        <ele>274</ele>
        <time>2011-06-23T15:24:57Z</time>
      </trkpt>
      <trkpt lat="45.30651" lon="1.40144">
        <ele>274</ele>
        <time>2011-06-23T15:25:00Z</time>
      </trkpt>
      <trkpt lat="45.30656" lon="1.40142">
        <ele>273</ele>
        <time>2011-06-23T15:25:04Z</time>
      </trkpt>
      <trkpt lat="45.3066" lon="1.40139">
        <ele>275</ele>
        <time>2011-06-23T15:25:07Z</time>
      </trkpt>
      <trkpt lat="45.30665" lon="1.40136">
        <ele>278</ele>
        <time>2011-06-23T15:25:10Z</time>
      </trkpt>
      <trkpt lat="45.3067" lon="1.40133">
        <ele>277</ele>
        <time>2011-06-23T15:25:14Z</time>
      </trkpt>
      <trkpt lat="45.30675" lon="1.4013">
        <ele>275</ele>
        <time>2011-06-23T15:25:17Z</time>
      </trkpt>
      <trkpt lat="45.3068" lon="1.40127">
        <ele>276</ele>
        <time>2011-06-23T15:25:20Z</time>
      </trkpt>
      <trkpt lat="45.30684" lon="1.40124">
        <ele>278</ele>
        <time>2011-06-23T15:25:23Z</time>
      </trkpt>
      <trkpt lat="45.30689" lon="1.4012">
        <ele>278</ele>
        <time>2011-06-23T15:25:26Z</time>
      </trkpt>
      <trkpt lat="45.30693" lon="1.40117">
        <ele>279</ele>
        <time>2011-06-23T15:25:29Z</time>
      </trkpt>
      <trkpt lat="45.30697" lon="1.40112">
        <ele>280</ele>
        <time>2011-06-23T15:25:32Z</time>
      </trkpt>
      <trkpt lat="45.30702" lon="1.40109">
        <ele>280</ele>
        <time>2011-06-23T15:25:35Z</time>
      </trkpt>
      <trkpt lat="45.30708" lon="1.40105">
        <ele>280</ele>
        <time>2011-06-23T15:25:38Z</time>
      </trkpt>
      <trkpt lat="45.30712" lon="1.40101">
        <ele>281</ele>
        <time>2011-06-23T15:25:40Z</time>
      </trkpt>
      <trkpt lat="45.30717" lon="1.40098">
        <ele>274</ele>
        <time>2011-06-23T15:25:42Z</time>
      </trkpt>
      <trkpt lat="45.30722" lon="1.40095">
        <ele>270</ele>
        <time>2011-06-23T15:25:48Z</time>
      </trkpt>
      <trkpt lat="45.30727" lon="1.40091">
        <ele>275</ele>
        <time>2011-06-23T15:25:52Z</time>
      </trkpt>
      <trkpt lat="45.30733" lon="1.40089">
        <ele>272</ele>
        <time>2011-06-23T15:25:55Z</time>
      </trkpt>
      <trkpt lat="45.30737" lon="1.40087">
        <ele>273</ele>
        <time>2011-06-23T15:25:58Z</time>
      </trkpt>
      <trkpt lat="45.30742" lon="1.40084">
        <ele>273</ele>
        <time>2011-06-23T15:26:01Z</time>
      </trkpt>
      <trkpt lat="45.30746" lon="1.40081">
        <ele>274</ele>
        <time>2011-06-23T15:26:04Z</time>
      </trkpt>
      <trkpt lat="45.30751" lon="1.4008">
        <ele>274</ele>
        <time>2011-06-23T15:26:07Z</time>
      </trkpt>
      <trkpt lat="45.30756" lon="1.40079">
        <ele>276</ele>
        <time>2011-06-23T15:26:10Z</time>
      </trkpt>
      <trkpt lat="45.30761" lon="1.40078">
        <ele>275</ele>
        <time>2011-06-23T15:26:13Z</time>
      </trkpt>
      <trkpt lat="45.30766" lon="1.40078">
        <ele>277</ele>
        <time>2011-06-23T15:26:16Z</time>
      </trkpt>
      <trkpt lat="45.30771" lon="1.4008">
        <ele>278</ele>
        <time>2011-06-23T15:26:19Z</time>
      </trkpt>
      <trkpt lat="45.30774" lon="1.40084">
        <ele>285</ele>
        <time>2011-06-23T15:26:22Z</time>
      </trkpt>
      <trkpt lat="45.30778" lon="1.40089">
        <ele>284</ele>
        <time>2011-06-23T15:26:26Z</time>
      </trkpt>
      <trkpt lat="45.30785" lon="1.4009">
        <ele>260</ele>
        <time>2011-06-23T15:28:56Z</time>
      </trkpt>
      <trkpt lat="45.30788" lon="1.40094">
        <ele>268</ele>
        <time>2011-06-23T15:29:15Z</time>
      </trkpt>
      <trkpt lat="45.30784" lon="1.4009">
        <ele>277</ele>
        <time>2011-06-23T15:29:38Z</time>
      </trkpt>
      <trkpt lat="45.30779" lon="1.4009">
        <ele>284</ele>
        <time>2011-06-23T15:32:12Z</time>
      </trkpt>
      <trkpt lat="45.30776" lon="1.40083">
        <ele>276</ele>
        <time>2011-06-23T15:32:39Z</time>
      </trkpt>
      <trkpt lat="45.3078" lon="1.40088">
        <ele>271</ele>
        <time>2011-06-23T15:33:45Z</time>
      </trkpt>
      <trkpt lat="45.30784" lon="1.40093">
        <ele>272</ele>
        <time>2011-06-23T15:33:50Z</time>
      </trkpt>
      <trkpt lat="45.30788" lon="1.40096">
        <ele>275</ele>
        <time>2011-06-23T15:33:55Z</time>
      </trkpt>
      <trkpt lat="45.30791" lon="1.401">
        <ele>277</ele>
        <time>2011-06-23T15:34:01Z</time>
      </trkpt>
      <trkpt lat="45.30795" lon="1.40104">
        <ele>275</ele>
        <time>2011-06-23T15:34:05Z</time>
      </trkpt>
      <trkpt lat="45.30799" lon="1.40108">
        <ele>277</ele>
        <time>2011-06-23T15:34:11Z</time>
      </trkpt>
      <trkpt lat="45.30803" lon="1.40112">
        <ele>278</ele>
        <time>2011-06-23T15:34:15Z</time>
      </trkpt>
      <trkpt lat="45.30808" lon="1.40115">
        <ele>278</ele>
        <time>2011-06-23T15:34:19Z</time>
      </trkpt>
      <trkpt lat="45.30812" lon="1.40116">
        <ele>281</ele>
        <time>2011-06-23T15:34:23Z</time>
      </trkpt>
      <trkpt lat="45.30817" lon="1.40118">
        <ele>278</ele>
        <time>2011-06-23T15:34:28Z</time>
      </trkpt>
      <trkpt lat="45.30822" lon="1.40122">
        <ele>281</ele>
        <time>2011-06-23T15:34:33Z</time>
      </trkpt>
      <trkpt lat="45.30827" lon="1.40123">
        <ele>280</ele>
        <time>2011-06-23T15:34:37Z</time>
      </trkpt>
      <trkpt lat="45.30831" lon="1.40127">
        <ele>280</ele>
        <time>2011-06-23T15:34:42Z</time>
      </trkpt>
      <trkpt lat="45.30835" lon="1.40129">
        <ele>280</ele>
        <time>2011-06-23T15:34:48Z</time>
      </trkpt>
      <trkpt lat="45.3084" lon="1.4013">
        <ele>283</ele>
        <time>2011-06-23T15:34:53Z</time>
      </trkpt>
      <trkpt lat="45.30844" lon="1.40133">
        <ele>288</ele>
        <time>2011-06-23T15:34:58Z</time>
      </trkpt>
      <trkpt lat="45.30849" lon="1.40136">
        <ele>285</ele>
        <time>2011-06-23T15:35:03Z</time>
      </trkpt>
      <trkpt lat="45.30854" lon="1.40138">
        <ele>288</ele>
        <time>2011-06-23T15:35:07Z</time>
      </trkpt>
      <trkpt lat="45.30858" lon="1.4014">
        <ele>291</ele>
        <time>2011-06-23T15:35:12Z</time>
      </trkpt>
      <trkpt lat="45.30861" lon="1.40145">
        <ele>288</ele>
        <time>2011-06-23T15:35:21Z</time>
      </trkpt>
      <trkpt lat="45.30863" lon="1.40151">
        <ele>289</ele>
        <time>2011-06-23T15:35:40Z</time>
      </trkpt>
      <trkpt lat="45.30868" lon="1.40152">
        <ele>288</ele>
        <time>2011-06-23T15:35:46Z</time>
      </trkpt>
      <trkpt lat="45.30872" lon="1.4015">
        <ele>287</ele>
        <time>2011-06-23T15:35:50Z</time>
      </trkpt>
      <trkpt lat="45.30877" lon="1.40152">
        <ele>288</ele>
        <time>2011-06-23T15:35:55Z</time>
      </trkpt>
      <trkpt lat="45.30881" lon="1.4015">
        <ele>290</ele>
        <time>2011-06-23T15:36:02Z</time>
      </trkpt>
      <trkpt lat="45.30886" lon="1.40153">
        <ele>290</ele>
        <time>2011-06-23T15:36:12Z</time>
      </trkpt>
      <trkpt lat="45.30891" lon="1.40152">
        <ele>292</ele>
        <time>2011-06-23T15:36:15Z</time>
      </trkpt>
      <trkpt lat="45.30896" lon="1.4015">
        <ele>291</ele>
        <time>2011-06-23T15:36:19Z</time>
      </trkpt>
      <trkpt lat="45.30901" lon="1.40147">
        <ele>290</ele>
        <time>2011-06-23T15:36:26Z</time>
      </trkpt>
      <trkpt lat="45.30906" lon="1.40148">
        <ele>288</ele>
        <time>2011-06-23T15:36:31Z</time>
      </trkpt>
      <trkpt lat="45.30912" lon="1.40148">
        <ele>288</ele>
        <time>2011-06-23T15:36:34Z</time>
      </trkpt>
      <trkpt lat="45.30918" lon="1.40148">
        <ele>289</ele>
        <time>2011-06-23T15:36:37Z</time>
      </trkpt>
      <trkpt lat="45.30923" lon="1.40147">
        <ele>291</ele>
        <time>2011-06-23T15:36:40Z</time>
      </trkpt>
      <trkpt lat="45.30928" lon="1.40147">
        <ele>292</ele>
        <time>2011-06-23T15:36:43Z</time>
      </trkpt>
      <trkpt lat="45.30934" lon="1.40146">
        <ele>292</ele>
        <time>2011-06-23T15:36:46Z</time>
      </trkpt>
      <trkpt lat="45.30939" lon="1.40145">
        <ele>293</ele>
        <time>2011-06-23T15:36:48Z</time>
      </trkpt>
      <trkpt lat="45.30944" lon="1.40144">
        <ele>293</ele>
        <time>2011-06-23T15:36:50Z</time>
      </trkpt>
      <trkpt lat="45.3095" lon="1.40143">
        <ele>301</ele>
        <time>2011-06-23T15:36:53Z</time>
      </trkpt>
      <trkpt lat="45.30955" lon="1.40142">
        <ele>300</ele>
        <time>2011-06-23T15:36:55Z</time>
      </trkpt>
      <trkpt lat="45.30959" lon="1.4014">
        <ele>301</ele>
        <time>2011-06-23T15:36:57Z</time>
      </trkpt>
      <trkpt lat="45.30965" lon="1.40138">
        <ele>301</ele>
        <time>2011-06-23T15:36:59Z</time>
      </trkpt>
      <trkpt lat="45.3097" lon="1.40136">
        <ele>300</ele>
        <time>2011-06-23T15:37:01Z</time>
      </trkpt>
      <trkpt lat="45.30974" lon="1.40134">
        <ele>300</ele>
        <time>2011-06-23T15:37:03Z</time>
      </trkpt>
      <trkpt lat="45.3098" lon="1.40133">
        <ele>296</ele>
        <time>2011-06-23T15:37:05Z</time>
      </trkpt>
      <trkpt lat="45.30987" lon="1.40131">
        <ele>296</ele>
        <time>2011-06-23T15:37:07Z</time>
      </trkpt>
      <trkpt lat="45.30994" lon="1.40128">
        <ele>296</ele>
        <time>2011-06-23T15:37:09Z</time>
      </trkpt>
      <trkpt lat="45.31" lon="1.40126">
        <ele>295</ele>
        <time>2011-06-23T15:37:11Z</time>
      </trkpt>
      <trkpt lat="45.31007" lon="1.40123">
        <ele>295</ele>
        <time>2011-06-23T15:37:13Z</time>
      </trkpt>
      <trkpt lat="45.31014" lon="1.40118">
        <ele>295</ele>
        <time>2011-06-23T15:37:15Z</time>
      </trkpt>
      <trkpt lat="45.3102" lon="1.40114">
        <ele>294</ele>
        <time>2011-06-23T15:37:17Z</time>
      </trkpt>
      <trkpt lat="45.31027" lon="1.40109">
        <ele>294</ele>
        <time>2011-06-23T15:37:19Z</time>
      </trkpt>
      <trkpt lat="45.31035" lon="1.40102">
        <ele>297</ele>
        <time>2011-06-23T15:37:21Z</time>
      </trkpt>
      <trkpt lat="45.31042" lon="1.40095">
        <ele>299</ele>
        <time>2011-06-23T15:37:23Z</time>
      </trkpt>
      <trkpt lat="45.31049" lon="1.40088">
        <ele>302</ele>
        <time>2011-06-23T15:37:25Z</time>
      </trkpt>
      <trkpt lat="45.31053" lon="1.40084">
        <ele>302</ele>
        <time>2011-06-23T15:37:26Z</time>
      </trkpt>
      <trkpt lat="45.31059" lon="1.40077">
        <ele>301</ele>
        <time>2011-06-23T15:37:28Z</time>
      </trkpt>
      <trkpt lat="45.31066" lon="1.4007">
        <ele>302</ele>
        <time>2011-06-23T15:37:30Z</time>
      </trkpt>
      <trkpt lat="45.31073" lon="1.40062">
        <ele>301</ele>
        <time>2011-06-23T15:37:32Z</time>
      </trkpt>
      <trkpt lat="45.31079" lon="1.40054">
        <ele>299</ele>
        <time>2011-06-23T15:37:34Z</time>
      </trkpt>
      <trkpt lat="45.31086" lon="1.40046">
        <ele>300</ele>
        <time>2011-06-23T15:37:36Z</time>
      </trkpt>
      <trkpt lat="45.3109" lon="1.40042">
        <ele>299</ele>
        <time>2011-06-23T15:37:37Z</time>
      </trkpt>
      <trkpt lat="45.31096" lon="1.40034">
        <ele>297</ele>
        <time>2011-06-23T15:37:39Z</time>
      </trkpt>
      <trkpt lat="45.31102" lon="1.40026">
        <ele>298</ele>
        <time>2011-06-23T15:37:41Z</time>
      </trkpt>
      <trkpt lat="45.31108" lon="1.40018">
        <ele>298</ele>
        <time>2011-06-23T15:37:43Z</time>
      </trkpt>
      <trkpt lat="45.31115" lon="1.4001">
        <ele>296</ele>
        <time>2011-06-23T15:37:45Z</time>
      </trkpt>
      <trkpt lat="45.31122" lon="1.40003">
        <ele>294</ele>
        <time>2011-06-23T15:37:47Z</time>
      </trkpt>
      <trkpt lat="45.31126" lon="1.39999">
        <ele>294</ele>
        <time>2011-06-23T15:37:48Z</time>
      </trkpt>
      <trkpt lat="45.3113" lon="1.39995">
        <ele>295</ele>
        <time>2011-06-23T15:37:49Z</time>
      </trkpt>
      <trkpt lat="45.31134" lon="1.39991">
        <ele>295</ele>
        <time>2011-06-23T15:37:50Z</time>
      </trkpt>
      <trkpt lat="45.31139" lon="1.39983">
        <ele>296</ele>
        <time>2011-06-23T15:37:52Z</time>
      </trkpt>
      <trkpt lat="45.31145" lon="1.39974">
        <ele>296</ele>
        <time>2011-06-23T15:37:54Z</time>
      </trkpt>
      <trkpt lat="45.31149" lon="1.39965">
        <ele>296</ele>
        <time>2011-06-23T15:37:56Z</time>
      </trkpt>
      <trkpt lat="45.31154" lon="1.39957">
        <ele>295</ele>
        <time>2011-06-23T15:37:58Z</time>
      </trkpt>
      <trkpt lat="45.3116" lon="1.3995">
        <ele>295</ele>
        <time>2011-06-23T15:38:00Z</time>
      </trkpt>
      <trkpt lat="45.31164" lon="1.39945">
        <ele>296</ele>
        <time>2011-06-23T15:38:02Z</time>
      </trkpt>
      <trkpt lat="45.31168" lon="1.3994">
        <ele>296</ele>
        <time>2011-06-23T15:38:04Z</time>
      </trkpt>
      <trkpt lat="45.31173" lon="1.39934">
        <ele>296</ele>
        <time>2011-06-23T15:38:06Z</time>
      </trkpt>
      <trkpt lat="45.31179" lon="1.39926">
        <ele>293</ele>
        <time>2011-06-23T15:38:08Z</time>
      </trkpt>
      <trkpt lat="45.31186" lon="1.39918">
        <ele>290</ele>
        <time>2011-06-23T15:38:10Z</time>
      </trkpt>
      <trkpt lat="45.3119" lon="1.39916">
        <ele>290</ele>
        <time>2011-06-23T15:38:11Z</time>
      </trkpt>
      <trkpt lat="45.31195" lon="1.39914">
        <ele>290</ele>
        <time>2011-06-23T15:38:12Z</time>
      </trkpt>
      <trkpt lat="45.31202" lon="1.39914">
        <ele>289</ele>
        <time>2011-06-23T15:38:14Z</time>
      </trkpt>
      <trkpt lat="45.31209" lon="1.39913">
        <ele>288</ele>
        <time>2011-06-23T15:38:16Z</time>
      </trkpt>
      <trkpt lat="45.31214" lon="1.39913">
        <ele>289</ele>
        <time>2011-06-23T15:38:18Z</time>
      </trkpt>
      <trkpt lat="45.3122" lon="1.39914">
        <ele>289</ele>
        <time>2011-06-23T15:38:20Z</time>
      </trkpt>
      <trkpt lat="45.31226" lon="1.39915">
        <ele>289</ele>
        <time>2011-06-23T15:38:22Z</time>
      </trkpt>
      <trkpt lat="45.3123" lon="1.39916">
        <ele>291</ele>
        <time>2011-06-23T15:38:24Z</time>
      </trkpt>
      <trkpt lat="45.31236" lon="1.39917">
        <ele>286</ele>
        <time>2011-06-23T15:38:26Z</time>
      </trkpt>
      <trkpt lat="45.31241" lon="1.39919">
        <ele>287</ele>
        <time>2011-06-23T15:38:28Z</time>
      </trkpt>
      <trkpt lat="45.31246" lon="1.3992">
        <ele>287</ele>
        <time>2011-06-23T15:38:30Z</time>
      </trkpt>
      <trkpt lat="45.3125" lon="1.3992">
        <ele>289</ele>
        <time>2011-06-23T15:38:32Z</time>
      </trkpt>
      <trkpt lat="45.31256" lon="1.39921">
        <ele>288</ele>
        <time>2011-06-23T15:38:35Z</time>
      </trkpt>
      <trkpt lat="45.31261" lon="1.39922">
        <ele>293</ele>
        <time>2011-06-23T15:38:38Z</time>
      </trkpt>
      <trkpt lat="45.31266" lon="1.39923">
        <ele>293</ele>
        <time>2011-06-23T15:38:41Z</time>
      </trkpt>
      <trkpt lat="45.31272" lon="1.39924">
        <ele>293</ele>
        <time>2011-06-23T15:38:44Z</time>
      </trkpt>
      <trkpt lat="45.31277" lon="1.39923">
        <ele>291</ele>
        <time>2011-06-23T15:38:47Z</time>
      </trkpt>
      <trkpt lat="45.31282" lon="1.39922">
        <ele>289</ele>
        <time>2011-06-23T15:38:51Z</time>
      </trkpt>
      <trkpt lat="45.31286" lon="1.39918">
        <ele>289</ele>
        <time>2011-06-23T15:38:56Z</time>
      </trkpt>
      <trkpt lat="45.3129" lon="1.39915">
        <ele>291</ele>
        <time>2011-06-23T15:39:03Z</time>
      </trkpt>
      <trkpt lat="45.31295" lon="1.39913">
        <ele>290</ele>
        <time>2011-06-23T15:39:07Z</time>
      </trkpt>
      <trkpt lat="45.313" lon="1.39912">
        <ele>292</ele>
        <time>2011-06-23T15:39:10Z</time>
      </trkpt>
      <trkpt lat="45.31306" lon="1.39911">
        <ele>294</ele>
        <time>2011-06-23T15:39:13Z</time>
      </trkpt>
      <trkpt lat="45.31311" lon="1.39908">
        <ele>293</ele>
        <time>2011-06-23T15:39:16Z</time>
      </trkpt>
      <trkpt lat="45.31316" lon="1.39906">
        <ele>290</ele>
        <time>2011-06-23T15:39:19Z</time>
      </trkpt>
      <trkpt lat="45.3132" lon="1.39903">
        <ele>290</ele>
        <time>2011-06-23T15:39:21Z</time>
      </trkpt>
      <trkpt lat="45.31325" lon="1.39901">
        <ele>290</ele>
        <time>2011-06-23T15:39:24Z</time>
      </trkpt>
      <trkpt lat="45.3133" lon="1.39898">
        <ele>285</ele>
        <time>2011-06-23T15:39:27Z</time>
      </trkpt>
      <trkpt lat="45.31336" lon="1.39894">
        <ele>286</ele>
        <time>2011-06-23T15:39:30Z</time>
      </trkpt>
      <trkpt lat="45.3134" lon="1.3989">
        <ele>287</ele>
        <time>2011-06-23T15:39:33Z</time>
      </trkpt>
      <trkpt lat="45.31344" lon="1.39886">
        <ele>287</ele>
        <time>2011-06-23T15:39:36Z</time>
      </trkpt>
      <trkpt lat="45.31348" lon="1.39884">
        <ele>288</ele>
        <time>2011-06-23T15:39:39Z</time>
      </trkpt>
      <trkpt lat="45.31353" lon="1.39883">
        <ele>291</ele>
        <time>2011-06-23T15:39:42Z</time>
      </trkpt>
      <trkpt lat="45.31359" lon="1.39883">
        <ele>294</ele>
        <time>2011-06-23T15:39:46Z</time>
      </trkpt>
      <trkpt lat="45.31363" lon="1.39881">
        <ele>294</ele>
        <time>2011-06-23T15:39:49Z</time>
      </trkpt>
      <trkpt lat="45.31368" lon="1.39879">
        <ele>293</ele>
        <time>2011-06-23T15:39:52Z</time>
      </trkpt>
      <trkpt lat="45.31372" lon="1.39878">
        <ele>296</ele>
        <time>2011-06-23T15:39:55Z</time>
      </trkpt>
      <trkpt lat="45.31377" lon="1.39876">
        <ele>294</ele>
        <time>2011-06-23T15:39:59Z</time>
      </trkpt>
      <trkpt lat="45.31382" lon="1.39874">
        <ele>299</ele>
        <time>2011-06-23T15:40:03Z</time>
      </trkpt>
      <trkpt lat="45.31388" lon="1.39872">
        <ele>298</ele>
        <time>2011-06-23T15:40:07Z</time>
      </trkpt>
      <trkpt lat="45.31392" lon="1.3987">
        <ele>295</ele>
        <time>2011-06-23T15:40:11Z</time>
      </trkpt>
      <trkpt lat="45.31397" lon="1.39869">
        <ele>295</ele>
        <time>2011-06-23T15:40:15Z</time>
      </trkpt>
      <trkpt lat="45.31402" lon="1.3987">
        <ele>295</ele>
        <time>2011-06-23T15:40:18Z</time>
      </trkpt>
      <trkpt lat="45.31407" lon="1.3987">
        <ele>297</ele>
        <time>2011-06-23T15:40:21Z</time>
      </trkpt>
      <trkpt lat="45.31412" lon="1.3987">
        <ele>303</ele>
        <time>2011-06-23T15:40:25Z</time>
      </trkpt>
      <trkpt lat="45.31418" lon="1.39871">
        <ele>304</ele>
        <time>2011-06-23T15:40:29Z</time>
      </trkpt>
      <trkpt lat="45.31423" lon="1.39871">
        <ele>303</ele>
        <time>2011-06-23T15:40:32Z</time>
      </trkpt>
      <trkpt lat="45.31428" lon="1.39871">
        <ele>308</ele>
        <time>2011-06-23T15:40:35Z</time>
      </trkpt>
      <trkpt lat="45.31433" lon="1.39871">
        <ele>309</ele>
        <time>2011-06-23T15:40:38Z</time>
      </trkpt>
      <trkpt lat="45.31437" lon="1.39869">
        <ele>308</ele>
        <time>2011-06-23T15:40:41Z</time>
      </trkpt>
      <trkpt lat="45.31442" lon="1.39869">
        <ele>306</ele>
        <time>2011-06-23T15:40:45Z</time>
      </trkpt>
      <trkpt lat="45.31447" lon="1.3987">
        <ele>308</ele>
        <time>2011-06-23T15:40:48Z</time>
      </trkpt>
      <trkpt lat="45.31452" lon="1.39872">
        <ele>310</ele>
        <time>2011-06-23T15:40:51Z</time>
      </trkpt>
      <trkpt lat="45.31456" lon="1.39877">
        <ele>305</ele>
        <time>2011-06-23T15:40:56Z</time>
      </trkpt>
      <trkpt lat="45.3146" lon="1.39872">
        <ele>308</ele>
        <time>2011-06-23T15:41:02Z</time>
      </trkpt>
      <trkpt lat="45.31464" lon="1.39868">
        <ele>312</ele>
        <time>2011-06-23T15:41:07Z</time>
      </trkpt>
      <trkpt lat="45.3146" lon="1.39866">
        <ele>312</ele>
        <time>2011-06-23T15:41:23Z</time>
      </trkpt>
      <trkpt lat="45.31463" lon="1.39871">
        <ele>308</ele>
        <time>2011-06-23T15:41:36Z</time>
      </trkpt>
      <trkpt lat="45.31459" lon="1.39874">
        <ele>306</ele>
        <time>2011-06-23T15:42:20Z</time>
      </trkpt>
      <trkpt lat="45.31464" lon="1.39873">
        <ele>311</ele>
        <time>2011-06-23T15:43:02Z</time>
      </trkpt>
      <trkpt lat="45.31468" lon="1.39869">
        <ele>307</ele>
        <time>2011-06-23T15:43:08Z</time>
      </trkpt>
      <trkpt lat="45.31471" lon="1.39864">
        <ele>310</ele>
        <time>2011-06-23T15:43:13Z</time>
      </trkpt>
      <trkpt lat="45.31476" lon="1.39863">
        <ele>313</ele>
        <time>2011-06-23T15:43:19Z</time>
      </trkpt>
      <trkpt lat="45.31481" lon="1.39862">
        <ele>313</ele>
        <time>2011-06-23T15:43:24Z</time>
      </trkpt>
      <trkpt lat="45.31486" lon="1.39862">
        <ele>312</ele>
        <time>2011-06-23T15:43:30Z</time>
      </trkpt>
      <trkpt lat="45.31491" lon="1.3986">
        <ele>313</ele>
        <time>2011-06-23T15:43:35Z</time>
      </trkpt>
      <trkpt lat="45.31496" lon="1.3986">
        <ele>320</ele>
        <time>2011-06-23T15:43:41Z</time>
      </trkpt>
      <trkpt lat="45.31501" lon="1.3986">
        <ele>315</ele>
        <time>2011-06-23T15:43:47Z</time>
      </trkpt>
      <trkpt lat="45.31506" lon="1.3986">
        <ele>304</ele>
        <time>2011-06-23T15:43:50Z</time>
      </trkpt>
      <trkpt lat="45.3151" lon="1.39865">
        <ele>313</ele>
        <time>2011-06-23T15:43:57Z</time>
      </trkpt>
      <trkpt lat="45.31513" lon="1.39869">
        <ele>314</ele>
        <time>2011-06-23T15:44:01Z</time>
      </trkpt>
      <trkpt lat="45.31518" lon="1.39869">
        <ele>318</ele>
        <time>2011-06-23T15:44:06Z</time>
      </trkpt>
      <trkpt lat="45.31523" lon="1.39874">
        <ele>319</ele>
        <time>2011-06-23T15:44:12Z</time>
      </trkpt>
      <trkpt lat="45.31526" lon="1.39881">
        <ele>327</ele>
        <time>2011-06-23T15:44:17Z</time>
      </trkpt>
      <trkpt lat="45.31529" lon="1.39885">
        <ele>327</ele>
        <time>2011-06-23T15:44:21Z</time>
      </trkpt>
      <trkpt lat="45.31533" lon="1.3989">
        <ele>325</ele>
        <time>2011-06-23T15:44:26Z</time>
      </trkpt>
      <trkpt lat="45.31537" lon="1.39895">
        <ele>334</ele>
        <time>2011-06-23T15:44:30Z</time>
      </trkpt>
      <trkpt lat="45.3154" lon="1.39901">
        <ele>330</ele>
        <time>2011-06-23T15:44:34Z</time>
      </trkpt>
      <trkpt lat="45.31544" lon="1.39907">
        <ele>330</ele>
        <time>2011-06-23T15:44:38Z</time>
      </trkpt>
      <trkpt lat="45.31549" lon="1.39912">
        <ele>325</ele>
        <time>2011-06-23T15:44:42Z</time>
      </trkpt>
      <trkpt lat="45.31553" lon="1.39916">
        <ele>323</ele>
        <time>2011-06-23T15:44:45Z</time>
      </trkpt>
      <trkpt lat="45.31556" lon="1.39924">
        <ele>319</ele>
        <time>2011-06-23T15:44:48Z</time>
      </trkpt>
      <trkpt lat="45.31558" lon="1.39932">
        <ele>322</ele>
        <time>2011-06-23T15:44:50Z</time>
      </trkpt>
      <trkpt lat="45.31561" lon="1.39939">
        <ele>325</ele>
        <time>2011-06-23T15:44:52Z</time>
      </trkpt>
      <trkpt lat="45.31565" lon="1.39945">
        <ele>328</ele>
        <time>2011-06-23T15:44:54Z</time>
      </trkpt>
      <trkpt lat="45.31571" lon="1.39946">
        <ele>328</ele>
        <time>2011-06-23T15:44:56Z</time>
      </trkpt>
      <trkpt lat="45.31575" lon="1.3995">
        <ele>320</ele>
        <time>2011-06-23T15:44:58Z</time>
      </trkpt>
      <trkpt lat="45.31581" lon="1.39952">
        <ele>325</ele>
        <time>2011-06-23T15:45:01Z</time>
      </trkpt>
      <trkpt lat="45.31587" lon="1.39954">
        <ele>324</ele>
        <time>2011-06-23T15:45:04Z</time>
      </trkpt>
      <trkpt lat="45.31592" lon="1.39957">
        <ele>321</ele>
        <time>2011-06-23T15:45:06Z</time>
      </trkpt>
      <trkpt lat="45.31596" lon="1.3996">
        <ele>322</ele>
        <time>2011-06-23T15:45:08Z</time>
      </trkpt>
      <trkpt lat="45.316" lon="1.39964">
        <ele>327</ele>
        <time>2011-06-23T15:45:10Z</time>
      </trkpt>
      <trkpt lat="45.31605" lon="1.39963">
        <ele>333</ele>
        <time>2011-06-23T15:45:15Z</time>
      </trkpt>
      <trkpt lat="45.316" lon="1.39964">
        <ele>330</ele>
        <time>2011-06-23T15:45:31Z</time>
      </trkpt>
      <trkpt lat="45.31603" lon="1.39959">
        <ele>333</ele>
        <time>2011-06-23T15:45:55Z</time>
      </trkpt>
      <trkpt lat="45.31605" lon="1.39951">
        <ele>337</ele>
        <time>2011-06-23T15:45:59Z</time>
      </trkpt>
      <trkpt lat="45.31608" lon="1.39943">
        <ele>338</ele>
        <time>2011-06-23T15:46:02Z</time>
      </trkpt>
      <trkpt lat="45.31612" lon="1.39935">
        <ele>345</ele>
        <time>2011-06-23T15:46:05Z</time>
      </trkpt>
      <trkpt lat="45.31614" lon="1.39928">
        <ele>344</ele>
        <time>2011-06-23T15:46:07Z</time>
      </trkpt>
      <trkpt lat="45.31619" lon="1.39923">
        <ele>346</ele>
        <time>2011-06-23T15:46:09Z</time>
      </trkpt>
      <trkpt lat="45.31622" lon="1.39918">
        <ele>355</ele>
        <time>2011-06-23T15:46:13Z</time>
      </trkpt>
      <trkpt lat="45.31626" lon="1.39912">
        <ele>351</ele>
        <time>2011-06-23T15:46:16Z</time>
      </trkpt>
      <trkpt lat="45.3163" lon="1.39907">
        <ele>350</ele>
        <time>2011-06-23T15:46:19Z</time>
      </trkpt>
      <trkpt lat="45.31632" lon="1.399">
        <ele>340</ele>
        <time>2011-06-23T15:46:23Z</time>
      </trkpt>
      <trkpt lat="45.31629" lon="1.39906">
        <ele>330</ele>
        <time>2011-06-23T15:46:38Z</time>
      </trkpt>
      <trkpt lat="45.31626" lon="1.3991">
        <ele>327</ele>
        <time>2011-06-23T15:46:40Z</time>
      </trkpt>
      <trkpt lat="45.31622" lon="1.39915">
        <ele>328</ele>
        <time>2011-06-23T15:46:44Z</time>
      </trkpt>
      <trkpt lat="45.31619" lon="1.3992">
        <ele>329</ele>
        <time>2011-06-23T15:46:47Z</time>
      </trkpt>
      <trkpt lat="45.31616" lon="1.39926">
        <ele>334</ele>
        <time>2011-06-23T15:46:50Z</time>
      </trkpt>
      <trkpt lat="45.31613" lon="1.3993">
        <ele>330</ele>
        <time>2011-06-23T15:46:54Z</time>
      </trkpt>
      <trkpt lat="45.3161" lon="1.39936">
        <ele>335</ele>
        <time>2011-06-23T15:47:00Z</time>
      </trkpt>
      <trkpt lat="45.31607" lon="1.39943">
        <ele>333</ele>
        <time>2011-06-23T15:47:04Z</time>
      </trkpt>
      <trkpt lat="45.31605" lon="1.39949">
        <ele>337</ele>
        <time>2011-06-23T15:47:08Z</time>
      </trkpt>
      <trkpt lat="45.31605" lon="1.39957">
        <ele>336</ele>
        <time>2011-06-23T15:47:13Z</time>
      </trkpt>
      <trkpt lat="45.31604" lon="1.39964">
        <ele>342</ele>
        <time>2011-06-23T15:47:17Z</time>
      </trkpt>
      <trkpt lat="45.31603" lon="1.39971">
        <ele>338</ele>
        <time>2011-06-23T15:47:21Z</time>
      </trkpt>
      <trkpt lat="45.31604" lon="1.39978">
        <ele>338</ele>
        <time>2011-06-23T15:47:25Z</time>
      </trkpt>
      <trkpt lat="45.31605" lon="1.39986">
        <ele>338</ele>
        <time>2011-06-23T15:47:30Z</time>
      </trkpt>
      <trkpt lat="45.31605" lon="1.39994">
        <ele>334</ele>
        <time>2011-06-23T15:47:35Z</time>
      </trkpt>
      <trkpt lat="45.31605" lon="1.4">
        <ele>335</ele>
        <time>2011-06-23T15:47:38Z</time>
      </trkpt>
      <trkpt lat="45.31606" lon="1.40008">
        <ele>337</ele>
        <time>2011-06-23T15:47:41Z</time>
      </trkpt>
      <trkpt lat="45.31606" lon="1.40015">
        <ele>335</ele>
        <time>2011-06-23T15:47:44Z</time>
      </trkpt>
      <trkpt lat="45.31608" lon="1.40022">
        <ele>333</ele>
        <time>2011-06-23T15:47:47Z</time>
      </trkpt>
      <trkpt lat="45.31609" lon="1.4003">
        <ele>333</ele>
        <time>2011-06-23T15:47:51Z</time>
      </trkpt>
      <trkpt lat="45.3161" lon="1.40037">
        <ele>335</ele>
        <time>2011-06-23T15:47:55Z</time>
      </trkpt>
      <trkpt lat="45.31611" lon="1.40045">
        <ele>335</ele>
        <time>2011-06-23T15:48:00Z</time>
      </trkpt>
      <trkpt lat="45.31612" lon="1.40052">
        <ele>334</ele>
        <time>2011-06-23T15:48:04Z</time>
      </trkpt>
      <trkpt lat="45.31613" lon="1.40058">
        <ele>338</ele>
        <time>2011-06-23T15:48:08Z</time>
      </trkpt>
      <trkpt lat="45.31616" lon="1.40063">
        <ele>339</ele>
        <time>2011-06-23T15:48:13Z</time>
      </trkpt>
      <trkpt lat="45.31619" lon="1.40069">
        <ele>334</ele>
        <time>2011-06-23T15:48:21Z</time>
      </trkpt>
      <trkpt lat="45.31623" lon="1.40072">
        <ele>336</ele>
        <time>2011-06-23T15:48:27Z</time>
      </trkpt>
      <trkpt lat="45.31627" lon="1.40076">
        <ele>340</ele>
        <time>2011-06-23T15:48:31Z</time>
      </trkpt>
      <trkpt lat="45.3163" lon="1.40081">
        <ele>341</ele>
        <time>2011-06-23T15:48:36Z</time>
      </trkpt>
      <trkpt lat="45.31632" lon="1.40087">
        <ele>346</ele>
        <time>2011-06-23T15:48:41Z</time>
      </trkpt>
      <trkpt lat="45.31636" lon="1.40092">
        <ele>342</ele>
        <time>2011-06-23T15:48:47Z</time>
      </trkpt>
      <trkpt lat="45.31639" lon="1.40097">
        <ele>347</ele>
        <time>2011-06-23T15:48:55Z</time>
      </trkpt>
      <trkpt lat="45.31641" lon="1.40103">
        <ele>344</ele>
        <time>2011-06-23T15:49:01Z</time>
      </trkpt>
      <trkpt lat="45.31642" lon="1.40109">
        <ele>348</ele>
        <time>2011-06-23T15:49:17Z</time>
      </trkpt>
      <trkpt lat="45.31643" lon="1.40116">
        <ele>348</ele>
        <time>2011-06-23T15:49:22Z</time>
      </trkpt>
      <trkpt lat="45.31646" lon="1.40123">
        <ele>341</ele>
        <time>2011-06-23T15:49:28Z</time>
      </trkpt>
      <trkpt lat="45.3165" lon="1.40127">
        <ele>343</ele>
        <time>2011-06-23T15:49:33Z</time>
      </trkpt>
      <trkpt lat="45.31651" lon="1.40133">
        <ele>344</ele>
        <time>2011-06-23T15:49:39Z</time>
      </trkpt>
      <trkpt lat="45.31656" lon="1.40136">
        <ele>348</ele>
        <time>2011-06-23T15:49:46Z</time>
      </trkpt>
      <trkpt lat="45.31661" lon="1.40137">
        <ele>343</ele>
        <time>2011-06-23T15:49:53Z</time>
      </trkpt>
      <trkpt lat="45.31665" lon="1.40142">
        <ele>350</ele>
        <time>2011-06-23T15:49:58Z</time>
      </trkpt>
      <trkpt lat="45.31669" lon="1.40144">
        <ele>347</ele>
        <time>2011-06-23T15:50:03Z</time>
      </trkpt>
      <trkpt lat="45.31674" lon="1.40147">
        <ele>352</ele>
        <time>2011-06-23T15:50:09Z</time>
      </trkpt>
      <trkpt lat="45.31678" lon="1.40151">
        <ele>359</ele>
        <time>2011-06-23T15:50:18Z</time>
      </trkpt>
      <trkpt lat="45.31684" lon="1.40152">
        <ele>349</ele>
        <time>2011-06-23T15:50:23Z</time>
      </trkpt>
      <trkpt lat="45.31688" lon="1.40154">
        <ele>349</ele>
        <time>2011-06-23T15:50:27Z</time>
      </trkpt>
      <trkpt lat="45.31694" lon="1.40156">
        <ele>344</ele>
        <time>2011-06-23T15:50:34Z</time>
      </trkpt>
      <trkpt lat="45.31698" lon="1.40157">
        <ele>345</ele>
        <time>2011-06-23T15:50:38Z</time>
      </trkpt>
      <trkpt lat="45.31698" lon="1.40164">
        <ele>355</ele>
        <time>2011-06-23T15:50:44Z</time>
      </trkpt>
      <trkpt lat="45.31702" lon="1.40169">
        <ele>361</ele>
        <time>2011-06-23T15:50:49Z</time>
      </trkpt>
      <trkpt lat="45.31706" lon="1.40174">
        <ele>355</ele>
        <time>2011-06-23T15:50:53Z</time>
      </trkpt>
      <trkpt lat="45.31711" lon="1.40175">
        <ele>362</ele>
        <time>2011-06-23T15:50:58Z</time>
      </trkpt>
      <trkpt lat="45.31716" lon="1.40178">
        <ele>357</ele>
        <time>2011-06-23T15:51:02Z</time>
      </trkpt>
      <trkpt lat="45.3172" lon="1.40179">
        <ele>361</ele>
        <time>2011-06-23T15:51:07Z</time>
      </trkpt>
      <trkpt lat="45.31724" lon="1.40183">
        <ele>358</ele>
        <time>2011-06-23T15:51:13Z</time>
      </trkpt>
      <trkpt lat="45.31728" lon="1.40187">
        <ele>362</ele>
        <time>2011-06-23T15:51:20Z</time>
      </trkpt>
      <trkpt lat="45.31732" lon="1.40191">
        <ele>358</ele>
        <time>2011-06-23T15:51:25Z</time>
      </trkpt>
      <trkpt lat="45.31737" lon="1.4019">
        <ele>364</ele>
        <time>2011-06-23T15:51:31Z</time>
      </trkpt>
      <trkpt lat="45.31741" lon="1.40196">
        <ele>366</ele>
        <time>2011-06-23T15:51:38Z</time>
      </trkpt>
      <trkpt lat="45.31745" lon="1.40197">
        <ele>369</ele>
        <time>2011-06-23T15:51:44Z</time>
      </trkpt>
      <trkpt lat="45.3175" lon="1.40198">
        <ele>372</ele>
        <time>2011-06-23T15:51:50Z</time>
      </trkpt>
      <trkpt lat="45.31755" lon="1.40199">
        <ele>371</ele>
        <time>2011-06-23T15:51:57Z</time>
      </trkpt>
      <trkpt lat="45.31759" lon="1.40204">
        <ele>368</ele>
        <time>2011-06-23T15:52:28Z</time>
      </trkpt>
      <trkpt lat="45.31763" lon="1.40208">
        <ele>369</ele>
        <time>2011-06-23T15:52:30Z</time>
      </trkpt>
      <trkpt lat="45.31768" lon="1.40212">
        <ele>371</ele>
        <time>2011-06-23T15:52:32Z</time>
      </trkpt>
      <trkpt lat="45.31772" lon="1.40215">
        <ele>372</ele>
        <time>2011-06-23T15:52:35Z</time>
      </trkpt>
      <trkpt lat="45.31777" lon="1.40217">
        <ele>374</ele>
        <time>2011-06-23T15:52:38Z</time>
      </trkpt>
      <trkpt lat="45.31782" lon="1.40221">
        <ele>375</ele>
        <time>2011-06-23T15:52:41Z</time>
      </trkpt>
      <trkpt lat="45.31787" lon="1.40225">
        <ele>378</ele>
        <time>2011-06-23T15:52:43Z</time>
      </trkpt>
      <trkpt lat="45.31792" lon="1.40228">
        <ele>378</ele>
        <time>2011-06-23T15:52:46Z</time>
      </trkpt>
      <trkpt lat="45.31798" lon="1.4023">
        <ele>378</ele>
        <time>2011-06-23T15:52:49Z</time>
      </trkpt>
      <trkpt lat="45.31803" lon="1.40234">
        <ele>379</ele>
        <time>2011-06-23T15:52:52Z</time>
      </trkpt>
      <trkpt lat="45.31806" lon="1.40238">
        <ele>379</ele>
        <time>2011-06-23T15:52:55Z</time>
      </trkpt>
      <trkpt lat="45.3181" lon="1.40241">
        <ele>374</ele>
        <time>2011-06-23T15:52:59Z</time>
      </trkpt>
      <trkpt lat="45.31814" lon="1.40246">
        <ele>374</ele>
        <time>2011-06-23T15:53:03Z</time>
      </trkpt>
      <trkpt lat="45.31818" lon="1.4025">
        <ele>372</ele>
        <time>2011-06-23T15:53:06Z</time>
      </trkpt>
      <trkpt lat="45.31821" lon="1.40255">
        <ele>374</ele>
        <time>2011-06-23T15:53:12Z</time>
      </trkpt>
      <trkpt lat="45.31826" lon="1.40259">
        <ele>368</ele>
        <time>2011-06-23T15:53:20Z</time>
      </trkpt>
      <trkpt lat="45.31828" lon="1.40265">
        <ele>363</ele>
        <time>2011-06-23T15:53:28Z</time>
      </trkpt>
      <trkpt lat="45.31831" lon="1.4027">
        <ele>365</ele>
        <time>2011-06-23T15:53:32Z</time>
      </trkpt>
      <trkpt lat="45.31835" lon="1.40275">
        <ele>367</ele>
        <time>2011-06-23T15:53:37Z</time>
      </trkpt>
      <trkpt lat="45.31838" lon="1.4028">
        <ele>366</ele>
        <time>2011-06-23T15:53:42Z</time>
      </trkpt>
      <trkpt lat="45.3184" lon="1.40286">
        <ele>366</ele>
        <time>2011-06-23T15:53:47Z</time>
      </trkpt>
      <trkpt lat="45.31842" lon="1.40292">
        <ele>366</ele>
        <time>2011-06-23T15:53:52Z</time>
      </trkpt>
      <trkpt lat="45.31846" lon="1.40298">
        <ele>366</ele>
        <time>2011-06-23T15:53:58Z</time>
      </trkpt>
      <trkpt lat="45.31848" lon="1.40304">
        <ele>368</ele>
        <time>2011-06-23T15:54:05Z</time>
      </trkpt>
      <trkpt lat="45.3185" lon="1.4031">
        <ele>372</ele>
        <time>2011-06-23T15:54:11Z</time>
      </trkpt>
      <trkpt lat="45.31853" lon="1.40315">
        <ele>374</ele>
        <time>2011-06-23T15:54:17Z</time>
      </trkpt>
      <trkpt lat="45.31858" lon="1.40319">
        <ele>371</ele>
        <time>2011-06-23T15:54:22Z</time>
      </trkpt>
      <trkpt lat="45.31861" lon="1.40325">
        <ele>368</ele>
        <time>2011-06-23T15:54:27Z</time>
      </trkpt>
      <trkpt lat="45.31865" lon="1.4033">
        <ele>369</ele>
        <time>2011-06-23T15:54:33Z</time>
      </trkpt>
      <trkpt lat="45.31869" lon="1.40335">
        <ele>370</ele>
        <time>2011-06-23T15:54:39Z</time>
      </trkpt>
      <trkpt lat="45.31873" lon="1.40338">
        <ele>372</ele>
        <time>2011-06-23T15:54:45Z</time>
      </trkpt>
      <trkpt lat="45.31877" lon="1.40342">
        <ele>376</ele>
        <time>2011-06-23T15:54:51Z</time>
      </trkpt>
      <trkpt lat="45.31882" lon="1.40347">
        <ele>373</ele>
        <time>2011-06-23T15:54:57Z</time>
      </trkpt>
      <trkpt lat="45.31886" lon="1.4035">
        <ele>371</ele>
        <time>2011-06-23T15:55:00Z</time>
      </trkpt>
      <trkpt lat="45.3189" lon="1.40354">
        <ele>378</ele>
        <time>2011-06-23T15:55:06Z</time>
      </trkpt>
      <trkpt lat="45.31894" lon="1.40358">
        <ele>376</ele>
        <time>2011-06-23T15:55:12Z</time>
      </trkpt>
      <trkpt lat="45.31898" lon="1.40362">
        <ele>375</ele>
        <time>2011-06-23T15:55:17Z</time>
      </trkpt>
      <trkpt lat="45.31902" lon="1.40367">
        <ele>373</ele>
        <time>2011-06-23T15:55:22Z</time>
      </trkpt>
      <trkpt lat="45.31906" lon="1.4037">
        <ele>373</ele>
        <time>2011-06-23T15:55:28Z</time>
      </trkpt>
      <trkpt lat="45.3191" lon="1.40376">
        <ele>377</ele>
        <time>2011-06-23T15:55:33Z</time>
      </trkpt>
      <trkpt lat="45.31914" lon="1.40378">
        <ele>377</ele>
        <time>2011-06-23T15:55:38Z</time>
      </trkpt>
      <trkpt lat="45.31917" lon="1.40383">
        <ele>379</ele>
        <time>2011-06-23T15:55:43Z</time>
      </trkpt>
      <trkpt lat="45.31922" lon="1.40387">
        <ele>377</ele>
        <time>2011-06-23T15:55:48Z</time>
      </trkpt>
      <trkpt lat="45.31926" lon="1.4039">
        <ele>376</ele>
        <time>2011-06-23T15:55:53Z</time>
      </trkpt>
      <trkpt lat="45.3193" lon="1.40394">
        <ele>371</ele>
        <time>2011-06-23T15:55:59Z</time>
      </trkpt>
      <trkpt lat="45.31934" lon="1.40396">
        <ele>374</ele>
        <time>2011-06-23T15:56:03Z</time>
      </trkpt>
      <trkpt lat="45.31938" lon="1.40399">
        <ele>377</ele>
        <time>2011-06-23T15:56:08Z</time>
      </trkpt>
      <trkpt lat="45.31938" lon="1.40406">
        <ele>380</ele>
        <time>2011-06-23T15:56:21Z</time>
      </trkpt>
      <trkpt lat="45.31934" lon="1.40413">
        <ele>380</ele>
        <time>2011-06-23T15:56:25Z</time>
      </trkpt>
      <trkpt lat="45.31928" lon="1.40422">
        <ele>377</ele>
        <time>2011-06-23T15:56:27Z</time>
      </trkpt>
      <trkpt lat="45.31925" lon="1.40428">
        <ele>376</ele>
        <time>2011-06-23T15:56:28Z</time>
      </trkpt>
      <trkpt lat="45.31922" lon="1.40435">
        <ele>376</ele>
        <time>2011-06-23T15:56:29Z</time>
      </trkpt>
      <trkpt lat="45.3192" lon="1.40441">
        <ele>373</ele>
        <time>2011-06-23T15:56:30Z</time>
      </trkpt>
      <trkpt lat="45.31916" lon="1.40448">
        <ele>376</ele>
        <time>2011-06-23T15:56:31Z</time>
      </trkpt>
      <trkpt lat="45.31913" lon="1.40456">
        <ele>375</ele>
        <time>2011-06-23T15:56:32Z</time>
      </trkpt>
      <trkpt lat="45.31909" lon="1.40464">
        <ele>374</ele>
        <time>2011-06-23T15:56:33Z</time>
      </trkpt>
      <trkpt lat="45.31904" lon="1.40472">
        <ele>374</ele>
        <time>2011-06-23T15:56:34Z</time>
      </trkpt>
      <trkpt lat="45.31898" lon="1.40483">
        <ele>370</ele>
        <time>2011-06-23T15:56:35Z</time>
      </trkpt>
      <trkpt lat="45.31892" lon="1.40497">
        <ele>368</ele>
        <time>2011-06-23T15:56:36Z</time>
      </trkpt>
      <trkpt lat="45.31888" lon="1.40513">
        <ele>368</ele>
        <time>2011-06-23T15:56:37Z</time>
      </trkpt>
      <trkpt lat="45.31886" lon="1.4053">
        <ele>368</ele>
        <time>2011-06-23T15:56:38Z</time>
      </trkpt>
      <trkpt lat="45.31884" lon="1.40543">
        <ele>365</ele>
        <time>2011-06-23T15:56:39Z</time>
      </trkpt>
      <trkpt lat="45.31882" lon="1.40552">
        <ele>363</ele>
        <time>2011-06-23T15:56:41Z</time>
      </trkpt>
      <trkpt lat="45.31883" lon="1.40558">
        <ele>363</ele>
        <time>2011-06-23T15:56:49Z</time>
      </trkpt>
      <trkpt lat="45.31886" lon="1.40541">
        <ele>367</ele>
        <time>2011-06-23T15:56:56Z</time>
      </trkpt>
      <trkpt lat="45.31886" lon="1.40541">
        <ele>367</ele>
        <time>2011-06-23T15:56:56Z</time>
      </trkpt>
      <trkpt lat="45.31886" lon="1.40541">
        <ele>367</ele>
        <time>2011-06-23T15:57:01Z</time>
      </trkpt>
      <trkpt lat="45.31887" lon="1.40532">
        <ele>363</ele>
        <time>2011-06-23T15:57:02Z</time>
      </trkpt>
      <trkpt lat="45.31888" lon="1.40524">
        <ele>368</ele>
        <time>2011-06-23T15:57:07Z</time>
      </trkpt>
      <trkpt lat="45.3189" lon="1.40518">
        <ele>368</ele>
        <time>2011-06-23T15:57:11Z</time>
      </trkpt>
      <trkpt lat="45.31885" lon="1.40515">
        <ele>368</ele>
        <time>2011-06-23T15:57:18Z</time>
      </trkpt>
      <trkpt lat="45.31885" lon="1.40522">
        <ele>367</ele>
        <time>2011-06-23T15:57:20Z</time>
      </trkpt>
      <trkpt lat="45.31886" lon="1.40528">
        <ele>368</ele>
        <time>2011-06-23T15:57:22Z</time>
      </trkpt>
      <trkpt lat="45.31884" lon="1.40535">
        <ele>368</ele>
        <time>2011-06-23T15:57:25Z</time>
      </trkpt>
      <trkpt lat="45.31884" lon="1.40542">
        <ele>368</ele>
        <time>2011-06-23T15:57:27Z</time>
      </trkpt>
      <trkpt lat="45.31884" lon="1.40551">
        <ele>367</ele>
        <time>2011-06-23T15:57:29Z</time>
      </trkpt>
      <trkpt lat="45.31883" lon="1.40558">
        <ele>364</ele>
        <time>2011-06-23T15:57:31Z</time>
      </trkpt>
      <trkpt lat="45.31881" lon="1.40565">
        <ele>365</ele>
        <time>2011-06-23T15:57:34Z</time>
      </trkpt>
      <trkpt lat="45.31873" lon="1.40575">
        <ele>366</ele>
        <time>2011-06-23T15:57:42Z</time>
      </trkpt>
      <trkpt lat="45.31873" lon="1.40575">
        <ele>366</ele>
        <time>2011-06-23T15:57:42Z</time>
      </trkpt>
      <trkpt lat="45.31873" lon="1.40575">
        <ele>366</ele>
        <time>2011-06-23T15:57:48Z</time>
      </trkpt>
      <trkpt lat="45.31865" lon="1.40583">
        <ele>369</ele>
        <time>2011-06-23T15:57:49Z</time>
      </trkpt>
      <trkpt lat="45.31865" lon="1.40583">
        <ele>369</ele>
        <time>2011-06-23T15:57:49Z</time>
      </trkpt>
      <trkpt lat="45.31865" lon="1.40583">
        <ele>369</ele>
        <time>2011-06-23T15:57:51Z</time>
      </trkpt>
      <trkpt lat="45.3186" lon="1.40587">
        <ele>369</ele>
        <time>2011-06-23T15:57:52Z</time>
      </trkpt>
      <trkpt lat="45.31856" lon="1.40593">
        <ele>371</ele>
        <time>2011-06-23T15:57:55Z</time>
      </trkpt>
      <trkpt lat="45.31853" lon="1.40598">
        <ele>369</ele>
        <time>2011-06-23T15:57:58Z</time>
      </trkpt>
      <trkpt lat="45.3185" lon="1.40604">
        <ele>367</ele>
        <time>2011-06-23T15:58:01Z</time>
      </trkpt>
      <trkpt lat="45.31848" lon="1.40611">
        <ele>372</ele>
        <time>2011-06-23T15:58:04Z</time>
      </trkpt>
      <trkpt lat="45.31844" lon="1.40618">
        <ele>370</ele>
        <time>2011-06-23T15:58:07Z</time>
      </trkpt>
      <trkpt lat="45.31837" lon="1.40628">
        <ele>370</ele>
        <time>2011-06-23T15:58:11Z</time>
      </trkpt>
      <trkpt lat="45.31829" lon="1.40633">
        <ele>374</ele>
        <time>2011-06-23T15:58:13Z</time>
      </trkpt>
      <trkpt lat="45.31822" lon="1.40634">
        <ele>375</ele>
        <time>2011-06-23T15:58:15Z</time>
      </trkpt>
      <trkpt lat="45.31814" lon="1.40636">
        <ele>374</ele>
        <time>2011-06-23T15:58:17Z</time>
      </trkpt>
      <trkpt lat="45.31806" lon="1.40639">
        <ele>373</ele>
        <time>2011-06-23T15:58:19Z</time>
      </trkpt>
      <trkpt lat="45.31799" lon="1.40639">
        <ele>370</ele>
        <time>2011-06-23T15:58:21Z</time>
      </trkpt>
      <trkpt lat="45.31799" lon="1.40639">
        <ele>370</ele>
        <time>2011-06-23T15:58:21Z</time>
      </trkpt>
      <trkpt lat="45.31799" lon="1.40639">
        <ele>370</ele>
        <time>2011-06-23T15:58:22Z</time>
      </trkpt>
      <trkpt lat="45.31792" lon="1.4064">
        <ele>372</ele>
        <time>2011-06-23T15:58:24Z</time>
      </trkpt>
      <trkpt lat="45.31792" lon="1.4064">
        <ele>372</ele>
        <time>2011-06-23T15:58:24Z</time>
      </trkpt>
      <trkpt lat="45.31792" lon="1.4064">
        <ele>372</ele>
        <time>2011-06-23T15:58:25Z</time>
      </trkpt>
      <trkpt lat="45.31785" lon="1.4064">
        <ele>370</ele>
        <time>2011-06-23T15:58:26Z</time>
      </trkpt>
      <trkpt lat="45.31778" lon="1.40641">
        <ele>368</ele>
        <time>2011-06-23T15:58:28Z</time>
      </trkpt>
      <trkpt lat="45.31772" lon="1.40643">
        <ele>366</ele>
        <time>2011-06-23T15:58:30Z</time>
      </trkpt>
      <trkpt lat="45.31765" lon="1.40648">
        <ele>368</ele>
        <time>2011-06-23T15:58:32Z</time>
      </trkpt>
      <trkpt lat="45.31758" lon="1.4065">
        <ele>371</ele>
        <time>2011-06-23T15:58:34Z</time>
      </trkpt>
      <trkpt lat="45.31751" lon="1.4065">
        <ele>365</ele>
        <time>2011-06-23T15:58:36Z</time>
      </trkpt>
      <trkpt lat="45.31743" lon="1.40649">
        <ele>366</ele>
        <time>2011-06-23T15:58:38Z</time>
      </trkpt>
      <trkpt lat="45.31739" lon="1.40649">
        <ele>367</ele>
        <time>2011-06-23T15:58:39Z</time>
      </trkpt>
      <trkpt lat="45.31734" lon="1.4065">
        <ele>368</ele>
        <time>2011-06-23T15:58:40Z</time>
      </trkpt>
      <trkpt lat="45.31729" lon="1.40652">
        <ele>369</ele>
        <time>2011-06-23T15:58:41Z</time>
      </trkpt>
      <trkpt lat="45.31724" lon="1.40654">
        <ele>372</ele>
        <time>2011-06-23T15:58:42Z</time>
      </trkpt>
      <trkpt lat="45.31716" lon="1.40657">
        <ele>370</ele>
        <time>2011-06-23T15:58:44Z</time>
      </trkpt>
      <trkpt lat="45.31709" lon="1.40661">
        <ele>367</ele>
        <time>2011-06-23T15:58:46Z</time>
      </trkpt>
      <trkpt lat="45.31701" lon="1.40666">
        <ele>366</ele>
        <time>2011-06-23T15:58:48Z</time>
      </trkpt>
      <trkpt lat="45.31694" lon="1.40671">
        <ele>363</ele>
        <time>2011-06-23T15:58:50Z</time>
      </trkpt>
      <trkpt lat="45.31689" lon="1.40674">
        <ele>365</ele>
        <time>2011-06-23T15:58:51Z</time>
      </trkpt>
      <trkpt lat="45.31684" lon="1.40676">
        <ele>364</ele>
        <time>2011-06-23T15:58:52Z</time>
      </trkpt>
      <trkpt lat="45.3168" lon="1.40678">
        <ele>363</ele>
        <time>2011-06-23T15:58:53Z</time>
      </trkpt>
      <trkpt lat="45.31673" lon="1.40683">
        <ele>361</ele>
        <time>2011-06-23T15:58:55Z</time>
      </trkpt>
      <trkpt lat="45.31666" lon="1.40686">
        <ele>361</ele>
        <time>2011-06-23T15:58:57Z</time>
      </trkpt>
      <trkpt lat="45.31657" lon="1.40691">
        <ele>362</ele>
        <time>2011-06-23T15:58:59Z</time>
      </trkpt>
      <trkpt lat="45.31651" lon="1.40696">
        <ele>360</ele>
        <time>2011-06-23T15:59:01Z</time>
      </trkpt>
      <trkpt lat="45.31651" lon="1.40696">
        <ele>360</ele>
        <time>2011-06-23T15:59:01Z</time>
      </trkpt>
      <trkpt lat="45.31651" lon="1.40696">
        <ele>360</ele>
        <time>2011-06-23T15:59:02Z</time>
      </trkpt>
      <trkpt lat="45.31645" lon="1.40698">
        <ele>361</ele>
        <time>2011-06-23T15:59:03Z</time>
      </trkpt>
      <trkpt lat="45.31638" lon="1.40701">
        <ele>364</ele>
        <time>2011-06-23T15:59:06Z</time>
      </trkpt>
      <trkpt lat="45.31638" lon="1.40701">
        <ele>364</ele>
        <time>2011-06-23T15:59:06Z</time>
      </trkpt>
      <trkpt lat="45.31638" lon="1.40701">
        <ele>364</ele>
        <time>2011-06-23T15:59:07Z</time>
      </trkpt>
      <trkpt lat="45.31632" lon="1.40704">
        <ele>365</ele>
        <time>2011-06-23T15:59:09Z</time>
      </trkpt>
      <trkpt lat="45.31626" lon="1.40706">
        <ele>362</ele>
        <time>2011-06-23T15:59:12Z</time>
      </trkpt>
      <trkpt lat="45.31626" lon="1.40706">
        <ele>362</ele>
        <time>2011-06-23T15:59:12Z</time>
      </trkpt>
      <trkpt lat="45.31626" lon="1.40706">
        <ele>362</ele>
        <time>2011-06-23T15:59:14Z</time>
      </trkpt>
      <trkpt lat="45.3162" lon="1.40708">
        <ele>370</ele>
        <time>2011-06-23T15:59:15Z</time>
      </trkpt>
      <trkpt lat="45.31615" lon="1.4071">
        <ele>370</ele>
        <time>2011-06-23T15:59:17Z</time>
      </trkpt>
      <trkpt lat="45.31609" lon="1.40714">
        <ele>368</ele>
        <time>2011-06-23T15:59:19Z</time>
      </trkpt>
      <trkpt lat="45.31609" lon="1.40714">
        <ele>368</ele>
        <time>2011-06-23T15:59:19Z</time>
      </trkpt>
      <trkpt lat="45.31609" lon="1.40714">
        <ele>368</ele>
        <time>2011-06-23T15:59:21Z</time>
      </trkpt>
      <trkpt lat="45.31603" lon="1.40717">
        <ele>370</ele>
        <time>2011-06-23T15:59:22Z</time>
      </trkpt>
      <trkpt lat="45.31596" lon="1.40722">
        <ele>369</ele>
        <time>2011-06-23T15:59:24Z</time>
      </trkpt>
      <trkpt lat="45.31591" lon="1.40724">
        <ele>369</ele>
        <time>2011-06-23T15:59:25Z</time>
      </trkpt>
      <trkpt lat="45.31586" lon="1.40726">
        <ele>361</ele>
        <time>2011-06-23T15:59:26Z</time>
      </trkpt>
      <trkpt lat="45.31581" lon="1.40727">
        <ele>359</ele>
        <time>2011-06-23T15:59:27Z</time>
      </trkpt>
      <trkpt lat="45.31576" lon="1.40728">
        <ele>355</ele>
        <time>2011-06-23T15:59:28Z</time>
      </trkpt>
      <trkpt lat="45.3157" lon="1.40728">
        <ele>355</ele>
        <time>2011-06-23T15:59:29Z</time>
      </trkpt>
      <trkpt lat="45.31562" lon="1.40727">
        <ele>355</ele>
        <time>2011-06-23T15:59:31Z</time>
      </trkpt>
      <trkpt lat="45.31556" lon="1.40724">
        <ele>354</ele>
        <time>2011-06-23T15:59:33Z</time>
      </trkpt>
      <trkpt lat="45.31551" lon="1.40722">
        <ele>352</ele>
        <time>2011-06-23T15:59:35Z</time>
      </trkpt>
      <trkpt lat="45.31545" lon="1.40719">
        <ele>354</ele>
        <time>2011-06-23T15:59:37Z</time>
      </trkpt>
      <trkpt lat="45.31538" lon="1.40715">
        <ele>355</ele>
        <time>2011-06-23T15:59:40Z</time>
      </trkpt>
      <trkpt lat="45.31533" lon="1.40713">
        <ele>355</ele>
        <time>2011-06-23T15:59:42Z</time>
      </trkpt>
      <trkpt lat="45.31527" lon="1.4071">
        <ele>355</ele>
        <time>2011-06-23T15:59:44Z</time>
      </trkpt>
      <trkpt lat="45.31522" lon="1.40709">
        <ele>354</ele>
        <time>2011-06-23T15:59:46Z</time>
      </trkpt>
      <trkpt lat="45.31515" lon="1.40706">
        <ele>357</ele>
        <time>2011-06-23T15:59:49Z</time>
      </trkpt>
      <trkpt lat="45.3151" lon="1.40706">
        <ele>355</ele>
        <time>2011-06-23T15:59:51Z</time>
      </trkpt>
      <trkpt lat="45.315" lon="1.40707">
        <ele>355</ele>
        <time>2011-06-23T15:59:53Z</time>
      </trkpt>
      <trkpt lat="45.31495" lon="1.40708">
        <ele>353</ele>
        <time>2011-06-23T15:59:54Z</time>
      </trkpt>
      <trkpt lat="45.31488" lon="1.4071">
        <ele>352</ele>
        <time>2011-06-23T15:59:56Z</time>
      </trkpt>
      <trkpt lat="45.31483" lon="1.40712">
        <ele>350</ele>
        <time>2011-06-23T15:59:57Z</time>
      </trkpt>
      <trkpt lat="45.31475" lon="1.40719">
        <ele>351</ele>
        <time>2011-06-23T15:59:59Z</time>
      </trkpt>
      <trkpt lat="45.31467" lon="1.40724">
        <ele>349</ele>
        <time>2011-06-23T16:00:01Z</time>
      </trkpt>
      <trkpt lat="45.31459" lon="1.40729">
        <ele>351</ele>
        <time>2011-06-23T16:00:03Z</time>
      </trkpt>
      <trkpt lat="45.3145" lon="1.40732">
        <ele>352</ele>
        <time>2011-06-23T16:00:05Z</time>
      </trkpt>
      <trkpt lat="45.31441" lon="1.40735">
        <ele>348</ele>
        <time>2011-06-23T16:00:07Z</time>
      </trkpt>
      <trkpt lat="45.31437" lon="1.40736">
        <ele>349</ele>
        <time>2011-06-23T16:00:08Z</time>
      </trkpt>
      <trkpt lat="45.31432" lon="1.40738">
        <ele>347</ele>
        <time>2011-06-23T16:00:09Z</time>
      </trkpt>
      <trkpt lat="45.31427" lon="1.40739">
        <ele>347</ele>
        <time>2011-06-23T16:00:10Z</time>
      </trkpt>
      <trkpt lat="45.31421" lon="1.40741">
        <ele>346</ele>
        <time>2011-06-23T16:00:11Z</time>
      </trkpt>
      <trkpt lat="45.31416" lon="1.40743">
        <ele>345</ele>
        <time>2011-06-23T16:00:12Z</time>
      </trkpt>
      <trkpt lat="45.31409" lon="1.40747">
        <ele>344</ele>
        <time>2011-06-23T16:00:13Z</time>
      </trkpt>
      <trkpt lat="45.31402" lon="1.4075">
        <ele>344</ele>
        <time>2011-06-23T16:00:14Z</time>
      </trkpt>
      <trkpt lat="45.31395" lon="1.40753">
        <ele>345</ele>
        <time>2011-06-23T16:00:15Z</time>
      </trkpt>
      <trkpt lat="45.31388" lon="1.40757">
        <ele>342</ele>
        <time>2011-06-23T16:00:16Z</time>
      </trkpt>
      <trkpt lat="45.3138" lon="1.40761">
        <ele>340</ele>
        <time>2011-06-23T16:00:17Z</time>
      </trkpt>
      <trkpt lat="45.31372" lon="1.40765">
        <ele>337</ele>
        <time>2011-06-23T16:00:18Z</time>
      </trkpt>
      <trkpt lat="45.31364" lon="1.40769">
        <ele>336</ele>
        <time>2011-06-23T16:00:19Z</time>
      </trkpt>
      <trkpt lat="45.31355" lon="1.40772">
        <ele>335</ele>
        <time>2011-06-23T16:00:20Z</time>
      </trkpt>
      <trkpt lat="45.31345" lon="1.40775">
        <ele>335</ele>
        <time>2011-06-23T16:00:21Z</time>
      </trkpt>
      <trkpt lat="45.31335" lon="1.4078">
        <ele>335</ele>
        <time>2011-06-23T16:00:22Z</time>
      </trkpt>
      <trkpt lat="45.31326" lon="1.40787">
        <ele>332</ele>
        <time>2011-06-23T16:00:23Z</time>
      </trkpt>
      <trkpt lat="45.3132" lon="1.40793">
        <ele>331</ele>
        <time>2011-06-23T16:00:24Z</time>
      </trkpt>
      <trkpt lat="45.31314" lon="1.40799">
        <ele>330</ele>
        <time>2011-06-23T16:00:25Z</time>
      </trkpt>
      <trkpt lat="45.3131" lon="1.40806">
        <ele>327</ele>
        <time>2011-06-23T16:00:26Z</time>
      </trkpt>
      <trkpt lat="45.31307" lon="1.40816">
        <ele>325</ele>
        <time>2011-06-23T16:00:27Z</time>
      </trkpt>
      <trkpt lat="45.31305" lon="1.40826">
        <ele>324</ele>
        <time>2011-06-23T16:00:28Z</time>
      </trkpt>
      <trkpt lat="45.31303" lon="1.40838">
        <ele>324</ele>
        <time>2011-06-23T16:00:29Z</time>
      </trkpt>
      <trkpt lat="45.31302" lon="1.40849">
        <ele>324</ele>
        <time>2011-06-23T16:00:30Z</time>
      </trkpt>
      <trkpt lat="45.313" lon="1.40863">
        <ele>324</ele>
        <time>2011-06-23T16:00:31Z</time>
      </trkpt>
      <trkpt lat="45.31297" lon="1.40878">
        <ele>325</ele>
        <time>2011-06-23T16:00:32Z</time>
      </trkpt>
      <trkpt lat="45.31295" lon="1.40892">
        <ele>324</ele>
        <time>2011-06-23T16:00:33Z</time>
      </trkpt>
      <trkpt lat="45.31291" lon="1.40901">
        <ele>321</ele>
        <time>2011-06-23T16:00:34Z</time>
      </trkpt>
      <trkpt lat="45.31288" lon="1.40907">
        <ele>318</ele>
        <time>2011-06-23T16:00:35Z</time>
      </trkpt>
      <trkpt lat="45.31281" lon="1.4091">
        <ele>317</ele>
        <time>2011-06-23T16:00:37Z</time>
      </trkpt>
      <trkpt lat="45.31274" lon="1.40906">
        <ele>314</ele>
        <time>2011-06-23T16:00:39Z</time>
      </trkpt>
      <trkpt lat="45.31267" lon="1.40903">
        <ele>315</ele>
        <time>2011-06-23T16:00:41Z</time>
      </trkpt>
      <trkpt lat="45.31262" lon="1.409">
        <ele>313</ele>
        <time>2011-06-23T16:00:43Z</time>
      </trkpt>
      <trkpt lat="45.31257" lon="1.40897">
        <ele>313</ele>
        <time>2011-06-23T16:00:45Z</time>
      </trkpt>
      <trkpt lat="45.31252" lon="1.40893">
        <ele>312</ele>
        <time>2011-06-23T16:00:48Z</time>
      </trkpt>
      <trkpt lat="45.31247" lon="1.40889">
        <ele>310</ele>
        <time>2011-06-23T16:00:51Z</time>
      </trkpt>
      <trkpt lat="45.31242" lon="1.40886">
        <ele>310</ele>
        <time>2011-06-23T16:00:55Z</time>
      </trkpt>
      <trkpt lat="45.31237" lon="1.40881">
        <ele>311</ele>
        <time>2011-06-23T16:00:59Z</time>
      </trkpt>
      <trkpt lat="45.31233" lon="1.40878">
        <ele>310</ele>
        <time>2011-06-23T16:01:02Z</time>
      </trkpt>
      <trkpt lat="45.31228" lon="1.40876">
        <ele>311</ele>
        <time>2011-06-23T16:01:05Z</time>
      </trkpt>
      <trkpt lat="45.31221" lon="1.40877">
        <ele>312</ele>
        <time>2011-06-23T16:01:12Z</time>
      </trkpt>
      <trkpt lat="45.31221" lon="1.40877">
        <ele>312</ele>
        <time>2011-06-23T16:01:12Z</time>
      </trkpt>
      <trkpt lat="45.31221" lon="1.40877">
        <ele>312</ele>
        <time>2011-06-23T16:01:13Z</time>
      </trkpt>
      <trkpt lat="45.31216" lon="1.40878">
        <ele>308</ele>
        <time>2011-06-23T16:01:15Z</time>
      </trkpt>
      <trkpt lat="45.31216" lon="1.40878">
        <ele>308</ele>
        <time>2011-06-23T16:01:15Z</time>
      </trkpt>
      <trkpt lat="45.31216" lon="1.40878">
        <ele>308</ele>
        <time>2011-06-23T16:01:16Z</time>
      </trkpt>
      <trkpt lat="45.31222" lon="1.40878">
        <ele>309</ele>
        <time>2011-06-23T16:01:23Z</time>
      </trkpt>
      <trkpt lat="45.31226" lon="1.40876">
        <ele>314</ele>
        <time>2011-06-23T16:01:25Z</time>
      </trkpt>
      <trkpt lat="45.31226" lon="1.40876">
        <ele>314</ele>
        <time>2011-06-23T16:01:25Z</time>
      </trkpt>
      <trkpt lat="45.31226" lon="1.40876">
        <ele>314</ele>
        <time>2011-06-23T16:01:35Z</time>
      </trkpt>
      <trkpt lat="45.3122" lon="1.4088">
        <ele>310</ele>
        <time>2011-06-23T16:01:38Z</time>
      </trkpt>
      <trkpt lat="45.31214" lon="1.4088">
        <ele>309</ele>
        <time>2011-06-23T16:01:40Z</time>
      </trkpt>
      <trkpt lat="45.31209" lon="1.40881">
        <ele>304</ele>
        <time>2011-06-23T16:01:43Z</time>
      </trkpt>
      <trkpt lat="45.31204" lon="1.40884">
        <ele>302</ele>
        <time>2011-06-23T16:01:46Z</time>
      </trkpt>
      <trkpt lat="45.31199" lon="1.40888">
        <ele>303</ele>
        <time>2011-06-23T16:01:49Z</time>
      </trkpt>
      <trkpt lat="45.31196" lon="1.40892">
        <ele>303</ele>
        <time>2011-06-23T16:01:51Z</time>
      </trkpt>
      <trkpt lat="45.31192" lon="1.40899">
        <ele>314</ele>
        <time>2011-06-23T16:02:22Z</time>
      </trkpt>
      <trkpt lat="45.31192" lon="1.40899">
        <ele>314</ele>
        <time>2011-06-23T16:02:22Z</time>
      </trkpt>
      <trkpt lat="45.31192" lon="1.40899">
        <ele>314</ele>
        <time>2011-06-23T16:02:24Z</time>
      </trkpt>
      <trkpt lat="45.3119" lon="1.40907">
        <ele>311</ele>
        <time>2011-06-23T16:02:27Z</time>
      </trkpt>
      <trkpt lat="45.3119" lon="1.40915">
        <ele>308</ele>
        <time>2011-06-23T16:02:31Z</time>
      </trkpt>
      <trkpt lat="45.3119" lon="1.40923">
        <ele>307</ele>
        <time>2011-06-23T16:02:35Z</time>
      </trkpt>
      <trkpt lat="45.31191" lon="1.40931">
        <ele>311</ele>
        <time>2011-06-23T16:02:38Z</time>
      </trkpt>
      <trkpt lat="45.31191" lon="1.40938">
        <ele>312</ele>
        <time>2011-06-23T16:02:41Z</time>
      </trkpt>
      <trkpt lat="45.31192" lon="1.40946">
        <ele>310</ele>
        <time>2011-06-23T16:02:44Z</time>
      </trkpt>
      <trkpt lat="45.31192" lon="1.40955">
        <ele>308</ele>
        <time>2011-06-23T16:02:47Z</time>
      </trkpt>
      <trkpt lat="45.31192" lon="1.40962">
        <ele>307</ele>
        <time>2011-06-23T16:02:50Z</time>
      </trkpt>
      <trkpt lat="45.31192" lon="1.40969">
        <ele>309</ele>
        <time>2011-06-23T16:02:53Z</time>
      </trkpt>
      <trkpt lat="45.31192" lon="1.40977">
        <ele>309</ele>
        <time>2011-06-23T16:02:56Z</time>
      </trkpt>
      <trkpt lat="45.3119" lon="1.40985">
        <ele>309</ele>
        <time>2011-06-23T16:03:00Z</time>
      </trkpt>
      <trkpt lat="45.31189" lon="1.40991">
        <ele>306</ele>
        <time>2011-06-23T16:03:03Z</time>
      </trkpt>
      <trkpt lat="45.31188" lon="1.40998">
        <ele>305</ele>
        <time>2011-06-23T16:03:06Z</time>
      </trkpt>
      <trkpt lat="45.31187" lon="1.41006">
        <ele>305</ele>
        <time>2011-06-23T16:03:10Z</time>
      </trkpt>
      <trkpt lat="45.31185" lon="1.41012">
        <ele>305</ele>
        <time>2011-06-23T16:03:15Z</time>
      </trkpt>
      <trkpt lat="45.31183" lon="1.41018">
        <ele>303</ele>
        <time>2011-06-23T16:03:18Z</time>
      </trkpt>
      <trkpt lat="45.31181" lon="1.41026">
        <ele>298</ele>
        <time>2011-06-23T16:03:21Z</time>
      </trkpt>
      <trkpt lat="45.31177" lon="1.41039">
        <ele>312</ele>
        <time>2011-06-23T16:03:30Z</time>
      </trkpt>
      <trkpt lat="45.31174" lon="1.41047">
        <ele>306</ele>
        <time>2011-06-23T16:03:36Z</time>
      </trkpt>
      <trkpt lat="45.31174" lon="1.41047">
        <ele>306</ele>
        <time>2011-06-23T16:03:36Z</time>
      </trkpt>
      <trkpt lat="45.31174" lon="1.41047">
        <ele>306</ele>
        <time>2011-06-23T16:03:37Z</time>
      </trkpt>
      <trkpt lat="45.31172" lon="1.41054">
        <ele>314</ele>
        <time>2011-06-23T16:03:41Z</time>
      </trkpt>
      <trkpt lat="45.31171" lon="1.41062">
        <ele>318</ele>
        <time>2011-06-23T16:03:45Z</time>
      </trkpt>
      <trkpt lat="45.3117" lon="1.41068">
        <ele>320</ele>
        <time>2011-06-23T16:03:49Z</time>
      </trkpt>
      <trkpt lat="45.31168" lon="1.41075">
        <ele>315</ele>
        <time>2011-06-23T16:03:53Z</time>
      </trkpt>
      <trkpt lat="45.31166" lon="1.41084">
        <ele>320</ele>
        <time>2011-06-23T16:04:02Z</time>
      </trkpt>
      <trkpt lat="45.31165" lon="1.41091">
        <ele>318</ele>
        <time>2011-06-23T16:04:07Z</time>
      </trkpt>
      <trkpt lat="45.31164" lon="1.41098">
        <ele>322</ele>
        <time>2011-06-23T16:04:10Z</time>
      </trkpt>
      <trkpt lat="45.31163" lon="1.41105">
        <ele>323</ele>
        <time>2011-06-23T16:04:14Z</time>
      </trkpt>
      <trkpt lat="45.31163" lon="1.41105">
        <ele>323</ele>
        <time>2011-06-23T16:04:14Z</time>
      </trkpt>
      <trkpt lat="45.31163" lon="1.41105">
        <ele>323</ele>
        <time>2011-06-23T16:04:15Z</time>
      </trkpt>
      <trkpt lat="45.31162" lon="1.41112">
        <ele>322</ele>
        <time>2011-06-23T16:04:18Z</time>
      </trkpt>
      <trkpt lat="45.31162" lon="1.41112">
        <ele>322</ele>
        <time>2011-06-23T16:04:18Z</time>
      </trkpt>
      <trkpt lat="45.31162" lon="1.41112">
        <ele>322</ele>
        <time>2011-06-23T16:04:21Z</time>
      </trkpt>
      <trkpt lat="45.31162" lon="1.41119">
        <ele>321</ele>
        <time>2011-06-23T16:04:22Z</time>
      </trkpt>
      <trkpt lat="45.31162" lon="1.41127">
        <ele>315</ele>
        <time>2011-06-23T16:04:26Z</time>
      </trkpt>
      <trkpt lat="45.31162" lon="1.41127">
        <ele>315</ele>
        <time>2011-06-23T16:04:26Z</time>
      </trkpt>
      <trkpt lat="45.31162" lon="1.41127">
        <ele>315</ele>
        <time>2011-06-23T16:04:30Z</time>
      </trkpt>
      <trkpt lat="45.31162" lon="1.41136">
        <ele>317</ele>
        <time>2011-06-23T16:04:38Z</time>
      </trkpt>
      <trkpt lat="45.31162" lon="1.41136">
        <ele>317</ele>
        <time>2011-06-23T16:04:38Z</time>
      </trkpt>
      <trkpt lat="45.31162" lon="1.41136">
        <ele>317</ele>
        <time>2011-06-23T16:04:43Z</time>
      </trkpt>
      <trkpt lat="45.31162" lon="1.41142">
        <ele>315</ele>
        <time>2011-06-23T16:04:44Z</time>
      </trkpt>
      <trkpt lat="45.31165" lon="1.41154">
        <ele>327</ele>
        <time>2011-06-23T16:05:03Z</time>
      </trkpt>
      <trkpt lat="45.31165" lon="1.41154">
        <ele>327</ele>
        <time>2011-06-23T16:05:03Z</time>
      </trkpt>
      <trkpt lat="45.31165" lon="1.41154">
        <ele>327</ele>
        <time>2011-06-23T16:05:04Z</time>
      </trkpt>
      <trkpt lat="45.31166" lon="1.41162">
        <ele>324</ele>
        <time>2011-06-23T16:05:07Z</time>
      </trkpt>
      <trkpt lat="45.3117" lon="1.41177">
        <ele>333</ele>
        <time>2011-06-23T16:05:21Z</time>
      </trkpt>
      <trkpt lat="45.3117" lon="1.41177">
        <ele>333</ele>
        <time>2011-06-23T16:05:21Z</time>
      </trkpt>
      <trkpt lat="45.3117" lon="1.41177">
        <ele>333</ele>
        <time>2011-06-23T16:05:30Z</time>
      </trkpt>
      <trkpt lat="45.31172" lon="1.41186">
        <ele>330</ele>
        <time>2011-06-23T16:05:31Z</time>
      </trkpt>
      <trkpt lat="45.31172" lon="1.41186">
        <ele>330</ele>
        <time>2011-06-23T16:05:31Z</time>
      </trkpt>
      <trkpt lat="45.31172" lon="1.41186">
        <ele>330</ele>
        <time>2011-06-23T16:05:34Z</time>
      </trkpt>
      <trkpt lat="45.31173" lon="1.41194">
        <ele>329</ele>
        <time>2011-06-23T16:05:35Z</time>
      </trkpt>
      <trkpt lat="45.31176" lon="1.412">
        <ele>334</ele>
        <time>2011-06-23T16:05:41Z</time>
      </trkpt>
      <trkpt lat="45.3118" lon="1.41204">
        <ele>330</ele>
        <time>2011-06-23T16:05:47Z</time>
      </trkpt>
      <trkpt lat="45.31182" lon="1.4121">
        <ele>325</ele>
        <time>2011-06-23T16:05:55Z</time>
      </trkpt>
      <trkpt lat="45.31184" lon="1.41217">
        <ele>323</ele>
        <time>2011-06-23T16:05:59Z</time>
      </trkpt>
      <trkpt lat="45.31185" lon="1.41223">
        <ele>321</ele>
        <time>2011-06-23T16:06:05Z</time>
      </trkpt>
      <trkpt lat="45.31189" lon="1.41228">
        <ele>331</ele>
        <time>2011-06-23T16:06:14Z</time>
      </trkpt>
      <trkpt lat="45.31193" lon="1.41233">
        <ele>333</ele>
        <time>2011-06-23T16:06:19Z</time>
      </trkpt>
      <trkpt lat="45.31196" lon="1.41239">
        <ele>332</ele>
        <time>2011-06-23T16:06:24Z</time>
      </trkpt>
      <trkpt lat="45.312" lon="1.41243">
        <ele>332</ele>
        <time>2011-06-23T16:06:30Z</time>
      </trkpt>
      <trkpt lat="45.31203" lon="1.41249">
        <ele>332</ele>
        <time>2011-06-23T16:06:34Z</time>
      </trkpt>
      <trkpt lat="45.31204" lon="1.41255">
        <ele>333</ele>
        <time>2011-06-23T16:06:39Z</time>
      </trkpt>
      <trkpt lat="45.31206" lon="1.41262">
        <ele>336</ele>
        <time>2011-06-23T16:06:45Z</time>
      </trkpt>
      <trkpt lat="45.3121" lon="1.41268">
        <ele>333</ele>
        <time>2011-06-23T16:06:50Z</time>
      </trkpt>
      <trkpt lat="45.31213" lon="1.41274">
        <ele>338</ele>
        <time>2011-06-23T16:06:55Z</time>
      </trkpt>
      <trkpt lat="45.31217" lon="1.4128">
        <ele>341</ele>
        <time>2011-06-23T16:07:02Z</time>
      </trkpt>
      <trkpt lat="45.31221" lon="1.41287">
        <ele>345</ele>
        <time>2011-06-23T16:07:06Z</time>
      </trkpt>
      <trkpt lat="45.31223" lon="1.41294">
        <ele>344</ele>
        <time>2011-06-23T16:07:08Z</time>
      </trkpt>
      <trkpt lat="45.31227" lon="1.41299">
        <ele>343</ele>
        <time>2011-06-23T16:07:24Z</time>
      </trkpt>
      <trkpt lat="45.31231" lon="1.41302">
        <ele>336</ele>
        <time>2011-06-23T16:08:16Z</time>
      </trkpt>
      <trkpt lat="45.31235" lon="1.41304">
        <ele>337</ele>
        <time>2011-06-23T16:08:22Z</time>
      </trkpt>
      <trkpt lat="45.3124" lon="1.41304">
        <ele>337</ele>
        <time>2011-06-23T16:08:27Z</time>
      </trkpt>
      <trkpt lat="45.31245" lon="1.41306">
        <ele>344</ele>
        <time>2011-06-23T16:08:30Z</time>
      </trkpt>
      <trkpt lat="45.3125" lon="1.41309">
        <ele>343</ele>
        <time>2011-06-23T16:08:33Z</time>
      </trkpt>
      <trkpt lat="45.31255" lon="1.41312">
        <ele>343</ele>
        <time>2011-06-23T16:08:35Z</time>
      </trkpt>
      <trkpt lat="45.3126" lon="1.41314">
        <ele>340</ele>
        <time>2011-06-23T16:08:37Z</time>
      </trkpt>
      <trkpt lat="45.31265" lon="1.41315">
        <ele>340</ele>
        <time>2011-06-23T16:08:39Z</time>
      </trkpt>
      <trkpt lat="45.3127" lon="1.41317">
        <ele>336</ele>
        <time>2011-06-23T16:08:41Z</time>
      </trkpt>
      <trkpt lat="45.31274" lon="1.4132">
        <ele>335</ele>
        <time>2011-06-23T16:08:43Z</time>
      </trkpt>
      <trkpt lat="45.31279" lon="1.41324">
        <ele>329</ele>
        <time>2011-06-23T16:08:45Z</time>
      </trkpt>
      <trkpt lat="45.31284" lon="1.41326">
        <ele>330</ele>
        <time>2011-06-23T16:08:47Z</time>
      </trkpt>
      <trkpt lat="45.3129" lon="1.41329">
        <ele>327</ele>
        <time>2011-06-23T16:08:50Z</time>
      </trkpt>
      <trkpt lat="45.31297" lon="1.41327">
        <ele>327</ele>
        <time>2011-06-23T16:08:53Z</time>
      </trkpt>
      <trkpt lat="45.31302" lon="1.41326">
        <ele>329</ele>
        <time>2011-06-23T16:08:55Z</time>
      </trkpt>
      <trkpt lat="45.31307" lon="1.41322">
        <ele>323</ele>
        <time>2011-06-23T16:08:58Z</time>
      </trkpt>
      <trkpt lat="45.31312" lon="1.41317">
        <ele>324</ele>
        <time>2011-06-23T16:09:01Z</time>
      </trkpt>
      <trkpt lat="45.31316" lon="1.41315">
        <ele>327</ele>
        <time>2011-06-23T16:09:03Z</time>
      </trkpt>
      <trkpt lat="45.31322" lon="1.41313">
        <ele>324</ele>
        <time>2011-06-23T16:09:05Z</time>
      </trkpt>
      <trkpt lat="45.31328" lon="1.41313">
        <ele>330</ele>
        <time>2011-06-23T16:09:07Z</time>
      </trkpt>
      <trkpt lat="45.31334" lon="1.4132">
        <ele>324</ele>
        <time>2011-06-23T16:09:09Z</time>
      </trkpt>
      <trkpt lat="45.3134" lon="1.41325">
        <ele>324</ele>
        <time>2011-06-23T16:09:11Z</time>
      </trkpt>
      <trkpt lat="45.31345" lon="1.4133">
        <ele>325</ele>
        <time>2011-06-23T16:09:13Z</time>
      </trkpt>
      <trkpt lat="45.3135" lon="1.41334">
        <ele>327</ele>
        <time>2011-06-23T16:09:15Z</time>
      </trkpt>
      <trkpt lat="45.31355" lon="1.41339">
        <ele>324</ele>
        <time>2011-06-23T16:09:17Z</time>
      </trkpt>
      <trkpt lat="45.31361" lon="1.41342">
        <ele>325</ele>
        <time>2011-06-23T16:09:19Z</time>
      </trkpt>
      <trkpt lat="45.31368" lon="1.41347">
        <ele>324</ele>
        <time>2011-06-23T16:09:21Z</time>
      </trkpt>
      <trkpt lat="45.31375" lon="1.41352">
        <ele>322</ele>
        <time>2011-06-23T16:09:23Z</time>
      </trkpt>
      <trkpt lat="45.31381" lon="1.41357">
        <ele>320</ele>
        <time>2011-06-23T16:09:25Z</time>
      </trkpt>
      <trkpt lat="45.31386" lon="1.41361">
        <ele>324</ele>
        <time>2011-06-23T16:09:28Z</time>
      </trkpt>
      <trkpt lat="45.31392" lon="1.41364">
        <ele>327</ele>
        <time>2011-06-23T16:09:30Z</time>
      </trkpt>
      <trkpt lat="45.31398" lon="1.41367">
        <ele>327</ele>
        <time>2011-06-23T16:09:32Z</time>
      </trkpt>
      <trkpt lat="45.31404" lon="1.41372">
        <ele>324</ele>
        <time>2011-06-23T16:09:34Z</time>
      </trkpt>
      <trkpt lat="45.31411" lon="1.41374">
        <ele>324</ele>
        <time>2011-06-23T16:09:36Z</time>
      </trkpt>
      <trkpt lat="45.31415" lon="1.41378">
        <ele>324</ele>
        <time>2011-06-23T16:09:38Z</time>
      </trkpt>
      <trkpt lat="45.31421" lon="1.41382">
        <ele>331</ele>
        <time>2011-06-23T16:09:40Z</time>
      </trkpt>
      <trkpt lat="45.31426" lon="1.41384">
        <ele>329</ele>
        <time>2011-06-23T16:09:41Z</time>
      </trkpt>
      <trkpt lat="45.31431" lon="1.41386">
        <ele>326</ele>
        <time>2011-06-23T16:09:42Z</time>
      </trkpt>
      <trkpt lat="45.31437" lon="1.41387">
        <ele>323</ele>
        <time>2011-06-23T16:09:43Z</time>
      </trkpt>
      <trkpt lat="45.31444" lon="1.41388">
        <ele>326</ele>
        <time>2011-06-23T16:09:44Z</time>
      </trkpt>
      <trkpt lat="45.31451" lon="1.41389">
        <ele>327</ele>
        <time>2011-06-23T16:09:45Z</time>
      </trkpt>
      <trkpt lat="45.31458" lon="1.4139">
        <ele>325</ele>
        <time>2011-06-23T16:09:46Z</time>
      </trkpt>
      <trkpt lat="45.31465" lon="1.41392">
        <ele>326</ele>
        <time>2011-06-23T16:09:47Z</time>
      </trkpt>
      <trkpt lat="45.31472" lon="1.41394">
        <ele>326</ele>
        <time>2011-06-23T16:09:48Z</time>
      </trkpt>
      <trkpt lat="45.3148" lon="1.41393">
        <ele>328</ele>
        <time>2011-06-23T16:09:49Z</time>
      </trkpt>
      <trkpt lat="45.31489" lon="1.41392">
        <ele>328</ele>
        <time>2011-06-23T16:09:50Z</time>
      </trkpt>
      <trkpt lat="45.31499" lon="1.41394">
        <ele>323</ele>
        <time>2011-06-23T16:09:51Z</time>
      </trkpt>
      <trkpt lat="45.31508" lon="1.41394">
        <ele>329</ele>
        <time>2011-06-23T16:09:52Z</time>
      </trkpt>
      <trkpt lat="45.31518" lon="1.41394">
        <ele>324</ele>
        <time>2011-06-23T16:09:53Z</time>
      </trkpt>
      <trkpt lat="45.31528" lon="1.41393">
        <ele>326</ele>
        <time>2011-06-23T16:09:54Z</time>
      </trkpt>
      <trkpt lat="45.3154" lon="1.41391">
        <ele>324</ele>
        <time>2011-06-23T16:09:55Z</time>
      </trkpt>
      <trkpt lat="45.31551" lon="1.41389">
        <ele>322</ele>
        <time>2011-06-23T16:09:56Z</time>
      </trkpt>
      <trkpt lat="45.31562" lon="1.41388">
        <ele>323</ele>
        <time>2011-06-23T16:09:57Z</time>
      </trkpt>
      <trkpt lat="45.31572" lon="1.41386">
        <ele>324</ele>
        <time>2011-06-23T16:09:58Z</time>
      </trkpt>
      <trkpt lat="45.31579" lon="1.41384">
        <ele>325</ele>
        <time>2011-06-23T16:09:59Z</time>
      </trkpt>
      <trkpt lat="45.31584" lon="1.41378">
        <ele>327</ele>
        <time>2011-06-23T16:10:00Z</time>
      </trkpt>
      <trkpt lat="45.31589" lon="1.41373">
        <ele>327</ele>
        <time>2011-06-23T16:10:01Z</time>
      </trkpt>
      <trkpt lat="45.31594" lon="1.41372">
        <ele>328</ele>
        <time>2011-06-23T16:10:02Z</time>
      </trkpt>
      <trkpt lat="45.31594" lon="1.41372">
        <ele>328</ele>
        <time>2011-06-23T16:10:02Z</time>
      </trkpt>
      <trkpt lat="45.31594" lon="1.41372">
        <ele>328</ele>
        <time>2011-06-23T16:10:08Z</time>
      </trkpt>
      <trkpt lat="45.31604" lon="1.41373">
        <ele>331</ele>
        <time>2011-06-23T16:10:09Z</time>
      </trkpt>
      <trkpt lat="45.31604" lon="1.41373">
        <ele>331</ele>
        <time>2011-06-23T16:10:09Z</time>
      </trkpt>
      <trkpt lat="45.31604" lon="1.41373">
        <ele>331</ele>
        <time>2011-06-23T16:10:22Z</time>
      </trkpt>
      <trkpt lat="45.31613" lon="1.41367">
        <ele>332</ele>
        <time>2011-06-23T16:10:23Z</time>
      </trkpt>
      <trkpt lat="45.31613" lon="1.41367">
        <ele>332</ele>
        <time>2011-06-23T16:10:23Z</time>
      </trkpt>
      <trkpt lat="45.31613" lon="1.41367">
        <ele>332</ele>
        <time>2011-06-23T16:10:30Z</time>
      </trkpt>
      <trkpt lat="45.3162" lon="1.41359">
        <ele>333</ele>
        <time>2011-06-23T16:10:31Z</time>
      </trkpt>
      <trkpt lat="45.3162" lon="1.41359">
        <ele>333</ele>
        <time>2011-06-23T16:10:31Z</time>
      </trkpt>
      <trkpt lat="45.3162" lon="1.41359">
        <ele>333</ele>
        <time>2011-06-23T16:10:40Z</time>
      </trkpt>
      <trkpt lat="45.31626" lon="1.41362">
        <ele>323</ele>
        <time>2011-06-23T16:10:41Z</time>
      </trkpt>
      <trkpt lat="45.31626" lon="1.41362">
        <ele>323</ele>
        <time>2011-06-23T16:10:41Z</time>
      </trkpt>
      <trkpt lat="45.31626" lon="1.41362">
        <ele>323</ele>
        <time>2011-06-23T16:10:43Z</time>
      </trkpt>
      <trkpt lat="45.31634" lon="1.41366">
        <ele>326</ele>
        <time>2011-06-23T16:10:44Z</time>
      </trkpt>
      <trkpt lat="45.31643" lon="1.41368">
        <ele>326</ele>
        <time>2011-06-23T16:10:54Z</time>
      </trkpt>
      <trkpt lat="45.31643" lon="1.41368">
        <ele>326</ele>
        <time>2011-06-23T16:10:54Z</time>
      </trkpt>
      <trkpt lat="45.31643" lon="1.41368">
        <ele>326</ele>
        <time>2011-06-23T16:10:56Z</time>
      </trkpt>
      <trkpt lat="45.31649" lon="1.41364">
        <ele>323</ele>
        <time>2011-06-23T16:11:00Z</time>
      </trkpt>
      <trkpt lat="45.31661" lon="1.4136">
        <ele>313</ele>
        <time>2011-06-23T16:11:05Z</time>
      </trkpt>
      <trkpt lat="45.31661" lon="1.4136">
        <ele>313</ele>
        <time>2011-06-23T16:11:05Z</time>
      </trkpt>
      <trkpt lat="45.31661" lon="1.4136">
        <ele>313</ele>
        <time>2011-06-23T16:11:12Z</time>
      </trkpt>
      <trkpt lat="45.31671" lon="1.41356">
        <ele>316</ele>
        <time>2011-06-23T16:11:13Z</time>
      </trkpt>
      <trkpt lat="45.31671" lon="1.41356">
        <ele>316</ele>
        <time>2011-06-23T16:11:13Z</time>
      </trkpt>
      <trkpt lat="45.31671" lon="1.41356">
        <ele>316</ele>
        <time>2011-06-23T16:11:16Z</time>
      </trkpt>
      <trkpt lat="45.31676" lon="1.41355">
        <ele>315</ele>
        <time>2011-06-23T16:11:17Z</time>
      </trkpt>
      <trkpt lat="45.3169" lon="1.4135">
        <ele>308</ele>
        <time>2011-06-23T16:11:25Z</time>
      </trkpt>
      <trkpt lat="45.3169" lon="1.4135">
        <ele>308</ele>
        <time>2011-06-23T16:11:25Z</time>
      </trkpt>
      <trkpt lat="45.3169" lon="1.4135">
        <ele>308</ele>
        <time>2011-06-23T16:11:32Z</time>
      </trkpt>
      <trkpt lat="45.31702" lon="1.41347">
        <ele>318</ele>
        <time>2011-06-23T16:11:33Z</time>
      </trkpt>
      <trkpt lat="45.31702" lon="1.41347">
        <ele>318</ele>
        <time>2011-06-23T16:11:33Z</time>
      </trkpt>
      <trkpt lat="45.31702" lon="1.41347">
        <ele>318</ele>
        <time>2011-06-23T16:11:35Z</time>
      </trkpt>
      <trkpt lat="45.31713" lon="1.41346">
        <ele>320</ele>
        <time>2011-06-23T16:11:36Z</time>
      </trkpt>
      <trkpt lat="45.31713" lon="1.41346">
        <ele>320</ele>
        <time>2011-06-23T16:11:36Z</time>
      </trkpt>
      <trkpt lat="45.31713" lon="1.41346">
        <ele>320</ele>
        <time>2011-06-23T16:11:45Z</time>
      </trkpt>
      <trkpt lat="45.31725" lon="1.41345">
        <ele>320</ele>
        <time>2011-06-23T16:11:46Z</time>
      </trkpt>
      <trkpt lat="45.31725" lon="1.41345">
        <ele>320</ele>
        <time>2011-06-23T16:11:46Z</time>
      </trkpt>
      <trkpt lat="45.31725" lon="1.41345">
        <ele>320</ele>
        <time>2011-06-23T16:11:50Z</time>
      </trkpt>
      <trkpt lat="45.31735" lon="1.41345">
        <ele>320</ele>
        <time>2011-06-23T16:11:51Z</time>
      </trkpt>
      <trkpt lat="45.31735" lon="1.41345">
        <ele>320</ele>
        <time>2011-06-23T16:11:51Z</time>
      </trkpt>
      <trkpt lat="45.31735" lon="1.41345">
        <ele>320</ele>
        <time>2011-06-23T16:12:00Z</time>
      </trkpt>
      <trkpt lat="45.31747" lon="1.41343">
        <ele>324</ele>
        <time>2011-06-23T16:12:01Z</time>
      </trkpt>
      <trkpt lat="45.31747" lon="1.41343">
        <ele>324</ele>
        <time>2011-06-23T16:12:01Z</time>
      </trkpt>
      <trkpt lat="45.31747" lon="1.41343">
        <ele>324</ele>
        <time>2011-06-23T16:12:04Z</time>
      </trkpt>
      <trkpt lat="45.31756" lon="1.41341">
        <ele>318</ele>
        <time>2011-06-23T16:12:05Z</time>
      </trkpt>
      <trkpt lat="45.31756" lon="1.41341">
        <ele>318</ele>
        <time>2011-06-23T16:12:05Z</time>
      </trkpt>
      <trkpt lat="45.31756" lon="1.41341">
        <ele>318</ele>
        <time>2011-06-23T16:12:34Z</time>
      </trkpt>
      <trkpt lat="45.3177" lon="1.41332">
        <ele>327</ele>
        <time>2011-06-23T16:12:35Z</time>
      </trkpt>
      <trkpt lat="45.31775" lon="1.4133">
        <ele>325</ele>
        <time>2011-06-23T16:12:36Z</time>
      </trkpt>
      <trkpt lat="45.31783" lon="1.41328">
        <ele>327</ele>
        <time>2011-06-23T16:12:37Z</time>
      </trkpt>
      <trkpt lat="45.31791" lon="1.41326">
        <ele>328</ele>
        <time>2011-06-23T16:12:38Z</time>
      </trkpt>
      <trkpt lat="45.31796" lon="1.41324">
        <ele>329</ele>
        <time>2011-06-23T16:12:39Z</time>
      </trkpt>
      <trkpt lat="45.31803" lon="1.41323">
        <ele>332</ele>
        <time>2011-06-23T16:12:40Z</time>
      </trkpt>
      <trkpt lat="45.31809" lon="1.41322">
        <ele>333</ele>
        <time>2011-06-23T16:12:41Z</time>
      </trkpt>
      <trkpt lat="45.31814" lon="1.41321">
        <ele>334</ele>
        <time>2011-06-23T16:12:42Z</time>
      </trkpt>
      <trkpt lat="45.31818" lon="1.4132">
        <ele>332</ele>
        <time>2011-06-23T16:12:43Z</time>
      </trkpt>
      <trkpt lat="45.31823" lon="1.4132">
        <ele>332</ele>
        <time>2011-06-23T16:12:44Z</time>
      </trkpt>
      <trkpt lat="45.31831" lon="1.41321">
        <ele>332</ele>
        <time>2011-06-23T16:12:46Z</time>
      </trkpt>
      <trkpt lat="45.31841" lon="1.41323">
        <ele>337</ele>
        <time>2011-06-23T16:12:55Z</time>
      </trkpt>
      <trkpt lat="45.31847" lon="1.41325">
        <ele>336</ele>
        <time>2011-06-23T16:12:56Z</time>
      </trkpt>
      <trkpt lat="45.31847" lon="1.41325">
        <ele>336</ele>
        <time>2011-06-23T16:12:56Z</time>
      </trkpt>
      <trkpt lat="45.31847" lon="1.41325">
        <ele>336</ele>
        <time>2011-06-23T16:12:57Z</time>
      </trkpt>
      <trkpt lat="45.31855" lon="1.41329">
        <ele>334</ele>
        <time>2011-06-23T16:12:58Z</time>
      </trkpt>
      <trkpt lat="45.31861" lon="1.41332">
        <ele>335</ele>
        <time>2011-06-23T16:13:00Z</time>
      </trkpt>
      <trkpt lat="45.31861" lon="1.41332">
        <ele>335</ele>
        <time>2011-06-23T16:13:00Z</time>
      </trkpt>
      <trkpt lat="45.31861" lon="1.41332">
        <ele>335</ele>
        <time>2011-06-23T16:13:04Z</time>
      </trkpt>
      <trkpt lat="45.31871" lon="1.41336">
        <ele>336</ele>
        <time>2011-06-23T16:13:05Z</time>
      </trkpt>
      <trkpt lat="45.31879" lon="1.41338">
        <ele>336</ele>
        <time>2011-06-23T16:13:09Z</time>
      </trkpt>
      <trkpt lat="45.31879" lon="1.41338">
        <ele>336</ele>
        <time>2011-06-23T16:13:09Z</time>
      </trkpt>
      <trkpt lat="45.31879" lon="1.41338">
        <ele>336</ele>
        <time>2011-06-23T16:13:19Z</time>
      </trkpt>
      <trkpt lat="45.31892" lon="1.41337">
        <ele>338</ele>
        <time>2011-06-23T16:13:20Z</time>
      </trkpt>
      <trkpt lat="45.31892" lon="1.41337">
        <ele>338</ele>
        <time>2011-06-23T16:13:20Z</time>
      </trkpt>
      <trkpt lat="45.31892" lon="1.41337">
        <ele>338</ele>
        <time>2011-06-23T16:13:21Z</time>
      </trkpt>
      <trkpt lat="45.31898" lon="1.41335">
        <ele>337</ele>
        <time>2011-06-23T16:13:22Z</time>
      </trkpt>
      <trkpt lat="45.31898" lon="1.41335">
        <ele>337</ele>
        <time>2011-06-23T16:13:22Z</time>
      </trkpt>
      <trkpt lat="45.31898" lon="1.41335">
        <ele>337</ele>
        <time>2011-06-23T16:13:32Z</time>
      </trkpt>
      <trkpt lat="45.31907" lon="1.4133">
        <ele>335</ele>
        <time>2011-06-23T16:13:33Z</time>
      </trkpt>
      <trkpt lat="45.31907" lon="1.4133">
        <ele>335</ele>
        <time>2011-06-23T16:13:33Z</time>
      </trkpt>
      <trkpt lat="45.31907" lon="1.4133">
        <ele>335</ele>
        <time>2011-06-23T16:14:07Z</time>
      </trkpt>
      <trkpt lat="45.31912" lon="1.41318">
        <ele>334</ele>
        <time>2011-06-23T16:14:08Z</time>
      </trkpt>
      <trkpt lat="45.31912" lon="1.41318">
        <ele>334</ele>
        <time>2011-06-23T16:14:08Z</time>
      </trkpt>
      <trkpt lat="45.31912" lon="1.41318">
        <ele>334</ele>
        <time>2011-06-23T16:14:57Z</time>
      </trkpt>
      <trkpt lat="45.31906" lon="1.41312">
        <ele>323</ele>
        <time>2011-06-23T16:15:02Z</time>
      </trkpt>
      <trkpt lat="45.31901" lon="1.41311">
        <ele>323</ele>
        <time>2011-06-23T16:15:04Z</time>
      </trkpt>
      <trkpt lat="45.31895" lon="1.41313">
        <ele>318</ele>
        <time>2011-06-23T16:15:07Z</time>
      </trkpt>
      <trkpt lat="45.31889" lon="1.41317">
        <ele>320</ele>
        <time>2011-06-23T16:15:09Z</time>
      </trkpt>
      <trkpt lat="45.31884" lon="1.4132">
        <ele>315</ele>
        <time>2011-06-23T16:15:11Z</time>
      </trkpt>
      <trkpt lat="45.31877" lon="1.41322">
        <ele>312</ele>
        <time>2011-06-23T16:15:13Z</time>
      </trkpt>
      <trkpt lat="45.31869" lon="1.41326">
        <ele>312</ele>
        <time>2011-06-23T16:15:15Z</time>
      </trkpt>
      <trkpt lat="45.31864" lon="1.41335">
        <ele>318</ele>
        <time>2011-06-23T16:15:17Z</time>
      </trkpt>
      <trkpt lat="45.31857" lon="1.41342">
        <ele>313</ele>
        <time>2011-06-23T16:15:19Z</time>
      </trkpt>
      <trkpt lat="45.31853" lon="1.41345">
        <ele>309</ele>
        <time>2011-06-23T16:15:20Z</time>
      </trkpt>
      <trkpt lat="45.31848" lon="1.41352">
        <ele>311</ele>
        <time>2011-06-23T16:15:21Z</time>
      </trkpt>
      <trkpt lat="45.31843" lon="1.41358">
        <ele>313</ele>
        <time>2011-06-23T16:15:22Z</time>
      </trkpt>
      <trkpt lat="45.31838" lon="1.41366">
        <ele>315</ele>
        <time>2011-06-23T16:15:23Z</time>
      </trkpt>
      <trkpt lat="45.31832" lon="1.41375">
        <ele>314</ele>
        <time>2011-06-23T16:15:24Z</time>
      </trkpt>
      <trkpt lat="45.31827" lon="1.41382">
        <ele>317</ele>
        <time>2011-06-23T16:15:25Z</time>
      </trkpt>
      <trkpt lat="45.31822" lon="1.41389">
        <ele>314</ele>
        <time>2011-06-23T16:15:26Z</time>
      </trkpt>
      <trkpt lat="45.31814" lon="1.41397">
        <ele>311</ele>
        <time>2011-06-23T16:15:28Z</time>
      </trkpt>
      <trkpt lat="45.3181" lon="1.41403">
        <ele>313</ele>
        <time>2011-06-23T16:15:29Z</time>
      </trkpt>
      <trkpt lat="45.31806" lon="1.41408">
        <ele>313</ele>
        <time>2011-06-23T16:15:30Z</time>
      </trkpt>
      <trkpt lat="45.31802" lon="1.41412">
        <ele>317</ele>
        <time>2011-06-23T16:15:31Z</time>
      </trkpt>
      <trkpt lat="45.31799" lon="1.41417">
        <ele>317</ele>
        <time>2011-06-23T16:15:32Z</time>
      </trkpt>
      <trkpt lat="45.31794" lon="1.41421">
        <ele>315</ele>
        <time>2011-06-23T16:15:33Z</time>
      </trkpt>
      <trkpt lat="45.3179" lon="1.41425">
        <ele>316</ele>
        <time>2011-06-23T16:15:34Z</time>
      </trkpt>
      <trkpt lat="45.31786" lon="1.41426">
        <ele>314</ele>
        <time>2011-06-23T16:15:35Z</time>
      </trkpt>
      <trkpt lat="45.3178" lon="1.41428">
        <ele>312</ele>
        <time>2011-06-23T16:15:36Z</time>
      </trkpt>
      <trkpt lat="45.31775" lon="1.41429">
        <ele>311</ele>
        <time>2011-06-23T16:15:37Z</time>
      </trkpt>
      <trkpt lat="45.31767" lon="1.41432">
        <ele>311</ele>
        <time>2011-06-23T16:15:39Z</time>
      </trkpt>
      <trkpt lat="45.31761" lon="1.41438">
        <ele>308</ele>
        <time>2011-06-23T16:15:41Z</time>
      </trkpt>
      <trkpt lat="45.31754" lon="1.41442">
        <ele>302</ele>
        <time>2011-06-23T16:15:43Z</time>
      </trkpt>
      <trkpt lat="45.31749" lon="1.41447">
        <ele>306</ele>
        <time>2011-06-23T16:15:45Z</time>
      </trkpt>
      <trkpt lat="45.31746" lon="1.41453">
        <ele>304</ele>
        <time>2011-06-23T16:15:47Z</time>
      </trkpt>
      <trkpt lat="45.3174" lon="1.41458">
        <ele>302</ele>
        <time>2011-06-23T16:15:49Z</time>
      </trkpt>
      <trkpt lat="45.31732" lon="1.41464">
        <ele>297</ele>
        <time>2011-06-23T16:15:51Z</time>
      </trkpt>
      <trkpt lat="45.31725" lon="1.4147">
        <ele>298</ele>
        <time>2011-06-23T16:15:53Z</time>
      </trkpt>
      <trkpt lat="45.31719" lon="1.41475">
        <ele>296</ele>
        <time>2011-06-23T16:15:55Z</time>
      </trkpt>
      <trkpt lat="45.31714" lon="1.41478">
        <ele>291</ele>
        <time>2011-06-23T16:15:58Z</time>
      </trkpt>
      <trkpt lat="45.31708" lon="1.41477">
        <ele>294</ele>
        <time>2011-06-23T16:16:02Z</time>
      </trkpt>
      <trkpt lat="45.317" lon="1.41478">
        <ele>297</ele>
        <time>2011-06-23T16:16:04Z</time>
      </trkpt>
      <trkpt lat="45.31696" lon="1.4148">
        <ele>298</ele>
        <time>2011-06-23T16:16:07Z</time>
      </trkpt>
      <trkpt lat="45.31692" lon="1.41483">
        <ele>301</ele>
        <time>2011-06-23T16:16:14Z</time>
      </trkpt>
      <trkpt lat="45.31689" lon="1.41488">
        <ele>304</ele>
        <time>2011-06-23T16:16:27Z</time>
      </trkpt>
      <trkpt lat="45.31684" lon="1.41491">
        <ele>302</ele>
        <time>2011-06-23T16:16:31Z</time>
      </trkpt>
      <trkpt lat="45.31679" lon="1.41496">
        <ele>309</ele>
        <time>2011-06-23T16:16:36Z</time>
      </trkpt>
      <trkpt lat="45.31674" lon="1.415">
        <ele>306</ele>
        <time>2011-06-23T16:16:40Z</time>
      </trkpt>
      <trkpt lat="45.31669" lon="1.41501">
        <ele>311</ele>
        <time>2011-06-23T16:16:42Z</time>
      </trkpt>
      <trkpt lat="45.31662" lon="1.41502">
        <ele>314</ele>
        <time>2011-06-23T16:16:44Z</time>
      </trkpt>
      <trkpt lat="45.31657" lon="1.41503">
        <ele>313</ele>
        <time>2011-06-23T16:16:45Z</time>
      </trkpt>
      <trkpt lat="45.31652" lon="1.41506">
        <ele>314</ele>
        <time>2011-06-23T16:16:46Z</time>
      </trkpt>
      <trkpt lat="45.31644" lon="1.4151">
        <ele>316</ele>
        <time>2011-06-23T16:16:48Z</time>
      </trkpt>
      <trkpt lat="45.3164" lon="1.41514">
        <ele>315</ele>
        <time>2011-06-23T16:16:49Z</time>
      </trkpt>
      <trkpt lat="45.31636" lon="1.41517">
        <ele>315</ele>
        <time>2011-06-23T16:16:50Z</time>
      </trkpt>
      <trkpt lat="45.3163" lon="1.41521">
        <ele>312</ele>
        <time>2011-06-23T16:16:51Z</time>
      </trkpt>
      <trkpt lat="45.31625" lon="1.41525">
        <ele>312</ele>
        <time>2011-06-23T16:16:52Z</time>
      </trkpt>
      <trkpt lat="45.3162" lon="1.41528">
        <ele>313</ele>
        <time>2011-06-23T16:16:53Z</time>
      </trkpt>
      <trkpt lat="45.31616" lon="1.41531">
        <ele>312</ele>
        <time>2011-06-23T16:16:54Z</time>
      </trkpt>
      <trkpt lat="45.31612" lon="1.41535">
        <ele>308</ele>
        <time>2011-06-23T16:16:55Z</time>
      </trkpt>
      <trkpt lat="45.31604" lon="1.41542">
        <ele>306</ele>
        <time>2011-06-23T16:16:57Z</time>
      </trkpt>
      <trkpt lat="45.31599" lon="1.41548">
        <ele>305</ele>
        <time>2011-06-23T16:16:58Z</time>
      </trkpt>
      <trkpt lat="45.31595" lon="1.41553">
        <ele>307</ele>
        <time>2011-06-23T16:16:59Z</time>
      </trkpt>
      <trkpt lat="45.31591" lon="1.4156">
        <ele>309</ele>
        <time>2011-06-23T16:17:00Z</time>
      </trkpt>
      <trkpt lat="45.31587" lon="1.4157">
        <ele>302</ele>
        <time>2011-06-23T16:17:01Z</time>
      </trkpt>
      <trkpt lat="45.31583" lon="1.41577">
        <ele>300</ele>
        <time>2011-06-23T16:17:02Z</time>
      </trkpt>
      <trkpt lat="45.31579" lon="1.41587">
        <ele>296</ele>
        <time>2011-06-23T16:17:03Z</time>
      </trkpt>
      <trkpt lat="45.31576" lon="1.41596">
        <ele>294</ele>
        <time>2011-06-23T16:17:04Z</time>
      </trkpt>
      <trkpt lat="45.31573" lon="1.41607">
        <ele>298</ele>
        <time>2011-06-23T16:17:05Z</time>
      </trkpt>
      <trkpt lat="45.31569" lon="1.41616">
        <ele>301</ele>
        <time>2011-06-23T16:17:06Z</time>
      </trkpt>
      <trkpt lat="45.31566" lon="1.41624">
        <ele>302</ele>
        <time>2011-06-23T16:17:07Z</time>
      </trkpt>
      <trkpt lat="45.31563" lon="1.41633">
        <ele>301</ele>
        <time>2011-06-23T16:17:08Z</time>
      </trkpt>
      <trkpt lat="45.31561" lon="1.41642">
        <ele>303</ele>
        <time>2011-06-23T16:17:09Z</time>
      </trkpt>
      <trkpt lat="45.31558" lon="1.4165">
        <ele>300</ele>
        <time>2011-06-23T16:17:10Z</time>
      </trkpt>
      <trkpt lat="45.31556" lon="1.41657">
        <ele>305</ele>
        <time>2011-06-23T16:17:11Z</time>
      </trkpt>
      <trkpt lat="45.31555" lon="1.41665">
        <ele>304</ele>
        <time>2011-06-23T16:17:12Z</time>
      </trkpt>
      <trkpt lat="45.31555" lon="1.41673">
        <ele>302</ele>
        <time>2011-06-23T16:17:13Z</time>
      </trkpt>
      <trkpt lat="45.31557" lon="1.41681">
        <ele>300</ele>
        <time>2011-06-23T16:17:14Z</time>
      </trkpt>
      <trkpt lat="45.31558" lon="1.4169">
        <ele>299</ele>
        <time>2011-06-23T16:17:15Z</time>
      </trkpt>
      <trkpt lat="45.31559" lon="1.417">
        <ele>294</ele>
        <time>2011-06-23T16:17:16Z</time>
      </trkpt>
      <trkpt lat="45.31562" lon="1.41707">
        <ele>296</ele>
        <time>2011-06-23T16:17:17Z</time>
      </trkpt>
      <trkpt lat="45.31564" lon="1.41715">
        <ele>294</ele>
        <time>2011-06-23T16:17:18Z</time>
      </trkpt>
      <trkpt lat="45.31566" lon="1.41722">
        <ele>293</ele>
        <time>2011-06-23T16:17:19Z</time>
      </trkpt>
      <trkpt lat="45.31569" lon="1.41729">
        <ele>295</ele>
        <time>2011-06-23T16:17:20Z</time>
      </trkpt>
      <trkpt lat="45.3157" lon="1.41736">
        <ele>300</ele>
        <time>2011-06-23T16:17:21Z</time>
      </trkpt>
      <trkpt lat="45.31573" lon="1.41742">
        <ele>305</ele>
        <time>2011-06-23T16:17:22Z</time>
      </trkpt>
      <trkpt lat="45.31575" lon="1.41749">
        <ele>307</ele>
        <time>2011-06-23T16:17:23Z</time>
      </trkpt>
      <trkpt lat="45.31577" lon="1.41755">
        <ele>309</ele>
        <time>2011-06-23T16:17:24Z</time>
      </trkpt>
      <trkpt lat="45.31578" lon="1.41762">
        <ele>310</ele>
        <time>2011-06-23T16:17:25Z</time>
      </trkpt>
      <trkpt lat="45.3158" lon="1.41768">
        <ele>309</ele>
        <time>2011-06-23T16:17:26Z</time>
      </trkpt>
      <trkpt lat="45.31582" lon="1.41775">
        <ele>308</ele>
        <time>2011-06-23T16:17:27Z</time>
      </trkpt>
      <trkpt lat="45.31584" lon="1.41782">
        <ele>306</ele>
        <time>2011-06-23T16:17:28Z</time>
      </trkpt>
      <trkpt lat="45.31585" lon="1.4179">
        <ele>307</ele>
        <time>2011-06-23T16:17:30Z</time>
      </trkpt>
      <trkpt lat="45.31586" lon="1.41798">
        <ele>303</ele>
        <time>2011-06-23T16:17:34Z</time>
      </trkpt>
      <trkpt lat="45.31584" lon="1.41804">
        <ele>291</ele>
        <time>2011-06-23T16:17:39Z</time>
      </trkpt>
      <trkpt lat="45.31584" lon="1.41812">
        <ele>287</ele>
        <time>2011-06-23T16:17:43Z</time>
      </trkpt>
      <trkpt lat="45.31584" lon="1.41818">
        <ele>290</ele>
        <time>2011-06-23T16:17:46Z</time>
      </trkpt>
      <trkpt lat="45.31585" lon="1.41824">
        <ele>292</ele>
        <time>2011-06-23T16:17:51Z</time>
      </trkpt>
      <trkpt lat="45.3159" lon="1.41829">
        <ele>288</ele>
        <time>2011-06-23T16:18:00Z</time>
      </trkpt>
      <trkpt lat="45.31594" lon="1.41833">
        <ele>285</ele>
        <time>2011-06-23T16:18:04Z</time>
      </trkpt>
      <trkpt lat="45.31599" lon="1.41834">
        <ele>289</ele>
        <time>2011-06-23T16:18:08Z</time>
      </trkpt>
      <trkpt lat="45.31604" lon="1.41836">
        <ele>287</ele>
        <time>2011-06-23T16:18:11Z</time>
      </trkpt>
      <trkpt lat="45.3161" lon="1.41839">
        <ele>287</ele>
        <time>2011-06-23T16:18:14Z</time>
      </trkpt>
      <trkpt lat="45.31615" lon="1.41842">
        <ele>284</ele>
        <time>2011-06-23T16:18:17Z</time>
      </trkpt>
      <trkpt lat="45.3162" lon="1.41845">
        <ele>287</ele>
        <time>2011-06-23T16:18:21Z</time>
      </trkpt>
      <trkpt lat="45.31625" lon="1.41847">
        <ele>284</ele>
        <time>2011-06-23T16:18:25Z</time>
      </trkpt>
      <trkpt lat="45.3163" lon="1.41851">
        <ele>282</ele>
        <time>2011-06-23T16:18:29Z</time>
      </trkpt>
      <trkpt lat="45.31636" lon="1.41853">
        <ele>288</ele>
        <time>2011-06-23T16:18:32Z</time>
      </trkpt>
      <trkpt lat="45.31641" lon="1.41858">
        <ele>289</ele>
        <time>2011-06-23T16:18:35Z</time>
      </trkpt>
      <trkpt lat="45.31645" lon="1.41862">
        <ele>290</ele>
        <time>2011-06-23T16:18:38Z</time>
      </trkpt>
      <trkpt lat="45.31649" lon="1.41867">
        <ele>288</ele>
        <time>2011-06-23T16:18:41Z</time>
      </trkpt>
      <trkpt lat="45.31652" lon="1.4187">
        <ele>290</ele>
        <time>2011-06-23T16:18:44Z</time>
      </trkpt>
      <trkpt lat="45.31655" lon="1.41876">
        <ele>288</ele>
        <time>2011-06-23T16:18:47Z</time>
      </trkpt>
      <trkpt lat="45.31659" lon="1.4188">
        <ele>285</ele>
        <time>2011-06-23T16:18:50Z</time>
      </trkpt>
      <trkpt lat="45.31664" lon="1.41883">
        <ele>280</ele>
        <time>2011-06-23T16:18:53Z</time>
      </trkpt>
      <trkpt lat="45.3167" lon="1.41886">
        <ele>282</ele>
        <time>2011-06-23T16:18:57Z</time>
      </trkpt>
      <trkpt lat="45.31674" lon="1.41892">
        <ele>285</ele>
        <time>2011-06-23T16:19:00Z</time>
      </trkpt>
      <trkpt lat="45.31678" lon="1.41896">
        <ele>284</ele>
        <time>2011-06-23T16:19:02Z</time>
      </trkpt>
      <trkpt lat="45.31681" lon="1.41901">
        <ele>286</ele>
        <time>2011-06-23T16:19:04Z</time>
      </trkpt>
      <trkpt lat="45.31684" lon="1.41907">
        <ele>286</ele>
        <time>2011-06-23T16:19:07Z</time>
      </trkpt>
      <trkpt lat="45.31688" lon="1.41911">
        <ele>281</ele>
        <time>2011-06-23T16:19:11Z</time>
      </trkpt>
      <trkpt lat="45.31692" lon="1.41915">
        <ele>276</ele>
        <time>2011-06-23T16:19:16Z</time>
      </trkpt>
      <trkpt lat="45.31695" lon="1.41921">
        <ele>292</ele>
        <time>2011-06-23T16:19:31Z</time>
      </trkpt>
      <trkpt lat="45.31696" lon="1.41928">
        <ele>293</ele>
        <time>2011-06-23T16:19:37Z</time>
      </trkpt>
      <trkpt lat="45.31697" lon="1.41934">
        <ele>294</ele>
        <time>2011-06-23T16:19:43Z</time>
      </trkpt>
      <trkpt lat="45.31701" lon="1.41939">
        <ele>293</ele>
        <time>2011-06-23T16:19:48Z</time>
      </trkpt>
      <trkpt lat="45.31703" lon="1.41945">
        <ele>294</ele>
        <time>2011-06-23T16:19:52Z</time>
      </trkpt>
      <trkpt lat="45.31707" lon="1.41948">
        <ele>290</ele>
        <time>2011-06-23T16:19:57Z</time>
      </trkpt>
      <trkpt lat="45.31712" lon="1.41948">
        <ele>288</ele>
        <time>2011-06-23T16:20:02Z</time>
      </trkpt>
      <trkpt lat="45.31718" lon="1.4195">
        <ele>286</ele>
        <time>2011-06-23T16:20:06Z</time>
      </trkpt>
      <trkpt lat="45.31721" lon="1.41954">
        <ele>286</ele>
        <time>2011-06-23T16:20:10Z</time>
      </trkpt>
      <trkpt lat="45.31724" lon="1.41961">
        <ele>282</ele>
        <time>2011-06-23T16:20:13Z</time>
      </trkpt>
      <trkpt lat="45.31729" lon="1.41966">
        <ele>280</ele>
        <time>2011-06-23T16:20:16Z</time>
      </trkpt>
      <trkpt lat="45.31732" lon="1.41971">
        <ele>280</ele>
        <time>2011-06-23T16:20:20Z</time>
      </trkpt>
      <trkpt lat="45.31736" lon="1.41974">
        <ele>281</ele>
        <time>2011-06-23T16:20:23Z</time>
      </trkpt>
      <trkpt lat="45.31742" lon="1.41976">
        <ele>284</ele>
        <time>2011-06-23T16:20:28Z</time>
      </trkpt>
      <trkpt lat="45.31746" lon="1.41981">
        <ele>282</ele>
        <time>2011-06-23T16:20:31Z</time>
      </trkpt>
      <trkpt lat="45.3175" lon="1.41985">
        <ele>288</ele>
        <time>2011-06-23T16:20:35Z</time>
      </trkpt>
      <trkpt lat="45.31754" lon="1.41987">
        <ele>287</ele>
        <time>2011-06-23T16:20:38Z</time>
      </trkpt>
      <trkpt lat="45.3176" lon="1.41986">
        <ele>285</ele>
        <time>2011-06-23T16:20:42Z</time>
      </trkpt>
      <trkpt lat="45.31765" lon="1.41985">
        <ele>285</ele>
        <time>2011-06-23T16:20:45Z</time>
      </trkpt>
      <trkpt lat="45.3177" lon="1.41983">
        <ele>286</ele>
        <time>2011-06-23T16:20:49Z</time>
      </trkpt>
      <trkpt lat="45.31774" lon="1.4198">
        <ele>288</ele>
        <time>2011-06-23T16:20:55Z</time>
      </trkpt>
      <trkpt lat="45.3178" lon="1.41976">
        <ele>289</ele>
        <time>2011-06-23T16:20:59Z</time>
      </trkpt>
      <trkpt lat="45.31784" lon="1.41972">
        <ele>287</ele>
        <time>2011-06-23T16:21:04Z</time>
      </trkpt>
      <trkpt lat="45.31786" lon="1.41965">
        <ele>288</ele>
        <time>2011-06-23T16:21:08Z</time>
      </trkpt>
      <trkpt lat="45.31786" lon="1.41959">
        <ele>286</ele>
        <time>2011-06-23T16:21:12Z</time>
      </trkpt>
      <trkpt lat="45.31791" lon="1.41961">
        <ele>284</ele>
        <time>2011-06-23T16:21:18Z</time>
      </trkpt>
      <trkpt lat="45.31794" lon="1.41966">
        <ele>281</ele>
        <time>2011-06-23T16:21:24Z</time>
      </trkpt>
      <trkpt lat="45.31798" lon="1.41967">
        <ele>280</ele>
        <time>2011-06-23T16:21:29Z</time>
      </trkpt>
      <trkpt lat="45.31803" lon="1.41966">
        <ele>284</ele>
        <time>2011-06-23T16:21:33Z</time>
      </trkpt>
      <trkpt lat="45.31809" lon="1.41969">
        <ele>284</ele>
        <time>2011-06-23T16:21:37Z</time>
      </trkpt>
      <trkpt lat="45.31813" lon="1.41969">
        <ele>282</ele>
        <time>2011-06-23T16:21:40Z</time>
      </trkpt>
      <trkpt lat="45.31818" lon="1.41967">
        <ele>282</ele>
        <time>2011-06-23T16:21:43Z</time>
      </trkpt>
      <trkpt lat="45.31825" lon="1.41967">
        <ele>280</ele>
        <time>2011-06-23T16:21:46Z</time>
      </trkpt>
      <trkpt lat="45.3183" lon="1.41969">
        <ele>279</ele>
        <time>2011-06-23T16:21:48Z</time>
      </trkpt>
      <trkpt lat="45.31835" lon="1.41969">
        <ele>284</ele>
        <time>2011-06-23T16:21:51Z</time>
      </trkpt>
      <trkpt lat="45.3184" lon="1.41968">
        <ele>289</ele>
        <time>2011-06-23T16:21:54Z</time>
      </trkpt>
      <trkpt lat="45.31845" lon="1.41967">
        <ele>286</ele>
        <time>2011-06-23T16:21:57Z</time>
      </trkpt>
      <trkpt lat="45.31851" lon="1.41968">
        <ele>278</ele>
        <time>2011-06-23T16:22:01Z</time>
      </trkpt>
      <trkpt lat="45.31857" lon="1.4197">
        <ele>281</ele>
        <time>2011-06-23T16:22:06Z</time>
      </trkpt>
      <trkpt lat="45.31862" lon="1.4197">
        <ele>285</ele>
        <time>2011-06-23T16:22:09Z</time>
      </trkpt>
      <trkpt lat="45.31868" lon="1.41969">
        <ele>287</ele>
        <time>2011-06-23T16:22:12Z</time>
      </trkpt>
      <trkpt lat="45.31873" lon="1.4197">
        <ele>293</ele>
        <time>2011-06-23T16:22:16Z</time>
      </trkpt>
      <trkpt lat="45.31878" lon="1.41968">
        <ele>287</ele>
        <time>2011-06-23T16:22:20Z</time>
      </trkpt>
      <trkpt lat="45.31883" lon="1.4197">
        <ele>296</ele>
        <time>2011-06-23T16:22:24Z</time>
      </trkpt>
      <trkpt lat="45.31889" lon="1.41971">
        <ele>294</ele>
        <time>2011-06-23T16:22:26Z</time>
      </trkpt>
      <trkpt lat="45.31895" lon="1.41973">
        <ele>299</ele>
        <time>2011-06-23T16:22:29Z</time>
      </trkpt>
      <trkpt lat="45.319" lon="1.41972">
        <ele>302</ele>
        <time>2011-06-23T16:22:31Z</time>
      </trkpt>
      <trkpt lat="45.31904" lon="1.41972">
        <ele>304</ele>
        <time>2011-06-23T16:22:33Z</time>
      </trkpt>
      <trkpt lat="45.3191" lon="1.41971">
        <ele>299</ele>
        <time>2011-06-23T16:22:36Z</time>
      </trkpt>
      <trkpt lat="45.31914" lon="1.41968">
        <ele>301</ele>
        <time>2011-06-23T16:22:38Z</time>
      </trkpt>
      <trkpt lat="45.31919" lon="1.41968">
        <ele>293</ele>
        <time>2011-06-23T16:22:40Z</time>
      </trkpt>
      <trkpt lat="45.31925" lon="1.41968">
        <ele>293</ele>
        <time>2011-06-23T16:22:43Z</time>
      </trkpt>
      <trkpt lat="45.31931" lon="1.41968">
        <ele>291</ele>
        <time>2011-06-23T16:22:46Z</time>
      </trkpt>
      <trkpt lat="45.31937" lon="1.41966">
        <ele>292</ele>
        <time>2011-06-23T16:22:49Z</time>
      </trkpt>
      <trkpt lat="45.31942" lon="1.41965">
        <ele>288</ele>
        <time>2011-06-23T16:22:54Z</time>
      </trkpt>
      <trkpt lat="45.31947" lon="1.41964">
        <ele>300</ele>
        <time>2011-06-23T16:22:57Z</time>
      </trkpt>
      <trkpt lat="45.31953" lon="1.41963">
        <ele>297</ele>
        <time>2011-06-23T16:23:00Z</time>
      </trkpt>
      <trkpt lat="45.31958" lon="1.41964">
        <ele>299</ele>
        <time>2011-06-23T16:23:04Z</time>
      </trkpt>
      <trkpt lat="45.31963" lon="1.41966">
        <ele>303</ele>
        <time>2011-06-23T16:23:08Z</time>
      </trkpt>
      <trkpt lat="45.31967" lon="1.41974">
        <ele>294</ele>
        <time>2011-06-23T16:23:11Z</time>
      </trkpt>
      <trkpt lat="45.31972" lon="1.4198">
        <ele>291</ele>
        <time>2011-06-23T16:23:14Z</time>
      </trkpt>
      <trkpt lat="45.31975" lon="1.41985">
        <ele>292</ele>
        <time>2011-06-23T16:23:16Z</time>
      </trkpt>
      <trkpt lat="45.31979" lon="1.41992">
        <ele>286</ele>
        <time>2011-06-23T16:23:19Z</time>
      </trkpt>
      <trkpt lat="45.31982" lon="1.41998">
        <ele>288</ele>
        <time>2011-06-23T16:23:22Z</time>
      </trkpt>
      <trkpt lat="45.31988" lon="1.42004">
        <ele>290</ele>
        <time>2011-06-23T16:23:25Z</time>
      </trkpt>
      <trkpt lat="45.31992" lon="1.42011">
        <ele>288</ele>
        <time>2011-06-23T16:23:27Z</time>
      </trkpt>
      <trkpt lat="45.31994" lon="1.42018">
        <ele>285</ele>
        <time>2011-06-23T16:23:30Z</time>
      </trkpt>
      <trkpt lat="45.31993" lon="1.42025">
        <ele>292</ele>
        <time>2011-06-23T16:23:35Z</time>
      </trkpt>
      <trkpt lat="45.31988" lon="1.42026">
        <ele>285</ele>
        <time>2011-06-23T16:23:40Z</time>
      </trkpt>
      <trkpt lat="45.31983" lon="1.42025">
        <ele>293</ele>
        <time>2011-06-23T16:23:47Z</time>
      </trkpt>
      <trkpt lat="45.31987" lon="1.42021">
        <ele>285</ele>
        <time>2011-06-23T16:23:57Z</time>
      </trkpt>
      <trkpt lat="45.31992" lon="1.4202">
        <ele>289</ele>
        <time>2011-06-23T16:24:11Z</time>
      </trkpt>
      <trkpt lat="45.31986" lon="1.42018">
        <ele>297</ele>
        <time>2011-06-23T16:24:35Z</time>
      </trkpt>
      <trkpt lat="45.31985" lon="1.42012">
        <ele>295</ele>
        <time>2011-06-23T16:24:43Z</time>
      </trkpt>
      <trkpt lat="45.31982" lon="1.42008">
        <ele>295</ele>
        <time>2011-06-23T16:24:48Z</time>
      </trkpt>
      <trkpt lat="45.31976" lon="1.42006">
        <ele>295</ele>
        <time>2011-06-23T16:24:52Z</time>
      </trkpt>
      <trkpt lat="45.31973" lon="1.42001">
        <ele>289</ele>
        <time>2011-06-23T16:24:55Z</time>
      </trkpt>
      <trkpt lat="45.31968" lon="1.41998">
        <ele>295</ele>
        <time>2011-06-23T16:25:00Z</time>
      </trkpt>
      <trkpt lat="45.31964" lon="1.41998">
        <ele>269</ele>
        <time>2011-06-23T16:25:06Z</time>
      </trkpt>
      <trkpt lat="45.31968" lon="1.41994">
        <ele>274</ele>
        <time>2011-06-23T16:25:11Z</time>
      </trkpt>
      <trkpt lat="45.31963" lon="1.41997">
        <ele>284</ele>
        <time>2011-06-23T16:25:22Z</time>
      </trkpt>
      <trkpt lat="45.31958" lon="1.41998">
        <ele>293</ele>
        <time>2011-06-23T16:25:25Z</time>
      </trkpt>
      <trkpt lat="45.31955" lon="1.42004">
        <ele>286</ele>
        <time>2011-06-23T16:25:28Z</time>
      </trkpt>
      <trkpt lat="45.31951" lon="1.42008">
        <ele>290</ele>
        <time>2011-06-23T16:25:32Z</time>
      </trkpt>
      <trkpt lat="45.31946" lon="1.42011">
        <ele>292</ele>
        <time>2011-06-23T16:25:36Z</time>
      </trkpt>
      <trkpt lat="45.31941" lon="1.42013">
        <ele>292</ele>
        <time>2011-06-23T16:25:39Z</time>
      </trkpt>
      <trkpt lat="45.31935" lon="1.42016">
        <ele>298</ele>
        <time>2011-06-23T16:25:43Z</time>
      </trkpt>
      <trkpt lat="45.3193" lon="1.42018">
        <ele>299</ele>
        <time>2011-06-23T16:25:46Z</time>
      </trkpt>
      <trkpt lat="45.31924" lon="1.4202">
        <ele>291</ele>
        <time>2011-06-23T16:25:50Z</time>
      </trkpt>
      <trkpt lat="45.31919" lon="1.42023">
        <ele>293</ele>
        <time>2011-06-23T16:25:53Z</time>
      </trkpt>
      <trkpt lat="45.31914" lon="1.42024">
        <ele>292</ele>
        <time>2011-06-23T16:25:58Z</time>
      </trkpt>
      <trkpt lat="45.31908" lon="1.42026">
        <ele>292</ele>
        <time>2011-06-23T16:26:01Z</time>
      </trkpt>
      <trkpt lat="45.31903" lon="1.4203">
        <ele>290</ele>
        <time>2011-06-23T16:26:04Z</time>
      </trkpt>
      <trkpt lat="45.31898" lon="1.42028">
        <ele>291</ele>
        <time>2011-06-23T16:26:06Z</time>
      </trkpt>
      <trkpt lat="45.31892" lon="1.42028">
        <ele>289</ele>
        <time>2011-06-23T16:26:09Z</time>
      </trkpt>
      <trkpt lat="45.31887" lon="1.42029">
        <ele>287</ele>
        <time>2011-06-23T16:26:11Z</time>
      </trkpt>
      <trkpt lat="45.31883" lon="1.42032">
        <ele>291</ele>
        <time>2011-06-23T16:26:13Z</time>
      </trkpt>
      <trkpt lat="45.31877" lon="1.42034">
        <ele>290</ele>
        <time>2011-06-23T16:26:15Z</time>
      </trkpt>
      <trkpt lat="45.31871" lon="1.42034">
        <ele>288</ele>
        <time>2011-06-23T16:26:17Z</time>
      </trkpt>
      <trkpt lat="45.31864" lon="1.42037">
        <ele>284</ele>
        <time>2011-06-23T16:26:19Z</time>
      </trkpt>
      <trkpt lat="45.31857" lon="1.42042">
        <ele>289</ele>
        <time>2011-06-23T16:26:21Z</time>
      </trkpt>
      <trkpt lat="45.31852" lon="1.42048">
        <ele>289</ele>
        <time>2011-06-23T16:26:23Z</time>
      </trkpt>
      <trkpt lat="45.31846" lon="1.42052">
        <ele>286</ele>
        <time>2011-06-23T16:26:25Z</time>
      </trkpt>
      <trkpt lat="45.31842" lon="1.42054">
        <ele>292</ele>
        <time>2011-06-23T16:26:27Z</time>
      </trkpt>
      <trkpt lat="45.31836" lon="1.42054">
        <ele>291</ele>
        <time>2011-06-23T16:26:30Z</time>
      </trkpt>
      <trkpt lat="45.31831" lon="1.42057">
        <ele>292</ele>
        <time>2011-06-23T16:26:34Z</time>
      </trkpt>
      <trkpt lat="45.31827" lon="1.4206">
        <ele>295</ele>
        <time>2011-06-23T16:26:40Z</time>
      </trkpt>
      <trkpt lat="45.31822" lon="1.42062">
        <ele>291</ele>
        <time>2011-06-23T16:26:43Z</time>
      </trkpt>
      <trkpt lat="45.31816" lon="1.42065">
        <ele>297</ele>
        <time>2011-06-23T16:26:46Z</time>
      </trkpt>
      <trkpt lat="45.3181" lon="1.42069">
        <ele>294</ele>
        <time>2011-06-23T16:26:49Z</time>
      </trkpt>
      <trkpt lat="45.31804" lon="1.42072">
        <ele>297</ele>
        <time>2011-06-23T16:26:52Z</time>
      </trkpt>
      <trkpt lat="45.31798" lon="1.42071">
        <ele>298</ele>
        <time>2011-06-23T16:26:54Z</time>
      </trkpt>
      <trkpt lat="45.31792" lon="1.42074">
        <ele>296</ele>
        <time>2011-06-23T16:26:56Z</time>
      </trkpt>
      <trkpt lat="45.31786" lon="1.42078">
        <ele>294</ele>
        <time>2011-06-23T16:26:58Z</time>
      </trkpt>
      <trkpt lat="45.3178" lon="1.42083">
        <ele>290</ele>
        <time>2011-06-23T16:27:00Z</time>
      </trkpt>
      <trkpt lat="45.31774" lon="1.42086">
        <ele>297</ele>
        <time>2011-06-23T16:27:02Z</time>
      </trkpt>
      <trkpt lat="45.31768" lon="1.4209">
        <ele>298</ele>
        <time>2011-06-23T16:27:04Z</time>
      </trkpt>
      <trkpt lat="45.3176" lon="1.42096">
        <ele>295</ele>
        <time>2011-06-23T16:27:06Z</time>
      </trkpt>
      <trkpt lat="45.31754" lon="1.42101">
        <ele>292</ele>
        <time>2011-06-23T16:27:08Z</time>
      </trkpt>
      <trkpt lat="45.31748" lon="1.42108">
        <ele>290</ele>
        <time>2011-06-23T16:27:10Z</time>
      </trkpt>
      <trkpt lat="45.31744" lon="1.42113">
        <ele>288</ele>
        <time>2011-06-23T16:27:12Z</time>
      </trkpt>
      <trkpt lat="45.3174" lon="1.42116">
        <ele>296</ele>
        <time>2011-06-23T16:27:15Z</time>
      </trkpt>
      <trkpt lat="45.31734" lon="1.42119">
        <ele>297</ele>
        <time>2011-06-23T16:27:18Z</time>
      </trkpt>
      <trkpt lat="45.31729" lon="1.42118">
        <ele>296</ele>
        <time>2011-06-23T16:27:21Z</time>
      </trkpt>
      <trkpt lat="45.31725" lon="1.42118">
        <ele>297</ele>
        <time>2011-06-23T16:27:24Z</time>
      </trkpt>
      <trkpt lat="45.31718" lon="1.42119">
        <ele>295</ele>
        <time>2011-06-23T16:27:27Z</time>
      </trkpt>
      <trkpt lat="45.31713" lon="1.4212">
        <ele>290</ele>
        <time>2011-06-23T16:27:30Z</time>
      </trkpt>
      <trkpt lat="45.31708" lon="1.42123">
        <ele>291</ele>
        <time>2011-06-23T16:27:33Z</time>
      </trkpt>
      <trkpt lat="45.31702" lon="1.42123">
        <ele>289</ele>
        <time>2011-06-23T16:27:36Z</time>
      </trkpt>
      <trkpt lat="45.31697" lon="1.42125">
        <ele>291</ele>
        <time>2011-06-23T16:27:39Z</time>
      </trkpt>
      <trkpt lat="45.31692" lon="1.42127">
        <ele>298</ele>
        <time>2011-06-23T16:27:44Z</time>
      </trkpt>
      <trkpt lat="45.31686" lon="1.42129">
        <ele>295</ele>
        <time>2011-06-23T16:27:48Z</time>
      </trkpt>
      <trkpt lat="45.31681" lon="1.42132">
        <ele>298</ele>
        <time>2011-06-23T16:27:52Z</time>
      </trkpt>
      <trkpt lat="45.31679" lon="1.42138">
        <ele>299</ele>
        <time>2011-06-23T16:28:03Z</time>
      </trkpt>
      <trkpt lat="45.31679" lon="1.42146">
        <ele>289</ele>
        <time>2011-06-23T16:28:57Z</time>
      </trkpt>
      <trkpt lat="45.31677" lon="1.42154">
        <ele>290</ele>
        <time>2011-06-23T16:29:00Z</time>
      </trkpt>
      <trkpt lat="45.31675" lon="1.4216">
        <ele>294</ele>
        <time>2011-06-23T16:29:04Z</time>
      </trkpt>
      <trkpt lat="45.3167" lon="1.42163">
        <ele>294</ele>
        <time>2011-06-23T16:29:10Z</time>
      </trkpt>
      <trkpt lat="45.31665" lon="1.42165">
        <ele>290</ele>
        <time>2011-06-23T16:29:16Z</time>
      </trkpt>
      <trkpt lat="45.31661" lon="1.42168">
        <ele>289</ele>
        <time>2011-06-23T16:29:20Z</time>
      </trkpt>
      <trkpt lat="45.31657" lon="1.42173">
        <ele>292</ele>
        <time>2011-06-23T16:29:27Z</time>
      </trkpt>
      <trkpt lat="45.31655" lon="1.42179">
        <ele>290</ele>
        <time>2011-06-23T16:29:33Z</time>
      </trkpt>
      <trkpt lat="45.31652" lon="1.42186">
        <ele>293</ele>
        <time>2011-06-23T16:29:37Z</time>
      </trkpt>
      <trkpt lat="45.3165" lon="1.42192">
        <ele>293</ele>
        <time>2011-06-23T16:29:41Z</time>
      </trkpt>
      <trkpt lat="45.31647" lon="1.42198">
        <ele>299</ele>
        <time>2011-06-23T16:29:45Z</time>
      </trkpt>
      <trkpt lat="45.31645" lon="1.42204">
        <ele>292</ele>
        <time>2011-06-23T16:29:49Z</time>
      </trkpt>
      <trkpt lat="45.31645" lon="1.42211">
        <ele>301</ele>
        <time>2011-06-23T16:29:52Z</time>
      </trkpt>
      <trkpt lat="45.31644" lon="1.42219">
        <ele>305</ele>
        <time>2011-06-23T16:29:55Z</time>
      </trkpt>
      <trkpt lat="45.31642" lon="1.42226">
        <ele>308</ele>
        <time>2011-06-23T16:29:58Z</time>
      </trkpt>
      <trkpt lat="45.3164" lon="1.42234">
        <ele>314</ele>
        <time>2011-06-23T16:30:01Z</time>
      </trkpt>
      <trkpt lat="45.31637" lon="1.42241">
        <ele>314</ele>
        <time>2011-06-23T16:30:04Z</time>
      </trkpt>
      <trkpt lat="45.31636" lon="1.42248">
        <ele>315</ele>
        <time>2011-06-23T16:30:08Z</time>
      </trkpt>
      <trkpt lat="45.31636" lon="1.42256">
        <ele>306</ele>
        <time>2011-06-23T16:30:10Z</time>
      </trkpt>
      <trkpt lat="45.31638" lon="1.42262">
        <ele>296</ele>
        <time>2011-06-23T16:30:15Z</time>
      </trkpt>
      <trkpt lat="45.31641" lon="1.42266">
        <ele>296</ele>
        <time>2011-06-23T16:30:20Z</time>
      </trkpt>
      <trkpt lat="45.31644" lon="1.42273">
        <ele>293</ele>
        <time>2011-06-23T16:30:24Z</time>
      </trkpt>
      <trkpt lat="45.31643" lon="1.4228">
        <ele>289</ele>
        <time>2011-06-23T16:30:27Z</time>
      </trkpt>
      <trkpt lat="45.3164" lon="1.42286">
        <ele>296</ele>
        <time>2011-06-23T16:30:33Z</time>
      </trkpt>
      <trkpt lat="45.31635" lon="1.4229">
        <ele>289</ele>
        <time>2011-06-23T16:30:37Z</time>
      </trkpt>
      <trkpt lat="45.31631" lon="1.42294">
        <ele>289</ele>
        <time>2011-06-23T16:30:42Z</time>
      </trkpt>
      <trkpt lat="45.31626" lon="1.42297">
        <ele>286</ele>
        <time>2011-06-23T16:30:51Z</time>
      </trkpt>
      <trkpt lat="45.31619" lon="1.423">
        <ele>283</ele>
        <time>2011-06-23T16:30:54Z</time>
      </trkpt>
      <trkpt lat="45.31614" lon="1.42302">
        <ele>282</ele>
        <time>2011-06-23T16:30:57Z</time>
      </trkpt>
      <trkpt lat="45.3161" lon="1.42306">
        <ele>282</ele>
        <time>2011-06-23T16:31:01Z</time>
      </trkpt>
      <trkpt lat="45.31605" lon="1.42306">
        <ele>281</ele>
        <time>2011-06-23T16:31:23Z</time>
      </trkpt>
      <trkpt lat="45.31605" lon="1.42313">
        <ele>282</ele>
        <time>2011-06-23T16:31:30Z</time>
      </trkpt>
      <trkpt lat="45.31604" lon="1.42319">
        <ele>291</ele>
        <time>2011-06-23T16:31:36Z</time>
      </trkpt>
      <trkpt lat="45.31606" lon="1.42325">
        <ele>288</ele>
        <time>2011-06-23T16:31:44Z</time>
      </trkpt>
      <trkpt lat="45.31609" lon="1.42332">
        <ele>292</ele>
        <time>2011-06-23T16:31:50Z</time>
      </trkpt>
      <trkpt lat="45.31612" lon="1.42336">
        <ele>286</ele>
        <time>2011-06-23T16:31:53Z</time>
      </trkpt>
      <trkpt lat="45.31617" lon="1.42338">
        <ele>285</ele>
        <time>2011-06-23T16:32:04Z</time>
      </trkpt>
      <trkpt lat="45.31621" lon="1.42342">
        <ele>280</ele>
        <time>2011-06-23T16:32:07Z</time>
      </trkpt>
      <trkpt lat="45.31624" lon="1.42348">
        <ele>275</ele>
        <time>2011-06-23T16:32:10Z</time>
      </trkpt>
      <trkpt lat="45.31627" lon="1.42354">
        <ele>271</ele>
        <time>2011-06-23T16:32:14Z</time>
      </trkpt>
      <trkpt lat="45.31631" lon="1.42358">
        <ele>274</ele>
        <time>2011-06-23T16:32:20Z</time>
      </trkpt>
      <trkpt lat="45.31634" lon="1.42363">
        <ele>262</ele>
        <time>2011-06-23T16:32:26Z</time>
      </trkpt>
      <trkpt lat="45.31638" lon="1.42369">
        <ele>260</ele>
        <time>2011-06-23T16:32:33Z</time>
      </trkpt>
      <trkpt lat="45.31642" lon="1.42375">
        <ele>262</ele>
        <time>2011-06-23T16:32:37Z</time>
      </trkpt>
      <trkpt lat="45.31646" lon="1.42381">
        <ele>259</ele>
        <time>2011-06-23T16:32:40Z</time>
      </trkpt>
      <trkpt lat="45.31651" lon="1.42385">
        <ele>260</ele>
        <time>2011-06-23T16:32:43Z</time>
      </trkpt>
      <trkpt lat="45.31656" lon="1.4239">
        <ele>262</ele>
        <time>2011-06-23T16:32:45Z</time>
      </trkpt>
      <trkpt lat="45.3166" lon="1.42393">
        <ele>260</ele>
        <time>2011-06-23T16:32:47Z</time>
      </trkpt>
      <trkpt lat="45.31661" lon="1.424">
        <ele>274</ele>
        <time>2011-06-23T16:32:51Z</time>
      </trkpt>
      <trkpt lat="45.31664" lon="1.42406">
        <ele>278</ele>
        <time>2011-06-23T16:32:54Z</time>
      </trkpt>
      <trkpt lat="45.31669" lon="1.42408">
        <ele>281</ele>
        <time>2011-06-23T16:32:57Z</time>
      </trkpt>
      <trkpt lat="45.31675" lon="1.42412">
        <ele>273</ele>
        <time>2011-06-23T16:33:00Z</time>
      </trkpt>
      <trkpt lat="45.3168" lon="1.42413">
        <ele>262</ele>
        <time>2011-06-23T16:33:06Z</time>
      </trkpt>
      <trkpt lat="45.31685" lon="1.42415">
        <ele>265</ele>
        <time>2011-06-23T16:33:08Z</time>
      </trkpt>
      <trkpt lat="45.31689" lon="1.42417">
        <ele>266</ele>
        <time>2011-06-23T16:33:10Z</time>
      </trkpt>
      <trkpt lat="45.31694" lon="1.42421">
        <ele>265</ele>
        <time>2011-06-23T16:33:12Z</time>
      </trkpt>
      <trkpt lat="45.317" lon="1.42425">
        <ele>262</ele>
        <time>2011-06-23T16:33:14Z</time>
      </trkpt>
      <trkpt lat="45.31705" lon="1.4243">
        <ele>263</ele>
        <time>2011-06-23T16:33:16Z</time>
      </trkpt>
      <trkpt lat="45.31708" lon="1.42435">
        <ele>263</ele>
        <time>2011-06-23T16:33:18Z</time>
      </trkpt>
      <trkpt lat="45.3171" lon="1.42443">
        <ele>263</ele>
        <time>2011-06-23T16:33:21Z</time>
      </trkpt>
      <trkpt lat="45.3171" lon="1.42453">
        <ele>261</ele>
        <time>2011-06-23T16:33:24Z</time>
      </trkpt>
      <trkpt lat="45.31707" lon="1.42462">
        <ele>264</ele>
        <time>2011-06-23T16:33:26Z</time>
      </trkpt>
      <trkpt lat="45.31705" lon="1.42468">
        <ele>266</ele>
        <time>2011-06-23T16:33:28Z</time>
      </trkpt>
      <trkpt lat="45.31703" lon="1.42475">
        <ele>261</ele>
        <time>2011-06-23T16:33:31Z</time>
      </trkpt>
      <trkpt lat="45.31702" lon="1.42482">
        <ele>258</ele>
        <time>2011-06-23T16:33:34Z</time>
      </trkpt>
      <trkpt lat="45.317" lon="1.42488">
        <ele>256</ele>
        <time>2011-06-23T16:33:36Z</time>
      </trkpt>
      <trkpt lat="45.31699" lon="1.42495">
        <ele>252</ele>
        <time>2011-06-23T16:33:39Z</time>
      </trkpt>
      <trkpt lat="45.31695" lon="1.425">
        <ele>247</ele>
        <time>2011-06-23T16:33:42Z</time>
      </trkpt>
      <trkpt lat="45.31689" lon="1.42504">
        <ele>244</ele>
        <time>2011-06-23T16:33:45Z</time>
      </trkpt>
      <trkpt lat="45.31683" lon="1.42504">
        <ele>245</ele>
        <time>2011-06-23T16:33:47Z</time>
      </trkpt>
      <trkpt lat="45.31678" lon="1.42503">
        <ele>245</ele>
        <time>2011-06-23T16:33:49Z</time>
      </trkpt>
      <trkpt lat="45.3167" lon="1.42502">
        <ele>244</ele>
        <time>2011-06-23T16:33:51Z</time>
      </trkpt>
      <trkpt lat="45.31661" lon="1.425">
        <ele>247</ele>
        <time>2011-06-23T16:33:53Z</time>
      </trkpt>
      <trkpt lat="45.31652" lon="1.425">
        <ele>251</ele>
        <time>2011-06-23T16:33:55Z</time>
      </trkpt>
      <trkpt lat="45.31645" lon="1.42502">
        <ele>246</ele>
        <time>2011-06-23T16:33:57Z</time>
      </trkpt>
      <trkpt lat="45.31637" lon="1.42502">
        <ele>249</ele>
        <time>2011-06-23T16:33:59Z</time>
      </trkpt>
      <trkpt lat="45.31632" lon="1.42502">
        <ele>249</ele>
        <time>2011-06-23T16:34:01Z</time>
      </trkpt>
      <trkpt lat="45.31627" lon="1.42504">
        <ele>243</ele>
        <time>2011-06-23T16:34:16Z</time>
      </trkpt>
      <trkpt lat="45.31622" lon="1.42507">
        <ele>245</ele>
        <time>2011-06-23T16:34:18Z</time>
      </trkpt>
      <trkpt lat="45.31617" lon="1.42506">
        <ele>247</ele>
        <time>2011-06-23T16:34:21Z</time>
      </trkpt>
      <trkpt lat="45.31612" lon="1.42504">
        <ele>244</ele>
        <time>2011-06-23T16:34:23Z</time>
      </trkpt>
      <trkpt lat="45.31607" lon="1.425">
        <ele>240</ele>
        <time>2011-06-23T16:34:25Z</time>
      </trkpt>
      <trkpt lat="45.31602" lon="1.42499">
        <ele>240</ele>
        <time>2011-06-23T16:34:27Z</time>
      </trkpt>
      <trkpt lat="45.31597" lon="1.42497">
        <ele>243</ele>
        <time>2011-06-23T16:34:29Z</time>
      </trkpt>
      <trkpt lat="45.31592" lon="1.42495">
        <ele>245</ele>
        <time>2011-06-23T16:34:31Z</time>
      </trkpt>
      <trkpt lat="45.31586" lon="1.42493">
        <ele>241</ele>
        <time>2011-06-23T16:34:33Z</time>
      </trkpt>
      <trkpt lat="45.3158" lon="1.42492">
        <ele>244</ele>
        <time>2011-06-23T16:34:36Z</time>
      </trkpt>
      <trkpt lat="45.31574" lon="1.42489">
        <ele>245</ele>
        <time>2011-06-23T16:34:39Z</time>
      </trkpt>
      <trkpt lat="45.31569" lon="1.42485">
        <ele>241</ele>
        <time>2011-06-23T16:34:42Z</time>
      </trkpt>
      <trkpt lat="45.31565" lon="1.42478">
        <ele>240</ele>
        <time>2011-06-23T16:34:45Z</time>
      </trkpt>
      <trkpt lat="45.31563" lon="1.42471">
        <ele>236</ele>
        <time>2011-06-23T16:34:47Z</time>
      </trkpt>
      <trkpt lat="45.31563" lon="1.42462">
        <ele>241</ele>
        <time>2011-06-23T16:34:50Z</time>
      </trkpt>
      <trkpt lat="45.31564" lon="1.42452">
        <ele>245</ele>
        <time>2011-06-23T16:34:53Z</time>
      </trkpt>
      <trkpt lat="45.31563" lon="1.42443">
        <ele>244</ele>
        <time>2011-06-23T16:34:56Z</time>
      </trkpt>
      <trkpt lat="45.31563" lon="1.42435">
        <ele>246</ele>
        <time>2011-06-23T16:34:58Z</time>
      </trkpt>
      <trkpt lat="45.31561" lon="1.42425">
        <ele>238</ele>
        <time>2011-06-23T16:35:00Z</time>
      </trkpt>
      <trkpt lat="45.31558" lon="1.42417">
        <ele>242</ele>
        <time>2011-06-23T16:35:02Z</time>
      </trkpt>
      <trkpt lat="45.31556" lon="1.42412">
        <ele>244</ele>
        <time>2011-06-23T16:35:03Z</time>
      </trkpt>
      <trkpt lat="45.31552" lon="1.42405">
        <ele>241</ele>
        <time>2011-06-23T16:35:04Z</time>
      </trkpt>
      <trkpt lat="45.31545" lon="1.42397">
        <ele>241</ele>
        <time>2011-06-23T16:35:06Z</time>
      </trkpt>
      <trkpt lat="45.31538" lon="1.42389">
        <ele>241</ele>
        <time>2011-06-23T16:35:08Z</time>
      </trkpt>
      <trkpt lat="45.31532" lon="1.42382">
        <ele>246</ele>
        <time>2011-06-23T16:35:10Z</time>
      </trkpt>
      <trkpt lat="45.31526" lon="1.42377">
        <ele>246</ele>
        <time>2011-06-23T16:35:12Z</time>
      </trkpt>
      <trkpt lat="45.31521" lon="1.42372">
        <ele>240</ele>
        <time>2011-06-23T16:35:14Z</time>
      </trkpt>
      <trkpt lat="45.31518" lon="1.42367">
        <ele>235</ele>
        <time>2011-06-23T16:35:16Z</time>
      </trkpt>
      <trkpt lat="45.31515" lon="1.42359">
        <ele>231</ele>
        <time>2011-06-23T16:35:18Z</time>
      </trkpt>
      <trkpt lat="45.31512" lon="1.42353">
        <ele>232</ele>
        <time>2011-06-23T16:35:20Z</time>
      </trkpt>
      <trkpt lat="45.31508" lon="1.42347">
        <ele>230</ele>
        <time>2011-06-23T16:35:22Z</time>
      </trkpt>
      <trkpt lat="45.31506" lon="1.42338">
        <ele>230</ele>
        <time>2011-06-23T16:35:25Z</time>
      </trkpt>
      <trkpt lat="45.31504" lon="1.42331">
        <ele>226</ele>
        <time>2011-06-23T16:35:27Z</time>
      </trkpt>
      <trkpt lat="45.31501" lon="1.42324">
        <ele>224</ele>
        <time>2011-06-23T16:35:29Z</time>
      </trkpt>
      <trkpt lat="45.31499" lon="1.42315">
        <ele>222</ele>
        <time>2011-06-23T16:35:31Z</time>
      </trkpt>
      <trkpt lat="45.31498" lon="1.42307">
        <ele>221</ele>
        <time>2011-06-23T16:35:33Z</time>
      </trkpt>
      <trkpt lat="45.31498" lon="1.42298">
        <ele>222</ele>
        <time>2011-06-23T16:35:35Z</time>
      </trkpt>
      <trkpt lat="45.31499" lon="1.4229">
        <ele>219</ele>
        <time>2011-06-23T16:35:37Z</time>
      </trkpt>
      <trkpt lat="45.31499" lon="1.42281">
        <ele>225</ele>
        <time>2011-06-23T16:35:39Z</time>
      </trkpt>
      <trkpt lat="45.315" lon="1.42271">
        <ele>225</ele>
        <time>2011-06-23T16:35:41Z</time>
      </trkpt>
      <trkpt lat="45.315" lon="1.4226">
        <ele>227</ele>
        <time>2011-06-23T16:35:43Z</time>
      </trkpt>
      <trkpt lat="45.31502" lon="1.42249">
        <ele>228</ele>
        <time>2011-06-23T16:35:45Z</time>
      </trkpt>
      <trkpt lat="45.31505" lon="1.42241">
        <ele>248</ele>
        <time>2011-06-23T16:35:47Z</time>
      </trkpt>
      <trkpt lat="45.31507" lon="1.42234">
        <ele>242</ele>
        <time>2011-06-23T16:35:48Z</time>
      </trkpt>
      <trkpt lat="45.31509" lon="1.42225">
        <ele>247</ele>
        <time>2011-06-23T16:35:50Z</time>
      </trkpt>
      <trkpt lat="45.31512" lon="1.42218">
        <ele>243</ele>
        <time>2011-06-23T16:35:52Z</time>
      </trkpt>
      <trkpt lat="45.31518" lon="1.42212">
        <ele>253</ele>
        <time>2011-06-23T16:35:55Z</time>
      </trkpt>
      <trkpt lat="45.31523" lon="1.42207">
        <ele>246</ele>
        <time>2011-06-23T16:35:57Z</time>
      </trkpt>
      <trkpt lat="45.31528" lon="1.42198">
        <ele>238</ele>
        <time>2011-06-23T16:35:59Z</time>
      </trkpt>
      <trkpt lat="45.31531" lon="1.42192">
        <ele>235</ele>
        <time>2011-06-23T16:36:01Z</time>
      </trkpt>
      <trkpt lat="45.31534" lon="1.42186">
        <ele>263</ele>
        <time>2011-06-23T16:36:06Z</time>
      </trkpt>
      <trkpt lat="45.31537" lon="1.4218">
        <ele>257</ele>
        <time>2011-06-23T16:36:13Z</time>
      </trkpt>
      <trkpt lat="45.31538" lon="1.42173">
        <ele>278</ele>
        <time>2011-06-23T16:36:23Z</time>
      </trkpt>
      <trkpt lat="45.31537" lon="1.42166">
        <ele>286</ele>
        <time>2011-06-23T16:36:28Z</time>
      </trkpt>
      <trkpt lat="45.31535" lon="1.4216">
        <ele>274</ele>
        <time>2011-06-23T16:36:34Z</time>
      </trkpt>
      <trkpt lat="45.31537" lon="1.42153">
        <ele>280</ele>
        <time>2011-06-23T16:36:38Z</time>
      </trkpt>
      <trkpt lat="45.31542" lon="1.4215">
        <ele>276</ele>
        <time>2011-06-23T16:36:43Z</time>
      </trkpt>
      <trkpt lat="45.31543" lon="1.42142">
        <ele>270</ele>
        <time>2011-06-23T16:36:46Z</time>
      </trkpt>
      <trkpt lat="45.31543" lon="1.42135">
        <ele>281</ele>
        <time>2011-06-23T16:36:49Z</time>
      </trkpt>
      <trkpt lat="45.31542" lon="1.42142">
        <ele>280</ele>
        <time>2011-06-23T16:37:03Z</time>
      </trkpt>
      <trkpt lat="45.31538" lon="1.42144">
        <ele>281</ele>
        <time>2011-06-23T16:37:12Z</time>
      </trkpt>
      <trkpt lat="45.31536" lon="1.4215">
        <ele>287</ele>
        <time>2011-06-23T16:37:23Z</time>
      </trkpt>
      <trkpt lat="45.3154" lon="1.42154">
        <ele>267</ele>
        <time>2011-06-23T16:37:28Z</time>
      </trkpt>
      <trkpt lat="45.31545" lon="1.42152">
        <ele>254</ele>
        <time>2011-06-23T16:37:31Z</time>
      </trkpt>
      <trkpt lat="45.3155" lon="1.42154">
        <ele>267</ele>
        <time>2011-06-23T16:37:37Z</time>
      </trkpt>
      <trkpt lat="45.31552" lon="1.42161">
        <ele>255</ele>
        <time>2011-06-23T16:37:47Z</time>
      </trkpt>
      <trkpt lat="45.31555" lon="1.42153">
        <ele>252</ele>
        <time>2011-06-23T16:37:56Z</time>
      </trkpt>
      <trkpt lat="45.31556" lon="1.42145">
        <ele>246</ele>
        <time>2011-06-23T16:37:59Z</time>
      </trkpt>
      <trkpt lat="45.31552" lon="1.42136">
        <ele>241</ele>
        <time>2011-06-23T16:38:02Z</time>
      </trkpt>
      <trkpt lat="45.31548" lon="1.42128">
        <ele>238</ele>
        <time>2011-06-23T16:38:03Z</time>
      </trkpt>
      <trkpt lat="45.31542" lon="1.42118">
        <ele>232</ele>
        <time>2011-06-23T16:38:05Z</time>
      </trkpt>
      <trkpt lat="45.31539" lon="1.42113">
        <ele>232</ele>
        <time>2011-06-23T16:38:08Z</time>
      </trkpt>
      <trkpt lat="45.31539" lon="1.42106">
        <ele>238</ele>
        <time>2011-06-23T16:38:13Z</time>
      </trkpt>
      <trkpt lat="45.31536" lon="1.42101">
        <ele>233</ele>
        <time>2011-06-23T16:38:19Z</time>
      </trkpt>
      <trkpt lat="45.31535" lon="1.42095">
        <ele>233</ele>
        <time>2011-06-23T16:38:23Z</time>
      </trkpt>
      <trkpt lat="45.31535" lon="1.42088">
        <ele>230</ele>
        <time>2011-06-23T16:38:28Z</time>
      </trkpt>
      <trkpt lat="45.31532" lon="1.42081">
        <ele>228</ele>
        <time>2011-06-23T16:38:32Z</time>
      </trkpt>
      <trkpt lat="45.31531" lon="1.42074">
        <ele>227</ele>
        <time>2011-06-23T16:38:35Z</time>
      </trkpt>
      <trkpt lat="45.31529" lon="1.42067">
        <ele>221</ele>
        <time>2011-06-23T16:38:38Z</time>
      </trkpt>
      <trkpt lat="45.31526" lon="1.4206">
        <ele>221</ele>
        <time>2011-06-23T16:38:41Z</time>
      </trkpt>
      <trkpt lat="45.31525" lon="1.42054">
        <ele>220</ele>
        <time>2011-06-23T16:38:45Z</time>
      </trkpt>
      <trkpt lat="45.31523" lon="1.42046">
        <ele>224</ele>
        <time>2011-06-23T16:38:49Z</time>
      </trkpt>
      <trkpt lat="45.31521" lon="1.4204">
        <ele>224</ele>
        <time>2011-06-23T16:38:52Z</time>
      </trkpt>
      <trkpt lat="45.31517" lon="1.42033">
        <ele>224</ele>
        <time>2011-06-23T16:38:55Z</time>
      </trkpt>
      <trkpt lat="45.31515" lon="1.42025">
        <ele>219</ele>
        <time>2011-06-23T16:38:58Z</time>
      </trkpt>
      <trkpt lat="45.31513" lon="1.42017">
        <ele>223</ele>
        <time>2011-06-23T16:39:01Z</time>
      </trkpt>
      <trkpt lat="45.31511" lon="1.42009">
        <ele>222</ele>
        <time>2011-06-23T16:39:04Z</time>
      </trkpt>
      <trkpt lat="45.31511" lon="1.42001">
        <ele>221</ele>
        <time>2011-06-23T16:39:07Z</time>
      </trkpt>
      <trkpt lat="45.31507" lon="1.41994">
        <ele>222</ele>
        <time>2011-06-23T16:39:10Z</time>
      </trkpt>
      <trkpt lat="45.31504" lon="1.41989">
        <ele>220</ele>
        <time>2011-06-23T16:39:13Z</time>
      </trkpt>
      <trkpt lat="45.31502" lon="1.41983">
        <ele>220</ele>
        <time>2011-06-23T16:39:16Z</time>
      </trkpt>
      <trkpt lat="45.31501" lon="1.41975">
        <ele>219</ele>
        <time>2011-06-23T16:39:19Z</time>
      </trkpt>
      <trkpt lat="45.31499" lon="1.41969">
        <ele>217</ele>
        <time>2011-06-23T16:39:22Z</time>
      </trkpt>
      <trkpt lat="45.31497" lon="1.41962">
        <ele>218</ele>
        <time>2011-06-23T16:39:26Z</time>
      </trkpt>
      <trkpt lat="45.31496" lon="1.41954">
        <ele>217</ele>
        <time>2011-06-23T16:39:30Z</time>
      </trkpt>
      <trkpt lat="45.31494" lon="1.41947">
        <ele>217</ele>
        <time>2011-06-23T16:39:33Z</time>
      </trkpt>
      <trkpt lat="45.31491" lon="1.4194">
        <ele>218</ele>
        <time>2011-06-23T16:39:37Z</time>
      </trkpt>
      <trkpt lat="45.31489" lon="1.41934">
        <ele>218</ele>
        <time>2011-06-23T16:39:40Z</time>
      </trkpt>
      <trkpt lat="45.31486" lon="1.41928">
        <ele>218</ele>
        <time>2011-06-23T16:39:43Z</time>
      </trkpt>
      <trkpt lat="45.31484" lon="1.41923">
        <ele>221</ele>
        <time>2011-06-23T16:39:47Z</time>
      </trkpt>
      <trkpt lat="45.31481" lon="1.41916">
        <ele>220</ele>
        <time>2011-06-23T16:39:50Z</time>
      </trkpt>
      <trkpt lat="45.31478" lon="1.41909">
        <ele>219</ele>
        <time>2011-06-23T16:39:53Z</time>
      </trkpt>
      <trkpt lat="45.31475" lon="1.41904">
        <ele>220</ele>
        <time>2011-06-23T16:39:55Z</time>
      </trkpt>
      <trkpt lat="45.31472" lon="1.41898">
        <ele>221</ele>
        <time>2011-06-23T16:39:57Z</time>
      </trkpt>
      <trkpt lat="45.31468" lon="1.41891">
        <ele>221</ele>
        <time>2011-06-23T16:40:00Z</time>
      </trkpt>
      <trkpt lat="45.31466" lon="1.41885">
        <ele>222</ele>
        <time>2011-06-23T16:40:03Z</time>
      </trkpt>
      <trkpt lat="45.31462" lon="1.41877">
        <ele>222</ele>
        <time>2011-06-23T16:40:06Z</time>
      </trkpt>
      <trkpt lat="45.31459" lon="1.41871">
        <ele>222</ele>
        <time>2011-06-23T16:40:09Z</time>
      </trkpt>
      <trkpt lat="45.31457" lon="1.41866">
        <ele>222</ele>
        <time>2011-06-23T16:40:12Z</time>
      </trkpt>
      <trkpt lat="45.31454" lon="1.41857">
        <ele>222</ele>
        <time>2011-06-23T16:40:15Z</time>
      </trkpt>
      <trkpt lat="45.3145" lon="1.41851">
        <ele>221</ele>
        <time>2011-06-23T16:40:17Z</time>
      </trkpt>
      <trkpt lat="45.31447" lon="1.41844">
        <ele>222</ele>
        <time>2011-06-23T16:40:19Z</time>
      </trkpt>
      <trkpt lat="45.31444" lon="1.41836">
        <ele>222</ele>
        <time>2011-06-23T16:40:21Z</time>
      </trkpt>
      <trkpt lat="45.31441" lon="1.41827">
        <ele>222</ele>
        <time>2011-06-23T16:40:23Z</time>
      </trkpt>
      <trkpt lat="45.31437" lon="1.41818">
        <ele>223</ele>
        <time>2011-06-23T16:40:25Z</time>
      </trkpt>
      <trkpt lat="45.31433" lon="1.41809">
        <ele>223</ele>
        <time>2011-06-23T16:40:27Z</time>
      </trkpt>
      <trkpt lat="45.31428" lon="1.41802">
        <ele>220</ele>
        <time>2011-06-23T16:40:29Z</time>
      </trkpt>
      <trkpt lat="45.31424" lon="1.41795">
        <ele>220</ele>
        <time>2011-06-23T16:40:31Z</time>
      </trkpt>
      <trkpt lat="45.31419" lon="1.41788">
        <ele>220</ele>
        <time>2011-06-23T16:40:33Z</time>
      </trkpt>
      <trkpt lat="45.31414" lon="1.4178">
        <ele>221</ele>
        <time>2011-06-23T16:40:35Z</time>
      </trkpt>
      <trkpt lat="45.3141" lon="1.41773">
        <ele>221</ele>
        <time>2011-06-23T16:40:37Z</time>
      </trkpt>
      <trkpt lat="45.31406" lon="1.41765">
        <ele>220</ele>
        <time>2011-06-23T16:40:40Z</time>
      </trkpt>
      <trkpt lat="45.31403" lon="1.41758">
        <ele>220</ele>
        <time>2011-06-23T16:40:43Z</time>
      </trkpt>
      <trkpt lat="45.31401" lon="1.41749">
        <ele>220</ele>
        <time>2011-06-23T16:40:46Z</time>
      </trkpt>
      <trkpt lat="45.31399" lon="1.41741">
        <ele>221</ele>
        <time>2011-06-23T16:40:49Z</time>
      </trkpt>
      <trkpt lat="45.31397" lon="1.41734">
        <ele>224</ele>
        <time>2011-06-23T16:40:52Z</time>
      </trkpt>
      <trkpt lat="45.31394" lon="1.41727">
        <ele>222</ele>
        <time>2011-06-23T16:40:55Z</time>
      </trkpt>
      <trkpt lat="45.31392" lon="1.4172">
        <ele>222</ele>
        <time>2011-06-23T16:40:58Z</time>
      </trkpt>
      <trkpt lat="45.31391" lon="1.41713">
        <ele>221</ele>
        <time>2011-06-23T16:41:01Z</time>
      </trkpt>
      <trkpt lat="45.3139" lon="1.41706">
        <ele>221</ele>
        <time>2011-06-23T16:41:03Z</time>
      </trkpt>
      <trkpt lat="45.31389" lon="1.41698">
        <ele>221</ele>
        <time>2011-06-23T16:41:05Z</time>
      </trkpt>
      <trkpt lat="45.31388" lon="1.41692">
        <ele>220</ele>
        <time>2011-06-23T16:41:07Z</time>
      </trkpt>
      <trkpt lat="45.31388" lon="1.41683">
        <ele>223</ele>
        <time>2011-06-23T16:41:10Z</time>
      </trkpt>
      <trkpt lat="45.31386" lon="1.41676">
        <ele>223</ele>
        <time>2011-06-23T16:41:13Z</time>
      </trkpt>
      <trkpt lat="45.31384" lon="1.41668">
        <ele>221</ele>
        <time>2011-06-23T16:41:16Z</time>
      </trkpt>
      <trkpt lat="45.31381" lon="1.41663">
        <ele>220</ele>
        <time>2011-06-23T16:41:19Z</time>
      </trkpt>
      <trkpt lat="45.31376" lon="1.41658">
        <ele>219</ele>
        <time>2011-06-23T16:41:22Z</time>
      </trkpt>
      <trkpt lat="45.31371" lon="1.41656">
        <ele>219</ele>
        <time>2011-06-23T16:41:24Z</time>
      </trkpt>
      <trkpt lat="45.31365" lon="1.41654">
        <ele>219</ele>
        <time>2011-06-23T16:41:26Z</time>
      </trkpt>
      <trkpt lat="45.31358" lon="1.41653">
        <ele>219</ele>
        <time>2011-06-23T16:41:28Z</time>
      </trkpt>
      <trkpt lat="45.3135" lon="1.41656">
        <ele>220</ele>
        <time>2011-06-23T16:41:30Z</time>
      </trkpt>
      <trkpt lat="45.31346" lon="1.4166">
        <ele>220</ele>
        <time>2011-06-23T16:41:31Z</time>
      </trkpt>
      <trkpt lat="45.31343" lon="1.41663">
        <ele>219</ele>
        <time>2011-06-23T16:41:32Z</time>
      </trkpt>
      <trkpt lat="45.31339" lon="1.41667">
        <ele>221</ele>
        <time>2011-06-23T16:41:33Z</time>
      </trkpt>
      <trkpt lat="45.31335" lon="1.4167">
        <ele>220</ele>
        <time>2011-06-23T16:41:34Z</time>
      </trkpt>
      <trkpt lat="45.31331" lon="1.41674">
        <ele>220</ele>
        <time>2011-06-23T16:41:35Z</time>
      </trkpt>
      <trkpt lat="45.31324" lon="1.41681">
        <ele>221</ele>
        <time>2011-06-23T16:41:37Z</time>
      </trkpt>
      <trkpt lat="45.31318" lon="1.41688">
        <ele>219</ele>
        <time>2011-06-23T16:41:39Z</time>
      </trkpt>
      <trkpt lat="45.31313" lon="1.41692">
        <ele>217</ele>
        <time>2011-06-23T16:41:41Z</time>
      </trkpt>
      <trkpt lat="45.31308" lon="1.41696">
        <ele>219</ele>
        <time>2011-06-23T16:41:43Z</time>
      </trkpt>
      <trkpt lat="45.31302" lon="1.41699">
        <ele>223</ele>
        <time>2011-06-23T16:41:45Z</time>
      </trkpt>
      <trkpt lat="45.31296" lon="1.41701">
        <ele>222</ele>
        <time>2011-06-23T16:41:46Z</time>
      </trkpt>
      <trkpt lat="45.31292" lon="1.41704">
        <ele>220</ele>
        <time>2011-06-23T16:41:47Z</time>
      </trkpt>
      <trkpt lat="45.31286" lon="1.41706">
        <ele>219</ele>
        <time>2011-06-23T16:41:48Z</time>
      </trkpt>
      <trkpt lat="45.31281" lon="1.41708">
        <ele>218</ele>
        <time>2011-06-23T16:41:49Z</time>
      </trkpt>
      <trkpt lat="45.31275" lon="1.41708">
        <ele>217</ele>
        <time>2011-06-23T16:41:50Z</time>
      </trkpt>
      <trkpt lat="45.31269" lon="1.4171">
        <ele>215</ele>
        <time>2011-06-23T16:41:51Z</time>
      </trkpt>
      <trkpt lat="45.31261" lon="1.4171">
        <ele>219</ele>
        <time>2011-06-23T16:41:52Z</time>
      </trkpt>
      <trkpt lat="45.31252" lon="1.4171">
        <ele>221</ele>
        <time>2011-06-23T16:41:53Z</time>
      </trkpt>
      <trkpt lat="45.31243" lon="1.41712">
        <ele>218</ele>
        <time>2011-06-23T16:41:54Z</time>
      </trkpt>
      <trkpt lat="45.31234" lon="1.41712">
        <ele>218</ele>
        <time>2011-06-23T16:41:55Z</time>
      </trkpt>
      <trkpt lat="45.31227" lon="1.41716">
        <ele>216</ele>
        <time>2011-06-23T16:41:56Z</time>
      </trkpt>
      <trkpt lat="45.3122" lon="1.41718">
        <ele>213</ele>
        <time>2011-06-23T16:41:57Z</time>
      </trkpt>
      <trkpt lat="45.31213" lon="1.41721">
        <ele>209</ele>
        <time>2011-06-23T16:41:58Z</time>
      </trkpt>
      <trkpt lat="45.31207" lon="1.41724">
        <ele>209</ele>
        <time>2011-06-23T16:41:59Z</time>
      </trkpt>
      <trkpt lat="45.31201" lon="1.41726">
        <ele>207</ele>
        <time>2011-06-23T16:42:00Z</time>
      </trkpt>
      <trkpt lat="45.31196" lon="1.41729">
        <ele>206</ele>
        <time>2011-06-23T16:42:01Z</time>
      </trkpt>
      <trkpt lat="45.3119" lon="1.41732">
        <ele>205</ele>
        <time>2011-06-23T16:42:02Z</time>
      </trkpt>
      <trkpt lat="45.31184" lon="1.41735">
        <ele>206</ele>
        <time>2011-06-23T16:42:03Z</time>
      </trkpt>
      <trkpt lat="45.31178" lon="1.41738">
        <ele>208</ele>
        <time>2011-06-23T16:42:04Z</time>
      </trkpt>
      <trkpt lat="45.31173" lon="1.41739">
        <ele>209</ele>
        <time>2011-06-23T16:42:05Z</time>
      </trkpt>
      <trkpt lat="45.31168" lon="1.4174">
        <ele>209</ele>
        <time>2011-06-23T16:42:06Z</time>
      </trkpt>
      <trkpt lat="45.31164" lon="1.41741">
        <ele>209</ele>
        <time>2011-06-23T16:42:07Z</time>
      </trkpt>
      <trkpt lat="45.31158" lon="1.41742">
        <ele>207</ele>
        <time>2011-06-23T16:42:08Z</time>
      </trkpt>
      <trkpt lat="45.31154" lon="1.41742">
        <ele>207</ele>
        <time>2011-06-23T16:42:09Z</time>
      </trkpt>
      <trkpt lat="45.31149" lon="1.41742">
        <ele>208</ele>
        <time>2011-06-23T16:42:10Z</time>
      </trkpt>
      <trkpt lat="45.3114" lon="1.41741">
        <ele>208</ele>
        <time>2011-06-23T16:42:12Z</time>
      </trkpt>
      <trkpt lat="45.31135" lon="1.41741">
        <ele>206</ele>
        <time>2011-06-23T16:42:13Z</time>
      </trkpt>
      <trkpt lat="45.3113" lon="1.4174">
        <ele>206</ele>
        <time>2011-06-23T16:42:14Z</time>
      </trkpt>
      <trkpt lat="45.31124" lon="1.41741">
        <ele>204</ele>
        <time>2011-06-23T16:42:15Z</time>
      </trkpt>
      <trkpt lat="45.31119" lon="1.41742">
        <ele>203</ele>
        <time>2011-06-23T16:42:16Z</time>
      </trkpt>
      <trkpt lat="45.31114" lon="1.41742">
        <ele>204</ele>
        <time>2011-06-23T16:42:17Z</time>
      </trkpt>
      <trkpt lat="45.31109" lon="1.41741">
        <ele>204</ele>
        <time>2011-06-23T16:42:18Z</time>
      </trkpt>
      <trkpt lat="45.31103" lon="1.4174">
        <ele>204</ele>
        <time>2011-06-23T16:42:19Z</time>
      </trkpt>
      <trkpt lat="45.31097" lon="1.41737">
        <ele>203</ele>
        <time>2011-06-23T16:42:20Z</time>
      </trkpt>
      <trkpt lat="45.3109" lon="1.41735">
        <ele>204</ele>
        <time>2011-06-23T16:42:21Z</time>
      </trkpt>
      <trkpt lat="45.31084" lon="1.41732">
        <ele>207</ele>
        <time>2011-06-23T16:42:22Z</time>
      </trkpt>
      <trkpt lat="45.31079" lon="1.4173">
        <ele>207</ele>
        <time>2011-06-23T16:42:23Z</time>
      </trkpt>
      <trkpt lat="45.31074" lon="1.41728">
        <ele>208</ele>
        <time>2011-06-23T16:42:24Z</time>
      </trkpt>
      <trkpt lat="45.31069" lon="1.41725">
        <ele>208</ele>
        <time>2011-06-23T16:42:25Z</time>
      </trkpt>
      <trkpt lat="45.31064" lon="1.41723">
        <ele>210</ele>
        <time>2011-06-23T16:42:26Z</time>
      </trkpt>
      <trkpt lat="45.31059" lon="1.4172">
        <ele>212</ele>
        <time>2011-06-23T16:42:27Z</time>
      </trkpt>
      <trkpt lat="45.31053" lon="1.41717">
        <ele>213</ele>
        <time>2011-06-23T16:42:28Z</time>
      </trkpt>
      <trkpt lat="45.31048" lon="1.41714">
        <ele>214</ele>
        <time>2011-06-23T16:42:29Z</time>
      </trkpt>
      <trkpt lat="45.31043" lon="1.41712">
        <ele>212</ele>
        <time>2011-06-23T16:42:30Z</time>
      </trkpt>
      <trkpt lat="45.31039" lon="1.4171">
        <ele>212</ele>
        <time>2011-06-23T16:42:31Z</time>
      </trkpt>
      <trkpt lat="45.31034" lon="1.41707">
        <ele>214</ele>
        <time>2011-06-23T16:42:32Z</time>
      </trkpt>
      <trkpt lat="45.31026" lon="1.41704">
        <ele>218</ele>
        <time>2011-06-23T16:42:34Z</time>
      </trkpt>
      <trkpt lat="45.31022" lon="1.41701">
        <ele>216</ele>
        <time>2011-06-23T16:42:35Z</time>
      </trkpt>
      <trkpt lat="45.31018" lon="1.41699">
        <ele>217</ele>
        <time>2011-06-23T16:42:36Z</time>
      </trkpt>
      <trkpt lat="45.31013" lon="1.41696">
        <ele>216</ele>
        <time>2011-06-23T16:42:37Z</time>
      </trkpt>
      <trkpt lat="45.31009" lon="1.41694">
        <ele>218</ele>
        <time>2011-06-23T16:42:38Z</time>
      </trkpt>
      <trkpt lat="45.31004" lon="1.41691">
        <ele>220</ele>
        <time>2011-06-23T16:42:39Z</time>
      </trkpt>
      <trkpt lat="45.30997" lon="1.4169">
        <ele>226</ele>
        <time>2011-06-23T16:42:41Z</time>
      </trkpt>
      <trkpt lat="45.3099" lon="1.41688">
        <ele>225</ele>
        <time>2011-06-23T16:42:43Z</time>
      </trkpt>
      <trkpt lat="45.30984" lon="1.41686">
        <ele>227</ele>
        <time>2011-06-23T16:42:45Z</time>
      </trkpt>
      <trkpt lat="45.30978" lon="1.41685">
        <ele>228</ele>
        <time>2011-06-23T16:42:47Z</time>
      </trkpt>
      <trkpt lat="45.30971" lon="1.41685">
        <ele>228</ele>
        <time>2011-06-23T16:42:49Z</time>
      </trkpt>
      <trkpt lat="45.30964" lon="1.41684">
        <ele>228</ele>
        <time>2011-06-23T16:42:51Z</time>
      </trkpt>
      <trkpt lat="45.30957" lon="1.41684">
        <ele>227</ele>
        <time>2011-06-23T16:42:53Z</time>
      </trkpt>
      <trkpt lat="45.3095" lon="1.41685">
        <ele>227</ele>
        <time>2011-06-23T16:42:55Z</time>
      </trkpt>
      <trkpt lat="45.30943" lon="1.41686">
        <ele>227</ele>
        <time>2011-06-23T16:42:57Z</time>
      </trkpt>
      <trkpt lat="45.30936" lon="1.41686">
        <ele>226</ele>
        <time>2011-06-23T16:42:59Z</time>
      </trkpt>
      <trkpt lat="45.3093" lon="1.41688">
        <ele>225</ele>
        <time>2011-06-23T16:43:01Z</time>
      </trkpt>
      <trkpt lat="45.30925" lon="1.41689">
        <ele>225</ele>
        <time>2011-06-23T16:43:03Z</time>
      </trkpt>
      <trkpt lat="45.3092" lon="1.41692">
        <ele>225</ele>
        <time>2011-06-23T16:43:06Z</time>
      </trkpt>
      <trkpt lat="45.30914" lon="1.41691">
        <ele>225</ele>
        <time>2011-06-23T16:43:10Z</time>
      </trkpt>
      <trkpt lat="45.30908" lon="1.41693">
        <ele>222</ele>
        <time>2011-06-23T16:43:13Z</time>
      </trkpt>
      <trkpt lat="45.30902" lon="1.41695">
        <ele>221</ele>
        <time>2011-06-23T16:43:15Z</time>
      </trkpt>
      <trkpt lat="45.30896" lon="1.41701">
        <ele>221</ele>
        <time>2011-06-23T16:43:18Z</time>
      </trkpt>
      <trkpt lat="45.30896" lon="1.41701">
        <ele>221</ele>
        <time>2011-06-23T16:43:18Z</time>
      </trkpt>
      <trkpt lat="45.30896" lon="1.41701">
        <ele>221</ele>
        <time>2011-06-23T16:43:19Z</time>
      </trkpt>
      <trkpt lat="45.30892" lon="1.41703">
        <ele>223</ele>
        <time>2011-06-23T16:43:20Z</time>
      </trkpt>
      <trkpt lat="45.30887" lon="1.41703">
        <ele>228</ele>
        <time>2011-06-23T16:43:22Z</time>
      </trkpt>
      <trkpt lat="45.30882" lon="1.41702">
        <ele>227</ele>
        <time>2011-06-23T16:43:24Z</time>
      </trkpt>
      <trkpt lat="45.30878" lon="1.41701">
        <ele>228</ele>
        <time>2011-06-23T16:43:26Z</time>
      </trkpt>
      <trkpt lat="45.30868" lon="1.41702">
        <ele>226</ele>
        <time>2011-06-23T16:43:30Z</time>
      </trkpt>
      <trkpt lat="45.30862" lon="1.41704">
        <ele>226</ele>
        <time>2011-06-23T16:43:32Z</time>
      </trkpt>
      <trkpt lat="45.30856" lon="1.41706">
        <ele>228</ele>
        <time>2011-06-23T16:43:34Z</time>
      </trkpt>
      <trkpt lat="45.30849" lon="1.41706">
        <ele>234</ele>
        <time>2011-06-23T16:43:36Z</time>
      </trkpt>
      <trkpt lat="45.30841" lon="1.41706">
        <ele>238</ele>
        <time>2011-06-23T16:43:38Z</time>
      </trkpt>
      <trkpt lat="45.30835" lon="1.41705">
        <ele>241</ele>
        <time>2011-06-23T16:43:40Z</time>
      </trkpt>
      <trkpt lat="45.3083" lon="1.41705">
        <ele>242</ele>
        <time>2011-06-23T16:43:42Z</time>
      </trkpt>
      <trkpt lat="45.30824" lon="1.41704">
        <ele>242</ele>
        <time>2011-06-23T16:43:44Z</time>
      </trkpt>
      <trkpt lat="45.30816" lon="1.41703">
        <ele>236</ele>
        <time>2011-06-23T16:43:46Z</time>
      </trkpt>
      <trkpt lat="45.30808" lon="1.41702">
        <ele>234</ele>
        <time>2011-06-23T16:43:48Z</time>
      </trkpt>
      <trkpt lat="45.30801" lon="1.41702">
        <ele>232</ele>
        <time>2011-06-23T16:43:50Z</time>
      </trkpt>
      <trkpt lat="45.30793" lon="1.417">
        <ele>232</ele>
        <time>2011-06-23T16:43:52Z</time>
      </trkpt>
      <trkpt lat="45.30783" lon="1.41697">
        <ele>232</ele>
        <time>2011-06-23T16:43:54Z</time>
      </trkpt>
      <trkpt lat="45.30777" lon="1.41695">
        <ele>232</ele>
        <time>2011-06-23T16:43:55Z</time>
      </trkpt>
      <trkpt lat="45.30772" lon="1.41692">
        <ele>232</ele>
        <time>2011-06-23T16:43:56Z</time>
      </trkpt>
      <trkpt lat="45.30766" lon="1.41688">
        <ele>232</ele>
        <time>2011-06-23T16:43:57Z</time>
      </trkpt>
      <trkpt lat="45.3076" lon="1.41684">
        <ele>232</ele>
        <time>2011-06-23T16:43:58Z</time>
      </trkpt>
      <trkpt lat="45.30755" lon="1.4168">
        <ele>231</ele>
        <time>2011-06-23T16:43:59Z</time>
      </trkpt>
      <trkpt lat="45.3075" lon="1.41677">
        <ele>228</ele>
        <time>2011-06-23T16:44:00Z</time>
      </trkpt>
      <trkpt lat="45.30746" lon="1.41674">
        <ele>227</ele>
        <time>2011-06-23T16:44:01Z</time>
      </trkpt>
      <trkpt lat="45.30741" lon="1.41671">
        <ele>224</ele>
        <time>2011-06-23T16:44:02Z</time>
      </trkpt>
      <trkpt lat="45.30735" lon="1.41668">
        <ele>220</ele>
        <time>2011-06-23T16:44:03Z</time>
      </trkpt>
      <trkpt lat="45.30729" lon="1.41665">
        <ele>218</ele>
        <time>2011-06-23T16:44:04Z</time>
      </trkpt>
      <trkpt lat="45.30724" lon="1.41662">
        <ele>213</ele>
        <time>2011-06-23T16:44:05Z</time>
      </trkpt>
      <trkpt lat="45.3072" lon="1.41661">
        <ele>210</ele>
        <time>2011-06-23T16:44:06Z</time>
      </trkpt>
      <trkpt lat="45.30715" lon="1.41659">
        <ele>210</ele>
        <time>2011-06-23T16:44:07Z</time>
      </trkpt>
      <trkpt lat="45.30711" lon="1.41656">
        <ele>210</ele>
        <time>2011-06-23T16:44:08Z</time>
      </trkpt>
      <trkpt lat="45.30703" lon="1.41653">
        <ele>211</ele>
        <time>2011-06-23T16:44:10Z</time>
      </trkpt>
      <trkpt lat="45.30695" lon="1.41649">
        <ele>208</ele>
        <time>2011-06-23T16:44:12Z</time>
      </trkpt>
      <trkpt lat="45.30687" lon="1.41644">
        <ele>205</ele>
        <time>2011-06-23T16:44:14Z</time>
      </trkpt>
      <trkpt lat="45.30673" lon="1.41629">
        <ele>200</ele>
        <time>2011-06-23T16:44:19Z</time>
      </trkpt>
      <trkpt lat="45.3067" lon="1.41625">
        <ele>208</ele>
        <time>2011-06-23T16:44:20Z</time>
      </trkpt>
      <trkpt lat="45.30664" lon="1.41618">
        <ele>206</ele>
        <time>2011-06-23T16:44:22Z</time>
      </trkpt>
      <trkpt lat="45.30658" lon="1.4161">
        <ele>203</ele>
        <time>2011-06-23T16:44:24Z</time>
      </trkpt>
      <trkpt lat="45.30652" lon="1.41602">
        <ele>201</ele>
        <time>2011-06-23T16:44:26Z</time>
      </trkpt>
      <trkpt lat="45.30644" lon="1.4159">
        <ele>201</ele>
        <time>2011-06-23T16:44:29Z</time>
      </trkpt>
      <trkpt lat="45.30644" lon="1.4159">
        <ele>201</ele>
        <time>2011-06-23T16:44:29Z</time>
      </trkpt>
      <trkpt lat="45.30644" lon="1.4159">
        <ele>201</ele>
        <time>2011-06-23T16:44:30Z</time>
      </trkpt>
      <trkpt lat="45.3064" lon="1.41584">
        <ele>200</ele>
        <time>2011-06-23T16:44:31Z</time>
      </trkpt>
      <trkpt lat="45.3064" lon="1.41584">
        <ele>200</ele>
        <time>2011-06-23T16:44:31Z</time>
      </trkpt>
      <trkpt lat="45.3064" lon="1.41584">
        <ele>200</ele>
        <time>2011-06-23T16:44:33Z</time>
      </trkpt>
      <trkpt lat="45.30632" lon="1.41576">
        <ele>210</ele>
        <time>2011-06-23T16:44:34Z</time>
      </trkpt>
      <trkpt lat="45.30632" lon="1.41576">
        <ele>210</ele>
        <time>2011-06-23T16:44:34Z</time>
      </trkpt>
      <trkpt lat="45.30632" lon="1.41576">
        <ele>210</ele>
        <time>2011-06-23T16:44:36Z</time>
      </trkpt>
      <trkpt lat="45.30622" lon="1.41569">
        <ele>217</ele>
        <time>2011-06-23T16:44:37Z</time>
      </trkpt>
      <trkpt lat="45.30615" lon="1.41566">
        <ele>219</ele>
        <time>2011-06-23T16:44:39Z</time>
      </trkpt>
      <trkpt lat="45.30609" lon="1.41563">
        <ele>221</ele>
        <time>2011-06-23T16:44:41Z</time>
      </trkpt>
      <trkpt lat="45.30604" lon="1.41561">
        <ele>223</ele>
        <time>2011-06-23T16:44:43Z</time>
      </trkpt>
      <trkpt lat="45.30598" lon="1.41558">
        <ele>218</ele>
        <time>2011-06-23T16:44:45Z</time>
      </trkpt>
      <trkpt lat="45.30592" lon="1.41557">
        <ele>215</ele>
        <time>2011-06-23T16:44:47Z</time>
      </trkpt>
      <trkpt lat="45.30586" lon="1.41558">
        <ele>214</ele>
        <time>2011-06-23T16:44:49Z</time>
      </trkpt>
      <trkpt lat="45.30579" lon="1.41559">
        <ele>216</ele>
        <time>2011-06-23T16:44:51Z</time>
      </trkpt>
      <trkpt lat="45.30573" lon="1.4156">
        <ele>216</ele>
        <time>2011-06-23T16:44:53Z</time>
      </trkpt>
      <trkpt lat="45.30565" lon="1.41563">
        <ele>210</ele>
        <time>2011-06-23T16:44:55Z</time>
      </trkpt>
      <trkpt lat="45.30559" lon="1.41566">
        <ele>208</ele>
        <time>2011-06-23T16:44:57Z</time>
      </trkpt>
      <trkpt lat="45.30552" lon="1.41569">
        <ele>205</ele>
        <time>2011-06-23T16:44:59Z</time>
      </trkpt>
      <trkpt lat="45.30545" lon="1.41572">
        <ele>206</ele>
        <time>2011-06-23T16:45:01Z</time>
      </trkpt>
      <trkpt lat="45.30539" lon="1.41573">
        <ele>207</ele>
        <time>2011-06-23T16:45:03Z</time>
      </trkpt>
      <trkpt lat="45.30534" lon="1.41573">
        <ele>203</ele>
        <time>2011-06-23T16:45:05Z</time>
      </trkpt>
      <trkpt lat="45.30526" lon="1.41572">
        <ele>203</ele>
        <time>2011-06-23T16:45:07Z</time>
      </trkpt>
      <trkpt lat="45.30518" lon="1.41572">
        <ele>203</ele>
        <time>2011-06-23T16:45:09Z</time>
      </trkpt>
      <trkpt lat="45.30518" lon="1.41572">
        <ele>203</ele>
        <time>2011-06-23T16:45:09Z</time>
      </trkpt>
      <trkpt lat="45.30518" lon="1.41572">
        <ele>203</ele>
        <time>2011-06-23T16:45:10Z</time>
      </trkpt>
      <trkpt lat="45.30514" lon="1.41571">
        <ele>200</ele>
        <time>2011-06-23T16:45:11Z</time>
      </trkpt>
      <trkpt lat="45.30506" lon="1.4157">
        <ele>198</ele>
        <time>2011-06-23T16:45:13Z</time>
      </trkpt>
      <trkpt lat="45.30498" lon="1.41569">
        <ele>194</ele>
        <time>2011-06-23T16:45:15Z</time>
      </trkpt>
      <trkpt lat="45.30492" lon="1.41568">
        <ele>192</ele>
        <time>2011-06-23T16:45:17Z</time>
      </trkpt>
      <trkpt lat="45.30484" lon="1.41568">
        <ele>192</ele>
        <time>2011-06-23T16:45:19Z</time>
      </trkpt>
      <trkpt lat="45.30478" lon="1.41567">
        <ele>191</ele>
        <time>2011-06-23T16:45:21Z</time>
      </trkpt>
      <trkpt lat="45.30471" lon="1.41568">
        <ele>191</ele>
        <time>2011-06-23T16:45:23Z</time>
      </trkpt>
      <trkpt lat="45.30464" lon="1.4157">
        <ele>191</ele>
        <time>2011-06-23T16:45:25Z</time>
      </trkpt>
      <trkpt lat="45.30457" lon="1.41573">
        <ele>190</ele>
        <time>2011-06-23T16:45:27Z</time>
      </trkpt>
      <trkpt lat="45.30451" lon="1.41576">
        <ele>189</ele>
        <time>2011-06-23T16:45:29Z</time>
      </trkpt>
      <trkpt lat="45.30446" lon="1.4158">
        <ele>191</ele>
        <time>2011-06-23T16:45:31Z</time>
      </trkpt>
      <trkpt lat="45.30441" lon="1.41583">
        <ele>191</ele>
        <time>2011-06-23T16:45:33Z</time>
      </trkpt>
      <trkpt lat="45.30436" lon="1.41587">
        <ele>191</ele>
        <time>2011-06-23T16:45:35Z</time>
      </trkpt>
      <trkpt lat="45.30432" lon="1.4159">
        <ele>191</ele>
        <time>2011-06-23T16:45:37Z</time>
      </trkpt>
      <trkpt lat="45.30426" lon="1.41596">
        <ele>197</ele>
        <time>2011-06-23T16:45:40Z</time>
      </trkpt>
      <trkpt lat="45.30422" lon="1.416">
        <ele>198</ele>
        <time>2011-06-23T16:45:42Z</time>
      </trkpt>
      <trkpt lat="45.30416" lon="1.41605">
        <ele>196</ele>
        <time>2011-06-23T16:45:44Z</time>
      </trkpt>
      <trkpt lat="45.30412" lon="1.41609">
        <ele>197</ele>
        <time>2011-06-23T16:45:46Z</time>
      </trkpt>
      <trkpt lat="45.30407" lon="1.41613">
        <ele>198</ele>
        <time>2011-06-23T16:45:48Z</time>
      </trkpt>
      <trkpt lat="45.30402" lon="1.41616">
        <ele>199</ele>
        <time>2011-06-23T16:45:50Z</time>
      </trkpt>
      <trkpt lat="45.30396" lon="1.4162">
        <ele>201</ele>
        <time>2011-06-23T16:45:52Z</time>
      </trkpt>
      <trkpt lat="45.3039" lon="1.41625">
        <ele>201</ele>
        <time>2011-06-23T16:45:54Z</time>
      </trkpt>
      <trkpt lat="45.30384" lon="1.41631">
        <ele>201</ele>
        <time>2011-06-23T16:45:56Z</time>
      </trkpt>
      <trkpt lat="45.30379" lon="1.41637">
        <ele>201</ele>
        <time>2011-06-23T16:45:58Z</time>
      </trkpt>
      <trkpt lat="45.30373" lon="1.41644">
        <ele>199</ele>
        <time>2011-06-23T16:46:00Z</time>
      </trkpt>
      <trkpt lat="45.30366" lon="1.4165">
        <ele>196</ele>
        <time>2011-06-23T16:46:02Z</time>
      </trkpt>
      <trkpt lat="45.3036" lon="1.41656">
        <ele>195</ele>
        <time>2011-06-23T16:46:04Z</time>
      </trkpt>
      <trkpt lat="45.30356" lon="1.41663">
        <ele>195</ele>
        <time>2011-06-23T16:46:06Z</time>
      </trkpt>
      <trkpt lat="45.30352" lon="1.41668">
        <ele>196</ele>
        <time>2011-06-23T16:46:08Z</time>
      </trkpt>
      <trkpt lat="45.30348" lon="1.41674">
        <ele>196</ele>
        <time>2011-06-23T16:46:11Z</time>
      </trkpt>
      <trkpt lat="45.30345" lon="1.41678">
        <ele>195</ele>
        <time>2011-06-23T16:46:14Z</time>
      </trkpt>
      <trkpt lat="45.3034" lon="1.41686">
        <ele>197</ele>
        <time>2011-06-23T16:46:17Z</time>
      </trkpt>
      <trkpt lat="45.30338" lon="1.41691">
        <ele>197</ele>
        <time>2011-06-23T16:46:19Z</time>
      </trkpt>
      <trkpt lat="45.30334" lon="1.41696">
        <ele>199</ele>
        <time>2011-06-23T16:46:21Z</time>
      </trkpt>
      <trkpt lat="45.30331" lon="1.41702">
        <ele>199</ele>
        <time>2011-06-23T16:46:23Z</time>
      </trkpt>
      <trkpt lat="45.30327" lon="1.4171">
        <ele>200</ele>
        <time>2011-06-23T16:46:27Z</time>
      </trkpt>
      <trkpt lat="45.30323" lon="1.41716">
        <ele>201</ele>
        <time>2011-06-23T16:46:29Z</time>
      </trkpt>
      <trkpt lat="45.3032" lon="1.41722">
        <ele>201</ele>
        <time>2011-06-23T16:46:32Z</time>
      </trkpt>
      <trkpt lat="45.30317" lon="1.41728">
        <ele>200</ele>
        <time>2011-06-23T16:46:35Z</time>
      </trkpt>
      <trkpt lat="45.30312" lon="1.41734">
        <ele>201</ele>
        <time>2011-06-23T16:46:38Z</time>
      </trkpt>
      <trkpt lat="45.30308" lon="1.41738">
        <ele>200</ele>
        <time>2011-06-23T16:46:40Z</time>
      </trkpt>
      <trkpt lat="45.30303" lon="1.4174">
        <ele>198</ele>
        <time>2011-06-23T16:46:42Z</time>
      </trkpt>
      <trkpt lat="45.30297" lon="1.41741">
        <ele>198</ele>
        <time>2011-06-23T16:46:44Z</time>
      </trkpt>
      <trkpt lat="45.30291" lon="1.41739">
        <ele>198</ele>
        <time>2011-06-23T16:46:46Z</time>
      </trkpt>
      <trkpt lat="45.30285" lon="1.41736">
        <ele>199</ele>
        <time>2011-06-23T16:46:48Z</time>
      </trkpt>
      <trkpt lat="45.30278" lon="1.4173">
        <ele>199</ele>
        <time>2011-06-23T16:46:50Z</time>
      </trkpt>
      <trkpt lat="45.30272" lon="1.41725">
        <ele>199</ele>
        <time>2011-06-23T16:46:52Z</time>
      </trkpt>
      <trkpt lat="45.30266" lon="1.4172">
        <ele>197</ele>
        <time>2011-06-23T16:46:54Z</time>
      </trkpt>
      <trkpt lat="45.30259" lon="1.41716">
        <ele>197</ele>
        <time>2011-06-23T16:46:56Z</time>
      </trkpt>
      <trkpt lat="45.30253" lon="1.41711">
        <ele>197</ele>
        <time>2011-06-23T16:46:58Z</time>
      </trkpt>
      <trkpt lat="45.30247" lon="1.41706">
        <ele>197</ele>
        <time>2011-06-23T16:47:00Z</time>
      </trkpt>
      <trkpt lat="45.3024" lon="1.41702">
        <ele>198</ele>
        <time>2011-06-23T16:47:02Z</time>
      </trkpt>
      <trkpt lat="45.30233" lon="1.41697">
        <ele>196</ele>
        <time>2011-06-23T16:47:04Z</time>
      </trkpt>
      <trkpt lat="45.30225" lon="1.41692">
        <ele>197</ele>
        <time>2011-06-23T16:47:06Z</time>
      </trkpt>
      <trkpt lat="45.30218" lon="1.41686">
        <ele>197</ele>
        <time>2011-06-23T16:47:08Z</time>
      </trkpt>
      <trkpt lat="45.30213" lon="1.41683">
        <ele>197</ele>
        <time>2011-06-23T16:47:09Z</time>
      </trkpt>
      <trkpt lat="45.30209" lon="1.4168">
        <ele>198</ele>
        <time>2011-06-23T16:47:10Z</time>
      </trkpt>
      <trkpt lat="45.30205" lon="1.41677">
        <ele>198</ele>
        <time>2011-06-23T16:47:11Z</time>
      </trkpt>
      <trkpt lat="45.30201" lon="1.41673">
        <ele>198</ele>
        <time>2011-06-23T16:47:12Z</time>
      </trkpt>
      <trkpt lat="45.30196" lon="1.4167">
        <ele>198</ele>
        <time>2011-06-23T16:47:13Z</time>
      </trkpt>
      <trkpt lat="45.30192" lon="1.41666">
        <ele>198</ele>
        <time>2011-06-23T16:47:14Z</time>
      </trkpt>
      <trkpt lat="45.30188" lon="1.41662">
        <ele>198</ele>
        <time>2011-06-23T16:47:15Z</time>
      </trkpt>
      <trkpt lat="45.30183" lon="1.41658">
        <ele>198</ele>
        <time>2011-06-23T16:47:16Z</time>
      </trkpt>
      <trkpt lat="45.30178" lon="1.41654">
        <ele>196</ele>
        <time>2011-06-23T16:47:17Z</time>
      </trkpt>
      <trkpt lat="45.30174" lon="1.4165">
        <ele>198</ele>
        <time>2011-06-23T16:47:18Z</time>
      </trkpt>
      <trkpt lat="45.3017" lon="1.41646">
        <ele>199</ele>
        <time>2011-06-23T16:47:19Z</time>
      </trkpt>
      <trkpt lat="45.30165" lon="1.41641">
        <ele>199</ele>
        <time>2011-06-23T16:47:20Z</time>
      </trkpt>
      <trkpt lat="45.3016" lon="1.41636">
        <ele>197</ele>
        <time>2011-06-23T16:47:21Z</time>
      </trkpt>
      <trkpt lat="45.30154" lon="1.41631">
        <ele>197</ele>
        <time>2011-06-23T16:47:22Z</time>
      </trkpt>
      <trkpt lat="45.30149" lon="1.41627">
        <ele>197</ele>
        <time>2011-06-23T16:47:23Z</time>
      </trkpt>
      <trkpt lat="45.30143" lon="1.41623">
        <ele>197</ele>
        <time>2011-06-23T16:47:24Z</time>
      </trkpt>
      <trkpt lat="45.30138" lon="1.41618">
        <ele>197</ele>
        <time>2011-06-23T16:47:25Z</time>
      </trkpt>
      <trkpt lat="45.30133" lon="1.41614">
        <ele>199</ele>
        <time>2011-06-23T16:47:26Z</time>
      </trkpt>
      <trkpt lat="45.30127" lon="1.41609">
        <ele>199</ele>
        <time>2011-06-23T16:47:27Z</time>
      </trkpt>
      <trkpt lat="45.30121" lon="1.41605">
        <ele>199</ele>
        <time>2011-06-23T16:47:28Z</time>
      </trkpt>
      <trkpt lat="45.30115" lon="1.416">
        <ele>199</ele>
        <time>2011-06-23T16:47:29Z</time>
      </trkpt>
      <trkpt lat="45.30109" lon="1.41595">
        <ele>198</ele>
        <time>2011-06-23T16:47:30Z</time>
      </trkpt>
      <trkpt lat="45.30104" lon="1.4159">
        <ele>195</ele>
        <time>2011-06-23T16:47:31Z</time>
      </trkpt>
      <trkpt lat="45.30098" lon="1.41584">
        <ele>194</ele>
        <time>2011-06-23T16:47:32Z</time>
      </trkpt>
      <trkpt lat="45.30091" lon="1.41579">
        <ele>192</ele>
        <time>2011-06-23T16:47:33Z</time>
      </trkpt>
      <trkpt lat="45.30085" lon="1.41573">
        <ele>192</ele>
        <time>2011-06-23T16:47:34Z</time>
      </trkpt>
      <trkpt lat="45.30079" lon="1.41568">
        <ele>193</ele>
        <time>2011-06-23T16:47:35Z</time>
      </trkpt>
      <trkpt lat="45.30072" lon="1.41562">
        <ele>192</ele>
        <time>2011-06-23T16:47:36Z</time>
      </trkpt>
      <trkpt lat="45.30066" lon="1.41556">
        <ele>191</ele>
        <time>2011-06-23T16:47:37Z</time>
      </trkpt>
      <trkpt lat="45.3006" lon="1.41551">
        <ele>191</ele>
        <time>2011-06-23T16:47:38Z</time>
      </trkpt>
      <trkpt lat="45.30054" lon="1.41546">
        <ele>192</ele>
        <time>2011-06-23T16:47:39Z</time>
      </trkpt>
      <trkpt lat="45.30048" lon="1.41541">
        <ele>190</ele>
        <time>2011-06-23T16:47:40Z</time>
      </trkpt>
      <trkpt lat="45.30042" lon="1.41536">
        <ele>192</ele>
        <time>2011-06-23T16:47:41Z</time>
      </trkpt>
      <trkpt lat="45.30037" lon="1.41531">
        <ele>191</ele>
        <time>2011-06-23T16:47:42Z</time>
      </trkpt>
      <trkpt lat="45.30031" lon="1.41526">
        <ele>189</ele>
        <time>2011-06-23T16:47:43Z</time>
      </trkpt>
      <trkpt lat="45.30026" lon="1.4152">
        <ele>189</ele>
        <time>2011-06-23T16:47:44Z</time>
      </trkpt>
      <trkpt lat="45.3002" lon="1.41515">
        <ele>187</ele>
        <time>2011-06-23T16:47:45Z</time>
      </trkpt>
      <trkpt lat="45.30014" lon="1.41509">
        <ele>186</ele>
        <time>2011-06-23T16:47:46Z</time>
      </trkpt>
      <trkpt lat="45.30009" lon="1.41503">
        <ele>185</ele>
        <time>2011-06-23T16:47:47Z</time>
      </trkpt>
      <trkpt lat="45.30003" lon="1.41497">
        <ele>184</ele>
        <time>2011-06-23T16:47:48Z</time>
      </trkpt>
      <trkpt lat="45.29998" lon="1.41491">
        <ele>184</ele>
        <time>2011-06-23T16:47:49Z</time>
      </trkpt>
      <trkpt lat="45.29993" lon="1.41486">
        <ele>184</ele>
        <time>2011-06-23T16:47:50Z</time>
      </trkpt>
      <trkpt lat="45.29988" lon="1.4148">
        <ele>183</ele>
        <time>2011-06-23T16:47:51Z</time>
      </trkpt>
      <trkpt lat="45.29983" lon="1.41475">
        <ele>184</ele>
        <time>2011-06-23T16:47:52Z</time>
      </trkpt>
      <trkpt lat="45.29978" lon="1.41471">
        <ele>184</ele>
        <time>2011-06-23T16:47:53Z</time>
      </trkpt>
      <trkpt lat="45.29973" lon="1.41466">
        <ele>184</ele>
        <time>2011-06-23T16:47:54Z</time>
      </trkpt>
      <trkpt lat="45.29969" lon="1.41462">
        <ele>185</ele>
        <time>2011-06-23T16:47:55Z</time>
      </trkpt>
      <trkpt lat="45.29965" lon="1.41459">
        <ele>184</ele>
        <time>2011-06-23T16:47:56Z</time>
      </trkpt>
      <trkpt lat="45.29961" lon="1.41455">
        <ele>184</ele>
        <time>2011-06-23T16:47:57Z</time>
      </trkpt>
      <trkpt lat="45.29956" lon="1.41452">
        <ele>184</ele>
        <time>2011-06-23T16:47:58Z</time>
      </trkpt>
      <trkpt lat="45.29952" lon="1.41449">
        <ele>184</ele>
        <time>2011-06-23T16:47:59Z</time>
      </trkpt>
      <trkpt lat="45.29947" lon="1.41447">
        <ele>184</ele>
        <time>2011-06-23T16:48:00Z</time>
      </trkpt>
      <trkpt lat="45.29942" lon="1.41444">
        <ele>185</ele>
        <time>2011-06-23T16:48:01Z</time>
      </trkpt>
      <trkpt lat="45.29937" lon="1.41442">
        <ele>185</ele>
        <time>2011-06-23T16:48:02Z</time>
      </trkpt>
      <trkpt lat="45.29932" lon="1.4144">
        <ele>185</ele>
        <time>2011-06-23T16:48:03Z</time>
      </trkpt>
      <trkpt lat="45.29927" lon="1.41438">
        <ele>185</ele>
        <time>2011-06-23T16:48:04Z</time>
      </trkpt>
      <trkpt lat="45.29922" lon="1.41436">
        <ele>185</ele>
        <time>2011-06-23T16:48:05Z</time>
      </trkpt>
      <trkpt lat="45.29917" lon="1.41434">
        <ele>186</ele>
        <time>2011-06-23T16:48:06Z</time>
      </trkpt>
      <trkpt lat="45.29912" lon="1.41432">
        <ele>186</ele>
        <time>2011-06-23T16:48:07Z</time>
      </trkpt>
      <trkpt lat="45.29907" lon="1.41431">
        <ele>185</ele>
        <time>2011-06-23T16:48:08Z</time>
      </trkpt>
      <trkpt lat="45.29902" lon="1.41429">
        <ele>185</ele>
        <time>2011-06-23T16:48:09Z</time>
      </trkpt>
      <trkpt lat="45.29897" lon="1.41427">
        <ele>185</ele>
        <time>2011-06-23T16:48:10Z</time>
      </trkpt>
      <trkpt lat="45.29893" lon="1.41424">
        <ele>185</ele>
        <time>2011-06-23T16:48:11Z</time>
      </trkpt>
      <trkpt lat="45.29888" lon="1.41422">
        <ele>185</ele>
        <time>2011-06-23T16:48:12Z</time>
      </trkpt>
      <trkpt lat="45.29884" lon="1.4142">
        <ele>185</ele>
        <time>2011-06-23T16:48:13Z</time>
      </trkpt>
      <trkpt lat="45.29879" lon="1.41418">
        <ele>185</ele>
        <time>2011-06-23T16:48:14Z</time>
      </trkpt>
      <trkpt lat="45.29871" lon="1.41415">
        <ele>185</ele>
        <time>2011-06-23T16:48:16Z</time>
      </trkpt>
      <trkpt lat="45.29862" lon="1.41411">
        <ele>185</ele>
        <time>2011-06-23T16:48:18Z</time>
      </trkpt>
      <trkpt lat="45.29854" lon="1.41408">
        <ele>185</ele>
        <time>2011-06-23T16:48:20Z</time>
      </trkpt>
      <trkpt lat="45.29846" lon="1.41404">
        <ele>185</ele>
        <time>2011-06-23T16:48:22Z</time>
      </trkpt>
      <trkpt lat="45.29838" lon="1.41402">
        <ele>185</ele>
        <time>2011-06-23T16:48:24Z</time>
      </trkpt>
      <trkpt lat="45.29831" lon="1.41398">
        <ele>184</ele>
        <time>2011-06-23T16:48:26Z</time>
      </trkpt>
      <trkpt lat="45.29823" lon="1.41395">
        <ele>184</ele>
        <time>2011-06-23T16:48:28Z</time>
      </trkpt>
      <trkpt lat="45.29816" lon="1.41391">
        <ele>184</ele>
        <time>2011-06-23T16:48:30Z</time>
      </trkpt>
      <trkpt lat="45.29807" lon="1.41388">
        <ele>183</ele>
        <time>2011-06-23T16:48:32Z</time>
      </trkpt>
      <trkpt lat="45.29799" lon="1.41384">
        <ele>183</ele>
        <time>2011-06-23T16:48:34Z</time>
      </trkpt>
      <trkpt lat="45.29791" lon="1.41381">
        <ele>183</ele>
        <time>2011-06-23T16:48:36Z</time>
      </trkpt>
      <trkpt lat="45.29783" lon="1.41378">
        <ele>184</ele>
        <time>2011-06-23T16:48:38Z</time>
      </trkpt>
      <trkpt lat="45.29776" lon="1.41375">
        <ele>184</ele>
        <time>2011-06-23T16:48:40Z</time>
      </trkpt>
      <trkpt lat="45.29769" lon="1.41371">
        <ele>184</ele>
        <time>2011-06-23T16:48:42Z</time>
      </trkpt>
      <trkpt lat="45.29762" lon="1.41367">
        <ele>184</ele>
        <time>2011-06-23T16:48:44Z</time>
      </trkpt>
      <trkpt lat="45.29754" lon="1.41364">
        <ele>184</ele>
        <time>2011-06-23T16:48:46Z</time>
      </trkpt>
      <trkpt lat="45.29746" lon="1.41361">
        <ele>187</ele>
        <time>2011-06-23T16:48:48Z</time>
      </trkpt>
      <trkpt lat="45.29739" lon="1.41358">
        <ele>188</ele>
        <time>2011-06-23T16:48:50Z</time>
      </trkpt>
      <trkpt lat="45.29731" lon="1.41355">
        <ele>186</ele>
        <time>2011-06-23T16:48:52Z</time>
      </trkpt>
      <trkpt lat="45.29724" lon="1.41352">
        <ele>186</ele>
        <time>2011-06-23T16:48:54Z</time>
      </trkpt>
      <trkpt lat="45.29717" lon="1.4135">
        <ele>188</ele>
        <time>2011-06-23T16:48:56Z</time>
      </trkpt>
      <trkpt lat="45.29711" lon="1.41345">
        <ele>189</ele>
        <time>2011-06-23T16:48:58Z</time>
      </trkpt>
      <trkpt lat="45.29705" lon="1.41339">
        <ele>190</ele>
        <time>2011-06-23T16:49:00Z</time>
      </trkpt>
      <trkpt lat="45.29699" lon="1.41332">
        <ele>190</ele>
        <time>2011-06-23T16:49:02Z</time>
      </trkpt>
      <trkpt lat="45.29694" lon="1.41326">
        <ele>191</ele>
        <time>2011-06-23T16:49:04Z</time>
      </trkpt>
      <trkpt lat="45.29689" lon="1.41318">
        <ele>190</ele>
        <time>2011-06-23T16:49:06Z</time>
      </trkpt>
      <trkpt lat="45.29684" lon="1.41312">
        <ele>190</ele>
        <time>2011-06-23T16:49:08Z</time>
      </trkpt>
      <trkpt lat="45.29679" lon="1.41307">
        <ele>191</ele>
        <time>2011-06-23T16:49:10Z</time>
      </trkpt>
      <trkpt lat="45.29675" lon="1.41302">
        <ele>191</ele>
        <time>2011-06-23T16:49:12Z</time>
      </trkpt>
      <trkpt lat="45.29671" lon="1.41296">
        <ele>191</ele>
        <time>2011-06-23T16:49:14Z</time>
      </trkpt>
      <trkpt lat="45.29666" lon="1.41288">
        <ele>192</ele>
        <time>2011-06-23T16:49:16Z</time>
      </trkpt>
      <trkpt lat="45.2966" lon="1.4128">
        <ele>192</ele>
        <time>2011-06-23T16:49:18Z</time>
      </trkpt>
      <trkpt lat="45.29655" lon="1.41271">
        <ele>193</ele>
        <time>2011-06-23T16:49:20Z</time>
      </trkpt>
      <trkpt lat="45.29649" lon="1.41263">
        <ele>192</ele>
        <time>2011-06-23T16:49:22Z</time>
      </trkpt>
      <trkpt lat="45.29644" lon="1.41254">
        <ele>193</ele>
        <time>2011-06-23T16:49:24Z</time>
      </trkpt>
      <trkpt lat="45.29639" lon="1.41245">
        <ele>190</ele>
        <time>2011-06-23T16:49:26Z</time>
      </trkpt>
      <trkpt lat="45.29634" lon="1.41238">
        <ele>190</ele>
        <time>2011-06-23T16:49:28Z</time>
      </trkpt>
      <trkpt lat="45.29628" lon="1.41232">
        <ele>189</ele>
        <time>2011-06-23T16:49:30Z</time>
      </trkpt>
      <trkpt lat="45.29621" lon="1.4123">
        <ele>190</ele>
        <time>2011-06-23T16:49:32Z</time>
      </trkpt>
      <trkpt lat="45.29613" lon="1.41228">
        <ele>190</ele>
        <time>2011-06-23T16:49:34Z</time>
      </trkpt>
      <trkpt lat="45.29606" lon="1.41227">
        <ele>188</ele>
        <time>2011-06-23T16:49:36Z</time>
      </trkpt>
      <trkpt lat="45.29598" lon="1.41226">
        <ele>190</ele>
        <time>2011-06-23T16:49:38Z</time>
      </trkpt>
      <trkpt lat="45.2959" lon="1.41227">
        <ele>191</ele>
        <time>2011-06-23T16:49:40Z</time>
      </trkpt>
      <trkpt lat="45.29584" lon="1.41227">
        <ele>189</ele>
        <time>2011-06-23T16:49:42Z</time>
      </trkpt>
      <trkpt lat="45.29577" lon="1.41228">
        <ele>187</ele>
        <time>2011-06-23T16:49:44Z</time>
      </trkpt>
      <trkpt lat="45.29577" lon="1.41228">
        <ele>187</ele>
        <time>2011-06-23T16:49:44Z</time>
      </trkpt>
      <trkpt lat="45.29577" lon="1.41228">
        <ele>187</ele>
        <time>2011-06-23T16:49:45Z</time>
      </trkpt>
      <trkpt lat="45.29572" lon="1.41228">
        <ele>189</ele>
        <time>2011-06-23T16:49:46Z</time>
      </trkpt>
      <trkpt lat="45.29566" lon="1.41229">
        <ele>187</ele>
        <time>2011-06-23T16:49:48Z</time>
      </trkpt>
      <trkpt lat="45.29558" lon="1.41231">
        <ele>184</ele>
        <time>2011-06-23T16:49:50Z</time>
      </trkpt>
      <trkpt lat="45.29549" lon="1.41233">
        <ele>185</ele>
        <time>2011-06-23T16:49:52Z</time>
      </trkpt>
      <trkpt lat="45.2954" lon="1.41234">
        <ele>185</ele>
        <time>2011-06-23T16:49:54Z</time>
      </trkpt>
      <trkpt lat="45.29532" lon="1.41236">
        <ele>183</ele>
        <time>2011-06-23T16:49:56Z</time>
      </trkpt>
      <trkpt lat="45.29524" lon="1.41238">
        <ele>181</ele>
        <time>2011-06-23T16:49:58Z</time>
      </trkpt>
      <trkpt lat="45.29516" lon="1.4124">
        <ele>180</ele>
        <time>2011-06-23T16:50:00Z</time>
      </trkpt>
      <trkpt lat="45.29508" lon="1.41241">
        <ele>180</ele>
        <time>2011-06-23T16:50:02Z</time>
      </trkpt>
      <trkpt lat="45.295" lon="1.41243">
        <ele>180</ele>
        <time>2011-06-23T16:50:04Z</time>
      </trkpt>
      <trkpt lat="45.29491" lon="1.41245">
        <ele>179</ele>
        <time>2011-06-23T16:50:06Z</time>
      </trkpt>
      <trkpt lat="45.29483" lon="1.41247">
        <ele>178</ele>
        <time>2011-06-23T16:50:08Z</time>
      </trkpt>
      <trkpt lat="45.29475" lon="1.41249">
        <ele>175</ele>
        <time>2011-06-23T16:50:10Z</time>
      </trkpt>
      <trkpt lat="45.29467" lon="1.41252">
        <ele>176</ele>
        <time>2011-06-23T16:50:12Z</time>
      </trkpt>
      <trkpt lat="45.29458" lon="1.41254">
        <ele>175</ele>
        <time>2011-06-23T16:50:14Z</time>
      </trkpt>
      <trkpt lat="45.29451" lon="1.41257">
        <ele>171</ele>
        <time>2011-06-23T16:50:16Z</time>
      </trkpt>
      <trkpt lat="45.29443" lon="1.41259">
        <ele>171</ele>
        <time>2011-06-23T16:50:18Z</time>
      </trkpt>
      <trkpt lat="45.29443" lon="1.41259">
        <ele>171</ele>
        <time>2011-06-23T16:50:18Z</time>
      </trkpt>
      <trkpt lat="45.29443" lon="1.41259">
        <ele>171</ele>
        <time>2011-06-23T16:50:19Z</time>
      </trkpt>
      <trkpt lat="45.29436" lon="1.41261">
        <ele>167</ele>
        <time>2011-06-23T16:50:20Z</time>
      </trkpt>
      <trkpt lat="45.29426" lon="1.41263">
        <ele>166</ele>
        <time>2011-06-23T16:50:22Z</time>
      </trkpt>
      <trkpt lat="45.29421" lon="1.41264">
        <ele>166</ele>
        <time>2011-06-23T16:50:23Z</time>
      </trkpt>
      <trkpt lat="45.29417" lon="1.41265">
        <ele>165</ele>
        <time>2011-06-23T16:50:24Z</time>
      </trkpt>
      <trkpt lat="45.29412" lon="1.41266">
        <ele>162</ele>
        <time>2011-06-23T16:50:25Z</time>
      </trkpt>
      <trkpt lat="45.29407" lon="1.41266">
        <ele>163</ele>
        <time>2011-06-23T16:50:26Z</time>
      </trkpt>
      <trkpt lat="45.29402" lon="1.41267">
        <ele>166</ele>
        <time>2011-06-23T16:50:27Z</time>
      </trkpt>
      <trkpt lat="45.29397" lon="1.41267">
        <ele>168</ele>
        <time>2011-06-23T16:50:28Z</time>
      </trkpt>
      <trkpt lat="45.29392" lon="1.41267">
        <ele>169</ele>
        <time>2011-06-23T16:50:29Z</time>
      </trkpt>
      <trkpt lat="45.29383" lon="1.41268">
        <ele>167</ele>
        <time>2011-06-23T16:50:31Z</time>
      </trkpt>
      <trkpt lat="45.29374" lon="1.41266">
        <ele>170</ele>
        <time>2011-06-23T16:50:33Z</time>
      </trkpt>
      <trkpt lat="45.29366" lon="1.41264">
        <ele>175</ele>
        <time>2011-06-23T16:50:35Z</time>
      </trkpt>
      <trkpt lat="45.29357" lon="1.41261">
        <ele>177</ele>
        <time>2011-06-23T16:50:37Z</time>
      </trkpt>
      <trkpt lat="45.2935" lon="1.41259">
        <ele>178</ele>
        <time>2011-06-23T16:50:39Z</time>
      </trkpt>
      <trkpt lat="45.29345" lon="1.41257">
        <ele>178</ele>
        <time>2011-06-23T16:50:41Z</time>
      </trkpt>
      <trkpt lat="45.29339" lon="1.41254">
        <ele>178</ele>
        <time>2011-06-23T16:50:43Z</time>
      </trkpt>
      <trkpt lat="45.29332" lon="1.41251">
        <ele>178</ele>
        <time>2011-06-23T16:50:45Z</time>
      </trkpt>
      <trkpt lat="45.29324" lon="1.41248">
        <ele>177</ele>
        <time>2011-06-23T16:50:47Z</time>
      </trkpt>
      <trkpt lat="45.29316" lon="1.41245">
        <ele>177</ele>
        <time>2011-06-23T16:50:49Z</time>
      </trkpt>
      <trkpt lat="45.29308" lon="1.41242">
        <ele>178</ele>
        <time>2011-06-23T16:50:51Z</time>
      </trkpt>
      <trkpt lat="45.293" lon="1.41239">
        <ele>179</ele>
        <time>2011-06-23T16:50:53Z</time>
      </trkpt>
      <trkpt lat="45.29293" lon="1.41236">
        <ele>180</ele>
        <time>2011-06-23T16:50:55Z</time>
      </trkpt>
      <trkpt lat="45.29286" lon="1.41234">
        <ele>181</ele>
        <time>2011-06-23T16:50:57Z</time>
      </trkpt>
      <trkpt lat="45.29279" lon="1.41231">
        <ele>182</ele>
        <time>2011-06-23T16:50:59Z</time>
      </trkpt>
      <trkpt lat="45.29273" lon="1.41228">
        <ele>182</ele>
        <time>2011-06-23T16:51:01Z</time>
      </trkpt>
      <trkpt lat="45.29268" lon="1.41225">
        <ele>181</ele>
        <time>2011-06-23T16:51:03Z</time>
      </trkpt>
      <trkpt lat="45.29261" lon="1.41223">
        <ele>181</ele>
        <time>2011-06-23T16:51:05Z</time>
      </trkpt>
      <trkpt lat="45.29254" lon="1.4122">
        <ele>181</ele>
        <time>2011-06-23T16:51:07Z</time>
      </trkpt>
      <trkpt lat="45.29246" lon="1.41218">
        <ele>183</ele>
        <time>2011-06-23T16:51:09Z</time>
      </trkpt>
      <trkpt lat="45.29237" lon="1.41214">
        <ele>181</ele>
        <time>2011-06-23T16:51:11Z</time>
      </trkpt>
      <trkpt lat="45.29232" lon="1.41212">
        <ele>182</ele>
        <time>2011-06-23T16:51:12Z</time>
      </trkpt>
      <trkpt lat="45.29224" lon="1.4121">
        <ele>184</ele>
        <time>2011-06-23T16:51:14Z</time>
      </trkpt>
      <trkpt lat="45.29216" lon="1.41206">
        <ele>181</ele>
        <time>2011-06-23T16:51:16Z</time>
      </trkpt>
      <trkpt lat="45.29211" lon="1.41204">
        <ele>180</ele>
        <time>2011-06-23T16:51:17Z</time>
      </trkpt>
      <trkpt lat="45.29203" lon="1.41201">
        <ele>183</ele>
        <time>2011-06-23T16:51:19Z</time>
      </trkpt>
      <trkpt lat="45.29194" lon="1.41197">
        <ele>185</ele>
        <time>2011-06-23T16:51:21Z</time>
      </trkpt>
      <trkpt lat="45.29186" lon="1.41193">
        <ele>185</ele>
        <time>2011-06-23T16:51:23Z</time>
      </trkpt>
      <trkpt lat="45.29178" lon="1.41188">
        <ele>185</ele>
        <time>2011-06-23T16:51:25Z</time>
      </trkpt>
      <trkpt lat="45.29174" lon="1.41185">
        <ele>185</ele>
        <time>2011-06-23T16:51:26Z</time>
      </trkpt>
      <trkpt lat="45.29169" lon="1.41183">
        <ele>185</ele>
        <time>2011-06-23T16:51:27Z</time>
      </trkpt>
      <trkpt lat="45.29161" lon="1.41178">
        <ele>186</ele>
        <time>2011-06-23T16:51:29Z</time>
      </trkpt>
      <trkpt lat="45.29157" lon="1.41176">
        <ele>185</ele>
        <time>2011-06-23T16:51:30Z</time>
      </trkpt>
      <trkpt lat="45.29153" lon="1.41174">
        <ele>185</ele>
        <time>2011-06-23T16:51:31Z</time>
      </trkpt>
      <trkpt lat="45.29144" lon="1.41169">
        <ele>185</ele>
        <time>2011-06-23T16:51:33Z</time>
      </trkpt>
      <trkpt lat="45.29136" lon="1.41166">
        <ele>185</ele>
        <time>2011-06-23T16:51:35Z</time>
      </trkpt>
      <trkpt lat="45.29127" lon="1.41163">
        <ele>185</ele>
        <time>2011-06-23T16:51:37Z</time>
      </trkpt>
      <trkpt lat="45.29118" lon="1.4116">
        <ele>186</ele>
        <time>2011-06-23T16:51:39Z</time>
      </trkpt>
      <trkpt lat="45.2911" lon="1.41158">
        <ele>186</ele>
        <time>2011-06-23T16:51:41Z</time>
      </trkpt>
      <trkpt lat="45.29105" lon="1.41157">
        <ele>186</ele>
        <time>2011-06-23T16:51:42Z</time>
      </trkpt>
      <trkpt lat="45.29101" lon="1.41156">
        <ele>186</ele>
        <time>2011-06-23T16:51:43Z</time>
      </trkpt>
      <trkpt lat="45.29096" lon="1.41155">
        <ele>186</ele>
        <time>2011-06-23T16:51:44Z</time>
      </trkpt>
      <trkpt lat="45.29087" lon="1.41153">
        <ele>186</ele>
        <time>2011-06-23T16:51:46Z</time>
      </trkpt>
      <trkpt lat="45.29079" lon="1.41152">
        <ele>187</ele>
        <time>2011-06-23T16:51:48Z</time>
      </trkpt>
      <trkpt lat="45.29074" lon="1.41151">
        <ele>186</ele>
        <time>2011-06-23T16:51:49Z</time>
      </trkpt>
      <trkpt lat="45.29065" lon="1.41148">
        <ele>183</ele>
        <time>2011-06-23T16:51:51Z</time>
      </trkpt>
      <trkpt lat="45.29058" lon="1.41146">
        <ele>181</ele>
        <time>2011-06-23T16:51:53Z</time>
      </trkpt>
      <trkpt lat="45.2905" lon="1.41146">
        <ele>182</ele>
        <time>2011-06-23T16:51:55Z</time>
      </trkpt>
      <trkpt lat="45.29043" lon="1.41145">
        <ele>182</ele>
        <time>2011-06-23T16:51:57Z</time>
      </trkpt>
      <trkpt lat="45.29036" lon="1.41144">
        <ele>182</ele>
        <time>2011-06-23T16:51:59Z</time>
      </trkpt>
      <trkpt lat="45.29029" lon="1.41144">
        <ele>183</ele>
        <time>2011-06-23T16:52:01Z</time>
      </trkpt>
      <trkpt lat="45.29022" lon="1.41144">
        <ele>182</ele>
        <time>2011-06-23T16:52:03Z</time>
      </trkpt>
      <trkpt lat="45.29014" lon="1.41144">
        <ele>183</ele>
        <time>2011-06-23T16:52:05Z</time>
      </trkpt>
      <trkpt lat="45.29006" lon="1.41145">
        <ele>185</ele>
        <time>2011-06-23T16:52:07Z</time>
      </trkpt>
      <trkpt lat="45.28997" lon="1.41146">
        <ele>186</ele>
        <time>2011-06-23T16:52:09Z</time>
      </trkpt>
      <trkpt lat="45.28992" lon="1.41146">
        <ele>185</ele>
        <time>2011-06-23T16:52:10Z</time>
      </trkpt>
      <trkpt lat="45.28984" lon="1.41147">
        <ele>184</ele>
        <time>2011-06-23T16:52:12Z</time>
      </trkpt>
      <trkpt lat="45.28975" lon="1.41148">
        <ele>181</ele>
        <time>2011-06-23T16:52:14Z</time>
      </trkpt>
      <trkpt lat="45.28968" lon="1.41147">
        <ele>180</ele>
        <time>2011-06-23T16:52:16Z</time>
      </trkpt>
      <trkpt lat="45.28964" lon="1.41145">
        <ele>181</ele>
        <time>2011-06-23T16:52:18Z</time>
      </trkpt>
      <trkpt lat="45.28958" lon="1.41141">
        <ele>182</ele>
        <time>2011-06-23T16:52:20Z</time>
      </trkpt>
      <trkpt lat="45.28952" lon="1.41137">
        <ele>181</ele>
        <time>2011-06-23T16:52:22Z</time>
      </trkpt>
      <trkpt lat="45.28946" lon="1.41132">
        <ele>181</ele>
        <time>2011-06-23T16:52:24Z</time>
      </trkpt>
      <trkpt lat="45.28942" lon="1.41126">
        <ele>184</ele>
        <time>2011-06-23T16:52:26Z</time>
      </trkpt>
      <trkpt lat="45.2894" lon="1.4112">
        <ele>186</ele>
        <time>2011-06-23T16:52:28Z</time>
      </trkpt>
      <trkpt lat="45.2894" lon="1.41113">
        <ele>186</ele>
        <time>2011-06-23T16:52:31Z</time>
      </trkpt>
      <trkpt lat="45.28939" lon="1.41105">
        <ele>187</ele>
        <time>2011-06-23T16:52:34Z</time>
      </trkpt>
      <trkpt lat="45.28934" lon="1.41101">
        <ele>185</ele>
        <time>2011-06-23T16:52:38Z</time>
      </trkpt>
      <trkpt lat="45.28934" lon="1.41101">
        <ele>185</ele>
        <time>2011-06-23T16:52:38Z</time>
      </trkpt>
      <trkpt lat="45.28934" lon="1.41101">
        <ele>185</ele>
        <time>2011-06-23T16:52:48Z</time>
      </trkpt>
      <trkpt lat="45.28925" lon="1.41105">
        <ele>185</ele>
        <time>2011-06-23T16:52:49Z</time>
      </trkpt>
      <trkpt lat="45.28921" lon="1.4111">
        <ele>185</ele>
        <time>2011-06-23T16:52:53Z</time>
      </trkpt>
      <trkpt lat="45.28918" lon="1.41116">
        <ele>185</ele>
        <time>2011-06-23T16:52:58Z</time>
      </trkpt>
      <trkpt lat="45.28911" lon="1.41115">
        <ele>186</ele>
        <time>2011-06-23T16:53:05Z</time>
      </trkpt>
      <trkpt lat="45.28904" lon="1.41117">
        <ele>185</ele>
        <time>2011-06-23T16:53:07Z</time>
      </trkpt>
      <trkpt lat="45.28896" lon="1.41119">
        <ele>182</ele>
        <time>2011-06-23T16:53:09Z</time>
      </trkpt>
      <trkpt lat="45.28891" lon="1.4112">
        <ele>182</ele>
        <time>2011-06-23T16:53:10Z</time>
      </trkpt>
      <trkpt lat="45.28886" lon="1.41122">
        <ele>181</ele>
        <time>2011-06-23T16:53:11Z</time>
      </trkpt>
      <trkpt lat="45.2888" lon="1.41123">
        <ele>181</ele>
        <time>2011-06-23T16:53:12Z</time>
      </trkpt>
      <trkpt lat="45.28874" lon="1.41125">
        <ele>181</ele>
        <time>2011-06-23T16:53:13Z</time>
      </trkpt>
      <trkpt lat="45.28868" lon="1.41126">
        <ele>181</ele>
        <time>2011-06-23T16:53:14Z</time>
      </trkpt>
      <trkpt lat="45.28862" lon="1.41128">
        <ele>181</ele>
        <time>2011-06-23T16:53:15Z</time>
      </trkpt>
      <trkpt lat="45.28856" lon="1.4113">
        <ele>182</ele>
        <time>2011-06-23T16:53:16Z</time>
      </trkpt>
      <trkpt lat="45.28849" lon="1.41131">
        <ele>180</ele>
        <time>2011-06-23T16:53:17Z</time>
      </trkpt>
      <trkpt lat="45.28843" lon="1.41133">
        <ele>180</ele>
        <time>2011-06-23T16:53:18Z</time>
      </trkpt>
      <trkpt lat="45.28837" lon="1.41134">
        <ele>180</ele>
        <time>2011-06-23T16:53:19Z</time>
      </trkpt>
      <trkpt lat="45.28832" lon="1.41135">
        <ele>182</ele>
        <time>2011-06-23T16:53:20Z</time>
      </trkpt>
      <trkpt lat="45.28826" lon="1.41137">
        <ele>182</ele>
        <time>2011-06-23T16:53:21Z</time>
      </trkpt>
      <trkpt lat="45.2882" lon="1.41138">
        <ele>181</ele>
        <time>2011-06-23T16:53:22Z</time>
      </trkpt>
      <trkpt lat="45.28814" lon="1.4114">
        <ele>181</ele>
        <time>2011-06-23T16:53:23Z</time>
      </trkpt>
      <trkpt lat="45.28807" lon="1.41141">
        <ele>181</ele>
        <time>2011-06-23T16:53:24Z</time>
      </trkpt>
      <trkpt lat="45.28801" lon="1.41142">
        <ele>180</ele>
        <time>2011-06-23T16:53:25Z</time>
      </trkpt>
      <trkpt lat="45.28794" lon="1.41143">
        <ele>179</ele>
        <time>2011-06-23T16:53:26Z</time>
      </trkpt>
      <trkpt lat="45.28788" lon="1.41144">
        <ele>178</ele>
        <time>2011-06-23T16:53:27Z</time>
      </trkpt>
      <trkpt lat="45.28782" lon="1.41144">
        <ele>178</ele>
        <time>2011-06-23T16:53:28Z</time>
      </trkpt>
      <trkpt lat="45.28776" lon="1.41145">
        <ele>178</ele>
        <time>2011-06-23T16:53:29Z</time>
      </trkpt>
      <trkpt lat="45.2877" lon="1.41145">
        <ele>177</ele>
        <time>2011-06-23T16:53:30Z</time>
      </trkpt>
      <trkpt lat="45.28764" lon="1.41146">
        <ele>178</ele>
        <time>2011-06-23T16:53:31Z</time>
      </trkpt>
      <trkpt lat="45.28758" lon="1.41146">
        <ele>179</ele>
        <time>2011-06-23T16:53:32Z</time>
      </trkpt>
      <trkpt lat="45.28752" lon="1.41147">
        <ele>180</ele>
        <time>2011-06-23T16:53:33Z</time>
      </trkpt>
      <trkpt lat="45.28746" lon="1.41147">
        <ele>180</ele>
        <time>2011-06-23T16:53:34Z</time>
      </trkpt>
      <trkpt lat="45.28741" lon="1.41148">
        <ele>181</ele>
        <time>2011-06-23T16:53:35Z</time>
      </trkpt>
      <trkpt lat="45.28735" lon="1.41148">
        <ele>180</ele>
        <time>2011-06-23T16:53:36Z</time>
      </trkpt>
      <trkpt lat="45.2873" lon="1.41148">
        <ele>180</ele>
        <time>2011-06-23T16:53:37Z</time>
      </trkpt>
      <trkpt lat="45.28725" lon="1.41149">
        <ele>180</ele>
        <time>2011-06-23T16:53:38Z</time>
      </trkpt>
      <trkpt lat="45.28717" lon="1.4115">
        <ele>178</ele>
        <time>2011-06-23T16:53:40Z</time>
      </trkpt>
      <trkpt lat="45.28712" lon="1.4115">
        <ele>176</ele>
        <time>2011-06-23T16:53:41Z</time>
      </trkpt>
      <trkpt lat="45.28707" lon="1.4115">
        <ele>176</ele>
        <time>2011-06-23T16:53:42Z</time>
      </trkpt>
      <trkpt lat="45.28702" lon="1.41151">
        <ele>178</ele>
        <time>2011-06-23T16:53:43Z</time>
      </trkpt>
      <trkpt lat="45.28698" lon="1.41152">
        <ele>179</ele>
        <time>2011-06-23T16:53:44Z</time>
      </trkpt>
      <trkpt lat="45.28688" lon="1.41153">
        <ele>179</ele>
        <time>2011-06-23T16:53:46Z</time>
      </trkpt>
      <trkpt lat="45.28684" lon="1.41154">
        <ele>177</ele>
        <time>2011-06-23T16:53:47Z</time>
      </trkpt>
      <trkpt lat="45.28674" lon="1.41155">
        <ele>179</ele>
        <time>2011-06-23T16:53:49Z</time>
      </trkpt>
      <trkpt lat="45.28665" lon="1.41156">
        <ele>177</ele>
        <time>2011-06-23T16:53:51Z</time>
      </trkpt>
      <trkpt lat="45.2866" lon="1.41157">
        <ele>178</ele>
        <time>2011-06-23T16:53:52Z</time>
      </trkpt>
      <trkpt lat="45.28655" lon="1.41158">
        <ele>177</ele>
        <time>2011-06-23T16:53:53Z</time>
      </trkpt>
      <trkpt lat="45.28647" lon="1.41159">
        <ele>176</ele>
        <time>2011-06-23T16:53:55Z</time>
      </trkpt>
      <trkpt lat="45.28638" lon="1.41161">
        <ele>177</ele>
        <time>2011-06-23T16:53:57Z</time>
      </trkpt>
      <trkpt lat="45.28629" lon="1.41162">
        <ele>179</ele>
        <time>2011-06-23T16:53:59Z</time>
      </trkpt>
      <trkpt lat="45.2862" lon="1.41164">
        <ele>180</ele>
        <time>2011-06-23T16:54:01Z</time>
      </trkpt>
      <trkpt lat="45.28611" lon="1.41166">
        <ele>181</ele>
        <time>2011-06-23T16:54:03Z</time>
      </trkpt>
      <trkpt lat="45.28606" lon="1.41168">
        <ele>181</ele>
        <time>2011-06-23T16:54:04Z</time>
      </trkpt>
      <trkpt lat="45.28602" lon="1.41169">
        <ele>181</ele>
        <time>2011-06-23T16:54:05Z</time>
      </trkpt>
      <trkpt lat="45.28597" lon="1.41169">
        <ele>184</ele>
        <time>2011-06-23T16:54:06Z</time>
      </trkpt>
      <trkpt lat="45.28589" lon="1.41172">
        <ele>182</ele>
        <time>2011-06-23T16:54:08Z</time>
      </trkpt>
      <trkpt lat="45.2858" lon="1.41175">
        <ele>183</ele>
        <time>2011-06-23T16:54:10Z</time>
      </trkpt>
      <trkpt lat="45.28576" lon="1.41176">
        <ele>183</ele>
        <time>2011-06-23T16:54:11Z</time>
      </trkpt>
      <trkpt lat="45.28568" lon="1.41179">
        <ele>184</ele>
        <time>2011-06-23T16:54:13Z</time>
      </trkpt>
      <trkpt lat="45.28562" lon="1.41179">
        <ele>185</ele>
        <time>2011-06-23T16:54:14Z</time>
      </trkpt>
      <trkpt lat="45.28554" lon="1.4118">
        <ele>187</ele>
        <time>2011-06-23T16:54:16Z</time>
      </trkpt>
      <trkpt lat="45.28545" lon="1.41182">
        <ele>185</ele>
        <time>2011-06-23T16:54:18Z</time>
      </trkpt>
      <trkpt lat="45.2854" lon="1.41184">
        <ele>185</ele>
        <time>2011-06-23T16:54:19Z</time>
      </trkpt>
      <trkpt lat="45.28536" lon="1.41185">
        <ele>185</ele>
        <time>2011-06-23T16:54:20Z</time>
      </trkpt>
      <trkpt lat="45.28531" lon="1.41186">
        <ele>186</ele>
        <time>2011-06-23T16:54:21Z</time>
      </trkpt>
      <trkpt lat="45.28522" lon="1.41188">
        <ele>187</ele>
        <time>2011-06-23T16:54:23Z</time>
      </trkpt>
      <trkpt lat="45.28514" lon="1.4119">
        <ele>186</ele>
        <time>2011-06-23T16:54:25Z</time>
      </trkpt>
      <trkpt lat="45.28506" lon="1.41191">
        <ele>186</ele>
        <time>2011-06-23T16:54:27Z</time>
      </trkpt>
      <trkpt lat="45.28499" lon="1.41192">
        <ele>187</ele>
        <time>2011-06-23T16:54:29Z</time>
      </trkpt>
      <trkpt lat="45.28494" lon="1.41192">
        <ele>189</ele>
        <time>2011-06-23T16:54:30Z</time>
      </trkpt>
      <trkpt lat="45.28489" lon="1.41192">
        <ele>189</ele>
        <time>2011-06-23T16:54:31Z</time>
      </trkpt>
      <trkpt lat="45.28485" lon="1.41193">
        <ele>189</ele>
        <time>2011-06-23T16:54:32Z</time>
      </trkpt>
      <trkpt lat="45.2848" lon="1.41193">
        <ele>189</ele>
        <time>2011-06-23T16:54:33Z</time>
      </trkpt>
      <trkpt lat="45.28475" lon="1.41193">
        <ele>188</ele>
        <time>2011-06-23T16:54:34Z</time>
      </trkpt>
      <trkpt lat="45.28466" lon="1.41193">
        <ele>188</ele>
        <time>2011-06-23T16:54:36Z</time>
      </trkpt>
      <trkpt lat="45.28462" lon="1.41193">
        <ele>187</ele>
        <time>2011-06-23T16:54:37Z</time>
      </trkpt>
      <trkpt lat="45.28457" lon="1.41193">
        <ele>187</ele>
        <time>2011-06-23T16:54:38Z</time>
      </trkpt>
      <trkpt lat="45.28448" lon="1.41192">
        <ele>184</ele>
        <time>2011-06-23T16:54:40Z</time>
      </trkpt>
      <trkpt lat="45.28443" lon="1.41192">
        <ele>182</ele>
        <time>2011-06-23T16:54:41Z</time>
      </trkpt>
      <trkpt lat="45.28438" lon="1.41191">
        <ele>180</ele>
        <time>2011-06-23T16:54:42Z</time>
      </trkpt>
      <trkpt lat="45.28433" lon="1.4119">
        <ele>179</ele>
        <time>2011-06-23T16:54:43Z</time>
      </trkpt>
      <trkpt lat="45.28428" lon="1.4119">
        <ele>177</ele>
        <time>2011-06-23T16:54:44Z</time>
      </trkpt>
      <trkpt lat="45.28423" lon="1.41189">
        <ele>176</ele>
        <time>2011-06-23T16:54:45Z</time>
      </trkpt>
      <trkpt lat="45.28418" lon="1.41188">
        <ele>175</ele>
        <time>2011-06-23T16:54:46Z</time>
      </trkpt>
      <trkpt lat="45.28413" lon="1.41187">
        <ele>175</ele>
        <time>2011-06-23T16:54:47Z</time>
      </trkpt>
      <trkpt lat="45.28409" lon="1.41186">
        <ele>175</ele>
        <time>2011-06-23T16:54:48Z</time>
      </trkpt>
      <trkpt lat="45.28404" lon="1.41185">
        <ele>175</ele>
        <time>2011-06-23T16:54:49Z</time>
      </trkpt>
      <trkpt lat="45.28396" lon="1.41183">
        <ele>176</ele>
        <time>2011-06-23T16:54:51Z</time>
      </trkpt>
      <trkpt lat="45.28388" lon="1.41182">
        <ele>178</ele>
        <time>2011-06-23T16:54:53Z</time>
      </trkpt>
      <trkpt lat="45.28379" lon="1.4118">
        <ele>178</ele>
        <time>2011-06-23T16:54:55Z</time>
      </trkpt>
      <trkpt lat="45.28374" lon="1.41178">
        <ele>178</ele>
        <time>2011-06-23T16:54:56Z</time>
      </trkpt>
      <trkpt lat="45.2837" lon="1.41177">
        <ele>179</ele>
        <time>2011-06-23T16:54:57Z</time>
      </trkpt>
      <trkpt lat="45.28365" lon="1.41175">
        <ele>178</ele>
        <time>2011-06-23T16:54:58Z</time>
      </trkpt>
      <trkpt lat="45.28357" lon="1.41172">
        <ele>179</ele>
        <time>2011-06-23T16:55:00Z</time>
      </trkpt>
      <trkpt lat="45.28348" lon="1.41169">
        <ele>180</ele>
        <time>2011-06-23T16:55:02Z</time>
      </trkpt>
      <trkpt lat="45.28339" lon="1.41166">
        <ele>179</ele>
        <time>2011-06-23T16:55:04Z</time>
      </trkpt>
      <trkpt lat="45.28335" lon="1.41164">
        <ele>179</ele>
        <time>2011-06-23T16:55:05Z</time>
      </trkpt>
      <trkpt lat="45.2833" lon="1.41162">
        <ele>179</ele>
        <time>2011-06-23T16:55:06Z</time>
      </trkpt>
      <trkpt lat="45.28326" lon="1.4116">
        <ele>178</ele>
        <time>2011-06-23T16:55:07Z</time>
      </trkpt>
      <trkpt lat="45.28317" lon="1.41157">
        <ele>179</ele>
        <time>2011-06-23T16:55:09Z</time>
      </trkpt>
      <trkpt lat="45.28312" lon="1.41156">
        <ele>177</ele>
        <time>2011-06-23T16:55:10Z</time>
      </trkpt>
      <trkpt lat="45.28307" lon="1.41154">
        <ele>177</ele>
        <time>2011-06-23T16:55:11Z</time>
      </trkpt>
      <trkpt lat="45.28303" lon="1.41152">
        <ele>177</ele>
        <time>2011-06-23T16:55:12Z</time>
      </trkpt>
      <trkpt lat="45.28298" lon="1.41151">
        <ele>178</ele>
        <time>2011-06-23T16:55:13Z</time>
      </trkpt>
      <trkpt lat="45.2829" lon="1.41148">
        <ele>179</ele>
        <time>2011-06-23T16:55:15Z</time>
      </trkpt>
      <trkpt lat="45.28283" lon="1.41146">
        <ele>179</ele>
        <time>2011-06-23T16:55:17Z</time>
      </trkpt>
      <trkpt lat="45.28275" lon="1.41143">
        <ele>180</ele>
        <time>2011-06-23T16:55:19Z</time>
      </trkpt>
      <trkpt lat="45.28267" lon="1.4114">
        <ele>181</ele>
        <time>2011-06-23T16:55:21Z</time>
      </trkpt>
      <trkpt lat="45.28259" lon="1.41138">
        <ele>181</ele>
        <time>2011-06-23T16:55:23Z</time>
      </trkpt>
      <trkpt lat="45.28251" lon="1.41135">
        <ele>181</ele>
        <time>2011-06-23T16:55:25Z</time>
      </trkpt>
      <trkpt lat="45.28244" lon="1.41132">
        <ele>181</ele>
        <time>2011-06-23T16:55:27Z</time>
      </trkpt>
      <trkpt lat="45.28237" lon="1.41129">
        <ele>181</ele>
        <time>2011-06-23T16:55:29Z</time>
      </trkpt>
      <trkpt lat="45.28229" lon="1.41126">
        <ele>180</ele>
        <time>2011-06-23T16:55:31Z</time>
      </trkpt>
      <trkpt lat="45.28222" lon="1.41122">
        <ele>181</ele>
        <time>2011-06-23T16:55:33Z</time>
      </trkpt>
      <trkpt lat="45.28214" lon="1.41118">
        <ele>180</ele>
        <time>2011-06-23T16:55:35Z</time>
      </trkpt>
      <trkpt lat="45.28205" lon="1.41114">
        <ele>178</ele>
        <time>2011-06-23T16:55:37Z</time>
      </trkpt>
      <trkpt lat="45.28201" lon="1.41111">
        <ele>177</ele>
        <time>2011-06-23T16:55:38Z</time>
      </trkpt>
      <trkpt lat="45.28197" lon="1.41109">
        <ele>177</ele>
        <time>2011-06-23T16:55:39Z</time>
      </trkpt>
      <trkpt lat="45.2819" lon="1.41105">
        <ele>182</ele>
        <time>2011-06-23T16:55:41Z</time>
      </trkpt>
      <trkpt lat="45.28184" lon="1.41101">
        <ele>183</ele>
        <time>2011-06-23T16:55:43Z</time>
      </trkpt>
      <trkpt lat="45.28177" lon="1.41096">
        <ele>182</ele>
        <time>2011-06-23T16:55:45Z</time>
      </trkpt>
      <trkpt lat="45.28169" lon="1.41091">
        <ele>180</ele>
        <time>2011-06-23T16:55:47Z</time>
      </trkpt>
      <trkpt lat="45.2816" lon="1.41086">
        <ele>179</ele>
        <time>2011-06-23T16:55:49Z</time>
      </trkpt>
      <trkpt lat="45.28156" lon="1.41084">
        <ele>179</ele>
        <time>2011-06-23T16:55:50Z</time>
      </trkpt>
      <trkpt lat="45.28151" lon="1.41081">
        <ele>179</ele>
        <time>2011-06-23T16:55:51Z</time>
      </trkpt>
      <trkpt lat="45.28147" lon="1.41079">
        <ele>180</ele>
        <time>2011-06-23T16:55:52Z</time>
      </trkpt>
      <trkpt lat="45.28143" lon="1.41076">
        <ele>181</ele>
        <time>2011-06-23T16:55:53Z</time>
      </trkpt>
      <trkpt lat="45.28138" lon="1.41074">
        <ele>180</ele>
        <time>2011-06-23T16:55:54Z</time>
      </trkpt>
      <trkpt lat="45.28134" lon="1.41072">
        <ele>181</ele>
        <time>2011-06-23T16:55:55Z</time>
      </trkpt>
      <trkpt lat="45.28129" lon="1.4107">
        <ele>181</ele>
        <time>2011-06-23T16:55:56Z</time>
      </trkpt>
      <trkpt lat="45.28121" lon="1.41066">
        <ele>181</ele>
        <time>2011-06-23T16:55:58Z</time>
      </trkpt>
      <trkpt lat="45.28116" lon="1.41064">
        <ele>181</ele>
        <time>2011-06-23T16:55:59Z</time>
      </trkpt>
      <trkpt lat="45.28112" lon="1.41063">
        <ele>180</ele>
        <time>2011-06-23T16:56:00Z</time>
      </trkpt>
      <trkpt lat="45.28104" lon="1.4106">
        <ele>179</ele>
        <time>2011-06-23T16:56:02Z</time>
      </trkpt>
      <trkpt lat="45.28095" lon="1.41057">
        <ele>178</ele>
        <time>2011-06-23T16:56:04Z</time>
      </trkpt>
      <trkpt lat="45.28087" lon="1.41055">
        <ele>177</ele>
        <time>2011-06-23T16:56:06Z</time>
      </trkpt>
      <trkpt lat="45.28079" lon="1.41053">
        <ele>179</ele>
        <time>2011-06-23T16:56:08Z</time>
      </trkpt>
      <trkpt lat="45.28071" lon="1.41051">
        <ele>179</ele>
        <time>2011-06-23T16:56:10Z</time>
      </trkpt>
      <trkpt lat="45.28063" lon="1.41048">
        <ele>178</ele>
        <time>2011-06-23T16:56:12Z</time>
      </trkpt>
      <trkpt lat="45.28058" lon="1.41047">
        <ele>179</ele>
        <time>2011-06-23T16:56:13Z</time>
      </trkpt>
      <trkpt lat="45.28053" lon="1.41046">
        <ele>179</ele>
        <time>2011-06-23T16:56:14Z</time>
      </trkpt>
      <trkpt lat="45.28045" lon="1.41045">
        <ele>186</ele>
        <time>2011-06-23T16:56:16Z</time>
      </trkpt>
      <trkpt lat="45.28039" lon="1.41045">
        <ele>187</ele>
        <time>2011-06-23T16:56:18Z</time>
      </trkpt>
      <trkpt lat="45.28031" lon="1.41045">
        <ele>186</ele>
        <time>2011-06-23T16:56:20Z</time>
      </trkpt>
      <trkpt lat="45.28023" lon="1.41045">
        <ele>185</ele>
        <time>2011-06-23T16:56:22Z</time>
      </trkpt>
      <trkpt lat="45.28015" lon="1.41045">
        <ele>186</ele>
        <time>2011-06-23T16:56:24Z</time>
      </trkpt>
      <trkpt lat="45.28006" lon="1.41045">
        <ele>187</ele>
        <time>2011-06-23T16:56:26Z</time>
      </trkpt>
      <trkpt lat="45.27998" lon="1.41046">
        <ele>187</ele>
        <time>2011-06-23T16:56:28Z</time>
      </trkpt>
      <trkpt lat="45.2799" lon="1.41047">
        <ele>188</ele>
        <time>2011-06-23T16:56:30Z</time>
      </trkpt>
      <trkpt lat="45.27982" lon="1.41048">
        <ele>188</ele>
        <time>2011-06-23T16:56:32Z</time>
      </trkpt>
      <trkpt lat="45.27977" lon="1.41048">
        <ele>188</ele>
        <time>2011-06-23T16:56:33Z</time>
      </trkpt>
      <trkpt lat="45.27972" lon="1.41049">
        <ele>188</ele>
        <time>2011-06-23T16:56:34Z</time>
      </trkpt>
      <trkpt lat="45.27967" lon="1.4105">
        <ele>187</ele>
        <time>2011-06-23T16:56:35Z</time>
      </trkpt>
      <trkpt lat="45.27962" lon="1.41051">
        <ele>187</ele>
        <time>2011-06-23T16:56:36Z</time>
      </trkpt>
      <trkpt lat="45.27957" lon="1.41052">
        <ele>186</ele>
        <time>2011-06-23T16:56:37Z</time>
      </trkpt>
      <trkpt lat="45.27952" lon="1.41053">
        <ele>185</ele>
        <time>2011-06-23T16:56:38Z</time>
      </trkpt>
      <trkpt lat="45.27946" lon="1.41054">
        <ele>182</ele>
        <time>2011-06-23T16:56:39Z</time>
      </trkpt>
      <trkpt lat="45.27941" lon="1.41055">
        <ele>182</ele>
        <time>2011-06-23T16:56:40Z</time>
      </trkpt>
      <trkpt lat="45.27935" lon="1.41057">
        <ele>180</ele>
        <time>2011-06-23T16:56:41Z</time>
      </trkpt>
      <trkpt lat="45.2793" lon="1.41058">
        <ele>181</ele>
        <time>2011-06-23T16:56:42Z</time>
      </trkpt>
      <trkpt lat="45.27924" lon="1.4106">
        <ele>180</ele>
        <time>2011-06-23T16:56:43Z</time>
      </trkpt>
      <trkpt lat="45.27919" lon="1.41061">
        <ele>181</ele>
        <time>2011-06-23T16:56:44Z</time>
      </trkpt>
      <trkpt lat="45.27914" lon="1.41063">
        <ele>181</ele>
        <time>2011-06-23T16:56:45Z</time>
      </trkpt>
      <trkpt lat="45.27908" lon="1.41064">
        <ele>180</ele>
        <time>2011-06-23T16:56:46Z</time>
      </trkpt>
      <trkpt lat="45.27902" lon="1.41066">
        <ele>179</ele>
        <time>2011-06-23T16:56:47Z</time>
      </trkpt>
      <trkpt lat="45.27897" lon="1.41067">
        <ele>179</ele>
        <time>2011-06-23T16:56:48Z</time>
      </trkpt>
      <trkpt lat="45.27892" lon="1.41069">
        <ele>179</ele>
        <time>2011-06-23T16:56:49Z</time>
      </trkpt>
      <trkpt lat="45.27887" lon="1.41071">
        <ele>177</ele>
        <time>2011-06-23T16:56:50Z</time>
      </trkpt>
      <trkpt lat="45.27882" lon="1.41072">
        <ele>177</ele>
        <time>2011-06-23T16:56:51Z</time>
      </trkpt>
      <trkpt lat="45.27878" lon="1.41074">
        <ele>176</ele>
        <time>2011-06-23T16:56:52Z</time>
      </trkpt>
      <trkpt lat="45.27873" lon="1.41076">
        <ele>175</ele>
        <time>2011-06-23T16:56:53Z</time>
      </trkpt>
      <trkpt lat="45.27868" lon="1.41078">
        <ele>176</ele>
        <time>2011-06-23T16:56:54Z</time>
      </trkpt>
      <trkpt lat="45.27864" lon="1.4108">
        <ele>176</ele>
        <time>2011-06-23T16:56:55Z</time>
      </trkpt>
      <trkpt lat="45.27857" lon="1.41083">
        <ele>181</ele>
        <time>2011-06-23T16:56:57Z</time>
      </trkpt>
      <trkpt lat="45.27849" lon="1.41086">
        <ele>178</ele>
        <time>2011-06-23T16:56:59Z</time>
      </trkpt>
      <trkpt lat="45.27841" lon="1.4109">
        <ele>180</ele>
        <time>2011-06-23T16:57:01Z</time>
      </trkpt>
      <trkpt lat="45.27834" lon="1.41093">
        <ele>180</ele>
        <time>2011-06-23T16:57:03Z</time>
      </trkpt>
      <trkpt lat="45.27826" lon="1.41094">
        <ele>180</ele>
        <time>2011-06-23T16:57:05Z</time>
      </trkpt>
      <trkpt lat="45.27818" lon="1.41096">
        <ele>181</ele>
        <time>2011-06-23T16:57:07Z</time>
      </trkpt>
      <trkpt lat="45.27812" lon="1.41096">
        <ele>181</ele>
        <time>2011-06-23T16:57:09Z</time>
      </trkpt>
      <trkpt lat="45.27804" lon="1.41096">
        <ele>181</ele>
        <time>2011-06-23T16:57:11Z</time>
      </trkpt>
      <trkpt lat="45.27797" lon="1.41101">
        <ele>184</ele>
        <time>2011-06-23T16:57:13Z</time>
      </trkpt>
      <trkpt lat="45.2779" lon="1.41107">
        <ele>184</ele>
        <time>2011-06-23T16:57:15Z</time>
      </trkpt>
      <trkpt lat="45.27785" lon="1.41111">
        <ele>183</ele>
        <time>2011-06-23T16:57:16Z</time>
      </trkpt>
      <trkpt lat="45.2778" lon="1.41115">
        <ele>184</ele>
        <time>2011-06-23T16:57:17Z</time>
      </trkpt>
      <trkpt lat="45.27774" lon="1.4112">
        <ele>183</ele>
        <time>2011-06-23T16:57:18Z</time>
      </trkpt>
      <trkpt lat="45.27769" lon="1.41124">
        <ele>182</ele>
        <time>2011-06-23T16:57:19Z</time>
      </trkpt>
      <trkpt lat="45.27764" lon="1.41127">
        <ele>182</ele>
        <time>2011-06-23T16:57:20Z</time>
      </trkpt>
      <trkpt lat="45.27759" lon="1.41129">
        <ele>181</ele>
        <time>2011-06-23T16:57:21Z</time>
      </trkpt>
      <trkpt lat="45.27754" lon="1.41131">
        <ele>180</ele>
        <time>2011-06-23T16:57:22Z</time>
      </trkpt>
      <trkpt lat="45.27749" lon="1.41133">
        <ele>180</ele>
        <time>2011-06-23T16:57:23Z</time>
      </trkpt>
      <trkpt lat="45.27745" lon="1.41135">
        <ele>180</ele>
        <time>2011-06-23T16:57:24Z</time>
      </trkpt>
      <trkpt lat="45.27739" lon="1.41137">
        <ele>180</ele>
        <time>2011-06-23T16:57:25Z</time>
      </trkpt>
      <trkpt lat="45.27734" lon="1.41138">
        <ele>179</ele>
        <time>2011-06-23T16:57:26Z</time>
      </trkpt>
      <trkpt lat="45.27729" lon="1.4114">
        <ele>179</ele>
        <time>2011-06-23T16:57:27Z</time>
      </trkpt>
      <trkpt lat="45.27724" lon="1.41141">
        <ele>179</ele>
        <time>2011-06-23T16:57:28Z</time>
      </trkpt>
      <trkpt lat="45.27718" lon="1.41143">
        <ele>179</ele>
        <time>2011-06-23T16:57:29Z</time>
      </trkpt>
      <trkpt lat="45.27713" lon="1.41144">
        <ele>179</ele>
        <time>2011-06-23T16:57:30Z</time>
      </trkpt>
      <trkpt lat="45.27708" lon="1.41145">
        <ele>180</ele>
        <time>2011-06-23T16:57:31Z</time>
      </trkpt>
      <trkpt lat="45.27704" lon="1.41146">
        <ele>181</ele>
        <time>2011-06-23T16:57:32Z</time>
      </trkpt>
      <trkpt lat="45.27699" lon="1.41147">
        <ele>181</ele>
        <time>2011-06-23T16:57:33Z</time>
      </trkpt>
      <trkpt lat="45.27693" lon="1.41148">
        <ele>183</ele>
        <time>2011-06-23T16:57:34Z</time>
      </trkpt>
      <trkpt lat="45.27687" lon="1.41149">
        <ele>183</ele>
        <time>2011-06-23T16:57:35Z</time>
      </trkpt>
      <trkpt lat="45.27681" lon="1.4115">
        <ele>182</ele>
        <time>2011-06-23T16:57:36Z</time>
      </trkpt>
      <trkpt lat="45.27674" lon="1.4115">
        <ele>183</ele>
        <time>2011-06-23T16:57:37Z</time>
      </trkpt>
      <trkpt lat="45.27668" lon="1.41152">
        <ele>185</ele>
        <time>2011-06-23T16:57:38Z</time>
      </trkpt>
      <trkpt lat="45.27661" lon="1.41152">
        <ele>185</ele>
        <time>2011-06-23T16:57:39Z</time>
      </trkpt>
      <trkpt lat="45.27654" lon="1.41153">
        <ele>186</ele>
        <time>2011-06-23T16:57:40Z</time>
      </trkpt>
      <trkpt lat="45.27648" lon="1.41154">
        <ele>186</ele>
        <time>2011-06-23T16:57:41Z</time>
      </trkpt>
      <trkpt lat="45.27641" lon="1.41155">
        <ele>186</ele>
        <time>2011-06-23T16:57:42Z</time>
      </trkpt>
      <trkpt lat="45.27634" lon="1.41155">
        <ele>185</ele>
        <time>2011-06-23T16:57:43Z</time>
      </trkpt>
      <trkpt lat="45.27628" lon="1.41156">
        <ele>183</ele>
        <time>2011-06-23T16:57:44Z</time>
      </trkpt>
      <trkpt lat="45.2762" lon="1.41156">
        <ele>182</ele>
        <time>2011-06-23T16:57:45Z</time>
      </trkpt>
      <trkpt lat="45.27614" lon="1.41156">
        <ele>182</ele>
        <time>2011-06-23T16:57:46Z</time>
      </trkpt>
      <trkpt lat="45.27607" lon="1.41156">
        <ele>182</ele>
        <time>2011-06-23T16:57:47Z</time>
      </trkpt>
      <trkpt lat="45.276" lon="1.41155">
        <ele>182</ele>
        <time>2011-06-23T16:57:48Z</time>
      </trkpt>
      <trkpt lat="45.27594" lon="1.41154">
        <ele>182</ele>
        <time>2011-06-23T16:57:49Z</time>
      </trkpt>
      <trkpt lat="45.27587" lon="1.41152">
        <ele>180</ele>
        <time>2011-06-23T16:57:50Z</time>
      </trkpt>
      <trkpt lat="45.2758" lon="1.41151">
        <ele>179</ele>
        <time>2011-06-23T16:57:51Z</time>
      </trkpt>
      <trkpt lat="45.27573" lon="1.41149">
        <ele>178</ele>
        <time>2011-06-23T16:57:52Z</time>
      </trkpt>
      <trkpt lat="45.27566" lon="1.41147">
        <ele>176</ele>
        <time>2011-06-23T16:57:53Z</time>
      </trkpt>
      <trkpt lat="45.2756" lon="1.41145">
        <ele>174</ele>
        <time>2011-06-23T16:57:54Z</time>
      </trkpt>
      <trkpt lat="45.27554" lon="1.41144">
        <ele>173</ele>
        <time>2011-06-23T16:57:55Z</time>
      </trkpt>
      <trkpt lat="45.27547" lon="1.41142">
        <ele>172</ele>
        <time>2011-06-23T16:57:56Z</time>
      </trkpt>
      <trkpt lat="45.27542" lon="1.4114">
        <ele>171</ele>
        <time>2011-06-23T16:57:57Z</time>
      </trkpt>
      <trkpt lat="45.27536" lon="1.41138">
        <ele>170</ele>
        <time>2011-06-23T16:57:58Z</time>
      </trkpt>
      <trkpt lat="45.2753" lon="1.41137">
        <ele>169</ele>
        <time>2011-06-23T16:57:59Z</time>
      </trkpt>
      <trkpt lat="45.27525" lon="1.41135">
        <ele>169</ele>
        <time>2011-06-23T16:58:00Z</time>
      </trkpt>
      <trkpt lat="45.27519" lon="1.41133">
        <ele>167</ele>
        <time>2011-06-23T16:58:01Z</time>
      </trkpt>
      <trkpt lat="45.27513" lon="1.41131">
        <ele>167</ele>
        <time>2011-06-23T16:58:02Z</time>
      </trkpt>
      <trkpt lat="45.27507" lon="1.41129">
        <ele>167</ele>
        <time>2011-06-23T16:58:03Z</time>
      </trkpt>
      <trkpt lat="45.27501" lon="1.41128">
        <ele>167</ele>
        <time>2011-06-23T16:58:04Z</time>
      </trkpt>
      <trkpt lat="45.27495" lon="1.41126">
        <ele>167</ele>
        <time>2011-06-23T16:58:05Z</time>
      </trkpt>
      <trkpt lat="45.2749" lon="1.41125">
        <ele>168</ele>
        <time>2011-06-23T16:58:06Z</time>
      </trkpt>
      <trkpt lat="45.27484" lon="1.41124">
        <ele>167</ele>
        <time>2011-06-23T16:58:07Z</time>
      </trkpt>
      <trkpt lat="45.27478" lon="1.41122">
        <ele>168</ele>
        <time>2011-06-23T16:58:08Z</time>
      </trkpt>
      <trkpt lat="45.27472" lon="1.4112">
        <ele>167</ele>
        <time>2011-06-23T16:58:09Z</time>
      </trkpt>
      <trkpt lat="45.27466" lon="1.41119">
        <ele>167</ele>
        <time>2011-06-23T16:58:10Z</time>
      </trkpt>
      <trkpt lat="45.2746" lon="1.41117">
        <ele>168</ele>
        <time>2011-06-23T16:58:11Z</time>
      </trkpt>
      <trkpt lat="45.27455" lon="1.41116">
        <ele>167</ele>
        <time>2011-06-23T16:58:12Z</time>
      </trkpt>
      <trkpt lat="45.27449" lon="1.41114">
        <ele>166</ele>
        <time>2011-06-23T16:58:13Z</time>
      </trkpt>
      <trkpt lat="45.27443" lon="1.41112">
        <ele>164</ele>
        <time>2011-06-23T16:58:14Z</time>
      </trkpt>
      <trkpt lat="45.27437" lon="1.41111">
        <ele>164</ele>
        <time>2011-06-23T16:58:15Z</time>
      </trkpt>
      <trkpt lat="45.27431" lon="1.41109">
        <ele>164</ele>
        <time>2011-06-23T16:58:16Z</time>
      </trkpt>
      <trkpt lat="45.27425" lon="1.41108">
        <ele>165</ele>
        <time>2011-06-23T16:58:17Z</time>
      </trkpt>
      <trkpt lat="45.27419" lon="1.41106">
        <ele>166</ele>
        <time>2011-06-23T16:58:18Z</time>
      </trkpt>
      <trkpt lat="45.2741" lon="1.41105">
        <ele>171</ele>
        <time>2011-06-23T16:58:20Z</time>
      </trkpt>
      <trkpt lat="45.27404" lon="1.41104">
        <ele>173</ele>
        <time>2011-06-23T16:58:21Z</time>
      </trkpt>
      <trkpt lat="45.27399" lon="1.41103">
        <ele>173</ele>
        <time>2011-06-23T16:58:22Z</time>
      </trkpt>
      <trkpt lat="45.27394" lon="1.41102">
        <ele>173</ele>
        <time>2011-06-23T16:58:23Z</time>
      </trkpt>
      <trkpt lat="45.27389" lon="1.41101">
        <ele>171</ele>
        <time>2011-06-23T16:58:24Z</time>
      </trkpt>
      <trkpt lat="45.27384" lon="1.41099">
        <ele>172</ele>
        <time>2011-06-23T16:58:25Z</time>
      </trkpt>
      <trkpt lat="45.27379" lon="1.41098">
        <ele>174</ele>
        <time>2011-06-23T16:58:26Z</time>
      </trkpt>
      <trkpt lat="45.27374" lon="1.41097">
        <ele>176</ele>
        <time>2011-06-23T16:58:27Z</time>
      </trkpt>
      <trkpt lat="45.27369" lon="1.41095">
        <ele>175</ele>
        <time>2011-06-23T16:58:28Z</time>
      </trkpt>
      <trkpt lat="45.27364" lon="1.41094">
        <ele>175</ele>
        <time>2011-06-23T16:58:29Z</time>
      </trkpt>
      <trkpt lat="45.27359" lon="1.41093">
        <ele>174</ele>
        <time>2011-06-23T16:58:30Z</time>
      </trkpt>
      <trkpt lat="45.27354" lon="1.41091">
        <ele>174</ele>
        <time>2011-06-23T16:58:31Z</time>
      </trkpt>
      <trkpt lat="45.27348" lon="1.4109">
        <ele>175</ele>
        <time>2011-06-23T16:58:32Z</time>
      </trkpt>
      <trkpt lat="45.27342" lon="1.41088">
        <ele>174</ele>
        <time>2011-06-23T16:58:33Z</time>
      </trkpt>
      <trkpt lat="45.27336" lon="1.41087">
        <ele>174</ele>
        <time>2011-06-23T16:58:34Z</time>
      </trkpt>
      <trkpt lat="45.2733" lon="1.41085">
        <ele>172</ele>
        <time>2011-06-23T16:58:35Z</time>
      </trkpt>
      <trkpt lat="45.27324" lon="1.41083">
        <ele>171</ele>
        <time>2011-06-23T16:58:36Z</time>
      </trkpt>
      <trkpt lat="45.27317" lon="1.41082">
        <ele>170</ele>
        <time>2011-06-23T16:58:37Z</time>
      </trkpt>
      <trkpt lat="45.27311" lon="1.4108">
        <ele>169</ele>
        <time>2011-06-23T16:58:38Z</time>
      </trkpt>
      <trkpt lat="45.27305" lon="1.41078">
        <ele>168</ele>
        <time>2011-06-23T16:58:39Z</time>
      </trkpt>
      <trkpt lat="45.273" lon="1.41076">
        <ele>166</ele>
        <time>2011-06-23T16:58:40Z</time>
      </trkpt>
      <trkpt lat="45.27295" lon="1.41075">
        <ele>166</ele>
        <time>2011-06-23T16:58:41Z</time>
      </trkpt>
      <trkpt lat="45.2729" lon="1.41074">
        <ele>164</ele>
        <time>2011-06-23T16:58:42Z</time>
      </trkpt>
      <trkpt lat="45.27286" lon="1.41068">
        <ele>168</ele>
        <time>2011-06-23T16:58:45Z</time>
      </trkpt>
      <trkpt lat="45.27286" lon="1.4106">
        <ele>171</ele>
        <time>2011-06-23T16:58:47Z</time>
      </trkpt>
      <trkpt lat="45.27289" lon="1.41051">
        <ele>173</ele>
        <time>2011-06-23T16:58:49Z</time>
      </trkpt>
      <trkpt lat="45.27292" lon="1.41039">
        <ele>171</ele>
        <time>2011-06-23T16:58:51Z</time>
      </trkpt>
      <trkpt lat="45.27288" lon="1.41033">
        <ele>171</ele>
        <time>2011-06-23T16:58:53Z</time>
      </trkpt>
      <trkpt lat="45.27284" lon="1.41029">
        <ele>172</ele>
        <time>2011-06-23T16:58:55Z</time>
      </trkpt>
    </trkseg>
  </trk>
</gpx>